Awards

  • Commodities
    and Services
  • Construction
  • Professional Technical
    and Advisory
  • Professional Technical and
    Advisory Call-In Lists
  • World Trade Center
    Site
  • Surplus
    Sales
Competitive
Bid (?)
Reference # (?) Description Vendor Name City State Est. Amt (?) Start/ Effective Date End Comments
4600009867/ 36669 Bottled Water, WIM - 2 Yr. Req. Contract W.B. MASON CO, INC. SECAUCUS NJ $53,732 6/6/2014 6/5/2016  
4600009800/35714 Cots, Pillows, Blankets, WIM - 3 Yr Req PRECISE KIT PROMOTIONS INC. RAMSEY NJ $160,745 5/24/2014 5/23/2017  
4600009889/ 35981 NY Painting Services, Rea Estate - 3 Yrs. RIVERDALE PAINTING CORP. FORT LEE NJ $363,975 5/10/2014 5/9/2017  
4600009846/ 36488 Hot Asphalt Pick-up, LGA - 1Yr Requirements WILLETS POINT ASPHALT CORP FLUSHING NY $89,250 5/1/2014 4/30/2015  
4600009769 / 35074 Medical Supplies, WIM - 2 Yrs. Req. Contract EVER READY FIRST AID & MEDICAL BROOKLYN NY $337,677 4/19/2014 4/18/2016  
4600009745 / 35071 Photo, Video, Audio Equip.-1yr req-WIM FOCUS CAMERA LLC BROOKLYN NY $199,498 4/18/2014 4/17/2015  
4600009854/ 35292 Misc. Plow Parts, WIM - 2 Yr Req. Cont BRISTOL-DONALD COMPANY NEWARK NJ $37,682 4/7/2014 4/6/2016  
4600009884/ 36870 Refuse Removal, SEMAC NJ Fac. - 2 Yr. B&B DISPOSALS LLC NEWARK NJ $167,726 4/2/2014 4/1/2016  
4600009882/ 35578 Maintenance ,Emergency Repairs Cooling Towers, EWR - 2 Yr. GEORGE S. HALL, INC. PINE BROOK NJ $338,110 4/1/2014 3/31/2016  
4600009883/ 37092 Machine Sweeping Service, Teleport - 3 Yr. ABCO MAINTENANCE, INC. STATEN ISLAND NY $38,250 4/1/2014 3/31/2017 M/W/SBE / Set Aside
4600009871/ 36767 LGA Bag Belt Veh Arrest, LGA - 1 Yr Req. Contract OXFORD AIRPORT TECHNICAL SERVICES ELMONT NY $265,414 4/1/2014 3/31/2015  
4600009847/ 36118 Locksmith Services - NY Facilities-3 YR DANIEL PEHR, INCORPORATED NEW HYDE PARK NY $303,450 4/1/2014 3/31/2017  
4600009851/ 36497 Refuse Removal/Recylcing, EWR, 2 Yrs GIORDANO COMPANY NEWARK NJ $521,650 4/1/2014 3/31/2016  
4600009798/ 35780 Metal Products, WIM - 2 Yr Req Contract PRAVCO, INC. RAHWAY NJ $112,729 3/31/2014 3/30/2016  
4600009873/ 36800 ON-Call Car Service NJ, All Facilities - 3 Yr Req. Contract EXECUTIVE CHARGE, INC. BROOKLYN NY $261,711 3/25/2014 3/24/2017  
4600009865 Cleaning Services, NYMT / Port Ivory - 3 Yrs M.L. BENJAMIN ENTERPRISES BRONX NY $343,110 3/24/2014 3/23/2017 M/W/SBE Set-Aside (?)
4600009844/ 36196 Lighting Fixtures, WIM - 2 Yr Reqmnts Co TURTLE & HUGHES, INC. LINDEN NJ $167,693 3/23/2014 3/22/2016  
4600009853/ 35292 Misc. Plow Parts, WIM - 2 Yr Req. Contract BEYER BROS. CORP. FAIRVIEW NJ $186,097 3/21/2014 3/20/2016  
4600009855/ 35292 Misc. Plow Parts, WIM - 2 Yr Req. Contract TRIUS, INC. BOHEMIA NY $136,310 3/21/2014 3/20/2016  
4500064914/ 36643 Bearnings, Timken Rail Car, PATH JAMAICA BEARINGS CO., INC. NEW HYDE PARK NY $33,585 3/21/2014 N/A  
4500064902/ 36634 Wheels 33 & 34 Rail Car Items, PATH UTC/RAS INC MORTON PA $113,142 3/14/2014 N/A  
4500064894/ 34652 Emergency Snow Equipment, NJMT RAILROAD CONSTRUCTION COMPANY, INC. PATERSON NJ $28,075 3/13/2014 N/A  
4600009836/ 36286 Passenger Loading Bridges Maintenance and Repair Svs, LGA OXFORD AIRPORT TECHNICAL SERVICES ELMONT NY $84,716 3/12/2014 3/11/2015  
4500064868/ 36692 Wire, Electrical, PATH ELECTRO-WIRE, INC. LEOMINSTER MA $215,705 3/10/2014 N/A  
4500064859/ 36645 Rail Fiberglass Coverboard 6K HCMF, PATH SELCO MANUFACTURING CORPORATION WEST CALDWELL NJ $55,500 3/7/2014 N/A  
4500064850/ 36058 Batteries, Racks, Spil Kits, PATH ALCAD INC. NORTH HAVEN CT $37,338 3/4/2014 N/A  
4500064826 Rail Part Pandrol FastClips, PATH PANDROL USA, LP BRIDGEPORT NJ $30,840 3/3/2014 N/A  
4600009841/ 35711 Rolling Doors/Sliding Gates, PABT - 3 Yrs ATLANTIC ROLLING STEEL DOOR BRONX NY $637,800 3/1/2014 2/28/2017  
4600009785 Security Guards - Multi Facilities - 4 Yrs. SUMMIT SECURITY SERVICES, INC. UNIONDALE NY $136,756,577 3/1/2014 2/28/2018  
4600009828/ 36083 Inspect/Maintain PUBSTs - 3 Yrs.- LGA MAI SERVICE, INC. FARMINGDALE NY $33,670 3/1/2014 2/28/2017  
4600009830/ 36264 Elign Sweeper Parts, WIM - 2 Yr Reqmnts LACAL EQUIPMENT, INC. JACKSON CENTER OH $113,272 3/1/2014 2/29/2016  
4600009777/ 34760 Aeronautical Paint - All Airports - 3 Yrs. SAFETY MARKING, INC. BRIDGEPORT CT $1,884,850 3/1/2014 2/28/2017  
4600009750 / 35327 Buoy Maintenance, LGA -2 yrs. YSI INCORPORATED MARION MA $47,880.00 3/1/2014 2/29/2016  
4500064793/ 36212 Rail Bi-Metallic Composite, HCMF, PATH ATLANTIC TRACK & TURNOUT CO BLOOMFIELD NJ $540,343 2/26/2014 N/A  
4500064822/ 35928 Cembre Pandrol Rail Removal Machine, PATH CEMBRE, INC. EDISON NJ $33,790 2/26/2014 N/A  
4600009801/ 35726 Rags & Towels, PATH - 2 Yr Req. WIPE-TEX INTERNATIONAL CORP. BRONX NY $60,010 2/22/2014 2/21/2016  
4600009829/ 36207 CDL Training, HR SMITH & SOLOMON LINDEN NJ $50,328 2/21/2014 2/20/2017  
4500064802/ 36208 Aircraft Runway Concrete Handholds, EWR COASTAL PIPELINE PRODUCTS CORP CALVERTON NY $102,900 2/20/2014 N/A  
4500064805/ 36206 Aircraft Runway Handhold Frames, EWR BRENT MATERIAL CO FLORHAM PARK NJ $214,200 2/20/2014 N/A  
4600009725 / 35423 Calibration Services, OMS-HR - 3 yrs QUALITY MEDICAL GROUP SOUTH PLAINFIELD NJ $28,710 2/15/2014 2/14/2017  
4600009699 / 34945 Ozzie Juice & Related Items, PATH - 1 Yr Req Contract BLACK & COMPANY INDIANAPOLIS IN $45,200 2/15/2014 2/14/2015  
4600009817 NJ Painting Services, Real Estate - 3 yrs QUALITY PRO PAINTERS LLC HOBOKEN NJ $329,110 2/13/2014 2/12/2017 M/W/SBE Set-Aside (?)
4500064771/ 36153 Timken Bearings, PATH JAMAICA BEARINGS CO., INC. NEW HYDE PARK NY $43,200 2/6/2014 N/A  
4500064781/ 36060 Battery VRLA Remove/Install/Dispose, PATH CRITICAL POWER USA FREDERICK MD $27,160 2/6/2014 N/A  
4500064785/ 35712 Isolation Transformers & Connector Kits, EWR INTEGRO NEW BRITAIN CT $113,616 2/6/2014 N/A  
4600009820/ 35804 Plastic Cement Testing Mold, WIM - 2 Yr Req M.A. INDUSTRIES INC PEACHTREE CITY GA $36,371 2/5/2014 2/4/2016  
4600009697 / 34365 High Voltage Maintenance & Repair, Pt. Jersey - 3 yrs LB ELECTRIC COMPANY., LLC CEDAR GROVE NJ $891,674 2/1/2014 1/31/2017  
4500064770/ 34966 Runway Lighting Fixtures, EWR - Aviation JAQUITH INDUSTRIES, INC. SYRACUSE NY $808,587 1/30/2014 N/A  
4500064751/35288 Electrical Cables 500MCM & 350MCM, JFK WIM WESCO DISTRIBUTION, INC. HAUPPAUGE NY $387,819 1/23/2014 N/A  
4600009799 /36073 CH&RP Maintain and Test, EWR - 3 months REUTER & HANNEY INC. IVYLAND PA $49,935 1/21/2014 4/15/2014  
4500064734/ 35792 Tunnel Timber Ties, PATH A&I EQUIPMENT DEER PARK NY $35,884 1/17/2014 N/A  
4500064741/ 35727 Pump Parts ClydeUnion W&S, PATH PRECISION ELECTRIC MOTOR WORKS, INC CLIFTON NJ $99,043 1/17/2014 N/A  
4600009701/ 34794 Refuse Removal, GWB, LT, HT - 2 yrs B&B DISPOSALS LLC NEWARK NJ $338,460 1/15/2014 1/14/2016  
4600009740 / 35076 Various Batteries, WIM - 2 Yr Req Contract T S C DISTRIBUTING LLC AMARILLO TX $86,732 1/13/2014 1/12/2016  
4600009707/ 34537 Refuse Removal- Multi-facility -2 yrs. ALLEGRO SANITATION CORP. SECAUCUS NJ $154,048 1/13/2014 9/13/2015  
4600009793/ 33842 Drug/Alcohol Testing-OMS-HR - 3 Yrs. TK AND JP MANAGEMENT SERVICE GROUP, LLC JAMAICA NY $911,325 1/10/2014 1/9/2017  
4600009782/ 35836 Redi-Mix Concrete - NY,Operations Services 1-Yr Req. Contract UNIVERSAL READY MIX, INC. GARDEN CITY PARK NY $71,625 1/8/2014 1/7/2015  
4500064715/ 35725 Dowel Bars Baskets Runways - EWR Aviation TURTLE & HUGHES, INC. LINDEN NJ $435,271 1/7/2014 N/A  
4600009762/ 35286 Unmanned Gates Service/Aviation TOTAL AUTOMATION GROUP, INC. TRAFFORD AL $455,906 1/1/2014 12/31/2016  
4500064698/ 34734 Decontamination Trailer 36X8 SEMAC OPS ARAMSCO, INC. RIDGEWOOD NY $71,405 12/31/2013 N/A  
4500064697 / 35818 Battery Cells Electrolyte HCMF SAFT AMERICA, INC. COCKEYSVILLE MD $35,688 12/27/2013 N/A  
4600009765/ 35488 Sanitary Line Cleaning-JFK-3 Years CLEAN VENTURE, INC. ELIZABETH NJ $773,350 12/25/2013 12/24/2016  
4600009637 Cafeteria Suppies, WIM - 2 Yr Req Contract WESTBROOK MARKETING LLC BUCHANAN NY $361,479.42 12/23/2013 12/22/2015  
4500064652/ 35580 Electrical Switch Gear JFK-22R JFK TURTLE & HUGHES, INC. LINDEN NJ $358,900 12/20/2013 N/A  
4500064682/ 35498 Electrical Cable Connectors ADAMS ELECTRIC SALES JERSEY CITY NJ $156,555 12/20/2013 N/A  
4600009753 / 35393 Refuse Removal, PABT-2 Yrs ACCELERATED WASTE SYSTEMS, INC. SECAUCUS NJ $384,260.00 12/19/2013 12/18/2015  
4500064673/ 34871 Batteries, Racks and Kits PATH GLOBE ELECTRIC SUPPLY COMPANY, INC. HOUSTON TX $35,670 12/17/2013 N/A  
4600009632 Police Lockers, WIM - 2 Yr Req Contract SNAPPY SOLUTIONS, INC EAST HAMPTON NY $184,170.20 12/15/2013 12/14/2015 M/W/SBE Set-Aside (?)
4600009633 Pavement Cutter, WIM - 1 Yr Req Contract CRAFCO, INC CHANDLER AZ $125,734.00 12/13/2013 12/12/2015  
4500064630 / 35288 Electrical Fire Pump Control NJMT TURTLE & HUGHES, INC. LINDEN NJ $41,105.00 12/11/2013 N/A  
4600009739 / 34448 HVAC Systems Control, Maint & Repair, EWR - 2 yrs A.M.E. INCORPORATED FAIRFIELD NJ $883,222 12/10/2013 12/9/2015  
4500064638 / 35305 Thermoplastic Pavement Marking Truck-CAD M-B COMPANIES, INC. OF WISCONSIN MONTGOMERY PA $162,012.00 12/9/2013 N/A  
4600009744 / 35053 Lease Duplex Trailer, PAPD - 4 yrs WILLIAMS SCOTSMAN KEARNY NJ $96,558 12/5/2013 12/4/2017  
4500064632 / 35430 Genie Scissor Lift, PATH UNITED RENTALS, INC. BRIDGEPORT CT $27,161 12/3/2013 N/A  
4600009723 / 35225 Refuse Removal, LGA - 2 yrs TULLY ENVIRONMENTAL, INC. FLUSHING NY $333,436 12/1/2013 11/30/2015  
4600009709 / 34915 Portable Toilets, LGA - 3 yrs CALL-A-HEAD CORPORATION BROAD CHANNEL NY $196,463 12/1/2013 11/30/2016  
4500064575 / 34866 Aviation Ground PCA and GPU Units, EWR HOBART GROUND POWER PALMETTO FL $418,078 11/20/2013 N/A  
4600009589 Hand Tools, WIM - 2 Yr Req Contract COLONIAL HARDWARE CORP. SPRINGFIELD NJ $1,073,263 11/14/2013 11/13/2015  
4600009700 / 35031 Towel, WIM - 2 Yr Req Contract A&B WIPER SUPPLY, INC. PHILADELPHIA PA $30,512 11/8/2013 11/7/2015  
4500064548 / 34976 Window Panes, PATH LAIRD PLASTICS EDISON NJ $27,384 11/6/2013 N/A  
4600009698 / 34907 Snow Plow Blades & Misc, WIM - 2 Yr Req Contract FORTBRAND SERVICES, INC. PLAINVIEW NY $111,656 11/5/2013 11/4/2015  
4500064547 / 34976 Window Panes, PATH NASG HOLDING, INC. TRUMBAUERSVILLE PA $131,448 11/1/2013 N/A  
4600009692 / 34290 Silica Sand, EWR, TEB - 3 Yr Req Contract HOLLISTON SAND COMPANY, INC. SLATERSVILLE RI $180,823 11/1/2013 10/31/2016  
4600009694 / 34290 Silica Sand, NY Airports - 3 Yr Req Contract HOLLISTON SAND COMPANY, INC. SLATERSVILLE RI $602,257 11/1/2013 10/31/2016  
4600009680 Cleaning Services- 3YRS - Holland Tunnel UNITED SERVICES INC. KEARNY NJ $995,684 11/1/2013 10/31/2016 M/W/SBE Set-aside
4600009671 / 34048 Ice-Melt Products, PATH - 6 Mos. Req Contract CIRCLE JANITORIAL SUPPLY, INC. PATERSON NJ $100,200 11/1/2013 4/30/2014  
4600009663 Bldg Maintenance Services, Teleport / Bathgate - 2 yrs AUSTRAL CONSTRUCTION, INC. MONTVALE NJ $941,122 11/1/2013 10/31/2015 M/W/SBE Set-Aside (?)
4600009650 Crash Barriers, WIM - 2 Yr Req Contract TRANSPO INDUSTRIES, INC. NEW ROCHELLE NY $290,826.00 11/1/2013 10/31/2015  
4600009616 Snow Removal Services, EWR - 3 yrs AERO SNOW REMOVAL CORP. PORT WASHINGTON NY $11,248,672 11/1/2013 10/31/2016  
4600009684 / 33948 Potassium Acetate, All Airports - 3 Yr Req Contract GENERAL ATOMICS INTERNATIONAL SERVICES CORPORATION D/B/A CRYOTECH DEICING TECHNOLOGY FORT MADISON IA $8,104,915 11/1/2013 10/31/2016  
4600009685 / 33948 Potassium Acetate, All Airports - 3 Yr Req Contract - Secondary Supplier COMPASS CHEMICAL INTERNATIONAL, LLC SMYRNA GA $1,126,518 11/1/2013 10/31/2016  
4600009686 / 33949 Propylene Glycol/Potassium Acetate, JFK - 3 Yr Req Contract CLARIANT CORPORATION MT. HOLLY NC $2,047,500 11/1/2013 10/31/2016  
4500064475 / 34667 Electrical Components CB Traction, PATH MYERS CONTROLLED POWER LLC NORTH CANTON OH $58,754 10/22/2013 N/A  
4500064511 / 35034 Pumps and Motors Repairs, LGA JR ENGINEERING & MACHINE HILLSIDE NJ $36,600 10/17/2013 N/A  
4500064488 / 34796 Chevron Spring for PATH PA-4 Railcars BOMBARDIER MASS TRANSIT CORP. MISISSAUGA ON $213,830 10/15/2013 N/A  
4500064500 / 34770 Air Spring Assembly for PATH PA-4 and PA-5 Railcars BBA PROJECT, INC. RUNNEMEDE NJ $186,840 10/15/2013 N/A  
4600009504 Lighting Fixtures, PATH - 1 Yr Req Contract LUMINATOR HOLDING LP PLANO TX $54,125.24 10/15/2013 10/14/2014  
4600009676 / 34803 Clean & Refuse Removal, Sewer, PATH - 3 yrs CLEAN VENTURE, INC. ELIZABETH NJ $137,865 10/12/2013 10/11/2016  
4500064462 / 33128 Track Turnouts & Crossovers, PATH CLEVELAND TRACK MATERIAL, INC. CLEVELAND OH $1,588,312 10/9/2013 N/A  
4500064446 / 34525 Airless Pavement Marking Equipment, EWR-CAD TRANTEX TRANSPORTATION HOUSTON TX $107,908 10/3/2013 N/A  
4500064461 / 34737 Digitrac Cabinet, Crouse Hinds, JFK LOUIS SHIFFMAN ELECTRIC BROOKLYN NY $65,305 10/2/2013 N/A  
4500064449 / 34731 Bowie 110 Hydro-Mulcher, LGA-CAD NORTHEAST BOWIE SALES LLC WHITEHOUSE NJ $52,175 10/1/2013 N/A  
4600009658 / 33910 Fire Alarm Maintenance, Central Station Monitoring, NJMT - 3 yrs AFA PROTECTIVE SYSTEMS, INC. SYOSSET NY $532,004 10/1/2013 9/30/2016  
4600009664 / 34100 Refuse Removal, SEMAC NY - 2 yrs IESI NY CORPORATION NEW YORK NY $140,450 9/30/2013 9/29/2015  
4500064443 Re-bid, Electrical Items, WIM KEER ELECTRICAL SUPPLY COMPANY NEWARK NJ $37,931 9/24/2013 N/A  
4600009649 Electrical Maint Lift Stations, EWR - 3 yrs EAST-WEST ELECTRICAL CONTRACTORS, INC. BERGENFIELD NJ $483,102.00 9/15/2013 9/14/2016  
4600009639 Vests, Safety & Security, PATH - 2 Yr Req Contract ABEL UNLIMITED INC. RIVIERA BEACH FL $74,195.50 9/14/2013 9/13/2015  
4500064419 Deliver and Install Couplings on Hoses, HT GLOBAL PUMP COMPANY LLC DAVISON MI $86,033.00 9/12/2013 N/A  
4500064421 Generator Light Towers, WIM-JAMS EVERGREEN SPECIALTY SERVICES COMMACK NY $80,976.00 9/6/2013 N/A  
4500064418 Flood Barriers Hurricane/Storms Prep 2013 LAYFIELD ENVIRONMENTAL SYSTEMS SPRING VALLEY CA $96,760.00 9/5/2013 N/A  
4600009635 General Hardware, WIM - 2 Yr Req Contract COLONIAL HARDWARE CORP. SPRINGFIELD NJ $706,888.80 9/5/2013 9/4/2015  
4600009647 Rental of Mechanical Street Sweeper, CAD - 3 yrs LONG ISLAND SANITATION EQUIP. CO. FARMINGDALE NY $748,842.00 9/5/2013 9/4/2016  
4600009628 Blow Mulch Services, EWR - 2 Yr Req Contract DOWNES TREE SERVICE HAWTHORNE NJ $28,200.00 9/3/2013 9/2/2015  
4600009622 Service Agreement, Lenel & Verint - 3 yrs DIEBOLD INCORPORATED ELMSFORD NY $448,178 9/1/2013 8/13/2016  
4600009643 Emergency Fuel, PA Facilities, COO/CAD - 1 yr FLYNN ENERGY TRANSPORT INC. TOWANDA PA $650,127.50 9/1/2013 8/31/2014  
4600009631 Refuse Removal at JFK, Section 1 - 2 yrs REGENCY RECYCLING CORP. ROSEDALE NY $813,819.92 9/1/2013 8/31/2015  
4600009636 Refuse Removal at JFK, Section 2 - 2 yrs ROYAL WASTE SERVICES, INC. HOLLIS NY $94,800.00 9/1/2013 8/31/2015  
4600009638 Federal Drug Testing, HRD OMS - 3 yrs QUEST DIAGNOSTICS CLINICAL LABORATORIES, INC COLLEGEVILLE PA $136,883.10 9/1/2013 8/31/2016  
4600009640 In-House Drug Testing, HRD OMS - 3 yrs QUEST DIAGNOSTICS CLINICAL LABORATORIES, INC COLLEGEVILLE PA $137,391.90 9/1/2013 8/31/2016  
4600009595 HVAC Filter Services, JFK - 3 yrs LAURAB INCORPORATED CLIFFWOOD NJ $118,237 9/1/2013 8/31/2016  
4600009594 Machine Sweeping Services, EWR - 3 yrs CRISTI CLEANING SERVICE CORPORATION HACKENSACK NJ $679,600 9/1/2013 8/31/2016 M/W/SBE Set-Aside (?)
4500064400 Traffic Control Material, WIM MARBELITE COMPANY, INC. MANASQUAN NJ $62,851.00 8/30/2013 N/A  
4600009599 Roadway Shoulder Stone, NJMT -3 Yr Req Contract WELDON ASPHALT WESTFIELD NJ $56,925 8/30/2013 8/26/2016  
4500064392 Towable Light Towers, CAD UNITED RENTALS (NORTH AMERICA), INC. RIDGEFIELD PARK NJ $219,000.00 8/28/2013 N/A  
4600009630 Bulk Concrete, NJMT - 3 Yr Req Contract WELDON MATERIALS, INC. WESTFIELD NJ $131,612.00 8/27/2013 8/26/2016  
4500064366 Electrical Cable 2-1/C #8 5 Kv, EWR Aviation MONTANA DATACOM LONG ISLAND CITY NY $294,750.00 8/26/2013 N/A  
4500064370 Electrical Cable 6 AWG, EWR Aviation TURTLE & HUGHES, INC. LINDEN NJ $68,250.00 8/26/2013 N/A  
4500064364 Sound Enclosure GLOBAL PUMP COMPANY LLC DAVISON MI $54,000 8/21/2013 N/A  
4600009597 Ice-Melt Products, WIM - 1 Yr Req Contract CIRCLE JANITORIAL SUPPLY, INC. PATERSON NJ $101,177 8/16/2013 8/15/2014  
4600009592 Disposal of Rail Ties, PATH - 3 yrs EAST COAST RAILROAD SERVICES, LLC NEW WINDSOR NY $87,010 8/15/2013 8/14/2016  
4500064329 Various Generators - Various Facilities FOLEY, INCORPORATED PISCATAWAY NJ $43,000 8/13/2013 N/A  
4600009591 Landscaping Svs, NJMT - 3 yrs L.J.'S LAWN MAINTENANCE, INC. STATEN ISLAND NY $234,916 8/12/2013 8/11/2016  
4600009586 UPS Maint/Repair, EWR - 3 yrs WEISSCO SOLUTIONS LLC CALIFON NJ $89,379 8/12/2013 8/11/2016  
4500064326 Various Generators for Various Facilities MODERN GROUP POWER SYSTEMS EDISON NJ $254,400 8/9/2013 N/A  
4500064316 Various Generators for Various Facilities CUMMINS POWER SYSTEMS, LLC NEWARK NJ $481,750 8/8/2013 N/A  
4500064304 Various Generators for Various Facilities PENN-JERSEY MACHINERY-SOMERVILLE SOMERVILLE NJ $865,890 8/5/2013 N/A  
4500064312 Various Generators for Various Facilities NORTH SHORE GENERATOR SYSTEMS, INC. MEDFORD NY $363,875 8/5/2013 N/A  
4500064313 Various Generators for Various Facilities CUMMINS POWER SYSTEMS, LLC NEWARK NJ $814,580 8/5/2013 N/A  
4500064283 Nissan NV3500 S Passenger Vans, CAD HUDSON NISSAN CORP. JERSEY CI Y NJ $62,924 8/5/2013 N/A  
4500063765 TEB - Runway 24 EMAS Wetland Mitigation KANE MITIGATION, LLC SACRAMENTO CA $14,850,000 12/20/2012 NA
4600009174 / 29737 Photographic Equip, WIM - 2 Yr Reqmnts Contract FOCUS CAMERA LLC BROOKLYN NY $290,738 12/18/2012 12/17/2013  
4600009150 / 29443 X-Ray Maintenance, OMS - 3 Yr Reqmnts Contract MED-X-RAY COMPANY INC EAST ORANGE NJ $37,187 12/1/2012 11/30/2015  
4600009181 / 30080 Holiday Lights, WIM - 2 Yr Reqmnts Contract AMERICAN LIGHTING, INC. DENVER CO $51,854 11/29/2012 11/28/2014  
4600009199 / 30204 Ice-Melt Products, PATH - 6 Mo. Reqmnts Contract REED & PERRINE SALES, INC. TENNENT NJ $46,300 11/1/2012 4/30/2013  
4600009048 / 28474 Air Filters, PATH - 1 Yr Reqmnts Contract NATIONAL AIR FILTER SERVICE COMPANY CARLSTADT NJ $38,334 11/1/2012 10/31/2013  
4600009180 / 30084 Concrete, Anti-Freeze, LGA - 2 Yr Reqmnts Contract UNIVERSAL READY MIX, INC. GARDEN CITY PARK NY $63,775 10/1/2012 9/30/2014  
4500063498 / 29208 TEB Runway 24 EMAS Wetland Mitigation GREENVEST, LLC ANNAPOLIS MD $2,870,000 9/5/2012 NA
4600009201 / 30212 Refuse Disposal, PATH NJ - 2 yrs B AND B DISPOSALS LLC NEWARK NJ $338,000 9/15/2012 9/14/2014  
4600009184 / 29997 Rental of Compressors, CAD - 2 Yr Reqmnts Contract HERTZ EQUIPMENT RENTAL CORP. NEWARK NJ $360,190 9/1/2012 8/31/2014  
4600009195 Cleaning Services, GWB - 3 yrs BRADFORD & BYRD ASSOC, INC. FREEHOLD NJ $1,568,586 9/1/2012 8/31/2015 M/W/SBE Set-Aside (?)
4600009183 / 29574 Drug, Alcohol Testing, OMS - 3 yrs JFK ADVANCED MEDICAL, PC JAMAICA NY $794,664 9/1/2012 8/31/2015  
4600009178 / 29654 Fence Repair Svcs, NJMT - 3 Yr Reqmnts Contract GUARDIAN FENCE CO. INC. NEWARK NJ $491,751 8/29/2012 8/28/2015  
4500063448 / 30210 DC/AC Wall Mount Inverter, PATH MYERS POWER PRODUCTS, INC. BETHLEHEM PA $40,432 8/23/2012 N/A  
4500063453 / 30199 PHILIPS ColorReach Lighting, JFK WIM L.B. ELECTRIC SUPPLY CO., INC. BROOKLYN NY $34,430 8/22/2012 N/A  
4600009185 / 30078 Pest Control Svs, JFK - 3 yrs PREDATOR PEST CONTROL INC. HOWARD BEACH NY $81,000 8/20/2012 8/19/2015  
4600009059 / 28651 Generator Maintenance, Teleport - 3 yrs FOLEY, INCORPORATED PISCATAWAY NJ $71,770 8/15/2012 8/14/2015  
4500063439 / 29422 Lamps, Sodium, LT MONARCH ELECTRIC COMPANY WEST CALDWELL NJ $46,500 8/13/2012 N/A  
4500063436 / 30042 Rigid Wire Containers, PATH CHACA EQUIPMENT COMPANY ROSENDALE NY $52,895 8/10/2012 N/A  
4600009056 / 28338 Fencing and Related Parts - 2 Yr Reqmnts Contract GUARDIAN FENCE CO. INC. NEWARK NJ $274,837 6/10/2012 6/9/2014  
RFP (?)
Reference # (?) Description Vendor Name City State Est. Amt (?) Start/ Effective Date End Comments
4600009721 Security Audit Services, Aviation A-T SOLUTIONS INC. FREDERICKSBURG VA $6,584,328 12/15/2013 12/14/2018  
Govt (?)
Reference # (?) Description Vendor Name City State Est. Amt (?) Start/ Effective Date End Comments
4600009819 Trash Liners, PATH - 2 Yr Req STAR POLY BAG, INC. BROOKLYN NY $75,836 5/1/2014 4/30/2016  
4600009780 Gas Monitors/Part WIM 3YR Req. Contract Proc. BOMARK INSTRUMENTS, INC. RIVERDALE NJ $70,631 5/1/2014 4/30/2017  
4600009860 Audit Services, COO/Office Env. & Energy - 2 Yr. Req. Contract TROY & BANKS INC BUFFALO NY $800,000 4/15/2014 4/14/2016  
4600009880 Nuvera 144 EA System 60 Month Lease, OPS XEROX CORPORATION MORRIS PLAINS NJ $189,877 4/1/2014 3/31/2019  
4500064640 Work Boats With Trailer, CAD BRUNSWICK COMM. & GOV. PRODUCTS EDGEWATER FL $990,439 3/25/2014 N/A  
4500064843 CNG Bi-Fuel Service Trucks, CAD GABRIELLI TRUCK SALES JAMAICA NY $236,503 3/25/2014 N/A  
4500064912 Diesel Flo Dump Body w/Plow, CAD GABRIELLI TRUCK SALES JAMAICA NY $3,845,045 3/25/2014 N/A  
4600009868 Mack Truck, CAD - 4 Yr Req Contract GABRIELLI TRUCK SALES JAMAICA NY $208,800 3/20/2014 3/19/2018  
4600009862 HT Goethals Elev Maint Rep, TB&T - 3 Yr. Req. Contract SLADE INDUSTRIES, INC. MOUNTAINSIDE NJ $576,175 3/14/2014 3/13/2017  
4600009864 Elevator Maint, TB&T - 3 Yr. Req. Contract KONE, INC. LONG ISLAND CITY NY $419,757 3/14/2014 3/13/2017  
4600009748 MSA Mask- 2YR. Req. Contract-WIM ARAMSCO, INC. RIDGEWOOD NY $493,239 3/3/2014 3/2/2016  
4600009708 Pump Compressor & Access, WIM - 2 Yr Req. W.W. GRAINGER, INC. MASPETH NY $152,591 3/1/2014 2/29/2016  
4600009832 EZ Pass Collection Services, TB&T - 1Yr IQOR ALLIED INTERSTATE MINNEAPOLIS MN $1,270,957 2/28/2014 2/27/2015  
4600009833 A/V Equipment, Public Safety TROXELL COMMUNICATIONS INC. BRONX NY $41,814 2/24/2014 2/23/2017  
4600009726 Training Services, HR CPS HUMAN RESOURCE SERVICES, JPA SACRAMENTO CA $856,367 2/1/2014 1/31/2019  
4600009805 Bulk Rock Salt, PATH - 1Yr Req Contract INTERNATIONAL SALT COMPANY LLC CLARKS SUMMIT PA $27,043 2/1/2014 1/31/2015  
4600009806 Bulk Rock Salt, GWB -1Yr Req Contract INTERNATIONAL SALT COMPANY LLC CLARKS SUMMIT PA $100,000 2/1/2014 1/31/2015  
4600009807 Bulk Rock Salt, HT - 1Yr Req Contract INTERNATIONAL SALT COMPANY LLC CLARKS SUMMIT PA $75,000 2/1/2014 1/31/2015  
4600009808 Bulk Rock Salt, LT - 1Yr Req Contract INTERNATIONAL SALT COMPANY LLC CLARKS SUMMIT PA $100,000 2/1/2014 1/31/2015  
4600009809 Bulk Rock Salt, EWR - 1Yr Req Contract INTERNATIONAL SALT COMPANY LLC CLARKS SUMMIT PA $175,000 2/1/2014 1/31/2015  
4600009810 Bulk Rock Salt, SWF - 1 Yr Req Contract INTERNATIONAL SALT COMPANY LLC CLARKS SUMMIT PA $50,000 2/1/2014 1/31/2015  
4600009811 Bulk Rock Salt, PN - 1Yr Req Contract INTERNATIONAL SALT COMPANY LLC CLARKS SUMMIT PA $100,000 2/1/2014 1/31/2015  
4600009812 Bulk Rock Salt, JFK - 1 Yr Req Contract ATLANTIC SALT, INC. LOWELL MA $400,000 2/1/2014 1/31/2015  
4600009813 Bulk Rock Salt, LGA - 1 Yr Req Contract ATLANTIC SALT, INC. LOWELL MA $100,000 2/1/2014 1/31/2015  
4600009814 Bulk RockSalt, NYMT1 Yr Req Contract ATLANTIC SALT, INC. LOWELL MA $30,000 2/1/2014 1/31/2015  
4600009815 Bulk Rock Salt, SIB - 1 Yr Req Contract ATLANTIC SALT, INC. LOWELL MA $90,000 2/1/2014 1/31/2015  
4600009802 Radio Replacement Parts, OPS - 5 Yr Req MOTOROLA SOLUTIONS, INC. BORDENTOWN NJ $400,000 2/1/2014 1/31/2019  
4600009797 Paint and Related, WIM - 1 Yr Req Contract THE SHERWIN-WILLIAMS COMPANY EDISON NJ $173,509 1/31/2014 1/30/2015  
4600009796 Glass Beads - 1Yr. Req.Contract - WIM WEISSKER MANUFACTURING, LLC CARBONDALE PA $58,000 1/26/2014 1/25/2015  
4500064748 Hot Asphalt Pick-up - SEMAC JOCAR ASPHALT D/B/A RASON MATERIALS OLD BETHPAGE NY $38,732 1/22/2014 N/A  
4500064739 Lifts and Forks, JFK, CAD HOFFMAN SERVICES, INC NEWARK NJ $64,023 1/14/2014 N/A  
4500064736 Tunnel Power Washing, LT KEN BARLOW CLEANING SERVICES MECHANICSVILLE VA $59,888 1/13/2014 N/A  
4600009795 Recruitment Services -HR THE HR SOURCE, INC. LANDOVER MD $1,500,000 1/10/2014 1/9/2016  
4600009783 Electrical Lamps/Bulbs 2 Yr. Req. WIM GRAINGER MASPETH NY $622,546 1/6/2014 1/5/2016  
4500064689 X-Ray Machine-HR-OMS ALPHA MEDICAL EQUIPMENT NEW ROCHELLE NY $114,812 1/2/2014 N/A  
4600009816 Audiolog Recording Sys Support, OPS Svcs - 1 Yr Req Contract KOVA CORPORATION Manahawkin NJ $348,072 1/1/2014 12/31/2014  
4600009760 Courier Service - All Facilities - 1 Yr. UNITED PARCEL SERVICE, INC (UPS) LOUISVILLE KY $500,000 1/1/2014 12/31/2014  
4500064680 Chevrolet Equinox LS AWD - CAD NORTHWEST HILLS CHEVROLET TORRINGTON CT $1,380,673 12/31/2013 N/A  
4300002141 Transformer Repair SUB#14 - PATH DYNAPOWER COMPANY SOUTH BURLINGTON VT $399,000 12/31/2013 N/A Emergency
4500064703 CNG Bi-Fuel Service Trucks - CAD GABRIELLI TRUCK SALES JAMAICA NY $5,741,209 12/30/2013 N/A  
4300002142 Door Repair - PABT CITY-GATES COLLEGE POINT NY $61,450 12/31/2013 N/A Confirmatory
4600009767 File Cabinets - 2YR REQ. CONTR.-WIM INSCAPE CORPORATION HOLLAND LANDING ON $203,975 2/5/2014 2/4/2016  
4600009766 Lease of Mobile Office Trailer & Locker WILLIAMS SCOTSMAN KEARNY NJ $43,861 1/13/2014 1/12/2016  
4600009783 Electrical Lamps/Bulbs 2 Yr. Req. WIM GRAINGER MASPETH NY $622,546 1/6/2014 1/5/2016  
4500064689 X-Ray Machine-HR-OMS ALPHA MEDICAL EQUIPMENT NEW ROCHELLE NY $114,812 1/2/2014 N/A  
4600009746 Automotive Parts, CAD - 3 Yr Req Contract SAMUELS, INC JERSEY CITY NJ $500,000 1/1/2014 12/31/2016  
4600009666 3 yr.Training Program, HR NEWPOINT STRATEGIES LLC MCLEAN VA $1,475,000 1/1/2014 12/31/2016  
4600009691 Armored Car Svcs, PATH/Treasury - 1 Yr Req Contract BRINK'S, INCORPORATED BROOKLYN NY $120,000 1/1/2014 12/31/2014  
4500064680 Chevrolet Equinox LS AWD - CAD NORTHWEST HILLS CHEVROLET TORRINGTON CT $1,380,673 12/31/2013 N/A  
4500064703 CNG Bi-Fuel Service Trucks - CAD GABRIELLI TRUCK SALES JAMAICA NY $5,741,209 12/30/2013 N/A  
4500064692 Radio Communications Equip. and Accessor MOTOROLA SOLUTIONS, INC. BORDENTOWN NJ $42,266 12/26/2013 N/A  
4500064646 CAM Trailer - LGA -CAD GANO'S POWER EQUIPMENT, LLC COLCHESTER CT $28,748 12/23/2013 N/A  
4500064686 Oshkosh Snow Blowers - CAD BEYER BROS. CORP. FAIRVIEW NJ $4,644,929 12/23/2013 N/A  
4500064687 Radio Installation - COMSEG BEYER FLEET, LLC EAST HANOVER NJ $134,517 12/23/2013 N/A  
4500064681 Radio Wiring - COMSEG GENERAL SALES ADMINISTRATION, INC. KENVIL NJ $76,817 12/19/2013 N/A  
4500064649 ARFF Crew Response Trucks - CAD GABRIELLI TRUCK SALES JAMAICA NY $398,205 12/17/2013 N/A  
4500064675 Kodak 9090DC Scanners - OSEC EDAC SYSTEMS, INC. FREDERICKSBURG VA $48,752 12/17/2013 N/A  
4500064676 Kodak 9090DC Scanners - LAW EDAC SYSTEMS, INC. FREDERICKSBURG VA $44,042 12/17/2013 N/A  
4500064641 CNG Rack Body Trucks-CAD GABRIELLI TRUCK SALES JAMAICA NY $1,301,863 12/16/2013 N/A  
4500064650 Airport Runway Electrical Maintaince Tru GABRIELLI TRUCK SALES JAMAICA NY $259,985 12/16/2013 N/A  
4500064660 Lenel Product - PATH DIEBOLD INCORPORATED ELMSFORD NY $26,024.70 12/11/2013 N/A  
4500064560 Transit XL Vans - Ops. BEYER FORD, L.L.C. MORRISTOWN NJ $68,460.28 12/9/2013 N/A  
4600009737 Elevator Maintenance, Teleport & BIP - 3 yrs KONE, INC. LONG ISLAND CITY NY $114,506 12/2/2013 12/1/2016  
4500064577 Explosive Detection Equip, Public Safety SMITHS DETECTION DANBURY CT $631,332 12/2/2013 N/A  
4600009848 Chiller Maintenance Requirement, PABT - 3 Yr JOHNSON CONTROLS, INC. NEW YORK NY $99,640 12/1/2013 11/30/2016  
4600009747 Scanner Maint, Law Dept - 1 yr DOCUMENT CONVERSION ASSOCIATES, INC LEBANON NJ $25,655 12/1/2013 11/30/2014  
RPROPERT1 On-Line Auctioning, Procurement - 3 yrs PROPERTYROOM.COM INC. MISSION VIEJO CA $150,000 12/1/2013 11/30/2016  
4600009730 Uniform Rental / Purchase, WIM - 13 Month Req Contract CLEAN RENTAL SERVICES, INC. PHILADELPHIA PA $1,500,000 12/1/2013 12/31/2014  
4600009712 Color PlotWave 900 Lease, Ops Svs - 5 yrs CANON SOLUTIONS AMERICA, INC. CHICAGO IL $317,640 11/18/2013 11/17/2018  
4600009717 ColorWave 650 Lease, WTC Construction - 5 yrs CANON SOLUTIONS AMERICA, INC. CHICAGO IL $168,600 11/18/2013 11/17/2018  
4600009711 Psychological Examinations, OMS-HR COMPREHENSIVE HEALTH SERVICES, INC. CAPE CANAVERAL FL $499,315 11/15/2013 2/7/2014  
4600009714 Physical Examinations, OMS-HR COMPREHENSIVE HEALTH SERVICES, INC. CAPE CANAVERAL FL $498,193 11/15/2013 2/7/2014  
4500064552 Armored Vehicles, CAD LENCO INDUSTRIES INC. PITTSFIELD MA $1,787,792 11/14/2013 N/A  
4600009706 Access Security Smart Cards, WIM - 2 Yr Req Contract GIESECKE & DEVRIENT AMERICA, INC. DULLES VA $283,500 11/12/2013 11/11/2015  
4500064556 Radio Communications Equip and Accessories MOTOROLA SOLUTIONS, INC. BORDENTOWN NJ $317,859 11/6/2013 N/A  
4500064557 TSI Monitors and Related Equip TSI INCORPORATED SHOREVIEW MN $28,106 11/6/2013 N/A  
4600009682 Diesel Oil (ULSD), PATH - 1 Yr Req Contract NATIONAL TERMINAL, INC. NEWARK NJ $100,000 11/1/2013 10/31/2014  
4600009683 Armored Car Services, Treasury/Airports - 1 Yr Req Contract BRINK'S, INCORPORATED BROOKLYN NY $95,000 11/1/2013 10/31/2014  
4600009689 Generators - 1 Yr Req Contract GKY INDUSTRIES JERSEY CITY NJ $230,888 10/25/2013 10/24/2014  
4600009675 Electrical Items, PATH - 2 Yr Req Contract LOUIS SHIFFMAN ELECTRIC BROOKLYN NY $1,307,467 10/20/2013 10/19/2015  
4500064512 Uniforms, PATH - 1 Yr Req Contract THIS & THAT UNIFORMS PLEASANTVILLE NJ $235,000 10/18/2013 N/A  
4500064448 Police Caprice, Ops Svs CAD NORTHWEST HILLS CHEVROLET TORRINGTON CT $410,814 10/17/2013 N/A  
4500064464 Light Duty Police Rescue Truck, PATH-CAD EMERGENCY VEHICLE, INC. LAKE PARK FL $192,799 10/10/2013 N/A  
4600009670 Hilti Parts & Supplies, WIM - 2 Yr Req Contract HILTI, INC. TULSA OK $151,001 10/9/2013 10/8/2015  
4600009668 Auto Lightbars & Accessories, WIM - 19 mos. GENERAL SALES ADMINISTRATION, INC. KENVIL NJ $1,243,465 10/8/2013 10/7/2015  
4600009618 Drainzall 40 Citrus, WIM - 2 Yr Req Contract MIRANDY PRODUCTS, LTD. HEMPSTEAD NY $69,587 12/23/2013 12/22/2015  
4600009590 All-purpose Cleaner, PATH - 2 Yr Req Contract NOBLE SALES COMPANY INC. ROCKLAND MA $26,820 11/14/2013 11/13/2015  
4600009614 ULSD Diesel Fuel, EWR - 2 Yr Req Contract ALLIED OIL, LLC MANVILLE NJ $1,000,000.00 11/1/2013 10/31/2015  
4600009648 Fasteners, PATH - 3 Yr Req Contract GKY INDUSTRIES JERSEY CITY NJ $834,020.01 10/12/2013 10/11/2016  
4500064463 Yukon XL, Opns Svs-CAD BEYER BROS. CORP. FAIRVIEW NJ $802,020 10/3/2013 N/A  
4600009652 Radio Parts, Radio Shop-PATC - 3 Yr Req Contract EASTERN COMMUNICATIONS, LTD. LONG ISLAND CITY NY $340,000.00 10/2/2013 10/1/2016  
4600009667 Xerox Pool Plan, Opns Svs - 1 yr XEROX CORPORATION MORRIS PLAINS NJ $100,184 10/1/2013 9/30/2014  
4500064453 Submersible Pumps for PABT FLEET PUMP & SERVICE GROUP, INC. HARRISON NY $37,853 9/26/2013 N/A  
4600009585 Traffic Cones, WIM - 2 Yr Req Contract WORK AREA PROTECTION CORP. SAINT CHARLES IL $492,449 9/20/2013 9/19/2015  
4600009662 OPRG(E) Regular Gasoline - 1 Yr Req Contract UNITED METRO ENERGY CORP. BROOKLYN NY $1,500,000 9/20/2013 9/18/2014  
4600009660 Air-Flo Products, CAD - 3 Yr Req Contract TRIUS, INC. BOHEMIA NY $362,600 9/20/2013 9/19/2016  
4600009657 Jackets, Double Duty, Public Safety ATLANTIC TACTICAL OF NEW JERSEY, INC. SOMERSET NJ $53,000.00 9/16/2013 9/15/2016  
4600009654 ProCard Program, Procurement - 3 yrs FIA CARD SERVICES CRANFORD NJ $28,000,000 9/15/2013 8/7/2016  
4500064410 Radio Communications Equipment and Accessories MOTOROLA SOLUTIONS, INC. BORDENTOWN NJ $253,405.20 9/3/2013 N/A  
4600009629 Radio Equip & Parts, Wim - 2 Yr Req Contract EASTERN COMMUNICATIONS, LTD. LONG ISLAND CITY NY $1,102,757.35 9/1/2013 8/31/2015  
4600009621 Xerox IGen4 Maintenance, Opns Svs - 1 yr XEROX CORPORATION MORRIS PLAINS NJ $107,065.24 9/1/2013 8/31/2014  
4600009645 Car Rental Service, CAD - 2 Yr Req Contract ELRAC , LLC WAYNE NJ $500,000.00 9/1/2013 8/31/2015  
4600009619 Xerox IGen4 Lease, Opns Svs - 6 yrs XEROX CORPORATION MORRIS PLAINS NJ $713,656 9/1/2013 8/31/2019  
4500064402 Firefighter Protective Clothing, PATC TURN OUT FIRE & SAFETY, INC. JERSEY CITY NJ $29,603.36 8/30/2013 N/A  
4500064384 Physical Fitness Equipment, PATC PSPD LIFE FITNESS, A DIVISION OF BRUNSWICK CORPORATION SCHILLER PARK IL $40,679.22 8/27/2013 N/A  
4600009624 #2 Heating Fuel Oil, LGA - 1 Yr Req Contract UNITED METRO ENERGY CORP. BROOKLYN NY $650,000 8/23/2013 8/21/2014  
4600009625 #2 Heating Fuel Oil, JFK - 1 Yr Req Contract UNITED METRO ENERGY CORP. BROOKLYN NY $400,000 8/23/2013 8/21/2014  
4500064342 20' Kenworth T300 Diesel Box Truck, CAD GABRIELLI TRUCK SALES, INC. HICKSVILLE NY $132,059 8/22/2013 N/A  
4500064343 Mobile Communication Center Vehicle, CAD LDV, INC. BURLINGTON WI $807,547 8/22/2013 N/A  
4500064363 Chevrolet Tahoe PPV 2WD, CAD-PAPD MALL CHEVROLET CHERRY HILL NJ $2,304,317 8/21/2013 N/A  
4600009606 Diesel Fuel, JFK - 1 Yr Req Contract UNITED METRO ENERGY CORP. BROOKLYN NY $50,000 8/16/2013 8/15/2014  
4600009608 BioDiesel Fuel, JFK - 1 Yr Req Contract SPRAGUE OPERATING RESOURCES LLC WHITE PLAINS NY $1,500,000 8/16/2013 8/17/2014  
4600009607 Counseling, OMS-HR - 2 yrs CORPORATE COUNSELING ASSOCIATES, INC. NEW YORK NY $420,000 8/16/2013 8/15/2015  
4600009602 Ozzie Juice & Related Items, PATH BLACK & COMPANY INDIANAPOLIS IN $42,932 8/15/2013 2/14/2014  
4500064262 Mowers, Ops Services TIGER CORPORATION SIOUX FALLS SD $1,317,978 7/31/2013 N/A  
4600009693 Plotter/Scanner Maintenance, Ops Svs - 1 yr CANON SOLUTIONS AMERICA, INC. CHICAGO IL $45,024 2/1/2013 1/31/2014  
4500063354 Multi-function Sweepers (3), CAD STEVE'S EQUIPMENT SERVICE, INC. WEST CHICAGO IL $2,294,990 8/16/2012 N/A  
4600009030 Ozzie Juice & Related Items, PATH - 1 Yr Reqmnts Contract BLACK & COMPANY INDIANAPOLIS IN $40,992 8/15/2012 8/14/2013  
4600009177 Diesel Fuel, JFK - 1 Yr Reqmnts Contract METRO FUEL OIL CORPORATION BROOKLYN NY $150,000 8/8/2012 8/15/2013  
4500063420 Seven Wheel Loaders, CAD HOFFMAN EQUIPMENT, CO PISCATAWAY NJ $1,502,720 8/6/2012 N/A  
4600009057 OEM Ford Replacement Parts - 2 Yr Reqmnts Contract ROUTE 23 AUTO MALL BUTLER NJ $120,083 8/1/2012 7/31/2014  
4600009043 Uniforms, Engineer and Conductors - 1 Yr Reqmnts Contract THIS & THAT UNIFORMS PLEASANTVILLE NJ $235,000 6/1/2012 5/31/2013  
Options (?)
Reference # (?) Description Vendor Name City State Est. Amt (?) Start/ Effective Date End
4600009130 Plumbing and Backflow, EWR - 2 Yr WILLIAM J. GUARINI INC JERSEY CITY NJ $237,544 6/22/2014 6/21/2016  
4600008567 Haz.Waste Rem. & Dispose, Eng - Exercised 1st Option CLEAN EARTH OF NORTH JERSEY, INC. PHILADELPHIA PA $3,499,591 5/7/2014 5/6/2017  
4600008590 Bag Belt O&M, EWR - Exercised 3 Yr Option SIEMENS POSTAL, PARCEL & AIRPORT DFW AIRPORT TX $15,565,589 5/1/2014 4/30/2017  
4600009049 Fasteners, 2 Yr Req. - Exercised Option GKY INDUSTRIES JERSEY CITY NJ $474,689 5/1/2014 4/30/2015  
4600009007 Rental Backhoes, CAD - 2 Yr Req.contract HERTZ EQUIPMENT RENTAL CORP. NEWARK NJ $99,184 5/1/2014 4/30/2015  
4600008565 Weed Control at NJMT, Port - 3 Yr PESTMASTER SERVICES KINGSTON NY $49,269 4/26/2014 4/25/2015  
4600009042 Cont. Fidelity & Fraud Ins,Treasury - Exercised 2nd Option E.G. BOWMAN & CO. INC NEW YORK NY $59792 4/1/2014 4/1/2015  
4600009016 Framing Services - PATC - 2 Yr Req. Contract YALE PICTURE FRAME & MOULDING BROOKLYN NY $72,007 3/5/2014 3/4/2015  
4600009003 Rental, Wheelloaders - 2 Yr Req. Contract HERTZ EQUIPMENT RENTAL CORP. NEWARK NJ $391,555 3/1/2014 2/28/2015  
4600009011 Auto Insurance Contract,Treasury - 1 Yr. CONNER STRONG & BUCKELEW PHILADELPHIA PA $63,496 3/1/2014 3/1/2015  
4600008524 Fire Alarm Maintenance, SIB - 1st Option FIREMAXX SYSTEMS CORP NEW YORK NY $32,101.23 3/1/2014 2/28/2015  
4600008468 Passenger Loading Bridges, EWR - 3 Yr Option OXFORD AIRPORT TECHNICAL SERVICES ELMONT NY $9,091,123 3/1/2014 2/28/2017  
4608533 Traffic Signal Maint Cont, JFK - 1Yr Opt E-J ELECTRIC INSTALLATION COMPANY LONG ISLAND CITY NY $296,592 3/1/2014 2/28/2015
4600009392 Auction services, PA Vehicles MANHATTAN TOWING COMPANY RIDGEFIELD PARK NJ $83,695 2/16/2014 2/15/2015  
4608927 Backflow Prevent, GWB, PABT, GWBBS - 1Yr Opt. BACKFLOW PREVENTION OF NEW YORK, LLC COLLEGE POINT NY $46,115 2/1/2014 1/31/2015
4600008061 Homeless Outreach Svcs, PATH NY - 3 yrs URBAN PATHWAYS, INC. NEW YORK NY $93,103 1/7/2014 1/6/2015
4600008390 Cleaning Services, EWR Term B - Exercised Option MODERN FACILITIES SERVICES EAST HANOVER NJ $17,818,319 1/1/2014 12/31/2016
4600008601 Wildlife Services, All Airports - Exercised Second Option UNITED STATES DEPARTMENT OF AGRICULTURE (USDA) APHIS, WILDLIFE PITTSTOWN NJ $2,944,118 1/1/2014 12/31/2014
4600008401 Slurry Pit Cleaning, PATH - 3 yrs RUSSELL REID WASTE HAULING KEASBEY NJ $58,747 1/1/2014 12/31/2016
4600008032 JFK Bldg. O&M - Exercised Second Option MERIDIAN MANAGEMENT CORPORATION PONTE VEDRA BEACH FL $5,847,751 1/1/2014 12/31/2014
4600008529 Call-in Roof Repair, EWR - 2 Yr Option PRAVCO, INC. RAHWAY NJ $561,038 1/1/2014 12/31/2015
4600008035 GWB Tower Elevator Maint. Contract - Exercised Second Option B & G ELEVATOR, INC. NEWTON NJ $119,477 1/1/2014 12/31/2014
4600008403 Rental of Boomlifts, CAD - Exercised Second Option HERTZ EQUIPMENT RENTAL CORP. NEWARK NJ $350,000 12/1/2013 11/30/2014
4600007473 Landscaping Svs, EWR Monorail - Exercised Third Option LTI, INC. ROSELAND NJ $251,139 12/1/2013 11/30/2014
4600008383 Cleaning Svs, PATC & JAMS - Exercised Option UNITED SERVICES INC. KEARNY NJ $1,960,095 11/15/2013 11/14/2016
4600008506 Snow Removal, Teleport - Exercised First Option GENTILE CONSTRUCTION CORP. YONKERS NY $96,650 11/8/2013 11/7/2014
4600008352 Rental of Forklifts, CAD - Exercised Second Option HERTZ EQUIPMENT RENTAL CORP. NEWARK NJ $210,951 11/1/2013 10/31/2014
4600008738 Snow Removal, JFK Non-Aero - Exercised First Option SNOWLIFT LLC FREEPORT NY $1,404,042 11/1/2013 10/31/2014
4600008751 Rental of Clean-out Trucks - Exercised First Option EAGLE EQUIPMENT, INC. BRANCHBURG NJ $165,718 11/1/2013 10/31/2014
4600008761 Snow Removal, JFK Aero - Exercised First Option SNOWLIFT LLC FREEPORT NY $750,616 11/1/2013 10/31/2014
4600008387 Record Center Services, JFK - Exercised First Option CLEAN VENTURE, INC. ELIZABETH NJ $160,536 11/1/2013 10/31/2014
4600008371 Cleaning Services, JFK - Exercised Option CRISTI CLEANING SERVICE CORPORATION HACKENSACK NJ $8,263,340.00 11/1/2013 10/31/2016
4600008851 Cleaning of Sump and Catch Basins, LT, HT, SIB - Exercised First Option CLEAN VENTURE, INC. ELIZABETH NJ $279,735.51 10/18/2013 10/17/2014
4600007891 Accident Management, CAD - Exercised Second Option GEORGE OLMEZER APPRAISAL SERVICE INC. AVENEL NJ $1,744,885 10/1/2013 9/30/2015
4600008136 Homeless Outreach Services, PATH NJ - Exercised First Option CATHOLIC CHARITIES OF THE ARCHDIOCESE OF NEWARK NEWARK NJ $176,934 10/1/2013 9/30/2014
4600007381 Weed & Pest Control Services, EWR - Exercised Third Option PESTMASTER SERVICES KINGSTON NY $65,741 9/1/2013 8/31/2014
4600008101 HVAC Inspection & Maintenance, WTC-PATH - Exercised Second Option JOHNSON CONTROLS, INC. NEW YORK NY $268,626 1/23/2013 2/28/2014
4600008035 GWB Tower Elevator Maintenance - Exercised First Option B & G ELEVATOR, INC. NEWTON NJ $96,513 1/1/2013 12/31/2013
4600008403 Boomlifts Rental, CAD PATC - Exercised First Option HERTZ EQUIPMENT RENTAL CORP. NEWARK NJ $293,775 12/1/2012 11/30/2013
4600006996 Snow Removal, EWR - Exercised Third Option AERO SNOW REMOVAL CORP. PORT WASHINGTON NY $3,904,958 11/1/2012 10/31/2013
4600008808 HV Electrical, Maintenance & Repair, Pt. Jersey - Exercised Option LB ELECTRIC COMPANY., LLC CEDAR GROVE NJ $288,354 10/1/2012 9/30/2013
4600006885 Homeless Svs, JFK, LGA - Exercised Second Option VOLUNTEERS OF AMERICA - GREATER NY NEW YORK NY $594,904 10/1/2012 9/30/2014
4600007383 Electrical Maint Lift Stations, EWR - Exercised Second Option EAST-WEST ELECTRICAL CONTRACTORS, INC. BERGENFIELD NJ $225,376 9/15/2012 9/14/2013
4600008197 Rental, Vac-All, CAD - Exercised First Option EMPIRE MUNICIPAL EQUIPMENT, LLC BRONX NY $74,572 7/1/2012 6/30/2013
4600006800 Sanitary Tank Cleaning - Exercised Second Option A & L CESSPOOL SERVICE CORPORATION LONG ISLAND CITY NY $154,036 6/13/2012 6/12/2014
4600008652 Cleaning Services, Brooklyn Cruise Terminal - Exercised First Option MAVERICK BUILDING SERVICES, INC. NEWARK NJ $171,104 6/1/2012 5/31/2013
Negotiated (?)
Reference # (?) Description Vendor Name City State Est. Amt (?) Start/ Effective Date End Comments
4600009843 Brake Shoes, PATH - 2 Yr Req. Contract RAILROAD FRICTION PRODUCTS CORP. LAURINBURG NC $143,196 6/1/2014 5/31/2016 Sole Source (?)
4500064944 Runway Approach Lighting System, EWR NEW BEDFORD PANORAMEX CORP. UPLAND CA $248,342 4/3/2014 N/A  
4600009879 Misc. OEM Railcar Parts, PATH - 1 Yr. Req. KAWASAKI RAIL CAR, INC. YONKERS NY $155,986 4/1/2014 3/31/2015 Sole Source (?)
4600009881 Railcar Compact Inverter Unit, PATH - 2 Yr. SIEMENS INDUSTRY INC. ELK GROVE VILLAGE IL $62,118 3/27/2014 3/26/2016 Sole Source (?)
4300002177 Valves and Gaskets, JFK BLACKMAN PLUMBING CO # 1 FLUSHING NY $40,207 3/20/2014 N/A  
4300002178 Rock Salt Bulk, EWR DART SEASONAL PRODUCTS, INC. WOODMERE NY $26,361 3/20/2014 N/A  
4500064903 Rail Car Items, PATH WABTEC, INC. SPARTANBURG SC $26,588 3/18/2014 N/A  
4500064890 Reaction Rods/Bonded PADS, PATH VULCANITE PTY. LTD. NORTH PROVIDENCE RI $31,846 3/17/2014 N/A  
4500064893 Runway Lighting Regulators, EWR COOPER CROUSE-HINDS, LLC WINDSOR CT $243,800 3/14/2014 N/A Sole Source (?)
4500064897 Runway MALSR Lighting, EWR ADB AIRFIELD SOLUTIONS, LLC COLUMBUS OH $54,813 3/14/2014 N/A Sole Source (?)
4500064898 Voltage Transformers Runway, EWR COOPER CROUSE-HINDS, LLC WINDSOR CT $28,700 3/14/2014 N/A Sole Source (?)
4500064900 Track Parts General Maintenance, PATH VOESTALPINE NORTRAK INC. BIRMINGHAM AL $41,054 3/14/2014 N/A Sole Source (?)
4500064889 License Plate Decals, WIM 3M COMPANY ST. PAUL MN $49,500 3/13/2014 N/A Sole Source (?)
4500064860 WABTEC Railcar Parts HCMP, PATH WABTEC, INC. SPARTANBURG SC $1,757,791 3/12/2014 N/A Sole Source (?)
4600009857 WABTEC Kits, PATH - 2 Yr. Req. Contract WABTEC, INC. SPARTANBURG SC $2,624,748 2/28/2014 1/31/2016 Sole Source (?)
4500064817 Runway Lighting Fixtures FAA - EWR COOPER CROUSE-HINDS, LLC WINDSOR CT $1,851,005 2/28/2014 N/A Sole Source (?)
4500064801 Tool Parts for Simmons Machine, HCMF, PATH SIMMONS MACHINE TOOL CORP. ALBANY NY $37,180 2/26/2014 N/A Sole Source (?)
4500064819 Isolation Connector Kits Runway, EWR INTEGRO NEW BRITAIN CT $71,418 2/26/2014 N/A Sole Source (?)
4300002171 Rock Salk Bulk 200 Tons, Aviation FLYNN ENERGY TRANSPORT INC. TOWANDA PA $82,000 2/20/2014 N/A Emergency
4600009778 IMR Runway Arrestor beds, 7 Yr, Aviation ENGINEERED ARRESTING SYSTEMS CORP. LOGAN TOWNSHIP NJ $11,982,478 2/8/2014 2/7/2021 Sole Source (?)
4300002168 Calcium Chloride - JFK DART SEASONAL PRODUCTS, INC. WOODMERE NY $41,841 2/7/2014 N/A Emergency
4500064768 Public Safety Training Materials - PATC LOOSELEAF LAW PUBLICATIONS, INC. FRESH MEADOWS NY $47,950 2/6/2014 N/A Sole Source (?)
4300002164 Calcium Chloride - JFK DART SEASONAL PRODUCTS, INC. WOODMERE NY $25,080 2/5/2014 N/A Emergency
4300002158 Calcium Chloride Pellets - WIM DART SEASONAL PRODUCTS, INC. WOODMERE NY $49,720 2/4/2014 N/A Emergency
4300002159 Calcium Chloride Pellets - WIM DART SEASONAL PRODUCTS, INC. WOODMERE NY $49,720 2/4/2014 N/A Emergency
4300002161 Calcium Chloride Pellets - WIM DART SEASONAL PRODUCTS, INC. WOODMERE NY $49,720 2/4/2014 N/A Emergency
4600009859 Tower Bldg. HVAC Controls Maint., JFK - 3 Yr. HONEYWELL INTERNATIONAL LAKE SUCCESS NY $488,694 2/1/2014 1/31/2017 Sole Source (?)
4500064776 Runwawy Electrical Lighting Fixtures, EWR O.C.E.M. ACQUISITION CORP. CHICAGO IL $211,592 1/31/2014 N/A Sole Source (?)
4300002154 Emergency Repair/Replace Doors - PATH MACKENZIE AUTOMATIC DOORS, INC. NEW YORK NY $91,408 1/23/2014 N/A Confirmatory
4500064743 Plate and Frame Heat Exchanger - Real Estate PLATE CONCEPTS, INC. LEBANON NJ $32,900 1/17/2014 N/A Sole Source (?)
4300002148 Emergency Elevator Repair - LT KONE, INC. LONG ISLAND CITY NY $59,000 1/14/2014 N/A Emergency
4600009787 SESPA OEM Parts- PATH - 1 Yr. Req Contract ALBATROS NORTH AMERICA INC BALLSTON SPA NY $309,968 1/10/2014 1/9/2015 Sole Source (?)
4500064713 Insulated Joints - PATH LB FOSTER COMPANY PITTSBURGH PA $36,420 1/6/2014 N/A Sole Source (?)
4600009771 Runway & Taxiway Lighting -3YR REQ-WIM O.C.E.M. ACQUISITION CORP. CHICAGO IL $370,781 1/6/2014 1/5/2017 Sole Source (?)
4600009764 Kardex Maintn/Repair 2 yr contract -WIM GARDEN STATE OFFICE SYSTEMS & PISCATAWAY NJ $98,394 1/1/2014 12/31/2015 Sole Source (?)
4600009751 Honeywell Temperature Controls-3Yrs-PATH HONEYWELL BUILDING SOLUTIONS MORRISTOWN NJ $28,289.00 1/1/2014 12/31/2016 Sole Source (?)
4600009754 ZPrinter Acessories - Eng. 2yr. Maint MICROSOL RESOURCES CORPORATION NEW YORK NY $59,820.00 1/1/2014 12/31/2015 Sole Source (?)
4300002141 Transformer Repair SUB#14 - PATH DYNAPOWER COMPANY SOUTH BURLINGTON VT $399,000 12/31/2013 N/A Emergency
4300002142 Door Repair - PABT CITY-GATES COLLEGE POINT NY $61,450 12/31/2013 N/A Confirmatory
PAT-642 Salt Mitigation and Desalinization of PATH Tunnel E E. DASKAL CORPORATION HILLBURN NY $1,000,000.00 12/17/2013 N/A Sole Source (?)
4500064659 Rail Car Signal Parts - PATH ANSALDO STS USA, INC BATESBURG SC $30,329.51 12/11/2013 N/A Sole Source (?)
4500064645 Radio Sys Generators and Site Controller CONVEX CORPORATION STERLING VA $41,440 12/6/2013 N/A Sole Source (?)
4600009732 OEM Blades & Bristles, WIM - 2 Yr Req Contract MYSLIK, INC. MORRISON CO $248,986 12/4/2013 12/3/2015 Sole Source (?)
4600009641 Cleaning Services, LGA CTB - 1 yr GUARDIAN SECURITY SERVICES, INC NEW YORK NY $5,006,232.00 12/1/2013 11/30/2014 Sole Source (?)
4500064546 License Plate Decals, JFK 3M COMPANY ST. PAUL MN $89,100 11/21/2013 N/A Sole Source (?)
4600009718 Hazardous Materials Awareness & Vehicle Firefighting Training MORRIS COUNTY PUBLIC SAFETY TRAINING ACADEMY MORRISTOWN NJ $250,000 11/18/2013 12/31/2015 Sole Source (?)
4600009715 Delineators, LT - 3 Yr Req Contract GLOBE COMPOSITE SOLUTIONS, LTD. ROCKLAND MA $230,000 11/16/2013 11/15/2016 Sole Source (?)
4500064569 Runway Lighting Equip, EWR ASTRONICS DME CORPORATION FORT LAUDERDALE FL $33,513 11/15/2013 N/A Sole Source (?)
4300002131 Light Towers, LGA TRAFFIC SAFETY SERVICE, LLC SOUTH PLAINFIELD NJ $28,914 11/12/2013 N/A Emergency
4500064555 Runway Electrical Light Fixture, EWR ADB AIRFIELD SOLUTIONS, LLC COLUMBUS OH $27,426 11/6/2013 N/A Sole Source (?)
4600009687 Sodium Acetate Solid/Prilled, Aviation - 3 Yr Req Contract GENERAL ATOMICS INTERNATIONAL SERVICES CORPORATION D/B/A CRYOTECH DEICING TECHNOLOGY FORT MADISON IA $14,955,872 11/1/2013 10/31/2016 Sole Source (?)
4500064531 Re-bid Air Compressor Motor, PATH WABTEC, INC. SPARTANBURG SC $56,000 10/29/2013 N/A Sole Source (?)
4500064536 MMPI-2 Mail-In Test, OMS NCS PEARSON, INC. BLOOMINGTON MN $25,896 10/28/2013 N/A Sole Source (?)
4500064499 Emergency Window Access NASG HOLDING, INC. TRUMBAUERSVILLE PA $33,090 10/16/2013 N/A Sole Source (?)
4500064490 Third Rail Shoe, PATH WABTEC, INC. SPARTANBURG SC $71,208 10/10/2013 N/A Sole Source (?)
4300002127 Transformer 4296KVA Repair, PATH DYNAPOWER CORPORATION SOUTH BURLINGTON VT $153,230 10/9/2013 N/A Emergency
4600009611 Rail Components, Vapor Stone, PATH - 1 yr VAPOR STONE RAIL SYSTEMS, A DIV. OF WESTINGHOUSE AIR BRAKE TECH. PLATTSBURGH NY $84,188 10/19/2013 10/18/2014 Sole Source (?)
4500064476 Tool parts for Simmons Machine, HCMF PATH SIMMONS MACHINE TOOL CORP. ALBANY NY $39,990 10/8/2013 N/A Sole Source (?)
4500064465 Camera Accessories ADI PLAINVIEW NY $27,738 10/4/2013 N/A Sole Source (?)
4600009593 Lab Licenses, Engineering AMERICAN ASSOCIATION OF STATE HIGHWAY & TRANSPORTATION OFFICIALS (AASHTO) WASHINGTON DC $60,000 10/1/2013 9/30/2016 Sole Source (?)
4500064450 Rail Car Parts, HCMF PATH BOMBARDIER TRANSPORTATION PITTSBURGH PA $69,798 9/26/2013 N/A Sole Source (?)
4500064444 Rail Car Item Friction Plate, HCMF PATH LUBRITE TECHNOLOGIES HANOVER MA $33,440 9/24/2013 N/A Sole Source (?)
4300002124 Hoboken Exchange Place Floodstops, PATH BRAYCO INC. CREAM RIDGE NJ $68,442 9/23/2013 N/A Emergency
4600009653 Eco-Catalyst Cleaner, WIM - 1 Yr Req Contract NEOZYME INTERNATIONAL, INC. NEW YORK CITY NY $52,500.00 9/16/2013 9/15/2014 Sole Source (?)
4300002120 Bucket Truck Loss, EWR CAD TRAFFIC SAFETY SERVICE, LLC SOUTH PLAINFIELD NJ $97,500.00 9/11/2013 N/A Emergency
4300002119 Rental of Generators, CAD HERTZ EQUIPMENT RENTAL CORP. NEWARK NJ $245,978.34 9/10/2013 N/A Emergency
4300002118 NJLB Gate Replacement, TB&T RICHARD N BEST ASSOCIATES INC. LEVITTOWN PA $47,444.00 8/30/2013 N/A Emergency
4500064407 Matrix ARIS Mobile Police Detection System THERMO EBERLINE LLC FRANKLIN NM $411,437.94 8/30/2013 N/A Sole Source (?)
4500064315 Bombardier PATH PA4 Parts, HCMF PATH BOMBARDIER TRANSPORTATION PITTSBURGH PA $228,047 8/16/2013 N/A Sole Source (?)
4500064348 Rail Car Parts, Secheron HSCB HCMF PATH SECHERON YARDLEY PA $86,949 8/16/2013 N/A Sole Source (?)
4500064333 Electrical Cable 5 Line Items, WIM MONARCH ELECTRIC COMPANY WEST CALDWELL NJ $82,943 8/13/2013 N/A Sole Source (?)
4500064318 HESCO Barriers, PATH HESCO BASTION INC. NORTH CHARLESTON SC $92,718 8/8/2013 N/A Sole Source (?)
4500064319 Aquafence, TEB-WIM AQUAFENCE USA INC. NEW YORK NY $38,358 8/8/2013 N/A Sole Source (?)
4600009615 Maintenance of Existing Welcome Centers PARABIT SYSTEMS, INC. ROOSEVELT NY $3,115,800 8/1/2013 7/31/2018 Sole Source (?)
4600009219 Test Rack Maint., Westcode, PATH - 3 yrs WESTCODE, INC. WEST CHESTER PA $55,143 12/17/2012 12/16/2015 Sole Source (?)
4500063458 RAILQUIP OEM Re-Railing Parts, PATH RAILQUIP, INC. ATLANTA GA $46,578 8/23/2012 N/A Sole Source (?)
4500063432 Safety Rescue Training, Public Safety OCEAN RESCUE SYSTEMS INTERNATIONAL PORTLAND ME $94,700 8/10/2012 N/A Sole Source (?)
4600009046 Collator Maintenance, Ops Svs - 3 yrs EQUIPMENT SOLUTIONS CORPORATION WHIPPANY NJ $26,700 6/23/2012 6/22/2015 Sole Source (?)
Contract Amendments (?)
Reference # (?) Description Vendor Name City State Est. Amt (?) End Change Order Type Comments
4600008565 Weed Control at NJMT, Port - 1 Year PESTMASTER SERVICES KINGSTON NY $46,480 4/25/2015 Extension  
4600008147 Project Mgmt Training, COO -1 Year Extension ESI INTERNATIONAL ARLINGTON VA $0 3/31/2015 Extension
4600009155 Tires, Auto, Truck, WIM - 120-Day Extension INTER-CITY TIRE & AUTO INC. JAMAICA NY $0 11/13/2014 Extension  
4600006842 Aftermarket Auto Parts - 120 Day Extension PARTS DISTRIBUTORS, LLC. MOORESTOWN NJ $256,707 10/31/2014 Extension  
4600008573 Building Maintenance Services, Real Estate - 120-Day Extension JOHN O'HARA COMPANY INC. EAST ORANGE NJ $1,533,333 9/8/2014 Extension  
4600007471 Implementation/Licenses, TSD - 6 Month Extension SCHEDULESOFT CORPORATION MADISON WI $0 8/31/2014 Extension
4600009054 Auto Aftermarket Parts, WIM - 120-Day Extension GABRIELLI TRUCK SALES JAMAICA NY $0 8/29/2014 Extension  
4600009052 Auto Aftermarket Parts, WIM - 120-Day Extension SAMUELS, INC JERSEY CITY NJ $0 8/29/2014 Extension  
4600007223 Landscaping, Teleport - 120-Day Extension L.J.'S LAWN MAINTENANCE, INC. STATEN ISLAND NY $0 7/31/2014 Extension
4600007694 Towing, JFK, Aviation - 120 Day Extension MIKE'S HEAVY DUTY TOWING BROOKLYN NY $60,676 7/31/2014 Extension  
4600009036 PAPD Uniforms, Public Safety - 120-Day Extension ATLANTIC TACTICAL INC. NEW CUMBERLAND PA $191,679 7/27/2014 Extension  
4600008551 Gardening Equip, WIM - 120-Day Extension TRIMALAWN EQUIPMENT INC. STATEN ISLAND NY $0 7/25/2014 Extension  
4600009002 Bldg Materials, WIM - 120-Day Extension BAYWAY LUMBER & HOME CTR. LINDEN NJ $0 7/22/2014 Extension  
4600009009 Int'l. Waste Removal, EWR - 120-Day Extension WASTE MANAGEMENT OF NJ INC EWING NJ $11,219 7/2/2014 Extension  
4600007172 Septic Waste Removal, GB - 120-Day Extension CENTRAL JERSEY SEPTIC INC. OLD BRIDGE NJ $39,467 6/30/2014 Extension  
4600007131 Parking Lot Cleaning, LGA - 120-Day Extension CRISTI CLEANING SERVICE CORPORATION HACKENSACK NJ $629,645 6/30/2014 Extension  
4600007989 Neopost Mailing Equip., JFK - 6 yrs NEOPOST INC. HAYWARD CA $0 2/28/2014 Extension  
4600004338 Bulk Fuel Storage Facilities - JFK Fuel Farm Maint. OGDEN NEW YORK SERVICES, INC. NEW YORK NY $6,802,000 12/31/2015 Extension  
4600007270 Fire Alarm Maint, Teleport - 120-Day Extension APS CORPORATION BRANCHBURG NJ $13,896 9/14/2014 Extension  
4600008616 Taxiway/Runway Delineator, MMD - 120-Day Extension TRAFFIC SAFETY SERVICE, LLC SOUTH PLAINFIELD NJ $0 8/31/2014 Extension  
4600009037 Plumbing Supplies - MMD - 120-Day Extension CENTRAL JERSEY SUPPLY CO. PERTH AMBOY NJ $0 7/22/2014 Extension  
4600009004 Lumber - MMD - 120-Day Extension SAMUEL FELDMAN LUMBER CO. INC. BROOKLYN NY $0 7/20/2014 Extension  
4600007134 Cleaning at PATH WTC Station - 120-Day Extension MODERN FACILITIES SERVICES EAST HANOVER NJ $476,250 7/14/2014 Extension  
4600007132 Cleaning at JSTC, PATH Shops, Stations - 120-Day Extension MODERN FACILITIES SERVICES EAST HANOVER NJ $2,000,362 6/30/2014 Extension  
4600007143 Cleaning Services, GWBBS - 120-Day Extension T.U.C.S. CLEANING SERVICES, INC. ORANGE NJ $535,365 6/30/2014 Extension  
4600007137 Security Guard Contract - Multi-Facility FJC SECURITY SERVICES, INC. FLORAL PARK NY $1,581,356 2/28/2014 Increase  
4600008986 Safety Wear , 2-Year Stockroom Reqmts. 120-DAY EXTENSION TAKEN THE GLOVE & SAFETY PEOPLE NEW BRUNSWICK NJ $0 6/14/2014 Extension
4600008981 Refuse Rmvl &Recy, NJ Marine Term. 2 Yrs EXERCISED 120-DAY OPTION B&B DISPOSALS LLC NEWARK NJ $49,921 6/5/14 Extension
4600008487 Fire Extinguisher Maint, EWR & Teterboro EXERCISE 120 DAY EXTENSION CITY FIRE EQUIPMENT CO., INC. EAST HANOVER NJ $34,446 5/31/14 Extension
4600007623 O and M, Path, Jsq, Har., 5 yrs, EXERCISE 1120 DAY EXTENSION ISS TMC SERVICES, INC. LIVINGSTON NJ $1,608,370 5/31/2014 Extension
4600008065 Electrical Work-JFK, 3-yr EXERCISE 120-DAY EXTENSION ANGEL ELECTRICAL CONSTRUCTION, INC. BROOKLYN NY $59,099 5/14/2014 Extension
4600008929 Medical Supplies, WIM - 120 Day Extension EVER READY FIRST AID & MEDICAL SUPPLY CORP. BROOKLYN NY $0 4/18/2014 Extension  
4600006528 HVAC, LGA - 120 Day Extension ASSOCIATED BOILER LINE EQUIPMENT (ABLE) COMPANY, INC. MILFORD CT $8,336 3/31/2014 Extension  
4600006756 Cleaning Services, LGA Marine Air Terminal - 6 Month Extension CRISTI CLEANING SERVICE CORPORATION HACKENSACK NJ $986,065 5/31/2014 Extension  
4600009174 Photographic Equip, WIM - 120 Day Extension FOCUS CAMERA LLC BROOKLYN NY $0 4/17/2014 Extension  
4600009010 Training, HR - Extension and Increase MORRIS COUNTY PUBLIC SAFETY TRAINING ACADEMY MORRISTOWN NJ $18,750 10/16/2013 Extension  
4600009006 Customer Service Contract, PATH - 120 Day Extension T.U.C.S. CLEANING SERVICES, INC. ORANGE NJ $184,593 6/30/2014 Extension  
4600008898 Refuse Removal, EWR - 120 Day Extension GIORDANO COMPANY NEWARK NJ $59,023 3/31/2014 Extension  
4600008557 Customer Service Reps, JFK, LGA, EWR GATEWAY SECURITY, INC. NEWARK NJ $6,000 4/11/2016 Increase  
4600008068 Flooring Svs, Real Estate - 120 Day Extension TAUB'S CARPET & TILE CORP. FRANKLIN SQUARE NY $42,636 5/14/2014 Extension  
4600007667 Baggage Belt Maint, LGA - 120 Day Extension OXFORD AIRPORT TECHNICAL SERVICES ELMONT NY $73,088 3/31/2014 Extension  
4600007931 IMR Runway Arrestor Beds - Additional 120 Day Extension ENGINEERED ARRESTING SYSTEMS CORP. LOGAN TOWNSHIP NJ $0 2/7/2014 Extension  
4600008414 Painting Services, NY Real Estate - 120 Day Extension CHRISTINE PAINTING, INC. NEW YORK NY $40,025 5/9/2014 Extension  
4600006928 Roadway Sweeping, Teleport - 120 Day Extension ABCO MAINTENANCE, INC. STATEN ISLAND NY $8,498 3/31/2014 Extension  
4600007542 E-ZPass Collection Svs, TB&T - 120 Day Extension IQOR ALLIED INTERSTATE MINNEAPOLIS MN $500,000 3/31/2014 Extension  
4600007524 Locksmith Services, NY Facilities - 120 Day Extension DANIEL PEHR, INCORPORATED NEW HYDE PARK NY $13,842 3/31/2014 Extension  
4600007528 Hospitality Services, PATC, GWB, LT - 120 Day Extension ROSS STAFFING SERVICES, INC. NEW YORK NY $80,329 3/12/2014 Extension  
4600008806 Cleaning & Sanitary Supplies, WIM - 120 Day Extension CIRCLE JANITORIAL SUPPLY, INC. PATERSON NJ $0 2/22/2014 Extension  
4600008333 Painting Services, NJ Real Estate - 120 Day Extension QUALITY PRO PAINTERS LLC HOBOKEN NJ $27,120 2/12/2014 Extension  
4600008499 Traffic Signals Emergency Repairs, NJMT JEN ELECTRIC, INC SPRINGFIELD NJ $350,000 2/28/2015 Increase  
4600007137 Security Guard Contract, Multi-Facility - Increased Services at NJMT FJC SECURITY SERVICES, INC. FLORAL PARK NY $1,293,572 2/28/2014 Supplemental Agreement  
4600007000 Parking Lot Cleaning, Sweeping, JFK - 120 Day Extension CRISTI CLEANING SERVICE CORPORATION HACKENSACK NJ $1,046,319 2/28/2014 Extension  
4600008336 Emergency RR Repair - 120 Day Extension RAILROAD CONSTRUCTION COMPANY, INC. PATERSON NJ $92,232 1/16/2014 Extension  
4600006735 Security Audit & Training Svs - Additional Extension INTERPASS, LTD. IRVINGTON NY $535,736 12/31/2013 Extension  
4600007473 Landscaping, EWR AirTrain Northeast Corridor LTI, INC. ROSELAND NJ $26,000 11/30/13 Increase  
4600007056 Passenger Loading Bridge Maintenance, LGA - 120 Day Extension OXFORD AIRPORT TECHNICAL SERVICES ELMONT NY $28,973 3/11/2013 Extension  
4600008955 3yr Maint & Repairs, NYMT CARTER CONTRACTING CO. CORP. UNION NJ $500,000 1/8/2015 Increase  
4600008809 Elign Sweeper Parts - 120 Day Extension LACAL EQUIPMENT, INC. JACKSON CENTER OH $0 2/28/2014 Extension  
4600008740 Misc. Plow Parts, WIM - 120 Day Extension TRIUS, INC. BOHEMIA NY $35,000 1/31/2014 Extension  
4600008741 Misc. Plow Parts, WIM - 120 Day Extension BEYER BROS. CORP. FAIRVIEW NJ $35,000 1/31/2014 Extension  
4600008742 Misc. Plow Parts, WIM - 120 Day Extension BRISTOL-DONALD COMPANY NEWARK NJ $35,000 1/31/2014 Extension  
4600008609 X-Ray Diffraction Testing, GWB - 120 Day Extension PROTO MANUFACTURING INC. TAYLOR MI $41,667 12/21/2013 Extension  
4600008499 Traffric Signals, NJMT Emergency Repairs JEN ELECTRIC, INC SPRINGFIELD NJ $18,953 2/28/2015 Increase  
4600008875 Ground Transportation, PATC T.U.C.S. CLEANING SERVICES, INC. ORANGE NJ $4,423 12/11/2016 Increase  
4600008304 Hand Tools, PATH - 120 Day Extension GKY INDUSTRIES JERSEY CITY NJ $46,666 12/20/2012 Extension  
4600008879 Overaasen Replacement Parts Reqmnts Contract - Additional Year per Original Authorization MYSLIK, INC. MORRISON CO $0 10/31/2013 Extension  
4600007788 Airport Terminal Ops System Software - Provide Flight Info Display Sys GENTRACK LIMITED ORLANDO FL $203,100 6/30/2013 Increase  
4500061602 Chevrolet Impala Police Sedans, CAD - Additional Item CHAS S. WINNER INC. JOINT VENTURE CHERRY HILL NJ $2,709 N/A Additional Item  

Technology Call-In Program Lists

TECHNOLOGY SERVICES - COGNOS 2ND YEAR OPTION CALL-IN PROGRAM 2012-2013
Reference # (?) Vendor Name City State
4600009080 DATANOMICS PISCATAWAY NJ
4600009097 DOON TECHNOLOGIES, INC. ISELIN NJ
4600009096 FYI SYSTEMS, INC. PARSIPPANY NJ
TECHNOLOGY SERVICES - GIS/ESRI 2ND YEAR OPTION CALL-IN PROGRAM
Reference # (?) Vendor Name City State
4600009129 ATKINS NORTH AMERICA, INC. ORLANDO FL
4600009127 BOWNE MANAGEMENT SYSTEMS, INC. MINEOLA NY
4600009128 CAMP DRESSER & MCKEE NEW YORK NY
4600009124 GEODECISIONS A DIVISION OF GANNETT FLEMING, INC CAMP HILL PA
4600009125 PENBAY SOLUTIONS LLC NEW YORK NY
4600009126 STANTEC CONSULTING SERVICES, INC NEW YORK NY
TECHNOLOGY SERVICES – LIVELINK CALL-IN PROGRAM
Reference # (?) Vendor Name City State
4600008451 4U SERVICES, INC. NEW YORK NY
4600008907 4U SERVICES, INC. NEW YORK NY
4600008908 ENTIUM TECHNOLOGY PARTNERS, LLC VALLEY FORGE PA
TECHNOLOGY SERVICES - MICROSOFT WINDOWS CALL-IN PROGRAM
Reference # (?) Vendor Name City State
4600008456 4U SERVICES, INC. NEW YORK NY
4600008902 4U SERVICES, INC. NEW YORK NY
4600008455 DATANOMICS PISCATAWAY NJ
4600008906 DATANOMICS PISCATAWAY NJ
4600008457 DOON TECHNOLOGIES, INC. ISELIN NJ
4600008904 DOON TECHNOLOGIES, INC. ISELIN NJ
Technology Call-In Program Task Orders (?)
Reference # (?) Description Vendor Name City State Est. Amt (?) Call-In List Reference Start/ Effective Date
4500063818 Cognos RFP Task Order #7 DOON TECHNOLOGIES, INC. ISELIN NJ $240,001 4600009097 1/11/2013
4500063819 Cognos RFP Task Order #6 FYI SYSTEMS, INC. PARSIPPANY NJ $200,001 4600009096 1/11/2013
4500063822 Cognos RFP Task Order #3 FYI SYSTEMS, INC. PARSIPPANY NJ $190,000 4600009096 1/11/2013
4500063643 LiveLink Task Order to provide Case Mgt Sys Services STELLAR SERVICES, INC. NEW YORK NY $50,000 4600008907 11/16/2012
4500063503 Cognos RFP Task Order # 1 DATANOMICS PISCATAWAY NJ $250,000 4600009080 9/7/2012
4500062891 Cognos RFP Task Order # 5 DOON TECHNOLOGIES, INC. ISELIN NJ $150,000 4600008646 11/23/2011

 

Competitive
Bid (?)
Reference # (?) Description Vendor Name City State Award Amt (?) Start/ Effective Date Comments
ULGA124223 LGA - CM/GC Services For the LGA Capital Infrastructure (LGACI) Program HALMAR INTERNATIONAL, LLC NANUET NY $147,790,000 3/5/2014  
ULT530A LT – Stair Repair and Paint in Ventilation Buildings ACME SKILLMAN CONCRETE MASPETH NY $1,198,979 3/3/2014  
UMFA954312 NJ Airports - Asbestos Removal And Lead Abatement Via Work Order B&N&K RESTORATION CO., INC. CLIFTON NJ $2,000,000 3/3/2014  
UEWR914301 EWR – Install Preconditioned Air & Ground Power Units At Gate #62 & #63 At Terminal B Jet Bridges VRH CONSTRUCTION CORPORATION ENGLEWOOD NJ $412,000 2/28/2014  
USWF164048 Stewart – Taxiway M – Pavement and Improvements to Fillet at N (Revised) ARGENIO BROTHERS, INC. NEW WINDSOR NY $945,945 2/27/2014  
UEWR154172 EWR - Rehabilitation of Runway 4L-22R and Implementation of Delay Reduction Initiatives CRISDEL GROUP, INC. SOUTH PLAINFIELD NJ $55,413,700 2/24/2014  
UHT224101 HT - New York River Ventilation Building Stair Rehabilitation ANJAC ENTERPRISES, INC. BROOKLYN NY $763,795 2/20/2014  
UAKG253 Rehabilitation of Scuppers Phase II GENESUS ONE ENTERPRISES INC. MASPETH NY $1,022,000 2/14/2014  
UPAT643Z PATH - W.O.No.1 - Cleaning Operations in Tunnel E&F to Remove Surface Salt Residue from Latent Hurricane Sandy Damage YONKERS CONTRACTING COMPANY, INC. YONKERS NY $7,211,000 2/14/2014  
UPN654543 PN - Installation of Travel Time Readers RAYMOND ELECTRICAL CONTRACTOR, INC. SOUTH HACKENSACK NJ $266,970 1/24/2014 M/W/SBE Set-Aside (?)
ULT924035 LT - New York Bus Ramps Priority Repairs BEAVER CONCRETE CONSTRUCTION HAZLET NJ $1,240,000 1/17/2014  
UTP104005 Building No.10 - Replacement of Vault F Network Transformer DASNY MECHANICAL INC. COLLEGE POINT NY $1,087,300 1/15/2014  
ULGA124208 LGA - Abatement and Demolition of Hangars 2&4 TULLY CONSTRUCTION CO., INC. FLUSHING NY $10,659,000 1/13/2014  
ULGA934016 LGA - Repairs to Bulkhead at Bowery Bay Blvd & ILS Pier PSP CONSTRUCTION, INC. HACKENSACK NJ $480,000 1/13/2014 M/W/SBE Set-Aside (?)
UPAT640 PATH – NY and NJ Facilities – Building and Site Improvement Via Work Order E. DASKAL CORPORATION HILLBURN NY $2,000,000 1/9/2014  
UEWR934001 EWR – Switch House 1 & 3 Cable Trench Modifications PRECISION GENERAL CONTRACTORS, INC LIVINGSTON NJ $258,000 12/20/2013 M/W/SBE Set-Aside (?)
UHT224113 HT– Replacement of Water Line Along South Tunnel Entrance Roadway PRECISION GENERAL CONTRACTORS, INC LIVINGSTON NJ $395,000 12/13/2013  
UTEB914208 Replacement of De-Icing Fluid Storage Tanks IRON HILLS CONSTRUCTION, INC. WAYNE NJ $730,000 12/13/2013  
UHT224081 HT – Replacement of Sidewalk Along Canal Street and Repair of South Tunnel Exit Side Walks MALCOLM PATRICK CORPORATION NEW ROCHELLE NY $398,995 11/26/2013 M/W/SBE Set-Aside (?)
EWR924150A EWR – Water Infiltration Remediation P4 Garage and Terminal C Garage MARANGOS CONSTRUCTION CORP. FARMINGDALE NY $483,955 11/12/2013  
UMF244202 Multi Facility Terminal Access Control Upgrade DAIDONE ELECTRIC, INC. NEWARK NJ $13,333,000 11/8/2013  
UMFP926526 Priority Marine Rehabilitation via Work order TREVCON CONSTRUCTION CO., INC. LIBERTY CORNER NJ $9,178,600 11/7/2013  
UMFP926530 Paving and Utility Rehabilitation Via Wo NY ASPHALT INC STATEN ISLAND NY $1,746,305 11/5/2013  
UPJ664523 Building 80 Heating System Conversion GMT CONTRACTING CORP. NORTH BERGEN NJ $612,000 10/30/2013  
ULGA774228 LGA - Replacement of EMAS at Runway 13 Departure End LGA 13 ARRESTOR BED JV JACKSONVILLE FL $6,936,302 10/18/2013 Sole Source (?)
UJFK1048 JFK - Asbestos and Lead Abatement via Work Order NEW YORK ENVIRONMENTAL SYSTEMS, INC. BROOKLYN NY $2,000,000 10/15/2013  
UJFK1049 JFK - Cathodic Protection System Repair Via Work Order GULBURG ASSOCIATES INC. NEW HYDE PARK NY $2,000,000 10/11/2013  
UPAT024038 PATH - Replacement of Switching Station No.6 YONKERS ELECTRIC CONTRACTING CORP. YONKERS NY $3,654,000 10/11/2013  
USWF164041 SWF - Runway Incursion Mitigation Phase 1B ECCO III ENTERPRISES, INC. YONKERS NY $8,957,000 10/11/2013  
UJFK914208 JFK - Rehabilitation of Taxiway PB Fillets TULLY CONSTRUCTION CO INC. FLUSHING NY $1,097,800 10/8/2013  
UGWB244040 GWB - Rehabilitation of Cable Strands and Dehumidications on Systems AHERN PAINTING CONTRACTORS, INC. WOODSIDE NY $6,453,210 10/4/2013  
UJFK914207 JFK - Rehabilitation of Taxiway Z Pad TULLY CONSTRUCTION CO., INC. AND TREVCON CONSTR. CO., INC. (JV) FLUSHING NY $687,900 10/3/2013  
ULGA124201 LGA - Design and Construction of the East Parking Garage YONKERS CONTRACTING COMPANY, INC. YONKERS NY $48,311,660 10/3/2013  
ULGA103012 LGA - Pump Houses Storm Related Repairs, Phase 1 T. MORIARTY & SON, INC. BROOKLYN NY $490,000 10/3/2013  
UBT924079 PABT - Repair of Expansion Joints, Phase 2 STRUCTURAL CONTRACTING SERVICES INC MT. VERNON NY $1,972,000 9/26/2013  
UMFP926621 Multi-Facility Fender System Rehabilitation R.B. CONWAY & SONS, INC. MELVILLE NY $6,082,300 9/30/2013  
ULT244241 LT - Travel Time System Upgrade HBC COMPANY, INC. LODI NJ $503,424 9/26/2013  
UMFP926519 NJMT - Immediate Repairs TARHEEL ENTERPRISES, INC. MORGAN NJ $1,500,000 9/23/2013  
UPN654030 PN - Water System Rehab of Northwest Section TOMCO, INC. MT. ARLINGTON NJ $4,949,999 9/17/2013  
UHT224029A HT - Replacement of Floor Drains/Piping for Ventilation Buildings DASNY MECHANICAL INC. COLLEGE POINT NY $1,056,000 9/16/2013  
ULGA124198 LGA - East End Substation - Building Equipment and Feeders T. MORIARTY & SON, INC. BROOKLYN NY $40,437,000 9/11/2013  
UEWR154195 EWR - Rehabilitation of Terminal C International Departures, Airport Exit to Rte 1 and 9 South Exit Ramp TARHEEL ENTERPRISES, INC. MORGAN NJ $4,037,999 9/6/2013  
ULT529 LT - Maintenance and Pavement Repairs Via Work Order EL SOL CONTRACTING AND CONSTRUCTION MASPETH NY $986,000 9/4/2013  
ULT934020 LT - Protection of Bus Ramp Electrical Conduits and Junction Boxes ATTRI ENTERPRISES, INC. BROOKLYN NY $467,700 9/4/2013 M/W/SBE Set-Aside (?)
ULT234053A LT - Replacement of Louvers and Related Structural Supports in NY Ventilation Bldgs TRI-RAIL CONSTRUCTION, INC. COPIAGUE NY $4,297,329 8/30/2013  
UHH634018 Port Ivory Intermodal Phase 1B NAGORI CONTRACTING CORP. STATEN ISLAND NY $4,744,444 8/21/2013  
UTEB144040 Teterboro Airport - Runway 1 RSA Improvements and Patrol Road TULLY CONSTRUCTION CO., INC. FLUSHING NY $2,328,040 8/20/2013  
UBT254130 PABT - Replacement of Primary Electrical System TAP ELECTRICAL CONTRACTING SERVICE HOLBROOK NY $7,654,321 8/18/2013  
UJFK984201 Switch House No.2 - Climate Control and ACS SYSTEMS ASSOCIATES, INC. MOUNT VERNON NY $837,000 8/16/2013  
UMFP133000 Priority Protective Measures Work Packages 1 thru 5 AUSTRAL CONSTRUCTION, INC. MONTVALE NJ $521,193 8/15/2013 Emergency - Sole Source
UTEB101 Teterboro Airport - Priority Protective Measures - Lighting Vault and Electrical Room HBC COMPANY, INC. LODI NJ $305,487 8/9/2013 Emergency - Sole Source
UJFK924378 Immediate Repairs NAVILLUS CONTRACTING / NEW YORK NY $1,500,000 8/8/2013  
UPAT638 Asbestos and Lead Abatement Via Work Order PAL ENVIRONMENTAL SAFETY CORP. LONG ISLAND CITY NY $1,000,000 8/8/2013  
UPN654031 PN - Berth 14 Wharf Reconstruction EIC ASSOCIATES, INC. SPRINGFIELD NJ $19,466,320 8/7/2013  
UHT472 Purchase & Installation of Stop Logs at NJ&NY Ventilation Bldgs and of Concrete Barrier at No. Tunnel Exit Portal and NJ Admin Bldg T. MORIARTY & SON, INC. BROOKLYN NY $929,690 8/7/2013 Emergency - Sole Source
UMFP131000 Brooklyn PAMT - Fire Pump Stations 30 & 31 Paving and Utility Rehabilitation NAGORI CONTRACTING CORP. STATEN ISLAND NY $190,000 8/7/2013 Emergency - Sole Source
UMFP132000 Pt Jersey Marine Terminal - Pt Jersey Blvd Shoreline Restoration GREEN CONSTRUCTION, INC. SOUTH RIVER NJ $5,280,000 8/7/2013 Emergency - Sole Source
ULT532 Purchase & Installation of Stop Logs at NY&NJ Ventilation Bldgs EL SOL CONTRACTING AND CONSTRUCTION MASPETH NY $295,000 8/5/2013 Emergency - Sole Source
UPAT924103 Hackensack River Bridge - Deck and Rail RAILROAD CONSTRUCTION COMPANY, INC. PATERSON NJ $3,887,734 8/1/2013  
UMFP926322 Pavement and Utility Rehabilitation Via Work Order J. A. ALEXANDER, INC. BLOOMFIELD NJ $942,348 7/30/2013 M/W/SBE Set-Aside (?)
UMF208909 Facility Priority Improvements Via Work GULBURG ASSOCIATES INC. NEW HYDE PARK NY $2,400,000 6/18/2013  
PAT024028A PATH - Construction Management, General Services for the Harrison Station Replacement via Work Order HALMAR INTERNATIONAL, LLC NANUET NY $153,800,000 1/25/2013  
UJFK174006 JFK - Pavement and Rehabilitation of East and West Hangar Roads INTERCOUNTY PAVING ASSOCIATES, LLC HICKSVILLE NY $1,963,000 12/18/2012  
UMF415920 TB&T - Asbestos and Lead Abatement via Work Order ABC CONSTRUCTION CONTRACTING, INC. ASTORIA NY $1,000,000 8/6/2012  
UJFK914205 JFK - Former Hangar 12 Site - East Extension Underground Work PERFETTO ENTERPRISES CO., INC. STATEN ISLAND NY $978,746 8/6/2012  
UEWR154140 EWR - Relocation of Portions of Brewster Road and Taxiway Z - Runway 11 Engineered Material Arresting System Sitework CRISDEL GROUP, INC. SOUTH PLAINFIELD NJ $8,730,375 8/1/2012  
Negotiated (?)
Reference # (?) Description Vendor Name City State Award Amt (?) Start/ Effective Date Comments
PAT-641 CM Services for PATH Resiliency Projects HALMAR INTERNATIONAL, LLC NANUET NY $16,553,325 8/15/2013
Contract Amendments (?)
Reference # (?) Description Vendor Name City State Award Amt (?) Change Order Type Comments
UJFK924274 JFK-Fuel Farm Tank Rehab PERFETTO CONTRACTING COMPANY BROOKLYN NY $375,000 Increase  
UMFB100529 GWB & GWBBS - Immediate Repairs J. FLETCHER CREAMER & SON, INC./JOSEPH M. SANZARI, JOINT VENTURE HACKENSACK NJ $375,000 Increase  
UPAT624154 PATH - Replacement and Upgrade of Christopher St. MASS. CORREA ELECTRIC JOINT VENTURE WHITESTONE NY $1,000,000 Increase  
UPAT624154 PATH Replacement and Upgrade of Christopher St. Station MASS. CORREA ELECTRIC JOINT VENTURE WHITESTONE NY $732,656 Increase  
UMFA924131 EWR,TEB - Immediate Repairs J. FLETCHER CREAMER & SON, INC./ JOSEPH M. SANZARI, JOINT VENTURE HACKENSACK NJ $375,000 Increase  
UMFA924165 NJ AVIA - General Building and Site Work via W/O HOLT CONSTRUCTION CORPORATION PEARL RIVER NY $600,000 Increase  
UMFA924257 General Building and Site Work via W/O HBC COMPANY, INC. LODI NJ $3,500,000 Increase  
PAT633A PATH - NY and NJ Facilities Improvements via W/O 18 & 31 E. DASKAL CORPORATION HILLBURN NY $880,000 Increase  
UMFP926525 Paving and Utility Rehabilitation via W/O GREEN CONSTRUCTION, INC. SOUTH RIVER NJ $1,200,000 Increase  
UMFP926524 NJMT - Priority Marine Rehabilitation via W/O ATLANTIC SUBSEA, INC. BRIDGEPORT NJ $400,000 Increase  
UHH934801 HHMT - Backflow Prevention Devices and Water Meter Upgrades NAGORI CONTRACTING CORP. STATEN ISLAND NY $25,000 Increase  
UMFP926527 NJMT - Building and Site Work Via Work Order AUSTRAL CONSTRUCTION, INC. MONTVALE NJ $1,200,000 Increase  
UEWR154031 EWR - Upgrades to Navigational Aids for Runways - Increase to Complete Project HBC COMPANY, INC. LODI NJ $1,300,000 Increase  
UEWR154119 EWR - Rehabilitation of Taxiway P and Other Infrastructure Improvements - Increase for Runway 4L-22R, Utility Relocating, etc. TILCON NEW YORK, INC. WHARTON NJ $5,000,000 Increase  
URR644520 NY&NJRR, LLC - Cross Harbor Freight Project - Track Repairs at Greenville Yard RAILROAD CONSTRUCTION COMPANY, INC. PATERSON NJ $4,000,000 Increase  
UHT224008 HT - Electrical & Mechanical Rehab of Ventilation Sys Equip T. MORIARTY & SON, INC. BROOKLYN NY $892,064 Increase  
UMFA910824 EWR, TEB Immediate Repairs - Increase and Extension RAILROAD CONSTRUCTION COMPANY, INC. PATERSON NJ $375,000 Increase  
ULT481 LT - NY Approach Bridges Rehabilitation - Increased Work ACME SKILLMAN CONCRETE MASPETH NY $1,750,000 Increase  
UMF100507 Construction Mgt/General Contracting Svs for Security Capital Program - Authorization Increase for Services TISHMAN TECHNOLOGIES CORPORATION NEW YORK NY $46,000,000 Increase  
UJFK174004 JFK Partial Pavement Rehab of Runway 4L-22R - Supplemental Agreement #1 to Install Duct Banks Under Runway TULLY CONSTRUCTION FLUSHING NY $1,500,000 Supplemental Agreement  
Work Order Program Work Orders
Reference # (?) Description Vendor Name City State Award Amt (?) Work Order Date
             
Competitive
RFP (?)
Reference # (?) Description Vendor Name City State Est. Amt (?) Start/ Effective Date End Comments
P41513303 HT - A&E Services for Piers 9 & 204 MOFFATT & NICHOL NEW YORK NY $1,412,521.00 1/24/2014 12/31/2018  
P41013201 LGA - CM SERVICES 2013-2021 STV + TISHMAN A JOINT VENTURE NEW YORK NY $80,000,000 12/24/2013 10/31/2021
PAVI13050 EWR - AirTrain Overhaul and CARP Program LEA ELLIOTT, INC. DULLES VA $3,000,000 12/12/2013 12/31/2016  
PAVI13049 Aviation Facilities Mapping Systems CDM SMITH INC. EDISON NJ $4,440,522 8/1/2013 7/31/2015  
PAVI13046 JFK AirTrain O&M - 2013-2016 PARSONS BRINCKERHOFF, INC. NEW YORK NY $2,394,450 7/1/2013 6/30/2016  
PTRS13002 Claims Admin Services for Workers Compensation THE RISK MANAGEMENT PLANNING GROUP HEMPSTEAD NY $2,325,000 7/1/2013 6/30/2016  
P41513301 GWB-PIP Helix Replacement STV INCORPORATED NEW YORK NY $2,377,832 3/15/2013 12/31/2017  
PTRS12001 Contractors' Insurance Program - 2012-2104 WILLIS GROUP HOLDINGS LTD. NEW YORK NY $3,602,904 8/1/2012 7/30/2015  
Government (?)
Reference # (?) Description Vendor Name City State Est. Amt (?) Start/ Effective Date End Comments
PPCD13001 Annual Emissions Invent/Modeling Services STARCREST CONSULTING GROUP, LLC ALBUQUERQUE NM $1,125,000 11/13/2013 12/31/2022  
PPSD13001 Intra/Inter-Operability Document Creation LAFAYETTE GROUP INC. VIENNA VA $262,400 9/25/2013 7/14/2015  
PAVI13051 ACY - Air Service Development CAMPBELL-HILL AVIATION GROUP, INC. ALEXANDRIA VA $150,000 8/20/2013 9/30/2015  
Options (?)
Reference # (?) Description Vendor Name City State Est. Amt (?) Start/ Effective Date End Comments
                 
Negotiated (?)
Reference # (?) Description Vendor Name City State Est. Amt (?) Start/ Effective Date End Comments
APLAW14006 Expert Medical Services MEDICAL FIRM WEST ORANGE NJ $45,000.00 1/31/2014   Sole Source (?)
APLAW14004 Expert Medical Services MEDICAL FIRM NEW YORK NY $45,000.00 1/27/2014   Sole Source (?)
APLAW13076 Expert Medical Services MEDICAL FIRM NEW YORK NY $40,000.00 1/24/2014   Sole Source (?)
APLAW14003 Expert Medical Services MEDICAL FIRM NEPTUNE NJ $55,000.00 1/23/2014   Sole Source (?)
APLAW14005 Expert Medical Services MEDICAL FIRM NORTH BERGEN NJ $55,000.00 1/23/2014   Sole Source (?)
APLAW14002 Expert Medical Services MEDICAL FIRM NEW YORK NY $55,000.00 1/15/2014   Sole Source (?)
APLAW14001 Expert Medical Services MEDICAL FIRM NEW YORK NY $55,000.00 1/13/2014   Sole Source (?)
APLAW13075 Expert Medical Services MEDICAL FIRM NORTH ARLINGTON NJ $45,000.00 12/23/2013   Sole Source (?)
APLAW13073 Expert Forensic Services FORENSIC FIRM LANCASTER PA $45,000.00 12/18/2013   Sole Source (?)
APLAW13074 Expert Medical Services MEDICAL FIRM NEW YORK NY $55,000.00 12/11/2013   Sole Source (?)
APLAW13077 Expert Legal Services LEGAL FIRM NEW YORK NY $750,000.00 12/9/2013 12/31/2099  
APLAW13070 Expert Medical Services MEDICAL FIRM NEW YORK NY $55,000.00 12/5/2013   Sole Source (?)
APLAW13072 Expert Forensic Services FORENSIC FIRM WYNNEWOOD PA $45,000.00 11/26/2013   Sole Source (?)
APLAW13071 Expert Medical Services MEDICAL FIRM NEW YORK NY $40,000.00 11/25/2013   Sole Source (?)
APLAW13063 Expert Medical Services MEDICAL FIRM NEW YORK NY $40,000 11/8/2013   Sole Source (?)
APLAW13065 Expert Medical Services MEDICAL FIRM NEW YORK NY $40,000 11/8/2013   Sole Source (?)
APLAW13060 Expert Medical Services MEDICAL FIRM NEW YORK NY $40,000 11/6/2013   Sole Source (?)
APLAW13062 Expert Medical Services MEDICAL FIRM NEPTUNE NJ $40,000 10/30/2013   Sole Source (?)
APLAW13064 Expert Medical Services MEDICAL FIRM LANCASTER PA $40,000 10/25/2013   Sole Source (?)
APLAW13057 Expert Economic Services ECONOMIC FIRM PHILADELPHIA PA $55,000 10/24/2013   Sole Source (?)
APLAW13059 Expert Medical Services MEDICAL FIRM NEW YORK NY $40,000 10/24/2013   Sole Source (?)
APLAW13055 Expert Medical Services MEDICAL FIRM NEW YORK NY $40,000 10/22/2013   Sole Source (?)
APLAW13054 Expert Medical Services MEDICAL FIRM NEPTUNE NJ $40,000 10/18/2013   Sole Source (?)
APLAW13061 Expert Medical Services MEDICAL FIRM NORTH ARLINGTON NJ $40,000 10/18/2013   Sole Source (?)
APLAW13058 Expert Medical Services MEDICAL FIRM NEW YORK NY $40,000 10/17/2013   Sole Source (?)
APLAW13053 Expert Medical Services MEDICAL FIRM GLEN HEAD NY $40,000 10/3/2013   Sole Source (?)
APLAW13052 Expert Medical Services MEDICAL FIRM NEW YORK NY $40,000 10/1/2013   Sole Source (?)
APLAW13067 EXPERT LEGAL COUNSEL SERVICES LEGAL FIRM NEWARK DC $1,000,000 9/24/2013    
APLAW13048 Expert Traffic Services TRAFFIC FIRM HAMILTON NJ $40,000 9/23/2013   Sole Source
APLAW13049 Expert Traffic Services TRAFFIC FIRM HAMILTON NJ $40,000 9/23/2013   Sole Source
APLAW13050 Expert Traffic Services TRAFFIC FIRM HAMILTON NJ $40,000 9/23/2013   Sole Source
APLAW13051 Expert Medical Services MEDICAL FIRM STATEN ISLAND NY $40,000 9/23/2013   Sole Source
APLAW13046 Expert Medical Services MEDICAL FIRM LANCASTER PA $40,000 9/9/2013   Sole Source
APLAW13045 Expert Medical Services MEDICAL FIRM NEW YORK NY $40,000 9/6/2013   Sole Source
APLAW13044 Expert Medical Services MEDICAL FIRM NEW YORK NY $40,000 8/27/2013   Sole Source
APLAW13047 Expert Medical Services MEDICAL FIRM NEW YORK NY $40,000 8/14/2013   Sole Source
APLAW13041 Expert Medical Services MEDICAL FIRM NEW YORK NY $40,000 8/14/2013   Sole Source (?)
APLAW13040 Expert Medical Services MEDICAL FIRM NORTH ARLINGTON NJ $40,000 8/12/2013   Sole Source (?)
APLAW13042 Expert Medical Services MEDICAL FIRM NORTH ARLINGTON NJ $40,000 8/12/2013   Sole Source (?)
APLAW13056 Expert Professional Services PROFESSIONAL FIRM WASHINGTON DC $250,000 8/9/2013   Sole Source (?)
APLAW13038 Expert Medical Services MEDICAL FIRM NEW YORK NY $40,000 8/2/2013   Sole Source (?)
APLAW13039 Expert Medical Services MEDICAL FIRM NEW YORK NY $40,000 7/29/2013   Sole Source (?)
APLAW13043 Expert Medical Services MEDICAL FIRM NORTH ARLINGTON NJ $40,000 7/26/2013   Sole Source (?)
APLAW13007 EXPERT TOXICOLOGY SERVICES TOXICOLOGY FIRM YARDLEY PA $40,000 2/5/2013   Sole Source (?)
APLAW12059 Expert Legal Services LEGAL FIRM LOS ANGELES CA $7,500,000 9/19/2012   Other
PTBT12019 Traffic & Toll Revenue Forecasting Support THE LOUIS BERGER GROUP, INC. MORRISTOWN NJ $80,000 8/8/2012 10/31/2012 Sole Source (?)
AP41512306 GB & BB Conceptual Designs FESTINA LENTE LLP NEW YORK NY $500,000 7/25/2012 9/1/2012 Other
Expert Witness/Confidential Consultant (?)
Reference # (?) Description Vendor Name City State Est. Amt (?) Start/ Effective Date End Comments
                 
Call In Task Orders (?)
Reference # (?) Description Vendor Name City State Est. Amt (?) Call-In List Reference Start/ Effective Date
4900010279 405-14-005-1 OBX COND SURVEY STANTEC CONSULTING SERVICES, INC NEW YORK NY $687,386 P40514005 4/4/2014
4900010276 415-08-300-14 - JFK-PIDS MOD HANGARS AECOM USA, INC NEW YORK NY $9,566 P41508300 4/3/2014
4900010277 415-08-300-15 LGA-PIDS MOD HANGARS AECOM USA, INC NEW YORK NY $8,021 P41508300 4/3/2014
4900010274 415-08-301-12 JFK-CCTV - BAG MAKE-UP URS CORPORATION NEW YORK NY $869,590 P41508301 4/3/2014
4900010275 415-08-301-13 EWR-CCTV-BAG MAKE-UP URS CORPORATION NEW YORK NY $430,340 P41508301 4/3/2014
4900010278 415-13-201-4 PATH-RUNNING RAIL&REPLAC HNTB NEW YORK ENGINEERING & ARCHITECTURE, PC NEW YORK NY $469,851 P41513210 4/3/2014
4900010270 402-14-021-1 NJOF-RFI MGTMT SERVICES STELLAR SERVICES, INC. NEW YORK NY $149,730 P40214021 4/2/2014
4900010269 410-14-002-9 JFK/TB&T SITE MONITOR'G WESTON SOLUTIONS, INC. EDISON NJ $137,170 P41014002 4/2/2014
4900010273 415-14-165-2 PATH-LIGHT'G REHAB R.G. VANDERWEIL ENGINEERS, LLP. LAWRENCEVILLE NJ $41,913 P41514165 4/2/2014
4900010271 415-14-168-1 PN-DIVING INSPECT/REPORT M.G. MCLAREN, P.C. WEST NYACK NY $79,668 P41514168 4/2/2014
4900010250 415-14-008-2 - EWR-UST MAINENANCE HATCH MOTT MACDONALD NY, INC. ISELIN NJ $25,598 P41514008 4/1/2014
4900010268 426-14-002-3 PABT-COOL'G TOWER DEP RMVL CASCADE WATER SERVICES, INC. HICKSVILLE NY $3,000 P42614002 4/1/2014
4900010259 426-14-004-1 PATC-LEAD ANALY SVCS EMSL ANALYTICAL, INC. NEW YORK NY $100,000 P42614004 4/1/2014
4900010255 426-14-008-8 BBNCP-CONSTR INSPECT HAKS ENGINEERS AND LAND SURVEYORS P.C. NEW YORK NY $80,000 P42614008 4/1/2014
4900010256 426-14-010-9 EWR-REHAB - INFRA IMPROV UNIVERSAL TESTING & INSPECTION WEST BABYLON NY $20,000 P42614010 4/1/2014
4900010263 426-14-048-11 TEB-OUTFALL SOIL INVEST CRAIG GEOTECHNICAL DRILLING CO INC. MAYS LANDING NJ $11,000 P42614048 4/1/2014
4900010267 426-14-048-12 HT-PIER 9 ENVIR SOIL SMPL CRAIG GEOTECHNICAL DRILLING CO INC. MAYS LANDING NJ $6,000 P42614048 4/1/2014
4900010253 426-14-049-1 HT-NJ VENT BLDG PIERS UNI-TECH DRILLING CO., INC. FRANKLINVILLE NJ $242,000 P42614049 4/1/2014
4900010251 426-14-051-1 PATC-FIELD SAMPLING SVCS HAMPTON-CLARKE, INC. FAIRFIELD NJ $20,000 P42614051 4/1/2014
4900010257 426-14-051-2 PN-MONTHLY BACT INVEST HAMPTON-CLARKE, INC. FAIRFIELD NJ $24,000 P42614051 4/1/2014
4900010260 426-14-051-3 PN-NW H2O MAIN SOIL PILE HAMPTON-CLARKE, INC. FAIRFIELD NJ $20,000 P42614051 4/1/2014
4900010261 426-14-051-4 LGA-E.END SUBST SOIL PILES HAMPTON-CLARKE, INC. FAIRFIELD NJ $7,000 P42614051 4/1/2014
4900010262 426-14-052-1 PATC-FIELD SAMPL'G SVCS TESTAMERICA LABORATORIES, INC EDISON NJ $20,000 P42614052 4/1/2014
4900010258 426-14-054-5 LGA-UPGR PUMPS KTA-TATOR, INC. PITTSBURGH PA $30,000 P42614054 4/1/2014
4900010265 426-14-054-6 PATH-OCULUS STEEL KTA-TATOR, INC. PITTSBURGH PA $20,000 P42614054 4/1/2014
4900010254 426-14-058-3 PN-BERTH 3 WHARF RECONSTR BOSWELL ENGINEERING SOUTH HACKENSACK NJ $27,000 P42614058 4/1/2014
4900010266 426-14-058-4 NJMT-MARINE REHAB BOSWELL ENGINEERING SOUTH HACKENSACK NJ $45,000 P42614058 4/1/2014
4900010252 426-14-064-1 PABT-SW PARKI'G LVL STDY BEASLEY, CHIN & HUNDERMAN, P.C. D/B/A WJE ENGINEERS & ARCHITECTS, PC NEW YORK NY $500,000 P42614064 4/1/2014
4900010228 410-14-004-1 PABT/TBT-ASSESSMT INSPECT THE LOUIS BERGER GROUP, INC. MORRISTOWN NJ $142,876 P41014004 3/28/2014
4900010229 410-14-004-2 PABT/TBT-REMIDIATION PROJ THE LOUIS BERGER GROUP, INC. MORRISTOWN NJ $29,344 P41014004 3/28/2014
4900010230 410-14-004-3 PATB/TBT-ENV SITE MONITOR'G THE LOUIS BERGER GROUP, INC. MORRISTOWN NJ $147,697 P41014004 3/28/2014
4900010231 410-14-004-4 PABT/TBT-SITE MONIT'G/REMID THE LOUIS BERGER GROUP, INC. MORRISTOWN NJ $26,446 P41014004 3/28/2014
4900010232 410-14-004-5 PABT/TBT-SITE MONIT'G FUNCT THE LOUIS BERGER GROUP, INC. MORRISTOWN NJ $17,376 P41014004 3/28/2014
4900010233 410-14-006-1 - NYNJPORTS-SITE MONIT'G GZA GEOENVIRONMENTAL, INC FAIRFIELD NJ $177,946 P41014006 3/28/2014
4900010234 410-14-006-2 TBT-ENVIR DBASE ADMIN GZA GEOENVIRONMENTAL, INC FAIRFIELD NJ $141,390 P41014006 3/28/2014
4900010235 410-14-006-3 EWR/TEB-SITE MONIT'G GZA GEOENVIRONMENTAL, INC FAIRFIELD NJ $179,986 P41014006 3/28/2014
4900010236 410-14-006-4 PABT/SIB-SITE MONIT'G GZA GEOENVIRONMENTAL, INC FAIRFIELD NJ $174,708 P41014006 3/28/2014
4900010237 410-14-006-5 JFK/LGA-SITE MONIT'G GZA GEOENVIRONMENTAL, INC FAIRFIELD NJ $151,663 P41014006 3/28/2014
4900010238 410-14-006-6 - JFK/LGA-COND ASSESS INSP GZA GEOENVIRONMENTAL, INC FAIRFIELD NJ $5,666 P41014006 3/28/2014
4900010239 410-14-006-7 JFK/LGA-ASBESTOS ASSESSM'T GZA GEOENVIRONMENTAL, INC FAIRFIELD NJ $6,483 P41014006 3/28/2014
4900010242 410-14-013-1 PATH-HARRS'N SUB 9 UTIL INFRAMAP CORP. WINDSOR NJ $8,800 P41014013 3/28/2014
4900010243 410-14-013-2 PATH-HARRS'N NW&NE QUADS INFRAMAP CORP. WINDSOR NJ $12,161 P41014013 3/28/2014
4900010240 410-14-024-9 EWR-PSEG SUBSTA SRVY MASER CONSULTING P.A. RED BANK NJ $21,000 P41014024 3/28/2014
4900010246 415-14-013-1 JFK-BLDG 87 COND ASSESS SUPERSTRUCTURES: ENGINEERING + ARCHITECTURE, PLLC NEW YORK NY $66,559 P41514013 3/28/2014
4900010247 415-14-013-2 JFK-BLDG 75 COND ASSESS SUPERSTRUCTURES: ENGINEERING + ARCHITECTURE, PLLC NEW YORK NY $69,723 P41514013 3/28/2014
4900010248 415-14-013-3 JFK-BLDG 261 COND ASSESS SUPERSTRUCTURES: ENGINEERING + ARCHITECTURE, PLLC NEW YORK NY $78,812 P41514013 3/28/2014
4900010241 415-14-044-1 JFK-B197-SOD RLOCATION APA /AHUJA PARTNERSHIP ARCHITECTS NEW YORK NY $81,392 P41514044 3/28/2014
4900010245 415-14-090-1 LGA-DB MGTMT SVCS LANGAN ENGINEERING & ENVIRONMENTAL SERVICES, INC. NEW YORK NY $45,000 P41514090 3/28/2014
4900010244 415-14-121-1 SWF-AIRCRAFT QUAL ANALY APR CONSULTANTS, INC. MEDWAY OH $20,700 P41514121 3/28/2014
4900010222 405-14-004-1 Srvy EWR Front Bridges HNTB NEW YORK ENGINEERING & NEW YORK NY $131,636 P40514004 3/27/2014
4900010223 405-14-004-2 Srvy EWR Entrance Bridges HNTB NEW YORK ENGINEERING & NEW YORK NY $279,784 P40514004 3/27/2014
4900010221 410-14-034-1 PATH-NE&NW QUAD SRVY KS ENGINEERS, P.C. NEWARK NJ $9,700 P41014034 3/27/2014
4900010224 415-14-001-1 LGA-GEO DATA MGTMT SPPT SQL SOLUTIONS, INC. REISTERSTOWN MD $15,000 P41514001 3/27/2014
4900010225 415-14-166-1 PJS-B108 SWITCHGEAR REPL STV INCORPORATED NEW YORK NY $235,772 P41514166 3/27/2014
4900010220 426-14-013-1 PATC-TECH ASST VARIOUS SITE TECTONIC ENGINEERING & SURVEYING CONSULTANTS, P.C. MOUNTAINVILLE NY $100,000 P42614013 3/26/2014
4500064929 OEEP-13-001-1 NJOF-ENERGY ADVISORS CONCENTRIC ENERGY ADVISORS, INC. MARLBOROUGH MA $1,500,000 POEEP13001 3/26/2014
4900010207 410-14-001-1 JFK-CODE COMPLIANCE ATC GROUP SERVICES INC. NEW YORK NY $183,897 P41014001 3/25/2014
4900010208 410-14-001-2 PATC-ENV COND INSPECT ATC GROUP SERVICES INC. NEW YORK NY $179,055 P41014001 3/25/2014
4900010209 410-14-001-3 EWR-INSP CONSTR/CODE COMPL ATC GROUP SERVICES INC. NEW YORK NY $165,792 P41014001 3/25/2014
4900010210 410-14-001-4 EWR-CODE COMPL/QA ATC GROUP SERVICES INC. NEW YORK NY $148,152 P41014001 3/25/2014
4900010211 410-14-001-5 EWR-SPEC CODE/QA ATC GROUP SERVICES INC. NEW YORK NY $156,441 P41014001 3/25/2014
4900010212 410-14-002-1 JFK/TBT SITE MONITORING WESTON SOLUTIONS, INC. EDISON NJ $115,487 P41014002 3/25/2014
4900010213 410-14-002-2 EWR-ENVIRON'L AUDITS WESTON SOLUTIONS, INC. EDISON NJ $188,703 P41014002 3/25/2014
4900010214 410-14-002-3 JFK-SITE MONITORING WESTON SOLUTIONS, INC. EDISON NJ $153,640 P41014002 3/25/2014
4900010215 410-14-002-4 JFK/TBT-REMIDIATION PROJ WESTON SOLUTIONS, INC. EDISON NJ $171,600 P41014002 3/25/2014
4900010216 410-14-002-5 JFK-TENANT AUDITS WESTON SOLUTIONS, INC. EDISON NJ $124,868 P41014002 3/25/2014
4900010217 410-14-002-6 EWR-ENV AUDITS/COMPLIANCE WESTON SOLUTIONS, INC. EDISON NJ $143,630 P41014002 3/25/2014
4900010218 410-14-002-7 JFK/TBT-COND INSPECT WESTON SOLUTIONS, INC. EDISON NJ $10,000 P41014002 3/25/2014
4900010219 410-14-002-8 JFK/TBT-SITE MONITORING WESTON SOLUTIONS, INC. EDISON NJ $10,000 P41014002 3/25/2014
4900010206 410-14-037-1 LGA-SPPLMENTAL ON-SITE SPPT FIELD ASSOCIATES, P.C. ROOSEVELT NY $48,480 P41014037 3/25/2014
4900010205 410-11-044-51 HT-CODE COMPLIANCE GREENMAN-PEDERSEN, INC. BABYLON NY $188,600 P41011044 3/20/2014
4900010191 410-14-015-1 EWR-STANDBY GEN UTIL TBE GROUP, INC. PRINCETON NJ $10,000 P41014015 3/20/2014
4900010192 410-14-015-2 EWR-TERM C LWR RDWAY TBE GROUP, INC. PRINCETON NJ $31,400 P41014015 3/20/2014
4900010193 410-14-015-3 EWR-SUE TECH TBE GROUP, INC. PRINCETON NJ $70,000 P41014015 3/20/2014
4900010194 410-14-015-4 EWR SUE TECH TBE GROUP, INC. PRINCETON NJ $80,000 P41014015 3/20/2014
4900010195 410-14-015-5 EWR SUE TECH TBE GROUP, INC. PRINCETON NJ $20,000 P41014015 3/20/2014
4900010196 410-14-015-6 JFK-SUE TECH TBE GROUP, INC. PRINCETON NJ $60,000 P41014015 3/20/2014
4900010197 410-14-015-7 JFK SUE TECH TBE GROUP, INC. PRINCETON NJ $60,000 P41014015 3/20/2014
4900010198 410-14-015-8 EWR SUE FIELD SUPR TBE GROUP, INC. PRINCETON NJ $100,000 P41014015 3/20/2014
4900010199 410-14-015-9 EWR SUE FIELD SUPR TBE GROUP, INC. PRINCETON NJ $100,000 P41014015 3/20/2014
4900010200 410-14-015-10 JFK-SUE FIELD SUPR TBE GROUP, INC. PRINCETON NJ $140,000 P41014015 3/20/2014
4900010201 410-14-015-11 JFK SUE FIELD SUPR TBE GROUP, INC. PRINCETON NJ $150,000 P41014015 3/20/2014
4900010202 410-14-015-12 EWR SUE TECH TBE GROUP, INC. PRINCETON NJ $50,000 P41014015 3/20/2014
4900010203 410-14-015-13 JFK SUE PRJ MNGR TBE GROUP, INC. PRINCETON NJ $60,000 P41014015 3/20/2014
4900010204 410-14-024-8 SWF-RNWY 9-27 SFTY SVY MASER CONSULTING P.A. RED BANK NJ $2,500 P41014024 3/20/2014
4900010190 415-14-043-1 ACY 9/11 MEMORIAL ATL CITY JOHN BARTELSTONE PHOTOGRAPHY LLC NEW YORK NY $2,465 P41514043 3/17/2014
4900010186 402-14-020-7 NJOF-CONTRACT SPPT SPEC. TOLL INTERNATIONAL LLC NEW YORK NY $102,000 P40214020 3/11/2014
4900010185 402-14-023-3 NJOF-LIVELNK WORKFLOW/APPL STELLAR SERVICES, INC. NEW YORK NY $217,506 P40214023 3/11/2014
4900010188 415-14-041-1 LGA-MARINE TERM RD IMPROV MASER CONSULTING P.A. RED BANK NJ $31,000 P41514041 3/12/2014
4900010183 415-14-072-2-PN-BLDG171 LSRP RAR/RAO TRC ENGINEERS, INC. NEW YORK NY $10,140 P41514072 3/10/2014
4900010189 415-14-127-1 JFK-SR TRAF OPER ENG SIMCO ENGINEERING, P.C. NEW YORK NY $447,300 P41514127 3/12/2014
4900010182 415-14-161-2 EWR-REPL N.ELEC SUB BURNS ENGINEERING, INC. ISELIN NJ $654,000 P41514161 3/10/2014
4900010181 415-13-213-1 PATH-grant applications STV INCORPORATED NEW YORK NY $1,631,235 P41513213 3/7/2014
4900010177 426-14-048-10 PATH HARRISON STAT SETTLEM CRAIG GEOTECHNICAL DRILLING CO INC. MAYS LANDING NJ $13,000 P42614048 3/7/2014
4900010178 426-14-048-9 HOWLAND HOOK/PORT IVORY ENV CRAIG GEOTECHNICAL DRILLING CO INC. MAYS LANDING NJ $22,000 P42614048 3/7/2014
4900010179 426-14-050-3 BB WEST ST AIR MONITORING ALPHA ANALYTICAL, INC. WESTBOROUGH MA $60,000 P42614050 3/7/2014
4900010170 415-14-012-1 JFK-TERM 1&5 COND ASSESS AMMANN & WHITNEY CONSULTING NEW YORK NY $141,649 P41514012 3/6/2014
4900010174 415-14-069-1 JFK-2014 MULTI-FAC RTK SRVY HATCH MOTT MACDONALD, LLC MILLBURN NJ $14,000 P41514069 3/6/2014
4900010171 415-14-110-2 JFK-FAA SHED-ASB SVY/DWGS ATC GROUP SERVICES INC. NEW YORK NY $14,700 P41514110 3/6/2014
4900010172 415-14-110-1 PATC-PAPD FIT TEST ATC GROUP SERVICES INC. NEW YORK NY $97,000 P41514110 3/6/2014
4900010176 415-14-110-3 JFK HG 3,4,5-ACM LOC PLANS ATC GROUP SERVICES INC. NEW YORK NY $58,200 P41514110 3/6/2014
4900010175 415-14-144-1 PATH-CAR ROLL ANGLE MODEL STANTEC CONSULTING SERVICES, INC NEW YORK NY $15,000 P41514144 3/6/2014
4900010173 415-14-165-5 LGA-MED VOLT DIST E.END R.G. VANDERWEIL ENGINEERS, LLP. LAWRENCEVILLE NJ $95,449 P41514165 3/6/2014
4900010169 415-14-143-2 TEB-OUTFALL STUDY JACOBS CIVIL CONSULTANTS, INC. NEW YORK NY $91,762 P41514143 3/5/2014
4900010168 415-14-101-1 PATH-CUSTOMER SAT SRVY VHB ENGINEERING SURVEYING AND LANDSCAPE ARCHITECTURE, P.C. WATERTOWN MA $284,600 P41514101 3/4/2014
4900010166 415-14-127-3 EWR-GUIDE SIGNS UPDATE SIMCO ENGINEERING, P.C. NEW YORK NY $35,000 P41514127 3/4/2014
4900010167 415-14-127-2 LT-CRASH DATA ANALY SIMCO ENGINEERING, P.C. NEW YORK NY $79,700 P41514127 3/4/2014
4900010159 410-11-051-20 - GNVL RAIL DEV SCHEDULE JACOBS FACILITIES, INC. NEW YORK NY $100,000 P41011051 3/3/2014
4900010136 410-13-201-1 LGA-CONSTR MGTMT SVCS STV + TISHMAN A JOINT VENTURE NEW YORK NY $506,000 P41013201 3/3/2014
4900010137 410-13-201-2 LGA-REDEV CONSTR MGTMT SVCS STV + TISHMAN A JOINT VENTURE NEW YORK NY $199,000 P41013201 3/3/2014
4900010138 410-13-201-16 LGA-CONSTR MGTMT SVCS STV + TISHMAN A JOINT VENTURE NEW YORK NY $115,680 P41013201 3/3/2014
4900010139 410-13-201-17 LGA-REDEV CONSTR MGTMT SVC STV + TISHMAN A JOINT VENTURE NEW YORK NY $311,227 P41013201 3/3/2014
4900010165 410-14-024-7 SWF-SAGE BLDG SRVY MASER CONSULTING P.A. RED BANK NJ $2,000 P41014024 3/3/2014
4900010135 410-14-041-6 - CNSTR ADMIN SVCS SAVIN ENGINEERS, P.C. PLEASANTVILLE NY $121,000 P41014041 3/3/2014
4900010160 415-14-118-1 PATH-GROVE ST ADA ELEV SIGN CDM SMITH INC. CAMBRIDGE MA $4,344 P41514118 3/3/2014
4900010158 426-14-007-6 BB-REPL MAIN SPAN RDWYS ADVANCE TESTING COMPANY, INC. CAMPBELL HALL NY $50,000 P42614007 3/3/2014
4900010144 426-14-048-1 PATC-GEOTECT INVEST/MONIT CRAIG GEOTECHNICAL DRILLING CO INC. MAYS LANDING NJ $20,000 P42614048 3/3/2014
4900010145 426-14-048-2 EWR-PUMP STAT INVEST CRAIG GEOTECHNICAL DRILLING CO INC. MAYS LANDING NJ $9,000 P42614048 3/3/2014
4900010146 426-14-048-3 BP-NYMT RED HOOK BSLINE CRAIG GEOTECHNICAL DRILLING CO INC. MAYS LANDING NJ $19,000 P42614048 3/3/2014
4900010147 426-14-048-4 LGA-B28-BASELINE MONIT CRAIG GEOTECHNICAL DRILLING CO INC. MAYS LANDING NJ $9,000 P42614048 3/3/2014
4900010148 426-14-048-5 GWB-PIP HEXIL B-79 GEO CRAIG GEOTECHNICAL DRILLING CO INC. MAYS LANDING NJ $23,000 P42614048 3/3/2014
4900010149 426-14-048-6 PN-CORBIN ST.WELL CLOSURES CRAIG GEOTECHNICAL DRILLING CO INC. MAYS LANDING NJ $9,000 P42614048 3/3/2014
4900010152 426-14-048-8 JFK-BULK FUEL FARM INSTALL CRAIG GEOTECHNICAL DRILLING CO INC. MAYS LANDING NJ $12,000 P42614048 3/3/2014
4900010153 426-14-050-1 PATC-CHEM/ENVIR ANALY ALPHA ANALYTICAL, INC. WESTBOROUGH MA $20,000 P42614050 3/3/2014
4900010154 426-14-050-2 PATC-2014 RCRA AUDITS ALPHA ANALYTICAL, INC. WESTBOROUGH MA $10,000 P42614050 3/3/2014
4900010140 426-14-053-1 PATC-METALLUR'L TST'G SVC LUCIUS PITKIN, INC. NEW YORK NY $20,000 P42614053 3/3/2014
4900010141 426-14-053-2 EWR-EDDY CURRENT TST'G LUCIUS PITKIN, INC. NEW YORK NY $15,000 P42614053 3/3/2014
4900010143 426-14-054-1 BB-REPL MAIN SPAN RDWAY KTA-TATOR, INC. PITTSBURGH PA $150,000 P42614054 3/3/2014
4900010155 426-14-054-2 PATC-STRUCT COATINS SVCS. KTA-TATOR, INC. PITTSBURGH PA $20,000 P42614054 3/3/2014
4900010150 426-14-058-1 PATC-MARINE COND SRVY-PIERS BOSWELL ENGINEERING SOUTH HACKENSACK NJ $20,000 P42614058 3/3/2014
4900010151 426-14-058-2 PN-B24-WHARF RECONSTR BOSWELL ENGINEERING SOUTH HACKENSACK NJ $45,000 P42614058 3/3/2014
4900010142 426-14-060-1 PATC-TIMBER TST'G/INSPECT A.W. WILLIAMS INSPECTION CO., INC. MOBILE AL $20,000 P42614060 3/3/2014
4900010124 410-14-041-1 - CNSTR MANGER SVCS SAVIN ENGINEERS, P.C. PLEASANTVILLE NY $145,500 P41014041 2/28/2014
4900010125 410-14-041-2 - CNSTR MANGER SVCS SAVIN ENGINEERS, P.C. PLEASANTVILLE NY $141,500 P41014041 2/28/2014
4900010126 410-14-041-3 - CNSTR MANGER SVCS SAVIN ENGINEERS, P.C. PLEASANTVILLE NY $163,500 P41014041 2/28/2014
4900010127 410-14-041-4 - CNSTR MANGER SVCS SAVIN ENGINEERS, P.C. PLEASANTVILLE NY $123,600 P41014041 2/28/2014
4900010128 410-14-041-5 - CNSTR ADMIN SVCS SAVIN ENGINEERS, P.C. PLEASANTVILLE NY $94,000 P41014041 2/28/2014
4900010129 410-14-041-7 - CNSTR ADMIN SVCS SAVIN ENGINEERS, P.C. PLEASANTVILLE NY $55,000 P41014041 2/28/2014
4900010130 410-14-041-8 - CIVIL INSP SVCS SAVIN ENGINEERS, P.C. PLEASANTVILLE NY $124,000 P41014041 2/28/2014
4900010131 410-14-041-9 - CIVIL INSP SVCS SAVIN ENGINEERS, P.C. PLEASANTVILLE NY $124,000 P41014041 2/28/2014
4900010132 410-14-041-10 - CIVIL INSP SVCS SAVIN ENGINEERS, P.C. PLEASANTVILLE NY $108,500 P41014041 2/28/2014
4900010133 410-14-041-11 - MECH INSP SVCS SAVIN ENGINEERS, P.C. PLEASANTVILLE NY $108,500 P41014041 2/28/2014
4900010134 410-14-041-12 - CNSTR ADMIN SVCS SAVIN ENGINEERS, P.C. PLEASANTVILLE NY $100,000 P41014041 2/28/2014
4900010123 415-14-104-1 PN-OFF SITE TRAF ENG PARSONS BRINCKERHOFF, INC. NEW YORK NY $75,000 P41514104 2/26/2014
4900010118 426-14-048-7 EWR INFRSTRC RENEWAL PSE&G CRAIG GEOTECHNICAL DRILLING CO INC. MAYS LANDING NJ $22,000 P42614048 2/24/2014
4900010119 426-14-053-3 PABT EDDY CURRENT TESTING LUCIUS PITKIN, INC. NEW YORK NY $6,300 P42614053 2/24/2014
4900010093 410-13-201-18 LGA REDEV PROGRAM CM SRVCS STV + TISHMAN A JOINT VENTURE NEW YORK NY $369,887 P41013201 2/21/2014
4900010094 410-13-201-3 LGA REDEV PROGRAM CM SRVCS STV + TISHMAN A JOINT VENTURE NEW YORK NY $354,415 P41013201 2/21/2014
4900010095 410-13-201-19 LGA REDEV PROGRAM CM SRVCS STV + TISHMAN A JOINT VENTURE NEW YORK NY $243,362 P41013201 2/21/2014
4900010096 410-13-201-4 LGA REDEV PROGRAM CM SRVCS STV + TISHMAN A JOINT VENTURE NEW YORK NY $139,154 P41013201 2/21/2014
4900010097 410-13-201-20 LGA REDEV PROGRAM CM SRVCS STV + TISHMAN A JOINT VENTURE NEW YORK NY $637,252 P41013201 2/21/2014
4900010098 410-13-201-5 LGA REDEV PROGRAM CM SRVCS STV + TISHMAN A JOINT VENTURE NEW YORK NY $162,193 P41013201 2/21/2014
4900010099 410-13-201-21 LGA REDEV PROGRAM CM SRVCS STV + TISHMAN A JOINT VENTURE NEW YORK NY $393,167 P41013201 2/21/2014
4900010100 410-13-201-22 LGA REDEV PROGRAM CM SRVCS STV + TISHMAN A JOINT VENTURE NEW YORK NY $452,550 P41013201 2/21/2014
4900010101 410-13-201-6 LGA REDEV PROGRAM CM SRVCS STV + TISHMAN A JOINT VENTURE NEW YORK NY $381,985 P41013201 2/21/2014
4900010102 410-13-201-23 LGA REDEV PROGRAM CM SRVCS STV + TISHMAN A JOINT VENTURE NEW YORK NY $494,966 P41013201 2/21/2014
4900010103 410-13-201-7 LGA REDEV PROGRAM CM SRVCS STV + TISHMAN A JOINT VENTURE NEW YORK NY $531,164 P41013201 2/21/2014
4900010104 410-13-201-24 LGA REDEV PROGRAM CM SRVCS STV + TISHMAN A JOINT VENTURE NEW YORK NY $937,876 P41013201 2/21/2014
4900010105 410-13-201-25 LGA REDEV PROGRAM CM SRVCS STV + TISHMAN A JOINT VENTURE NEW YORK NY $347,618 P41013201 2/21/2014
4900010106 410-13-201-8 LGA REDEV PROGRAM CM SRVCS STV + TISHMAN A JOINT VENTURE NEW YORK NY $211,068 P41013201 2/21/2014
4900010107 410-13-201-26 LGA REDEV PROGRAM CM SRVCS STV + TISHMAN A JOINT VENTURE NEW YORK NY $369,598 P41013201 2/21/2014
4900010108 410-13-201-9 LGA REDEV PROGRAM CM SRVCS STV + TISHMAN A JOINT VENTURE NEW YORK NY $292,671 P41013201 2/21/2014
4900010109 410-13-201-27 LGA REDEV PROGRAM CM SRVCS STV + TISHMAN A JOINT VENTURE NEW YORK NY $196,993 P41013201 2/21/2014
4900010110 410-13-201-10 LGA REDEV PROGRAM CM SRVCS STV + TISHMAN A JOINT VENTURE NEW YORK NY $442,862 P41013201 2/21/2014
4900010111 410-13-201-28 LGA REDEV PROGRAM CM SRVCS STV + TISHMAN A JOINT VENTURE NEW YORK NY $451,875 P41013201 2/21/2014
4900010112 410-13-201-29 LGA REDEV PROGRAM CM SRVCS STV + TISHMAN A JOINT VENTURE NEW YORK NY $467,540 P41013201 2/21/2014
4900010113 410-13-201-11 LGA REDEV PROGRAM CM SRVCS STV + TISHMAN A JOINT VENTURE NEW YORK NY $173,809 P41013201 2/21/2014
4900010114 410-13-201-12 LGA REDEV PROGRAM CM SRVCS STV + TISHMAN A JOINT VENTURE NEW YORK NY $413,460 P41013201 2/21/2014
4900010115 410-13-201-13 LGA REDEV PROGRAM CM SRVCS STV + TISHMAN A JOINT VENTURE NEW YORK NY $203,934 P41013201 2/21/2014
4900010116 410-13-201-14 LGA REDEV PROGRAM CM SRVCS STV + TISHMAN A JOINT VENTURE NEW YORK NY $291,128 P41013201 2/21/2014
4900010117 410-13-201-15 LGA REDEV PROGRAM CM SRVCS STV + TISHMAN A JOINT VENTURE NEW YORK NY $208,369 P41013201 2/21/2014
4900010092 405-14-031-1 JFK ON-SITE MECH ENGINEER CHA CONSULTING, INC. ALBANY NY $558,317 P40514031 2/19/2014
4900010076 402-14-001-1 NJOF-TDMS-PHASE II ENTIUM TECHNOLOGY PARTNERS, LLC VALLEY FORGE PA $155,244 P40214001 2/12/2014
4900010035 402-14-006-1 NJOF-Doc Control Asst STELLAR SERVICES, INC. NEW YORK NY $220,917 P40214006 2/11/2014
4900010082 402-14-030-1 Sr. Proj. Cntrl Spec. STELLAR SERVICES, INC. NEW YORK NY $384,077 P40214030 2/12/2014
4900010084 410-14-024-1 EWR-GRASSMAN PARCEL SRVY MASER CONSULTING P.A. RED BANK NJ $5,600 P41014024 2/12/2014
4900010085 410-14-024-2 SWF-TAXIWYS B&C SURVEY MASER CONSULTING P.A. RED BANK NJ $10,000 P41014024 2/12/2014
4900010086 410-14-024-3 PN-NW H2O SYS REPL SRVY MASER CONSULTING P.A. RED BANK NJ $60,000 P41014024 2/12/2014
4900010087 410-14-024-4 PN CORBIN ST CORR IMPROV MASER CONSULTING P.A. RED BANK NJ $23,000 P41014024 2/12/2014
4900010088 410-14-024-5 SWF-PHONE LEASE LINE STUDY MASER CONSULTING P.A. RED BANK NJ $3,500 P41014024 2/12/2014
4900010089 410-14-024-6 GB-EASEMENT PARCEL SRVY MASER CONSULTING P.A. RED BANK NJ $10,000 P41014024 2/12/2014
4900010041 415-08-300-13 EWR-REDEV TERM A PIDS AECOM USA, INC NEW YORK NY $24,502 P41508300 2/11/2014
4900010034 415-14-008-1 - JFK-TAA DESIGN DOCS HATCH MOTT MACDONALD NY, INC. ISELIN NJ $40,000 P41514008 2/10/2014
4900010078 415-14-071-2 JFK 2013 BMPP INSP RPT MALCOLM PIRNIE, INC. FAIR LAWN NJ $10,500 P41514071 2/12/2014
4900010079 415-14-071-1 JFK-BLDG 209-BVENT C/O MALCOLM PIRNIE, INC. FAIR LAWN NJ $52,459 P41514071 2/12/2014
4900010080 415-14-071-3 GBRP - REV BLINE REM PLAN MALCOLM PIRNIE, INC. FAIR LAWN NJ $4,152 P41514071 2/12/2014
4900010081 415-14-072 -1 BP-BLDG 111 UST RMVL TRC ENGINEERS, INC. NEW YORK NY $12,791 P41514072 2/12/2014
4900010083 415-14-143-1 PN-H2O SYS REHAB JACOBS CIVIL CONSULTANTS, INC. NEW YORK NY $245,801 P41514143 2/12/2014
4900010077 415-14-148-1 EWR-CHRP OPACITY TEST MALCOLM PIRNIE, INC. FAIR LAWN NJ $3,920 P41514148 2/12/2014
4900010090 415-14-156-1 LGA-REHAB TAXIWY 13-31 BURNS ENGINEERING, INC. ISELIN NJ $221,670 P41514156 2/12/2014
4900010071 426-14-001-1 PATC-WATER TREATMT VAR FAC AMBIENT WATER TREATMENT CONSULTING, NEW YORK NY $154,000 P42614001 2/11/2014
4900010072 426-14-002-1 PATC-WATER TREATMT VAR FAC CASCADE WATER SERVICES, INC. HICKSVILLE NY $130,000 P42614002 2/11/2014
4900010074 426-14-002-2 GWB/GWBSS-H2O TREATMT CASCADE WATER SERVICES, INC. HICKSVILLE NY $9,000 P42614002 2/11/2014
4900010039 426-14-003-1 PATC-ASB/LEAD ANALY ATC GROUP SERVICES INC. NEW YORK NY $100,000 P42614003 2/11/2014
4900010038 426-14-005-1 PATC-ELEC CABLE TEST'G CABLE TECHNOLOGY LABS, INC. NEW BRUNSWICK NJ $20,000 P42614005 2/11/2014
4900010043 426-14-007-1 PATC-BITUM CONCRETE INSPECT ADVANCE TESTING COMPANY, INC. CAMPBELL HALL NY $20,000 P42614007 2/11/2014
4900010044 426-14-007-2 PATC-TECH ASST VARIOUS PROJ ADVANCE TESTING COMPANY, INC. CAMPBELL HALL NY $100,000 P42614007 2/11/2014
4900010045 426-14-007-3 BB-MAIN SPAN RDWY/APPROACH ADVANCE TESTING COMPANY, INC. CAMPBELL HALL NY $200,000 P42614007 2/11/2014
4900010047 426-14-007-5 LT-STRUCT REHAB HELIX ADVANCE TESTING COMPANY, INC. CAMPBELL HALL NY $50,000 P42614007 2/11/2014
4900010064 426-14-008-1 PATC-BIT CONCRETE INSPECT HAKS ENGINEERS AND LAND SURVEYORS P.C. NEW YORK NY $20,000 P42614008 2/11/2014
4900010069 426-14-008-6 PATC-TECH ASSTS VAR PROJ HAKS ENGINEERS AND LAND SURVEYORS P.C. NEW YORK NY $100,000 P42614008 2/11/2014
4900010070 426-14-008-7 PATC-MOYNHIAN STATION HAKS ENGINEERS AND LAND SURVEYORS P.C. NEW YORK NY $25,000 P42614008 2/11/2014
4900010048 426-14-009-1 PATC-BITUM TEST'G SVCS KEY-TECH KEYPORT NJ $20,000 P42614009 2/11/2014
4900010056 426-14-010-1 PATC-BIT CONCRETE SAMPLING UNIVERSAL TESTING & INSPECTION SERVICES, INC. WEST BABYLON NY $20,000 P42614010 2/11/2014
4900010059 426-14-010-4 EWR-REHAB T/W 'P' INFRAST UNIVERSAL TESTING & INSPECTION SERVICES, INC. WEST BABYLON NY $20,000 P42614010 2/11/2014
4900010061 426-14-010-6 LGA-REHAB T/W 'A/M/ZA' UNIVERSAL TESTING & INSPECTION SERVICES, INC. WEST BABYLON NY $20,000 P42614010 2/11/2014
4900010062 426-14-010-7 SWF-REHAB R/W'S 9/27&16/34 UNIVERSAL TESTING & INSPECTION SERVICES, INC. WEST BABYLON NY $20,000 P42614010 2/11/2014
4900010063 426-14-010-8 TEB-AIRFLD GUID SIGN REPR UNIVERSAL TESTING & INSPECTION SERVICES, INC. WEST BABYLON NY $20,000 P42614010 2/11/2014
4900010073 426-14-012-1 PATC-GEO/ENV FIELD INSP LANGAN ENGINEERING & ENVIRONMENTAL NEW YORK NY $100,000 P42614012 2/11/2014
4900010049 426-14-014-1 PATC-PORTLAND TST'G SVCS MACTEC ENGINEERING AND BELTSVILLE MD $20,000 P42614014 2/11/2014
4900010050 426-14-014-2 EWR-REHAB T/W 'P' MACTEC ENGINEERING AND BELTSVILLE MD $20,000 P42614014 2/11/2014
4900010051 426-14-014-3 JFK-REHAB T/W 'FA/FB' MACTEC ENGINEERING AND BELTSVILLE MD $20,000 P42614014 2/11/2014
4900010052 426-14-014-4 JFK-REHAB T/W 'B' MACTEC ENGINEERING AND BELTSVILLE MD $20,000 P42614014 2/11/2014
4900010053 426-14-014-5 SWF-REHAB R/W'S 9/27&16/34 MACTEC ENGINEERING AND BELTSVILLE MD $50,000 P42614014 2/11/2014
4900010054 426-14-055-1 PATC-NOISE MONIT SVCS PAUL CARPENTER ASSOCIATES, INC. FLORHAM PARK NJ $20,000 P42614055 2/11/2014
4900010055 426-14-055-2 BBNCP-ACOUSTICAL NOISE PAUL CARPENTER ASSOCIATES, INC. FLORHAM PARK NJ $155,000 P42614055 2/11/2014
4500064796 OEM-12-002 for COO ADJUSTERS INTERNATIONAL UTICA NY $1,200,000 POEM12002 2/11/2014
4900010032 COO-12-035-3 NJOF-Project Delivery Services TOLL INTERNATIONAL LLC NEW YORK NY $150,000 PCOO12035 2/6/2014
4900010031 415-14-161-1 NJOF-ONSITE ELEC ENG BURNS ENGINEERING, INC. ISELIN NJ $589,680 P41514161 1/31/2014
4900010010 410-12-303-22 BBNCP-CM SVCS GREENMAN-PEDERSEN, INC. BABYLON NY $44,000 P41012303 1/29/2014
4900010011 410-12-303-23 BBNCP-CM SVCS GREENMAN-PEDERSEN, INC. BABYLON NY $227,500 P41012303 1/29/2014
4900010012 410-12-303-24 BBNCP-CM SVCS GREENMAN-PEDERSEN, INC. BABYLON NY $112,000 P41012303 1/29/2014
4900010013 410-12-303-25 BBNCP-CM SVCS GREENMAN-PEDERSEN, INC. BABYLON NY $18,000 P41012303 1/29/2014
4900010014 410-12-303-26 BBNCP-CM SVCS GREENMAN-PEDERSEN, INC. BABYLON NY $238,000 P41012303 1/29/2014
4900010015 410-12-303-27 BBNCP-CM SVCS GREENMAN-PEDERSEN, INC. BABYLON NY $47,000 P41012303 1/29/2014
4900010016 410-12-303-28 BBNCP-CM SVCS GREENMAN-PEDERSEN, INC. BABYLON NY $24,000 P41012303 1/29/2014
4900010017 410-12-303-29 BBNCP-CM SVCS GREENMAN-PEDERSEN, INC. BABYLON NY $17,500 P41012303 1/29/2014
4900010018 410-12-303-30 BBNCP-CM SVCS GREENMAN-PEDERSEN, INC. BABYLON NY $59,100 P41012303 1/29/2014
4900010019 410-12-303-31 BBNCP-CM SVCS GREENMAN-PEDERSEN, INC. BABYLON NY $206,500 P41012303 1/29/2014
4900010020 410-12-303-32 BBNCP-CM SVCS GREENMAN-PEDERSEN, INC. BABYLON NY $107,000 P41012303 1/29/2014
4900010021 410-12-303-33 BBNCP-CM SVCS GREENMAN-PEDERSEN, INC. BABYLON NY $25,500 P41012303 1/29/2014
4900010022 410-12-303-34 BBNCP-CM SVCS GREENMAN-PEDERSEN, INC. BABYLON NY $13,000 P41012303 1/29/2014
4900010023 410-12-303-35 BBNCP-CM SVCS GREENMAN-PEDERSEN, INC. BABYLON NY $13,000 P41012303 1/29/2014
4900010024 410-12-303-36 BBNCP-CM SVCS GREENMAN-PEDERSEN, INC. BABYLON NY $113,000 P41012303 1/29/2014
4900010025 410-12-303-37 BBNCP-CM SVCS GREENMAN-PEDERSEN, INC. BABYLON NY $115,000 P41012303 1/29/2014
4900010026 410-12-303-38 BBNCP-CM SVCS GREENMAN-PEDERSEN, INC. BABYLON NY $131,500 P41012303 1/29/2014
4900010008 415-13-304-1 GB-Concept Design US 1/9 PARSONS BRINCKERHOFF, INC. NEW YORK NY $1,336,600 P41513304 1/23/2014
4500064749 TBT-08-002-3 Various PA Toll Collection TRAFFIC TECHNOLOGIES, INC. NEW WINDSOR NY $600,000 PTBT08002 1/22/2014
4900009975 410-11-044-49 JFK-Code Compliance Inspection GREENMAN-PEDERSEN, INC. BABYLON NY $157,000 P41011044 1/6/2014
4900009976 410-11-044-50 GWB-Code Compliance Inspection GREENMAN-PEDERSEN, INC. BABYLON NY $135,300 P41011044 1/6/2014
4900009971 426-13-058-15 NJMT-Immediate Repairs BOSWELL ENGINEERING SOUTH HACKENSACK NJ $45,000 P42613058 12/30/2013
4900009972 415-13-072-16 NYMT/PI-VCP Closeout Service TRC ENGINEERS, INC. NEW YORK NY $351,746 P41513072 12/30/2013
4900009973 415-13-144-8 LGA-ROW/Roadway Mapping Study STANTEC CONSULTING SERVICES, INC NEW YORK NY $51,586 P41513144 12/30/2013
4900009977 426-13-050-10 JFK-Rehab T/W Fillets ALPHA ANALYTICAL, INC. WESTBOROUGH MA $15,000 P42613050 12/30/2013
4900009978 426-13-050-11 GB-Wetlands Mitigation ALPHA ANALYTICAL, INC. WESTBOROUGH MA $153,000 P42613050 12/30/2013
4900009979 426-13-057-7 LGA-Marie Road Drain Invest NATIONAL WATER MAIN CLEANING NEWARK NJ $12,000 P42613057 12/30/2013
4900009980 426-13-057-8 LGA-H2O Main CCV Iinspect NATIONAL WATER MAIN CLEANING NEWARK NJ $9,200 P42613057 12/30/2013
4900009969 415-13-006-1 HT-DYER AVE OVERBLD LGT'G ON-BOARD ENGINEERING CORP. EAST WINDSOR NJ $7,065 P41513006 12/27/2013
4900009964 415-13-041-8 EWR-TRAF SIGNALS SPPT MASER CONSULTING P.A. RED BANK NJ $81,000 P41513041 12/27/2013
4900009967 415-13-041-9 JFK-RDWY DEVICE MGTMT SYS MASER CONSULTING P.A. RED BANK NJ $84,000 P41513041 12/27/2013
4900009960 415-13-044-8 JFK-PAPD/ARFF EXPAN APA /AHUJA PARTNERSHIP ARCHITECTS NEW YORK NY $79,771 P41513044 12/27/2013
4900009968 415-13-044-9 HT-WATER MIT-VENT BLDGS APA /AHUJA PARTNERSHIP ARCHITECTS NEW YORK NY $69,002 P41513044 12/27/2013
4900009965 415-13-062-2 EWR-TERM A REDEV PAV'G STV INCORPORATED NEW YORK NY $28,264 P41513062 12/27/2013
4900009970 415-13-099-4 EWR-REHAB SAFTY WALKS T&M ASSOCIATES MIDDLETOWN NJ $97,618 P41513099 12/27/2013
4900009962 415-13-101-12 LGA-EXISTING MODELS UPDATE VHB ENGINEERING, SURVEYING AND LANDSCAPE ARCHITECTURE, P.C. WATERTOWN MA $84,400 P41513101 12/27/2013
4900009963 415-13-101-13 LGA-EARLY WORK CONSTR STG VHB ENGINEERING, SURVEYING AND LANDSCAPE ARCHITECTURE, P.C. WATERTOWN MA $84,900 P41513101 12/27/2013
4900009966 415-13-132-5 GWB-TRAF DATA COLL GREENMAN-PEDERSEN, INC. BABYLON NY $35,500 P41513132 12/27/2013
4900009959 415-13-141-3 LGA-PAVEMT MGTMT UPDATE MACTEC ENGINEERING AND BELTSVILLE MD $57,939 P41513141 12/27/2013
4900009961 415-13-148-4-EWR Boiler 5 Stack Test MALCOLM PIRNIE, INC. FAIR LAWN NJ $9,263 P41513148 12/27/2013
4900009950 410-13-007-7 NJMT VOLUMES CALC SRVY ROGERS SURVEYING, P.L.L.C. STATEN ISLAND NY $995 P41013007 12/26/2013
4900009953 410-13-013-2 PATH-WASH POWERHOUSE UTIL INFRAMAP CORP. WINDSOR NJ $4,100 P41013013 12/26/2013
4900009951 410-13-014-11 EWR-FUEL FARM UTILS TAYLOR WISEMAN AND TAYLOR MOUNT LAUREL NJ $65,000 P41013014 12/26/2013
4900009954 410-13-034-29 PATH-KEARNEY WALL SRVY KS ENGINEERS, P.C. NEWARK NJ $6,500 P41013034 12/26/2013
4900009952 410-13-035-4 PATH-HOBOKEN STA. SRVY NAIK CONSULTING GROUP, P.C. NEW YORK NY $39,583 P41013035A 12/26/2013
4900009955 410-13-037-3 PATC-CONSTR MGTMT SVCS FIELD ASSOCIATES, P.C. ROOSEVELT NY $97,000 P41013037 12/26/2013
4900009946 415-13-102-3 PN/EPAMT PEDEDSTRIAN STUDY AECOM USA, INC NEW YORK NY $96,400 P41513102 12/26/2013
4900009947 415-13-102-4 PN/EPAMT TRAF COUNT STDY AECOM USA, INC NEW YORK NY $44,100 P41513102 12/26/2013
4900009948 415-13-103-3 BB-IRONBOUND DATA COLLECT'N HENNINGSON DURHAM & RICHARDSON ARCH. & ENGINEERING PC NEW YORK NY $93,500 P41513103 12/26/2013
4900009949 415-13-103-5 EWR-SIGN INV/RETRO ASSESSMT HENNINGSON DURHAM & RICHARDSON ARCH. & ENGINEERING PC NEW YORK NY $96,500 P41513103 12/26/2013
4900009956 426-13-028-6 EWR-REHAB T/W P INFRA UNIVERSAL TESTING & INSPECTION WEST BABYLON NY $20,000 P42613028 12/26/2013
4900009957 426-13-048-33 JFK-HANGAR 81B WELL INSTAL CRAIG GEOTECHNICAL DRILLING CO INC. MAYS LANDING NJ $9,000 P42613048 12/26/2013
4900009958 426-13-048-34 EWR-INFRASTRCT SUBST'N CRAIG GEOTECHNICAL DRILLING CO INC. MAYS LANDING NJ $22,000 P42613048 12/26/2013
4900009945 415-13-036-7 LT MTR Crash Reports VHB ENGINEERING SURVEYING AND LANDSCAPE ARCHITECTURE, P.C. HAUPPAUGE NY $60,700 P41513036 12/17/2013
4900009942 415-13-066-7 GEN. REG. COMPLIANCE RCC CONSULTANTS, INC. WOODBRIDGE NJ $74,500 P41513066 12/16/2013
4900009943 415-13-066-4 PATH INDP AUDIO CONTROL VHF RCC CONSULTANTS, INC. WOODBRIDGE NJ $29,500 P41513066 12/16/2013
4900009944 415-13-066-5 LT IN-TUNNEL RSSI-DAQ LED RCC CONSULTANTS, INC. WOODBRIDGE NJ $25,700 P41513066 12/16/2013
4500064663 Legal Resources FORREST SOLUTIONS INC. NEW YORK NY $8,080 PLAW11002 12/12/2013
4500064664 Legal Resources ROBERT HALF LEGAL NEW YORK NY $10,075 PLAW11004 12/12/2013
4900009939 415-13-171-1 EWR Traffic Engineering CAD Support THE RBA GROUP, INC. PARISIPPANY NJ $80,000 P41513171 12/10/2013
4900009940 402-13-029-1 NJOF Project Control Specialist MCSS, INC. HOLMDEL NJ $455,520 P40213029 12/10/2013
4900009941 415-13-036-6 EWR Traffic Signal Safety Operators VHB ENGINEERING SURVEYING AND LANDSCAPE ARCHITECTURE, P.C. HAUPPAUGE NY $92,000 P41513036 12/10/2013
4900009930 415-13-102-2 JFK Property Access Strategy AECOM USA, INC NEW YORK NY $92,000 P41513102 12/9/2013
4900009931 415-13-103-6 JFK Bus Stop Numbering HENNINGSON DURHAM & RICHARDSON ARCH. & ENGINEERING PC NEW YORK NY $67,300 P41513103 12/9/2013
4900009932 402-13-015-2 NJOF BIM Services MICRODESK, INC. NASHUA NH $211,245 P40213015 12/9/2013
4900009933 426-13-064-1 PABT SW Bus Level Study BEASLEY,CHIN & HUNDERMAN, P.C. NEW YORK NY $79,029 P42613064 12/9/2013
4900009935 426-13-054-14 LGA Upgrade Pumps KTA-TATOR, INC. PITTSBURGH PA $15,000 P42613054 12/9/2013
4900009936 426-13-054-15 PN Wharf Reconstruction KTA-TATOR, INC. PITTSBURGH PA $25,000 P42613054 12/9/2013
4900009937 415-13-110-13 LGA Concourses Pre Design ATC GROUP SERVICES INC. NEW YORK NY $98,900 P41513110 12/9/2013
4900009938 415-13-110-14 LGA CTB&Taxi Pre Design ATC GROUP SERVICES INC. NEW YORK NY $64,500 P41513110 12/9/2013
4500064642 PRT-11-005-1 Wharf Asset Mgt Database CH2M HILL NEW YORK, INC. NEW YORK NY $220,000 PPRT11005 12/6/2013
4900009924 410-13-051-3 PN Contract Adminsitration IH ENGINEERS, PC PRINCETON NJ $77,000 P41013051 12/6/2013
4900009925 415-13-100-11 PABT Roadway Construction Permitting SAM SCHWARTZ ENGINEERING, PLLC NEW YORK NY $80,000 P41513100 12/6/2013
4900009926 415-13-127-13 JFK Offsite Traffic Engineering Operations and Sign Services SIMCO ENGINEERING, P.C. NEW YORK NY $70,300 P41513127 12/6/2013
4900009927 415-13-127-14 EWR Bridge Repairs SIMCO ENGINEERING, P.C. NEW YORK NY $33,170 P41513127 12/6/2013
4900009928 410-11-049-11 PN Asst. Resident Engineers AECOM USA, INC NEW YORK NY $245,000 P41011049 12/6/2013
4900009929 410-13-040-9 PN Civil Inspection / Construction Mgt Svs KS ENGINEERS, P.C. NEWARK NJ $137,000 P41013040 12/6/2013
4900009921 402-13-010-2 NJOF Elec Document Mgt Imaging Svs URS CORPORATION-NEW YORK NEW YORK NY $216,617 P40213010 12/5/2013
4900009922 402-13-012-4 GWB Inspection and Assessment HILL INTERNATIONAL, INC. NEW YORK NY $45,043 P40213012 12/5/2013
4900009923 426-13-049-9 GB Wetland Mitigation UNI-TECH DRILLING CO., INC. FRANKLINVILLE NJ $55,000 P42613049 12/5/2013
4900009920 402-13-032-1 NJOF Engineering Project Control Specialist TOLL INTERNATIONAL LLC NEW YORK NY $425,000 P40213032 12/4/2013
4900009911 410-13-024-46 LGA Block 12&14 Tree Survey MASER CONSULTING P.A. RED BANK NJ $7,900 P41013024 12/3/2013
4900009912 415-13-197-2 GWB ATV Logging Geophysical Engineering and Testing HAGER-RICHTER GEOSCIENCE, INC. SALEM NH $7,500 P41513197 12/3/2013
4900009913 410-13-017-4 NJMT No.Ave & McLester Signal Survey GEOD CORPORATION NEWFOUNDLAND NJ $51,795 P41013017A 12/3/2013
4900009914 410-13-033-2 NJMT Corbin & Kellogg Sts Signal Survey HAKS ENGINEERS AND LAND SURVEYORS P.C. NEW YORK NY $54,050 P41013033 12/3/2013
4900009916 410-13-007-6 NJMT Winter Sound Hydro Survey ROGERS SURVEYING, P.L.L.C. STATEN ISLAND NY $37,802 P41013007 12/3/2013
4900009917 415-13-066-6 HT Emergency FM Broadcast Testing RCC CONSULTANTS, INC. WOODBRIDGE NJ $71,400 P41513066 12/3/2013
4900009918 410-13-014-9 TEB Testholes Runway 6-24 EMAS TAYLOR WISEMAN AND TAYLOR MOUNT LAUREL NJ $3,600 P41013014 12/3/2013
4900009919 410-13-014-10 EWR Lot P1&2 Utilities Locating Svs TAYLOR WISEMAN AND TAYLOR MOUNT LAUREL NJ $25,500 P41013014 12/3/2013
4900009908 415-08-301-11 Multi-Facility Radio Systems Upgrade URS CORPORATION NEW YORK NY $362,006 P41508301 11/27/2013
4900009909 415-13-104-1 PN/EPAMT Traffic Engineering Svs PARSONS BRINCKERHOFF, INC. NEW YORK NY $75,000 P41513104 11/27/2013
4900009910 415-13-172-4 LT Traffic Engineering Svs SAM SCHWARTZ ENGINEERING, PLLC NEW YORK NY $68,900 P41513172 11/27/2013
4500064618 Legal Resources FORREST SOLUTIONS INC. NEW YORK NY $16,613 PLAW11002 11/26/2013
4900009902 426-13-049-8 LGA Ingraham Mountain Environ/Geotech Sampling & Testing UNI-TECH DRILLING CO., INC. FRANKLINVILLE NJ $40,500 P42613049 11/26/2013
4900009903 410-13-034-28 PATH Open Area Air Line KS ENGINEERS, P.C. NEWARK NJ $106,500 P41013034 11/26/2013
4900009904 415-13-122-8 BT Miscellaneous Leaks DEWBERRY ENGINEERS INC. BLOOMFIELD NJ $58,944 P41513122 11/26/2013
4900009905 402-13-026-5 LGA Pile Cap Modeling Services MICRODESK, INC. NASHUA NH $21,107 P40213026 11/26/2013
4900009906 426-13-057-6 TEB Parking Lot Drain Pipes NATIONAL WATER MAIN CLEANING COMPANY NEWARK NJ $12,000 P42613057 11/26/2013
4900009907 415-13-185-3 HT Electrical / Mechanical Rehab Ventilation Sys LOCKWOOD, KESSLER & BARTLETT, INC. SYOSSET NY $97,000 P41513185 11/26/2013
4500064589 TBT-13-015-2 PABT Passenger Bus Study THE RBA GROUP, INC. PARISIPPANY NJ $98,000 PTBT13015 11/22/2013
4900009898 415-13-093-2 LGA Roadway Bridge Network HNTB NEW YORK ENGINEERING PC NEW YORK NY $99,533 P41513093 11/21/2013
4900009899 415-13-189-1 GWB Temporary Relocation of SEMAC M.G. MCLAREN, P.C. WEST NYACK NY $93,633 P41513189 11/21/2013
4900009900 415-13-033-3 GWB Onsite Traffic Engineering Svs MICHAEL BAKER ENGINEERING, INC. PITTSBURGH PA $99,600 P41513033 11/21/2013
4900009901 415-13-071-18 PATH Harrison Stn LSRP Svs MALCOLM PIRNIE, INC. FAIR LAWN NJ $24,223 P41513071 11/21/2013
4900009893 415-13-164-12 EWR Pump Stn Emergency Generator LIZARDOS ENGINEERING ASSOCIATES, MINEOLA NY $44,580 P41513164 11/19/2013
4900009894 415-08-303-23 EWR Terminal Buildings Glass THE LOUIS BERGER GROUP, INC. MORRISTOWN NJ $209,554 P41508303 11/19/2013
4900009895 415-13-091-1 LGA East End Garage Terminal C Pedestrian Walkway AECOM USA, INC NEW YORK NY $498,710 P41513091 11/19/2013
4900009896 415-13-172-3 EWR Traffic Operator Support Svs SAM SCHWARTZ ENGINEERING, PLLC NEW YORK NY $390,000 P41513172 11/19/2013
4900009897 415-13-198-1 HT Water Leakage Mitigation ARORA AND ASSOCIATES PC LAWRENCEVILLE NJ $423,326 P41513198 11/19/2013
4900009880 410-13-034-26 PN Party Chief KS ENGINEERS, P.C. NEWARK NJ $85,000 P41013034 11/18/2013
4900009881 410-13-034-27 PN Instrument Person KS ENGINEERS, P.C. NEWARK NJ $75,000 P41013034 11/18/2013
4900009882 COO-12-035-2 PMO Bus Analyst TOLL INTERNATIONAL LLC NEW YORK NY $150,000 PCOO12035 11/18/2013
4900009883 410-13-050-1 LGA Site Office Engineer HAIDER ENGINEERING, P.C. FARMINGDALE NY $127,710 P41013050 11/18/2013
4900009884 410-13-050-2 JFK Site Office Engineer HAIDER ENGINEERING, P.C. FARMINGDALE NY $121,770 P41013050 11/18/2013
4900009885 410-13-057-3 LGA Site Construction Inspector HAIDER ENGINEERING, P.C. FARMINGDALE NY $152,955 P41013057 11/18/2013
4900009886 410-13-057-4 EWR Site Construction Inspector HAIDER ENGINEERING, P.C. FARMINGDALE NY $142,560 P41013057 11/18/2013
4900009887 410-13-039-1 PATC Site Support Office Engineer HIRANI ENGINEERING & LAND SURVEYING, P.C. JERICHO NY $124,212 P41013039 11/18/2013
4900009888 410-13-039-2 PATH Civil Engineer HIRANI ENGINEERING & LAND SURVEYING, P.C. JERICHO NY $150,000 P41013039 11/18/2013
4900009889 410-13-039-3 PATH Electrical Inspector HIRANI ENGINEERING & LAND SURVEYING, P.C. JERICHO NY $161,000 P41013039 11/18/2013
4900009890 410-13-037-2 PATC Onsite Construction Admin/Engineering Svs FIELD ASSOCIATES, P.C. ROOSEVELT NY $97,000 P41013037 11/18/2013
4900009891 410-13-046-2 PATC Onsite Construction Manager JCMS, INC. MERCERVILLE NJ $136,110 P41013046 11/18/2013
4900009892 410-13-047-3 PATC Construction Manager SCI ENGINEERING, P.C NEW YORK NY $124,313 P41013047 11/18/2013
4900009868 415-13-109-5 PN Port St, Brewster Rd Connector GRL ENGINEERS, INC. CLEVELAND OH $9,660 P41513109 11/15/2013
4900009869 415-13-100-10 BBNCP Construction Permitting Services SAM SCHWARTZ ENGINEERING, PLLC NEW YORK NY $71,600 P41513100 11/15/2013
4900009870 415-13-094-2 GWB Upper Level Structural Repairs MODJESKI AND MASTERS, INC. MECHANICSBURG PA $94,225 P41513094 11/15/2013
4900009871 415-13-127-12 PN Sanitary Lift Stn Rehabilitation SIMCO ENGINEERING, P.C. NEW YORK NY $25,200 P41513127 11/15/2013
4900009872 410-13-060-5 EWR Civil Construction Mgt Services MAITRA ASSOCIATES, P.C. SOMERSET NJ $45,000 P41013060 11/15/2013
4900009873 410-13-034-24 PATH West Side Crossover Extension Surveying KS ENGINEERS, P.C. NEWARK NJ $26,000 P41013034 11/15/2013
4900009874 410-13-034-25 PN CAD Technician KS ENGINEERS, P.C. NEWARK NJ $85,000 P41013034 11/15/2013
4900009875 415-13-156-8 LGA Salt Water Damage to Lighting BURNS ENGINEERING, INC. ISELIN NJ $119,849 P41513156 11/15/2013
4900009876 410-13-007-5 JFK Bergen Basin Hydro Surveying ROGERS SURVEYING, P.L.L.C. STATEN ISLAND NY $7,230 P41013007 11/15/2013
4900009877 410-13-029-8 SWF Runway 16-34 Surveying TECTONIC ENGINEERING & SURVEYING CONSULTANTS, P.C. MOUNTAINVILLE NY $60,000 P41013029A 11/15/2013
4900009862 415-13-185-4 HT Onsite Electrical Engineering Services LOCKWOOD, KESSLER & BARTLETT, INC. SYOSSET NY $308,251 P41513185 11/14/2013
4900009863 415-13-013-3 JFK Bldg 350 Condition Surveying SUPERSTRUCTURES: ENGINEERING + ARCHITECTURE, PLLC NEW YORK NY $36,857 P41513013 11/14/2013
4900009864 410-13-027-6 PJ Pulaski St Bound Update THE RBA GROUP, INC. PARISIPPANY NJ $16,363 P41013027 11/14/2013
4900009865 415-13-164-10 PATH Louvers Replacement Substn 4 LIZARDOS ENGINEERING ASSOCIATES, P.C. MINEOLA NY $49,680 P41513164 11/14/2013
4900009866 415-13-164-9 PATH Ventilation System Installation LIZARDOS ENGINEERING ASSOCIATES, P.C. MINEOLA NY $30,960 P41513164 11/14/2013
4900009867 415-13-164-11 Greenville Yd As-Build Drawings LIZARDOS ENGINEERING ASSOCIATES, P.C. MINEOLA NY $79,820 P41513164 11/14/2013
4900009859 COO-13-027-5 EWR-PATH Risk Analysis PMA CONSULTANTS L.L.C. NEW YORK NY $31,986 PCOO13027 11/12/2013
4900009860 426-13-048-32 PN/EP Traffic Signal System CRAIG GEOTECHNICAL DRILLING CO INC. MAYS LANDING NJ $85,000 P42613048 11/12/2013
4900009861 415-13-112-3 LGA Corrosion Protection Analysis Study RUSSELL CORROSION CONSULTANTS, INC. COLUMBIA MD $46,220 P41513112 11/12/2013
4900009856 402-13-012-2 HT Construction Cost Estimating Services HILL INTERNATIONAL, INC. NEW YORK NY $565,922 P40213012 11/7/2013
4900009857 415-13-103-4 GWB Wrong Way Assessment HENNINGSON DURHAM & RICHARDSON ARCH. & ENGINEERING PC NEW YORK NY $66,000 P41513103 11/7/2013
4900009841 415-13-106-1 GWB Cabrini Park Improvements MKW + ASSOCIATES, LLC RUTHERFORD NJ $46,040 P41513106 11/5/2013
4900009842 410-13-012-1 LT East Ramp Water Leak Utility Designating/Locating Services HAKS ENGINEERS AND LAND SURVEYORS P.C. NEW YORK NY $2,870 P41013012 11/5/2013
4900009843 415-13-118-2 PATH Hackensack Lift Bridge WILBUR SMITH ASSOCIATES (MERGER) PITTSBURGH PA $12,144 P41513118 11/5/2013
4900009844 410-13-013-1 PATH Harrison HH Utility Designating/Locating Services INFRAMAP CORP. WINDSOR NJ $4,700 P41013013 11/5/2013
4900009845 410-13-022-2 GWB-PIP Helix Surveying Services KUPPER LLC TRENTON NJ $27,614 P41013022A 11/5/2013
4900009846 410-13-034-21 PATH A&B Surveying Services KS ENGINEERS, P.C. NEWARK NJ $34,755 P41013034 11/5/2013
4900009847 410-13-007-4 GB Old Pl Creek Wetland Mitigation ROGERS SURVEYING, P.L.L.C. STATEN ISLAND NY $59,769 P41013007 11/5/2013
4900009848 410-13-034-22 PATH Southwest Quad Head House KS ENGINEERS, P.C. NEWARK NJ $1,850 P41013034 11/5/2013
4900009849 410-13-034-23 Pt Jersey Blvd Survey Services KS ENGINEERS, P.C. NEWARK NJ $22,500 P41013034 11/5/2013
4900009850 410-13-035-1 LGA Bowery Bay Ext Surveying Services NAIK CONSULTING GROUP, P.C. NEW YORK NY $45,976 P41013035A 11/5/2013
4900009851 410-13-035-2 LGA Ingraham Mtn Tree Surveying Services NAIK CONSULTING GROUP, P.C. NEW YORK NY $74,878 P41013035A 11/5/2013
4900009852 410-13-035-3 EWR Onsite Utlity Coordinator NAIK CONSULTING GROUP, P.C. NEW YORK NY $75,000 P41013035A 11/5/2013
4900009853 410-13-015-30 PATH Hackensack Bridge Util TBE GROUP, INC. PRINCETON NJ $2,181 P41013015 11/5/2013
4900009854 410-13-015-31 PATH-HCMF Solar Inverter TBE GROUP, INC. PRINCETON NJ $1,459 P41013015 11/5/2013
4900009855 410-13-033-1 PATC Onsite CAD/Surveying Tech HAKS ENGINEERS AND LAND SURVEYORS P.C. NEW YORK NY $75,000 P41013033 11/5/2013
4900009840 415-13-131-2 JFK Onsite Traffic Engineer AMERCOM CORP. CONSULTING ENGINEERS PARSIPPANY NJ $210,300 P41513131 11/4/2013
4900009836 415-13-150-1 GWB Alternative Fuel Vehicles HATCH MOTT MACDONALD NEW YORK NY $51,868 P41513150 11/1/2013
4900009837 410-13-024-44 SWF Survey/CAD Technician MASER CONSULTING P.A. RED BANK NJ $60,000 P41013024 11/1/2013
4900009838 410-13-024-45 JFK Survey/CAD Technician MASER CONSULTING P.A. RED BANK NJ $60,000 P41013024 11/1/2013
4900009839 COO-11-006-19 JFK Project Manager AECOM USA, INC NEW YORK NY $305,000 PCOO11006 11/1/2013
4900009834 426-13-058-14 NJMT Immediate Repairs BOSWELL ENGINEERING SOUTH HACKENSACK NJ $22,500 P42613058 10/31/2013
4900009835 426-13-048-31 PATH Harrison Stn Quadrant Environmental Investigation CRAIG GEOTECHNICAL DRILLING CO INC. MAYS LANDING NJ $30,000 P42613048 10/31/2013
4500064535 HRD-12-005-1 Executive Search/Chief Compliance ASPEN OF DC, INC. WASHINGTON DC $45,000 PHRD12005A 10/28/2013
4900009830 410-13-040-8 EWR Civil Construction Mgt Inspection (M/WBE) KS ENGINEERS, P.C. NEWARK NJ $68,000 P41013040 10/28/2013
4900009831 410-13-058-10 NJMT Civil Construction Mgt Inspection (M/WBE) IH ENGINEERS, PC PRINCETON NJ $78,200 P41013058 10/28/2013
4900009832 402-13-012-2 Storm Claims Management HILL INTERNATIONAL, INC. NEW YORK NY $552,853 P40213012 10/28/2013
4900009833 415-13-049-1E LGA Parking Garage Terminal C Pedestrian Walkway TOR C HENNINGSON, DURHAM & RICHARDSON ARCH. & ENG. P.C (HDR) PEARL RIVER NY $507,480 P41513049 10/28/2013
4500064527 CFO-13-001 Expert Insurance Advisory Svs ERNST & YOUNG LLP BROOKLYN NY $500,000 PCFO13001 10/25/2013
4500064528 HRD-12-017-3 Exec Search - Deputy Director, Rail KRAUTHAMER & ASSOCIATES, INC. CHEVY CHASE MD $70,000 PHRD12017 10/25/2013
4500064529 HRD-12-017-2 Exec Search - Deputy Director, Rail KRAUTHAMER & ASSOCIATES, INC. CHEVY CHASE MD $60,000 PHRD12017 10/25/2013
4500064530 HRD-12-009-2 Exec Search/Chief Cap Plan CTPARTNERS NEW YORK NY $80,000 PHRD12009 10/25/2013
4900009807 415-08-301-10 Develop Resiliency Mgt Tool in Collaboration with DHS URS CORPORATION NEW YORK NY $242,000 P41508301 10/25/2013
4900009808 415-13-099-3 LT Replacement of Aboveground Storage Tanks T&M ASSOCIATES MIDDLETOWN NJ $53,581 P41513099 10/25/2013
4900009809 415-13-156-7 JFK Analysis of Salt Water Damage BURNS ENGINEERING, INC. ISELIN NJ $112,549 P41513156 10/25/2013
4900009810 410-13-034-20 PATH Hackensack Bridge Topographic/Boundary Surveying KS ENGINEERS, P.C. NEWARK NJ $12,500 P41013034 10/25/2013
4900009811 410-13-007-3 HH/BP Hydrographic Survey ROGERS SURVEYING, P.L.L.C. STATEN ISLAND NY $25,915 P41013007 10/25/2013
4900009812 410-13-015-29 EWR Earhart Dr & RSR Utility Designating/Locating Svs TBE GROUP, INC. PRINCETON NJ $8,297 P41013015 10/25/2013
4900009813 410-13-014-8 EWR Temp Guard Post F Utility Designating/Locating Svs TAYLOR WISEMAN AND TAYLOR MOUNT LAUREL NJ $12,500 P41013014 10/25/2013
4900009814 410-13-022-1 PATH Harrison Stn Survey KUPPER LLC TRENTON NJ $10,600 P41013022A 10/25/2013
4900009815 410-13-024-43 PATH Harrison Stn Topographic/Boundary Surveying MASER CONSULTING P.A. RED BANK NJ $3,280 P41013024 10/25/2013
4900009817 402-13-033-1 NJOF Contract Mgt Specialist MACON PACE INC. HAMILTON NJ $240,750 P40213033 10/25/2013
4900009818 426-13-034-5 SWF Runways 9/27 & 16/34 Rehabilitation MACTEC ENGINEERING AND CONSULTING, INC. BELTSVILLE MD $20,000 P42613034 10/25/2013
4900009819 426-13-041-3 EWR Condition Assessment of Existing Fuel Farm Water Storage Tanks PCA ENGINEERING, INC. POMPTON LAKES NJ $9,750 P42613041 10/25/2013
4900009820 426-13-041-4 EWR Fire Pump Storage Tanks PCA ENGINEERING, INC. POMPTON LAKES NJ $9,750 P42613041 10/25/2013
4900009821 426-13-041-5 JFK Fire Pump Storage Tanks PCA ENGINEERING, INC. POMPTON LAKES NJ $9,000 P42613041 10/25/2013
4900009823 426-13-057-5 EWR CCTV Inspection of Drainage Lines A&B NATIONAL WATER MAIN CLEANING COMPANY NEWARK NJ $12,000 P42613057 10/25/2013
4900009825 410-13-028-2 LGA CAD Technician STANTEC CONSULTING SERVICES, INC NEW YORK NY $75,000 P41013028A 10/25/2013
4900009826 426-13-029-11 BB Replacement of Main Span Roadway & Approach Structures ADVANCE TESTING COMPANY, INC. CAMPBELL HALL NY $100,000 P42613029 10/25/2013
4900009827 426-13-051-34 PATH Chloride in Concrete Testing HAMPTON-CLARKE, INC. FAIRFIELD NJ $25,000 P42613051 10/25/2013
4900009828 410-11-044-30 SWF Electrical Construction Inspector GREENMAN-PEDERSEN, INC. BABYLON NY $79,000 P41011044 10/25/2013
4900009829 410-11-044-31 JFK Contract Specialist GREENMAN-PEDERSEN, INC. BABYLON NY $50,000 P41011044 10/25/2013
4900009798 410-13-024-39 SWF AOA Control Topographic/Boundary Surveying MASER CONSULTING P.A. RED BANK NJ $1,518 P41013024 10/24/2013
4900009799 410-13-024-40 JFK Support Topographic/Boundary Surveying MASER CONSULTING P.A. RED BANK NJ $21,065 P41013024 10/24/2013
4900009800 410-13-024-41 SWF Topographic/Boundary Surveying MASER CONSULTING P.A. RED BANK NJ $2,375 P41013024 10/24/2013
4900009802 410-13-014-7 GWB PIP Helix Utility Designating/Locating TAYLOR WISEMAN AND TAYLOR MOUNT LAUREL NJ $65,000 P41013014 10/24/2013
4900009803 402-13-020-3 Construction Contract Submittal Svs TOLL INTERNATIONAL LLC NEW YORK NY $247,600 P40213020 10/24/2013
4900009804 410-13-019-1 EWR/TEB Survey Technician KS ENGINEERS, P.C. NEWARK NJ $60,000 P41013019B 10/24/2013
4900009805 410-13-027-5 Topographic/Boundary Surveying CAD Technician THE RBA GROUP, INC. PARISIPPANY NJ $80,000 P41013027 10/24/2013
4900009806 410-13-034-19 LT 39th, 10th, 11th Streets Topographic/Boundary Surveying KS ENGINEERS, P.C. NEWARK NJ $8,400 P41013034 10/24/2013
4500064523 TBT-13-018-1 TB&T Toll Class 1 Passenger Vehicle KLD ASSOCIATES, INC. HAUPPAUGE NY $54,000 PTBT13018 10/22/2013
4900009793 415-13-127-9 PJ Colony Rd Rehabilitation Stages 3 & 4 SIMCO ENGINEERING, P.C. NEW YORK NY $15,100 P41513127 10/22/2013
4900009794 415-13-127-11 JFK Rockaway Blvd Access Phase 2 SIMCO ENGINEERING, P.C. NEW YORK NY $18,500 P41513127 10/22/2013
4900009795 415-13-127-10 LT Replacement of Aboveground Storage Tanks SIMCO ENGINEERING, P.C. NEW YORK NY $28,800 P41513127 10/22/2013
4900009796 COO-12-030-8 NJOF Project Consultant STELLAR SERVICES, INC. NEW YORK NY $177,390 PCOO12030 10/22/2013
4900009797 COO-11-009-5 JFK Logic Plan Project Manager LOUIS BERGER & ASSOC., P.C. NEW YORK NY $101,137 PCOO11009 10/22/2013
4900009780 410-13-024-37 EWR Surveying Utility Chief MASER CONSULTING P.A. RED BANK NJ $85,000 P41013024 10/18/2013
4900009781 410-13-024-38 EWR Surveying Instrument Person MASER CONSULTING P.A. RED BANK NJ $50,000 P41013024 10/18/2013
4900009782 415-13-101-10 BB Ironbound White Paper and Study Validation VHB ENGINEERING, SURVEYING AND LANDSCAPE ARCHITECTURE, P.C. WATERTOWN MA $36,400 P41513101 10/18/2013
4900009783 415-13-101-11 JFK Terminal 4 Operational Analysis VHB ENGINEERING, SURVEYING AND LANDSCAPE ARCHITECTURE, P.C. WATERTOWN MA $49,800 P41513101 10/18/2013
4900009784 415-13-071-11 GBRP Remedial Investigation at Block 4 Lots 49 & 49A MALCOLM PIRNIE, INC. FAIR LAWN NJ $50,071 P41513071 10/18/2013
4900009785 415-13-071-12 GBRP Remedial Investigation at Block 4 Lots 1470 MALCOLM PIRNIE, INC. FAIR LAWN NJ $50,115 P41513071 10/18/2013
4900009786 410-11-046-42 PATH Water Mgt System PARSONS BRINCKERHOFF, INC. NEW YORK NY $160,000 P41011046 10/18/2013
4900009787 415-13-033-2 GWB Replace ITS MICHAEL BAKER ENGINEERING, INC. PITTSBURGH PA $866,966 P41513033 10/18/2013
4900009788 415-13-072-15 JFK Former Bldg 199 Remediation - Environmental Consulting Svs TRC ENGINEERS, INC. NEW YORK NY $43,200 P41513072 10/18/2013
4900009789 415-13-142-5 LGA Development of Ingraham's Mountain Stages 3 & 4 CHA CONSULTING, INC. ALBANY NY $490,859 P41513142 10/18/2013
4900009790 415-13-039-3 EWR NE Transfer Term Model Repair STUDIO ASSOCIATES OF NEW YORK, INC. NEW YORK NY $21,800 P41513039 10/18/2013
4900009791 415-13-043-1 EWR Terminal B Departures / Ticketing with New Mezzanine & Offices JOHN BARTELSTONE PHOTOGRAPHY LLC NEW YORK NY $3,365 P41513043 10/18/2013
4900009773 410-13-027-1 PATH Powerhouse & Sub 2 Survey THE RBA GROUP, INC. PARISIPPANY NJ $9,330 P41013027 10/16/2013
4900009774 410-13-027-3 EWR Party Chief THE RBA GROUP, INC. PARISIPPANY NJ $85,000 P41013027 10/16/2013
4900009775 410-13-027-4 EWR Instrument Person THE RBA GROUP, INC. PARISIPPANY NJ $65,000 P41013027 10/16/2013
4900009776 426-13-057-4 HT CCTV Inspection of Supply Blower Ports NATIONAL WATER MAIN CLEANING COMPANY NEWARK NJ $65,000 P42613057 10/16/2013
4900009777 415-13-098-3 EWR Priority Bridge Repairs KS ENGINEERS, P.C. NEWARK NJ $25,000 P41513098 10/16/2013
4900009778 415-13-144-7 OBX Temporary Sewer Connection STANTEC CONSULTING SERVICES, INC NEW YORK NY $6,800 P41513144 10/16/2013
4900009779 415-13-168-1 NJMT Priority Marine Rehabilitation M.G. MCLAREN, P.C. WEST NYACK NY $91,095 P41513168 10/16/2013
4900009772 402-13-018-3 Contracts Mgt Specialist SAVIN ENGINEERS, P.C. PLEASANTVILLE NY $112,864 P40213018 10/15/2013
4900009770 410-12-303-21 BBNCP Construction Mgt Services GREENMAN-PEDERSEN, INC. BABYLON NY $94,976 P41012303 10/11/2013
4900009768 410-13-021-3 PATC Topographic/Boundary Surveying Party Chief KENNON SURVEYING SERVICES, INC. WARREN NJ $150,000 P41013021A 10/11/2013
4900009769 410-13-021-4 PATC Topographic/Boundary Surveying Instrument Person KENNON SURVEYING SERVICES, INC. WARREN NJ $150,000 P41013021A 10/11/2013
4900009771 415-13-101-9 GWB Travel Time Analysis Tool VHB ENGINEERING, SURVEYING AND LANDSCAPE ARCHITECTURE, P.C. WATERTOWN MA $95,200 P41513101 10/11/2013
4900009763 410-12-303-19 BBNCP Construction Mgt Services GREENMAN-PEDERSEN, INC. BABYLON NY $87,000 P41012303 10/9/2013
4900009764 410-12-303-20 BBNCP Construction Mgt Services GREENMAN-PEDERSEN, INC. BABYLON NY $98,400 P41012303 10/9/2013
4900009760 410-13-014-6 EWR HOV Roadway Term B Utility Designating/Locating TAYLOR WISEMAN AND TAYLOR MOUNT LAUREL NJ $5,100 P41013014 10/9/2013
4900009759 410-13-015-28 PATH Hackensack Bridge Utility Designating/Locating TBE GROUP, INC. PRINCETON NJ $1,950 P41013015 10/9/2013
4900009761 410-13-024-36 PATC Topographic/Boundary Surveying Project Coordinator MASER CONSULTING P.A. RED BANK NJ $75,000 P41013024 10/9/2013
4900009762 410-13-027-1 EWR Topographic/Boundary Surveying Project Coordinator THE RBA GROUP, INC. PARISIPPANY NJ $85,000 P41013027 10/9/2013
4900009766 415-13-012-1 HT Bulkhead Doors Replacement AMMANN & WHITNEY CONSULTING ENGINEERS, P.C. NEW YORK NY $239,985 P41513012 10/9/2013
4900009765 415-13-052-1 PATH West Side Ave Double Crossovers HNTB NEW YORK ENGINEERING & ARCHITECTURE, PC NEW YORK NY $177,513 P41513052 10/9/2013
4900009767 415-13-059-7 LGA Relocation of Watch Engineer Ofc from CTB to Hangar 7 So. AMSEC LLC VIRGINIA BEACH VA $61,058 P41513059 10/9/2013
4900009758 405-13-025-4 Greenville Yd NYNJ Rail Baseline Condtion Survey of Mooring Cells MOFFATT & NICHOL NEW YORK NY $76,879 P40513025 10/8/2013
4900009756 415-13-020-4 PATH Grove St Stages 3 & 4 Access GRUNIG, WERTZ AND ASSOCIATES NEW YORK NY $3,000 P41513020 10/7/2013
4900009757 426-13-034-4 JFK Taxiway B Rehabilitation MACTEC ENGINEERING AND CONSULTING, INC. BELTSVILLE MD $20,000 P42613034 10/7/2013
4900009755 426-13-050-9 Pt Ivory Tracks 16 & 17 Soil Pile ALPHA ANALYTICAL, INC. WESTBOROUGH MA $70,000 P42613050 10/7/2013
4900009748 402-13-026-4 PATH Grove Street Modeling MICRODESK, INC. NASHUA NH $29,776 P40213026 10/4/2013
4900009749 415-13-142-4 LT Fire/Water Line Repairs CHA CONSULTING, INC. ALBANY NY $46,667 P41513142 10/4/2013
4900009750 426-13-051-33 PN/PE Sediment Analysis HAMPTON-CLARKE, INC. FAIRFIELD NJ $120,000 P42613051 10/4/2013
4900009751 415-13-071-16 JFK BFF/SFF PLC Support MALCOLM PIRNIE, INC. FAIR LAWN NJ $7,496 P41513071 10/4/2013
4900009752 415-13-071-17 BB Arsenic Site LSRP Services MALCOLM PIRNIE, INC. FAIR LAWN NJ $35,955 P41513071 10/4/2013
4900009745 426-13-054-10 GWB Main Span UL Rehabilitation KTA-TATOR, INC. PITTSBURGH PA $70,000 P42613054 10/3/2013
4900009746 426-13-050-8 BB Analysis Services ALPHA ANALYTICAL, INC. WESTBOROUGH MA $20,000 P42613050 10/3/2013
4900009725 415-13-101-8 JFK Onsite Traffic Engineer VHB ENGINEERING, SURVEYING AND LANDSCAPE ARCHITECTURE, P.C. WATERTOWN MA $225,100 P41513101 10/2/2013
4900009726 415-13-122-6 PATH Grove St. Interim ADA Access - Stage 3 & 4 DEWBERRY ENGINEERS INC. BLOOMFIELD NJ $130,000 P41513122 10/2/2013
4900009727 415-13-131-3 EWR Onsite Traffic Engineer AMERCOM CORP. CONSULTING ENGINEERS PARSIPPANY NJ $136,100 P41513131 10/2/2013
4900009728 415-13-042-3 BB Onsite Senior Traffic Engineer THE RBA GROUP, INC. PARISIPPANY NJ $228,000 P41513042 10/2/2013
4900009730 415-13-117-2 PATH Washington St. Substation ENV PENTAGRAM DESIGN, INC. NEW YORK NY $68,860 P41513117 10/2/2013
4900009731 426-13-049-5 HH Maintenance Dredge Sampling UNI-TECH DRILLING CO., INC. FRANKLINVILLE NJ $7,000 P42613049 10/2/2013
4900009732 426-13-049-6 PN Maintenance Dredge Sampling UNI-TECH DRILLING CO., INC. FRANKLINVILLE NJ $58,500 P42613049 10/2/2013
4900009733 426-13-049-7 PE Maintenance Dredge Sampling UNI-TECH DRILLING CO., INC. FRANKLINVILLE NJ $58,500 P42613049 10/2/2013
4900009734 410-13-034-18 PATH Open Area East Surveying KS ENGINEERS, P.C. NEWARK NJ $8,700 P41013034 10/2/2013
4900009735 410-13-071-2 PATC Structural Construction Inspection SCI ENGINEERING, P.C NEW YORK NY $83,000 P41013071 10/2/2013
4900009736 415-13-093-1 HH Substructure Post Award Fabrication & Constructability Issues HNTB NEW YORK ENGINEERING PC NEW YORK NY $88,686 P41513093 10/2/2013
4900009737 426-13-048-30 PATH Harrison Additional Geotech. Investig. CRAIG GEOTECHNICAL DRILLING CO INC. MAYS LANDING NJ $6,000 P42613048 10/2/2013
4900009738 415-13-144-5 GWB Gas Leak Repairs STANTEC CONSULTING SERVICES, INC NEW YORK NY $11,000 P41513144 10/2/2013
4900009739 415-13-144-6 LGA Landside Paving/ADA compliance STANTEC CONSULTING SERVICES, INC NEW YORK NY $46,787 P41513144 10/2/2013
4900009740 415-13-100-9 LT Manual Construction Permitting SAM SCHWARTZ ENGINEERING, PLLC NEW YORK NY $75,700 P41513100 10/2/2013
4900009741 426-13-055-7 BBNCP Acoustics/Noise Analysis PAUL CARPENTER ASSOCIATES, INC. FLORHAM PARK NJ $205,000 P42613055 10/2/2013
4900009742 426-13-038-5 BBNCP Structural Steel/NDT MACTEC ENGINEERING AND CONSULTING, P.C. JACKSONVILLE FL $100,000 P42613038 10/2/2013
4900009744 426-13-051-32 HH Berth 3 Sediment Analysis HAMPTON-CLARKE, INC. FAIRFIELD NJ $13,500 P42613051 10/2/2013
4900009722 410-13-024-34 LT/HT Clearance Surveying MASER CONSULTING P.A. RED BANK NJ $35,000 P41013024 9/30/2013
4900009723 410-13-024-35 GWB-OVHD Clearance Surveying MASER CONSULTING P.A. RED BANK NJ $21,600 P41013024 9/30/2013
4900009724 410-13-021-2 EWR/TEB Instrument Person KENNON SURVEYING SERVICES, INC. WARREN NJ $100,000 P41013021A 9/30/2013
4900009720 415-13-122-7 PATH 33rd St. Facility DEWBERRY ENGINEERS INC. BLOOMFIELD NJ $18,000 P41513122 9/27/2013
4900009721 415-13-185-2 HT Ventilation Bldgs Generator Infrastructure Installation LOCKWOOD, KESSLER & BARTLETT, INC. SYOSSET NY $69,000 P41513185 9/27/2013
4900009718 410-13-014-5 EWR Utility Designating/Locating Services CSG#2013-274 TAYLOR WISEMAN AND TAYLOR MOUNT LAUREL NJ $23,700 P41013014 9/27/2013
4900009719 410-13-021A-1 - EWR/TEB Topographic/Boundary Surveying Party Chief KENNON SURVEYING SERVICES, INC. WARREN NJ $150,000 P41013021A 9/26/2013
4900009717 415-13-196-1 PATH Tunnel Salt Mitigation Measures to Alleviate Corrosion URS CORPORATION - NEW YORK NEW YORK NY $80,915 P41513196 9/24/2013
4900009716 415-13-004-6 HH Moonscape Investigation Services URS CORPORATION - NEW YORK NEW YORK NY $37,000 P41513004 9/23/2013
4900009715 TBT-13-015-1 Fall Data Collectors THE RBA GROUP, INC. PARISIPPANY NJ $232,400 PTBT13015 9/17/2013
4900009714 415-13-005-1 PATH Washington St. Powerhouse DOMINGO GONZALEZ ASSOCIATES, INC. NEW YORK NY $27,950 P41513005 9/13/2013
4500064431 Legal Staffing FORREST SOLUTIONS INC. NEW YORK NY $27,893 PLAW11002 9/12/2013
4900009712 415-13-302-1 PABT Master Plan KPF/PARSON BRINCKEROFF, JOINT VENTURE NEW YORK NY $5,500,000 P41513302 9/11/2013
4900009713 410-13-048-2 PATC Onsite Office Engineering C.V. ASSOCIATES NY; PE; PC HARRIMAN NY $63,000 P41013048 9/11/2013
4500064424 AVI-13-005-1 JFK Conceptual Planning and Capacity Analysis TRISTATE AVIATION D/B/A DY CONSULTANTS GARDEN CITY NY $587,982 PAVI13005 9/10/2013
4900009708 415-13-147-8 NJMT Sediment Sampling & Testing Plan HENNINGSON DURHAM & RICHARDSON ARCH. & ENGINEERING PC NEW YORK NY $43,800 P41513147 9/10/2013
4900009709 415-13-077-4 PATH Grove St. ADA Access GANNETT FLEMING ENGINEERS AND ARCHITECTS, P.C. NEW YORK NY $140,819 P41513077 9/10/2013
4900009710 415-13-100-8 EWR Roadway Construction Permitting Services SAM SCHWARTZ ENGINEERING, PLLC NEW YORK NY $80,000 P41513100 9/10/2013
4900009711 415-13-041-7 LGA Hangar 7 Parking & Traffic Analysis MASER CONSULTING P.A. RED BANK NJ $34,200 P41513041 9/10/2013
4900009703 415-13-059-6 PATH Grove St. Interim ADA AMSEC LLC VIRGINIA BEACH VA $201,897 P41513059 9/6/2013
4900009704 410-13-015-26 EWR Term B Substation 4 Utility Locating TBE GROUP, INC. PRINCETON NJ $16,500 P41013015 9/6/2013
4900009705 410-13-015-27 LGA Parking Lot 1 Utility Locating TBE GROUP, INC. PRINCETON NJ $39,465 P41013015 9/6/2013
4900009706 410-12-303-9 BBNCP - Construction Mgt Services GREENMAN-PEDERSEN, INC. BABYLON NY $110,000 P41012303 9/6/2013
4900009707 410-13-029-7 SWF Exhibit Bldg Surveying TECTONIC ENGINEERING & SURVEYING CONSULTANTS, P.C. MOUNTAINVILLE NY $2,365 P41013029A 9/6/2013
4900009699 415-13-147-9 PATH Hackensack Bridge AST Permits HENNINGSON DURHAM & RICHARDSON ARCH. & ENGINEERING PC NEW YORK NY $52,250 P41513147 9/5/2013
4900009700 415-13-071-14 NJMT W/O#1 & 2 Dredging Inspections MALCOLM PIRNIE, INC. FAIR LAWN NJ $53,000 P41513071 9/5/2013
4900009701 415-13-147-10 TEB 79 Acre Mitigation Feasilbility Investigation HENNINGSON DURHAM & RICHARDSON ARCH. & ENGINEERING PC NEW YORK NY $83,460 P41513147 9/5/2013
4900009702 415-13-147-7 LGA Runway Safety Area Enhancements Mitigation Planning HENNINGSON DURHAM & RICHARDSON ARCH. & ENGINEERING PC NEW YORK NY $69,110 P41513147 9/5/2013
4900009688 415-13-177-2 LGA Hydrant Fueling & Medium Voltage Distribution in East End Terminal Area BURNS ENGINEERING INC., P.C. PHILADELPHIA PA $100,510 P41513177 9/4/2013
4900009689 410-13-042-8 PATC Onsite Mechanical Construction Engineering TECHNO CONSULT, INC. PRINCETON NJ $102,000 P41013042 9/4/2013
4900009690 426-13-044-2 PATC Review of Agency's Existing Clean Diesel Construction Specifications & Other Air Quality Requirements AKRF, INC. NEW YORK NY $10,000 P42613044 9/4/2013
4900009691 410-13-014-4 EWR Wiley Road Utility Locating TAYLOR WISEMAN AND TAYLOR MOUNT LAUREL NJ $21,900 P41013014 9/4/2013
4900009692 410-13-058-8 PATH Civil Construction Inspection IH ENGINEERS, PC PRINCETON NJ $102,200 P41013058 9/4/2013
4900009693 410-13-058-9 TEB Civil Construction Inspection IH ENGINEERS, PC PRINCETON NJ $95,000 P41013058 9/4/2013
4900009694 426-13-060-3 PATH Hackensack River Bridge Deck Renewal Timer Inspection A.W. WILLIAMS INSPECTION CO., INC. MOBILE AL $15,000 P42613060 9/4/2013
4900009695 415-13-165-2 PATH Washington St. Powerhouse Substation 2 Stage 1 Revit Drafting Support R.G. VANDERWEIL ENGINEERS, LLP. LAWRENCEVILLE NJ $38,820 P41513165 9/4/2013
4900009696 410-13-024-31 EWR Overpass Clearance Surveying MASER CONSULTING P.A. RED BANK NJ $12,000 P41013024 9/4/2013
4900009697 410-13-024-32 JFK Overhead Clearance Surveying MASER CONSULTING P.A. RED BANK NJ $13,500 P41013024 9/4/2013
4900009698 410-13-024-33 SWF-NE Topo/Boundary Fuel Farm Surveying MASER CONSULTING P.A. RED BANK NJ $800 P41013024 9/4/2013
4900009671 415-13-161-1 PATH Prep of Design-Build RFP Docs for Electrical, Electronics & Civil Discipline BURNS ENGINEERING, INC. ISELIN NJ $302,805 P41513161 9/3/2013
4900009672 410-12-303-2 BBNCP - Construction Mgt Services GREENMAN-PEDERSEN, INC. BABYLON NY $110,000 P41012303 9/3/2013
4900009673 410-12-303-3 BBNCP - Construction Mgt Services GREENMAN-PEDERSEN, INC. BABYLON NY $130,000 P41012303 9/3/2013
4900009674 410-12-303-4 BBNCP - Construction Mgt Services GREENMAN-PEDERSEN, INC. BABYLON NY $100,000 P41012303 9/3/2013
4900009675 410-12-303-5 BBNCP - Construction Mgt Services GREENMAN-PEDERSEN, INC. BABYLON NY $150,000 P41012303 9/3/2013
4900009676 410-12-303-6 BBNCP - Construction Mgt Services GREENMAN-PEDERSEN, INC. BABYLON NY $90,000 P41012303 9/3/2013
4900009677 410-12-303-7 BBNCP - Construction Mgt Services GREENMAN-PEDERSEN, INC. BABYLON NY $90,000 P41012303 9/3/2013
4900009678 410-12-303-8 BBNCP - Construction Mgt Services GREENMAN-PEDERSEN, INC. BABYLON NY $75,000 P41012303 9/3/2013
4900009679 410-12-303-10 BBNCP - Construction Mgt Services GREENMAN-PEDERSEN, INC. BABYLON NY $110,000 P41012303 9/3/2013
4900009680 410-12-303-11 BBNCP - Construction Mgt Services GREENMAN-PEDERSEN, INC. BABYLON NY $125,000 P41012303 9/3/2013
4900009681 410-12-303-12 BBNCP - Construction Mgt Services GREENMAN-PEDERSEN, INC. BABYLON NY $80,000 P41012303 9/3/2013
4900009682 410-12-303-13 BBNCP - Construction Mgt Services GREENMAN-PEDERSEN, INC. BABYLON NY $90,000 P41012303 9/3/2013
4900009683 410-12-303-14 BBNCP - Construction Mgt Services GREENMAN-PEDERSEN, INC. BABYLON NY $110,000 P41012303 9/3/2013
4900009684 410-12-303-15 BBNCP - Construction Mgt Services GREENMAN-PEDERSEN, INC. BABYLON NY $110,000 P41012303 9/3/2013
4900009685 410-12-303-16 BBNCP - Construction Mgt Services GREENMAN-PEDERSEN, INC. BABYLON NY $200,000 P41012303 9/3/2013
4900009686 410-12-303-17 BBNCP - Construction Mgt Services GREENMAN-PEDERSEN, INC. BABYLON NY $250,000 P41012303 9/3/2013
4900009687 410-12-303-18 BBNCP - Construction Mgt Services GREENMAN-PEDERSEN, INC. BABYLON NY $125,000 P41012303 9/3/2013
4900009661 402-13-030-2 NJOF Project Delivery Support Mgt Services STELLAR SERVICES, INC. NEW YORK NY $144,288 P40213030 8/28/2013
4900009662 410-13-058-7 HT/LT Onsite Construction Inspector IH ENGINEERS, PC PRINCETON NJ $105,000 P41013058 8/28/2013
4900009663 415-13-072-12 PN/PE-NJDEP Case Closures TRC ENGINEERS, INC. NEW YORK NY $28,500 P41513072 8/28/2013
4900009664 415-13-031-4 GWB Intelligent Transportation Systems Engineering Services HNTB NEW YORK ENGINEERING & ARCHITECTURE, PC NEW YORK NY $229,700 P41513031 8/28/2013
4900009665 415-13-156-6 SWF Replacement of Airfield Signs BURNS ENGINEERING, INC. ISELIN NJ $62,474 P41513156 8/28/2013
4900009666 415-13-164-7 PATH Grove St. East Entrance Canopy Temporary Lighting LIZARDOS ENGINEERING ASSOCIATES, P.C. MINEOLA NY $58,060 P41513164 8/28/2013
4900009667 410-13-007-1 NJMT Hydro Surveying ROGERS SURVEYING, P.L.L.C. STATEN ISLAND NY $37,900 P41013007 8/28/2013
4900009668 410-13-007-2 PJ Hydro Surveying ROGERS SURVEYING, P.L.L.C. STATEN ISLAND NY $17,500 P41013007 8/28/2013
4900009669 415-13-008-2-SWF North East Fuel Farm Safety Assessment HATCH MOTT MACDONALD NY, INC. JERSEY CITY NJ $72,861 P41513008 8/28/2013
4900009670 415-13-129-3-HT Rehabilitation of Supply Blower Ports THE DOME TECH GROUP EDISON NJ $32,951 P41513129 8/28/2013
4900009649 415-13-164-8 PATH Hackensack Bridge Generator LIZARDOS ENGINEERING ASSOCIATES, P.C. MINEOLA NY $51,610 P41513164 8/27/2013
4900009650 426-13-058-12 NJMT-PN Marine Rehabilitation Via W/O for Berths 15, 17, 21, 23 & 25 BOSWELL ENGINEERING SOUTH HACKENSACK NJ $140,000 P42613058 8/27/2013
4900009651 415-13-071-15 GWB MF Sulfate Injection MALCOLM PIRNIE, INC. FAIR LAWN NJ $10,448 P41513071 8/27/2013
4900009652 410-13-015-24 PJ Bldg 10 East Substation Utility Locating TBE GROUP, INC. PRINCETON NJ $10,000 P41013015 8/27/2013
4900009653 415-13-061-4 PATH Exchange Pl Roof Replacement PARSONS BRINCKERHOFF, INC. NEW YORK NY $83,365 P41513061 8/27/2013
4900009654 410-13-014-1 PJ AMT Backflow Prevention Utilities TAYLOR WISEMAN AND TAYLOR MOUNT LAUREL NJ $35,000 P41013014 8/27/2013
4900009655 415-13-110-12 Pt Jersey Bldg 10 Environmental Inspection for Asbestos, Lead & Regulated Waste ATC GROUP SERVICES INC. NEW YORK NY $16,200 P41513110 8/27/2013
4900009656 410-13-014-2 EWR Bldg 190 Utility Locating Services TAYLOR WISEMAN AND TAYLOR MOUNT LAUREL NJ $19,500 P41013014 8/27/2013
4900009657 415-13-147-6 SWF Runway Incursion Mitigation Phase 1B HENNINGSON DURHAM & RICHARDSON ARCH. & ENGINEERING PC NEW YORK NY $32,667 P41513147 8/27/2013
4900009658 410-13-014-3 EWR FedEx Water Area Utility Locating TAYLOR WISEMAN AND TAYLOR MOUNT LAUREL NJ $7,000 P41013014 8/27/2013
4900009659 410-13-015-25 EWR Loading Dock Utility Locating TBE GROUP, INC. PRINCETON NJ $8,000 P41013015 8/27/2013
4900009660 415-13-061-3 JFK Bldg 156 Roofing and HVAC PARSONS BRINCKERHOFF, INC. NEW YORK NY $87,095 P41513061 8/27/2013
4900009634 415-13-066-2 PATH-JSTC FCC Regulatory Microwave PATH Replacement RCC CONSULTANTS, INC. WOODBRIDGE NJ $35,750 P41513066 8/22/2013
4900009635 415-08-303-20 PABT Interior Columns Blast Vulnerability Assessment THE LOUIS BERGER GROUP, INC. MORRISTOWN NJ $389,718 P41508303 8/22/2013
4900009636 415-08-303-21 JFK-AOA Unmanned Gates THE LOUIS BERGER GROUP, INC. MORRISTOWN NJ $342,730 P41508303 8/22/2013
4900009637 415-08-304-9 PATH Access Control & CCTV at Sub Stations and Communication Rooms STV INCORPORATED NEW YORK NY $239,077 P41508304 8/22/2013
4900009638 415-13-165-1 LGA-CTA Medium Voltage Distribution R.G. VANDERWEIL ENGINEERS, LLP. LAWRENCEVILLE NJ $198,005 P41513165 8/22/2013
4900009639 415-13-101-7 EWR-AirTrain 2013 Usage Survey VHB ENGINEERING, SURVEYING AND LANDSCAPE ARCHITECTURE, P.C. WATERTOWN MA $248,000 P41513101 8/22/2013
4900009640 COO-11-009-4 JFK Project Manager for Logistical Planning LOUIS BERGER & ASSOC., P.C. NEW YORK NY $326,490 PCOO11009 8/22/2013
4900009641 COO-12-029-8 PATC Oracle Primavera Updates MCSS, INC. HOLMDEL NJ $133,704 PCOO12029 8/22/2013
4900009642 COO-12-029-9 PATC Oracle Primavera Scheduling MCSS, INC. HOLMDEL NJ $111,240 PCOO12029 8/22/2013
4900009643 426-13-044-1 PATC Emission Inventorying & Reduction Programs AKRF, INC. NEW YORK NY $20,000 P42613044 8/22/2013
4900009645 426-13-051-31 BB Soil Disposal HAMPTON-CLARKE, INC. FAIRFIELD NJ $200,000 P42613051 8/22/2013
4900009646 415-13-100-7 PN Roadway Construction Permitting Services SAM SCHWARTZ ENGINEERING, PLLC NEW YORK NY $80,000 P41513100 8/22/2013
4900009647 415-13-066-3 HT Production Lamp Certified Lab Emissions Testing RCC CONSULTANTS, INC. WOODBRIDGE NJ $44,000 P41513066 8/22/2013
4900009648 415-13-112-2 EWR Cathodic Protection Monitoring RUSSELL CORROSION CONSULTANTS, INC. COLUMBIA MD $64,177 P41513112 8/22/2013
4900009624 405-13-004-4 GWB/LT Condition Survey Rock Slope HNTB NEW YORK ENGINEERING & ARCHITECTURE, PC NEW YORK NY $135,424 P40513004 8/20/2013
4900009625 415-13-127-6 PATH Traffic Design Engineering SIMCO ENGINEERING, P.C. NEW YORK NY $413,000 P41513127 8/20/2013
4900009626 415-13-127-8 LGA-Off Site Senior Traffic Engineer SIMCO ENGINEERING, P.C. NEW YORK NY $119,400 P41513127 8/20/2013
4900009627 415-13-127-7 LGA-Onsite Senior Traffic Engineer SIMCO ENGINEERING, P.C. NEW YORK NY $231,000 P41513127 8/20/2013
4900009628 410-13-034-12 BB-John Street Survey KS ENGINEERS, P.C. NEWARK NJ $1,500 P41013034 8/20/2013
4900009629 410-13-034-13 Pt Jersey Shore Restore Survey KS ENGINEERS, P.C. NEWARK NJ $12,200 P41013034 8/20/2013
4900009630 410-13-034-14 RLLC Elevation Certification Survey KS ENGINEERS, P.C. NEWARK NJ $2,500 P41013034 8/20/2013
4900009631 410-13-034-15 PATH Boundary/Topo/Utility Survey KS ENGINEERS, P.C. NEWARK NJ $6,500 P41013034 8/20/2013
4900009632 410-13-034-16 PATH Track Layout Survey KS ENGINEERS, P.C. NEWARK NJ $5,000 P41013034 8/20/2013
4900009633 410-13-034-17 PATH-Harrison Area Survey KS ENGINEERS, P.C. NEWARK NJ $2,500 P41013034 8/20/2013
4900009619 410-13-029-5 SWF Hangar 136 Lease Survey TECTONIC ENGINEERING & SURVEYING CONSULTANTS, P.C. MOUNTAINVILLE NY $2,500 P41013029A 8/19/2013
4900009620 410-13-029-6 SWF Lease Exhibit Survey TECTONIC ENGINEERING & SURVEYING CONSULTANTS, P.C. MOUNTAINVILLE NY $2,500 P41013029A 8/19/2013
4900009604 410-13-024-20 JFK Tree Loc Survey MASER CONSULTING P.A. RED BANK NJ $81,500 P41013024 8/16/2013
4900009605 410-13-024-21 JFK-Location Mgtmt Plan Survey MASER CONSULTING P.A. RED BANK NJ $26,950 P41013024 8/16/2013
4900009606 410-13-024-22 OBX Valley Pl Survey MASER CONSULTING P.A. RED BANK NJ $4,000 P41013024 8/16/2013
4900009607 410-13-024-23 Pt Jersey Auto-East Sub Station Survey MASER CONSULTING P.A. RED BANK NJ $6,000 P41013024 8/16/2013
4900009608 410-13-024-24 Pt Jersey Auto-Flood Mitigation Survey MASER CONSULTING P.A. RED BANK NJ $22,000 P41013024 8/16/2013
4900009609 410-13-024-25 EWR Term A Ditch Survey MASER CONSULTING P.A. RED BANK NJ $40,000 P41013024 8/16/2013
4900009610 410-13-024-26 OBX Control Survey MASER CONSULTING P.A. RED BANK NJ $2,900 P41013024 8/16/2013
4900009611 410-13-024-27 LGA Field Support Survey MASER CONSULTING P.A. RED BANK NJ $4,800 P41013024 8/16/2013
4900009612 410-13-024-28 SWF Fuel Farm Exhibit Survey MASER CONSULTING P.A. RED BANK NJ $4,000 P41013024 8/16/2013
4900009613 410-13-024-29 LGA Bldg 30 Dimension Survey MASER CONSULTING P.A. RED BANK NJ $10,000 P41013024 8/16/2013
4900009614 410-13-024-30 RLLC- Surcharge Monitoring Survey MASER CONSULTING P.A. RED BANK NJ $20,000 P41013024 8/16/2013
4900009591 415-13-009-2 BB Navigational Clearance Stage 4 CROXTON COLLABORATIVE ARCHITECTS, P.C. NEW YORK NY $99,247 P41513009 8/13/2013
4900009592 402-13-028-1 Proj Delivery M/WBE Services PMA CONSULTANTS LLC NEWARK NJ $121,246 P40213028 8/13/2013
4900009593 415-13-123-1 South St Yard Infrastructure Improvement SEVERUD ASSOCIATES CONSULTING ENGINEERS P.C. NEW YORK NY $70,600 P41513123 8/13/2013
4900009594 415-13-072-13 JFK Bldg 146 Remediation Via Sulfate Injection TRC ENGINEERS, INC. NEW YORK NY $35,026 P41513072 8/13/2013
4900009595 415-13-133-1 JFK Traffic Signal Support Svcs HDR ENGINEERING, INC. NEWARK NJ $86,000 P41513133 8/13/2013
4900009596 415-13-071-13 EWR Bldg 332 UST Removal MALCOLM PIRNIE, INC. FAIR LAWN NJ $16,935 P41513071 8/13/2013
4900009597 405-13-014-1 2Montg Street Bldg Condition Survey URS CORPORATION - NEW YORK NEW YORK NY $83,484 P40513014 8/13/2013
4900009598 426-13-054-9 JFK Restricted Vehicle Service Road Bridge J8 Replacement KTA-TATOR, INC. PITTSBURGH PA $22,000 P42613054 8/13/2013
4900009599 426-13-051-29 EWR Hangar 14 Concrete Sample HAMPTON-CLARKE, INC. FAIRFIELD NJ $9,000 P42613051 8/13/2013
4900009600 426-13-051-30 BB AKB Soil Piles HAMPTON-CLARKE, INC. FAIRFIELD NJ $11,000 P42613051 8/13/2013
4900009601 415-13-020-3 PATH Grove St Access Stage 1 GRUNIG, WERTZ AND ASSOCIATES ARCHITECTS NEW YORK NY $10,600 P41513020 8/13/2013
4900009602 405-13-014-2 SWF Condition Survey Bldgs 112, 800, 806, 810 URS CORPORATION - NEW YORK NEW YORK NY $100,262 P40513014 8/13/2013
4900009603 405-12-033-1 On-Site Consultant-Architect Review of Documents STANTEC CONSULTING SERVICES, INC NEW YORK NY $327,643 P40512033 8/13/2013
4500064332 PAT-13-002-1 Multi-Fac PATH Space Program Plan AECOM USA, INC NEW YORK NY $180,000 PPAT13002 8/12/2013
4900009590 415-13-110-11 LGA Abatement & Demolition of Hangars 2 & 4 ATC GROUP SERVICES INC. NEW YORK NY $47,500 P41513110 8/9/2013
4900009582 415-13-094-1 EWR Precondition Air & Ground Power Units at Gates 62 & 63 Stage 3 Design & Stage 4 Cons Sppt Svcs MODJESKI AND MASTERS, INC. MECHANICSBURG PA $48,260 P41513094 8/8/2013
4900009583 426-13-058-11 MFP - NY & NJ Marine Terminals Fender System Rehabilitation BOSWELL ENGINEERING SOUTH HACKENSACK NJ $7,000 P42613058 8/8/2013
4900009584 426-13-052-7 JFK Term 5 Remedial Investigation TESTAMERICA LABORATORIES, INC EDISON NJ $25,000 P42613052 8/8/2013
4900009585 426-13-057-3 SWF Cleaning & CCTV Inspection of Storm Water Drainage System NATIONAL WATER MAIN CLEANING COMPANY NEWARK NJ $195,000 P42613057 8/8/2013
4900009587 415-13-003-4 PN Bldgs 260 & 111 Flood Resiliency Prog - Shop Draw. Review PARSONS BRINCKERHOFF, INC. NEW YORK NY $23,000 P41513003 8/8/2013
4900009588 415-13-157-3 JFK Elec Engineering Services CH2M HILL NEW YORK, INC. NEW YORK NY $24,770 P41513157 8/8/2013
4900009589 415-13-157-4 JFK Elec Engineering Services CH2M HILL NEW YORK, INC. NEW YORK NY $73,427 P41513157 8/8/2013
4900009580 415-13-139-1 SWF Pavement Mgt Sys Update APPLIED PAVEMENT TECHNOLOGY, INC. URBANA IL $47,906 P41513139 8/6/2013
4900009568 415-13-110-11 LGA Abatement & Demolition of Hangars 2 & 4 ATC GROUP SERVICES INC. NEW YORK NY $47,500 P41513110 8/5/2013
4900009569 415-13-016-2 Environmental Data Mgt Support SQL SOLUTIONS, INC. REISTERSTOWN MD $89,364 P41513016 8/5/2013
4900009570 415-13-127-5 PN Port St & Brewster Rd St SIMCO ENGINEERING, P.C. NEW YORK NY $16,300 P41513127 8/5/2013
4900009571 415-13-039-2 LGA Site Model Stage 1 STUDIO ASSOCIATES OF NEW YORK, INC. NEW YORK NY $19,500 P41513039 8/5/2013
4900009572 415-13-046-2 PABT Repairs of So.Wing Stair D Stages 3 & 4 TING & LI ARCHITECTS, PC New York NY $48,810 P41513046 8/5/2013
4900009573 415-13-132-3 LGA-CTA Hydrant Fueling and Medium Voltage Distribution GREENMAN-PEDERSEN, INC. BABYLON NY $42,000 P41513132 8/5/2013
4900009574 410-13-024-17 EWR Topo/Boundary Survey Utility Party Chief MASER CONSULTING P.A. RED BANK NJ $90,000 P41013024 8/5/2013
4900009575 410-13-024-18 EWR Survey Utility Instrument Person MASER CONSULTING P.A. RED BANK NJ $90,000 P41013024 8/5/2013
4900009576 410-13-024-19 JFK-Survey CAD Technician MASER CONSULTING P.A. RED BANK NJ $80,000 P41013024 8/5/2013
4900009577 410-13-058-6 PATH On Site Support IH ENGINEERS, PC PRINCETON NJ $128,000 P41013058 8/5/2013
4900009578 415-13-044-6 GWB Toll Booth 6 Rehab Stages 3 & 4 APA /AHUJA PARTNERSHIP ARCHITECTS NEW YORK NY $50,265 P41513044 8/5/2013
4900009579 415-13-033-1 GWB Replacement of Intelligent Transportation System (ITS) Stage 1 MICHAEL BAKER ENGINEERING, INC. PITTSBURGH PA $375,000 P41513033 8/5/2013
4500064212 Bloom, Nancy 2013-14 DR. NANCY L. BLOOM FARMINGDALE NJ $25,000 PHRD13031 6/26/2013
4500064213 Clark, Kathryn 2013-14 KATHRYN L. CLARK, Psy.D., J.D. BROOKLYN NY $25,000 PHRD13032 6/26/2013
4500064211 Fenster, Abe 2013-14 ABE FENSTER NEW YORK NY $25,000 PHRD13033 6/26/2013
4500064210 Guller, Matthew 2013-14 MATTHEW GULLER, J.D., Ph.D. OAKLAND NJ $25,000 PHRD13034 6/26/2013
4500064209 Kanen, Robin 2013-14 KANEN PSYCHOLOGICAL SERVICES RIDGEWOOD NJ $25,000 PHRD13035 6/26/2013
4500064208 Kaufman, Michele 2013-14 MICHELE SUSAN KAUFMAN NEW YORK NY $25,000 PHRD13036 6/26/2013
4500064207 Mead, Robert 2013-14 ROBERT A. MEAD, PH.D. NEW YORK NY $25,000 PHRD13037 6/26/2013
4500064206 Mulhern, Thomas 2013-14 THOMAS MULHERN NYACK NY $25,000 PHRD13038 6/26/2013
4500064204 Schievella, Daniel 2013-14 DANIEL F. SCHIEVELLA, PH.D. ENGLEWOOD NJ $25,000 PHRD13040A 6/26/2013
4500064205 Supnick, Jay 2013-14 JAY SUPNICK ROCHESTER NY $25,000 PHRD13041 6/26/2013
4500064203 Weissman, Seymour 2013-14 SEYMOUR WEISSMAN, Ph.D. HUNTINGTON NY $25,000 PHRD13042 6/26/2013
4900009117 COO-12-030-4 PATC Project System Software STELLAR SERVICES, INC. NEW YORK NY $112,054 PCOO12030 4/19/2013
4900009118 COO-12-030-5 System Software Controls STELLAR SERVICES, INC. NEW YORK NY $114,956 PCOO12030 4/19/2013
4900009119 COO-12-030-6 System Software Enhancements STELLAR SERVICES, INC. NEW YORK NY $88,826 PCOO12030 4/19/2013
4900009115 426-13-048-14 EWR Terminal A Redevelopment CRAIG GEOTECHNICAL DRILLING CO INC. MAYS LANDING NJ $7,000 P42613048 4/17/2013
4900009116 COO-12-030-2 PATC Project Delivery Services STELLAR SERVICES, INC. NEW YORK NY $170,380 PCOO12030 4/17/2013
4900009107 COO-12-029-2 PATC Project Delivery Services MCSS, INC. HOLMDEL NJ $105,590 PCOO12029 4/16/2013
4900009108 COO-12-029-3 PATC Project Delivery Services MCSS, INC. HOLMDEL NJ $122,230 PCOO12029 4/16/2013
4900009109 COO-12-028-1 PATC, TBT Capital Programs Sr. Project Controls PMA CONSULTANTS LLC NEWARK NJ $197,649 PCOO12028 4/16/2013
4900009110 COO-12-031-1 PATH Project Control Services JCMS, INC. MERCERVILLE NJ $166,524 PCOO12031 4/16/2013
4900009111 COO-12-031-2 JFK Project Control Services JCMS, INC. MERCERVILLE NJ $139,267 PCOO12031 4/16/2013
4900009112 COO-12-031-3 TB&T Project Control Services JCMS, INC. MERCERVILLE NJ $137,728 PCOO12031 4/16/2013
4900009113 COO-12-030-1 PATC Project Control Services STELLAR SERVICES, INC. NEW YORK NY $201,000 PCOO12030 4/16/2013
4900009114 COO-12-030-3 PATC Project Control Services STELLAR SERVICES, INC. NEW YORK NY $179,804 PCOO12030 4/16/2013
4900009093 415-13-071-6 JFK-BFF/SFF BFF/SFF Consulting and Transitional Support MALCOLM PIRNIE, INC. FAIR LAWN NJ $33,161 P41513071 4/15/2013
4900009094 415-13-135-2 GWB ITS Support PARSONS BRINCKERHOFF, INC. NEW YORK NY $90,000 P41513135 4/15/2013
4900009095 426-13-054-7 BB Lead Abatement & Repainting KTA-TATOR, INC. PITTSBURGH PA $90,000 P42613054 4/15/2013
4900009096 426-13-041-1 PATC Tank Inspection Services PCA ENGINEERING, INC. POMPTON LAKES NJ $20,000 P42613041 4/15/2013
4900009097 426-13-041-2 JFK Fuel Tank Inspection Services PCA ENGINEERING, INC. POMPTON LAKES NJ $35,000 P42613041 4/15/2013
4900009099 426-13-036-1 PATC Structural Steel Inspection Services TUV RHEINLAND INDUSTRIAL SOLUTIONS, INC. ALIQUIPPA PA $20,000 P42613036 4/15/2013
4900009101 415-13-009-1 PATH Wash. St. Substation 2 CROXTON COLLABORATIVE ARCHITECTS, P.C. NEW YORK NY $50,298 P41513009 4/15/2013
4900009102 415-13-127-4 LT Traffic Safety Improvements SIMCO ENGINEERING, P.C. NEW YORK NY $28,300 P41513127 4/15/2013
4900009103 415-13-125-1 JFK Traffic Impact Attenuators ARORA AND ASSOCIATES PC LAWRENCEVILLE NJ $68,000 P41513125 4/15/2013
4900009104 415-13-100-4 GWB Roadway Construction Permitting Services SAM SCHWARTZ ENGINEERING, PLLC NEW YORK NY $80,000 P41513100 4/15/2013
4900009105 415-13-122-1 EWR Bldgs 14, 95, 332 Demolitions DEWBERRY ENGINEERS INC. BLOOMFIELD NJ $94,416 P41513122 4/15/2013
4900008561 410-11-044-27 PATC On-site Engineering Support GREENMAN-PEDERSEN, INC. BABYLON NY $50,000 P41011044 10/16/2012
4900008562 410-12-024-1 PATH Grove St. Survey Svs LANGAN ENGINEERING AND ELMWOOD PARK NJ $16,000 P41012024 10/16/2012
4900008563 415-12-185-2 GWB Lighting Feeders Replacement LOCKWOOD, KESSLER & BARTLETT, INC. SYOSSET NY $158,279 P41512185 10/16/2012
4900008404 415-12-142-16 LGA Feeder Upgrade CHA CONSULTING, INC. ALBANY NY $57,980 P41512142A 8/24/2012
4900008405 415-12-077-3 EWR Pedestrian Bridge & Hub Bldg GANNETT FLEMING ENGINEERS AND ARCHITECTS, P.C. NEW YORK NY $24,285 P41512077 8/24/2012
4900008406 415-12-044-8 EWR Terminal C-P4 Elevator Lobby Water Infiltration Remediation APA /AHUJA PARTNERSHIP ARCHITECTS NEW YORK NY $78,719 P41512044 8/24/2012
4900008407 415-12-142-17 EWR Terminal B Baggage Screen CHA CONSULTING, INC. ALBANY NY $24,918 P41512142A 8/24/2012
4900008408 415-12-137-2 TEB Backflow Prevention Stages 3 & 4 BURNS ENGINEERING, INC. ISELIN NJ $79,703 P41512137 8/24/2012
4900008409 415-12-168-1 PN Priority Marine Rehabilitation M.G. MCLAREN, P.C. WEST NYACK NY $185,673 P41512168 8/24/2012
4900008410 415-12-142-18 SWF Rehab of Runways 9-27 & 16-34 CHA CONSULTING, INC. ALBANY NY $57,497 P41512142A 8/24/2012
4900008411 405-12-024-3 NJMT Berths 51 to 63 M.G. MCLAREN, P.C. WEST NYACK NY $290,477 P40512024 8/24/2012
4900008390 415-12-112-6 PATH McMillan Bloedel Bldg Water Supply Alterations RUSSELL CORROSION CONSULTANTS, INC. COLUMBIA MD $18,536 P41512112 8/23/2012
4900008392 415-12-134-2 PN Transmit Travel Time Analysis Tool HNTB NEW YORK ENGINEERING & ARCHITECTURE, PC NEW YORK NY $45,000 P41512134 8/23/2012
4900008393 415-12-110-11-GBRP Cory Warehouse Inspection Svs ATC ASSOCIATES, INC. NEW YORK NY $65,000 P41512110 8/23/2012
4900008394 415-12-100-8 JFK Roadway Construction Permitting Svs SAM SCHWARTZ ENGINEERING, PLLC NEW YORK NY $80,800 P41512100 8/23/2012
4900008395 415-12-035-2 EWR Spot Speed Data Collection THE RBA GROUP, INC. PARISIPPANY NJ $13,400 P41512035 8/23/2012
4900008396 405-12-008-3 EWR Condition Survey Bldg 347 Facade CHA CONSULTING, INC. ALBANY NY $61,085 P40512008 8/23/2012
4900008397 410-11-049-8 PATC-NY Airports Construction Mgt Svs AECOM USA, INC NEW YORK NY $174,115 P41011049 8/23/2012
4900008398 410-12-007-10 PATC-NY Airports Construction Mgt Svs SCI ENGINEERING AND SURVEYING, P.C NEW YORK NY $125,000 P41012007 8/23/2012
4900008399 410-11-045-6 PATC Contract Admin Office HAKS ENGINEERS AND LAND SURVEYORS P.C. NEW YORK NY $100,800 P41011045 8/23/2012
4900008400 410-11-044-26 PATC-GWB On-Site Support GREENMAN-PEDERSEN, INC. BABYLON NY $79,438 P41011044 8/23/2012
4900008401 410-12-023-7 GWB-NY Anchorage KENNON SURVEYING SERVICES, INC. WARREN NJ $13,410 P41012023 8/23/2012
4900008402 410-12-021-7 PJS Port Terminal Blvd INFRAMAP CORP. WINDSOR NJ $18,500 P41012021 8/23/2012
4900008403 410-12-037-2 LGA Hydro Survey ROGERS SURVEYING, P.L.L.C. STATEN ISLAND NY $42,800 P41012037 8/23/2012
4900008387 410-12-039-4 PATH Newark Penn Station Crew Room NAIK CONSULTING GROUP, P.C. EDISON NJ $24,000 P41012039 8/22/2012
4900008388 410-12-037-1 BB Outfalls ROGERS SURVEYING, P.L.L.C. STATEN ISLAND NY $6,250 P41012037 8/22/2012
4900008389 410-12-018-13 EWR CHRP Bldg TAYLOR WISEMAN AND TAYLOR MOUNT LAUREL NJ $6,800 P41012018 8/22/2012
4900008365 415-12-144-14 PATH On-Site Design Svs STANTEC CONSULTING SERVICES, INC NEW YORK NY $493,376 P41512144 8/21/2012
4900008366 415-12-108-9 LGA On-Site Civil Design Engineering NAIK CONSULTING GROUP, P.C. EDISON NJ $373,853 P41512108 8/21/2012
4900008367 410-12-011-10 PATC On-Site Contract Admin Support TRISTATE AVIATION D/B/A DY CONSULTANTS GARDEN CITY NY $135,000 P41012011 8/21/2012
4900008368 426-12-035-4 JFK Bridge J2 Replacement PENNONI ASSOCIATES, INC. EDISON NJ $50,000 P42612035 8/21/2012
4900008370 410-12-022-24 SWF Taxiway M MASER CONSULTING P.A. RED BANK NJ $6,000 P41012022 8/21/2012
4900008371 410-12-022-25 SWF Taxiway B MASER CONSULTING P.A. RED BANK NJ $5,000 P41012022 8/21/2012
4900008372 410-12-022-26 LGA Runway 3-31, Taxiway A/B MASER CONSULTING P.A. RED BANK NJ $30,000 P41012022 8/21/2012
4900008373 410-12-022-27 SWF Lead in Lines MASER CONSULTING P.A. RED BANK NJ $2,000 P41012022 8/21/2012
4900008374 410-12-022-28 SWF Taxiway A1 Hold Bar MASER CONSULTING P.A. RED BANK NJ $5,000 P41012022 8/21/2012
4900008375 410-12-022-29 SWF Bldg 806 MASER CONSULTING P.A. RED BANK NJ $7,500 P41012022 8/21/2012
4900008376 410-12-022-30 GB As-Drilled MASER CONSULTING P.A. RED BANK NJ $4,000 P41012022 8/21/2012
4900008377 415-12-108-10 OBX Civil On-Site Engineering NAIK CONSULTING GROUP, P.C. EDISON NJ $327,024 P41512108 8/21/2012
4900008378 410-12-032-3 LGA Convert Surface ROBINSON AERIAL SURVEY, INC. HACKETTSTOWN NJ $850 P41012032 8/21/2012
4900008379 410-12-038-11 BB-NY Parcel Maps KS ENGINEERS, P.C. NEWARK NJ $19,500 P41012038 8/21/2012
4900008380 410-12-018-6 PA AMT Buildings TAYLOR WISEMAN AND TAYLOR MOUNT LAUREL NJ $7,000 P41012018 8/21/2012
4900008381 410-12-018-7 EWR Runway 4R-22L TAYLOR WISEMAN AND TAYLOR MOUNT LAUREL NJ $6,000 P41012018 8/21/2012
4900008382 410-12-018-8 TEB Bldgs H118/H121 TAYLOR WISEMAN AND TAYLOR MOUNT LAUREL NJ $6,000 P41012018 8/21/2012
4900008383 410-12-018-9 JFK - PAN AM & Bergen Roads TAYLOR WISEMAN AND TAYLOR MOUNT LAUREL NJ $13,000 P41012018 8/21/2012
4900008384 410-12-018-10 LGA AOA Parking Lot 7 TAYLOR WISEMAN AND TAYLOR MOUNT LAUREL NJ $13,500 P41012018 8/21/2012
4900008385 410-12-018-11 JFK Terminal 4 West Side TAYLOR WISEMAN AND TAYLOR MOUNT LAUREL NJ $6,500 P41012018 8/21/2012
4900008386 410-12-018-12 JFK Terminal 4 East Side TAYLOR WISEMAN AND TAYLOR MOUNT LAUREL NJ $6,500 P41012018 8/21/2012
4500063445 TBT-12-003-1 Bus Customer Survey ABT SRBI, INC. NEW YORK NY $160,000 PTBT12003 8/20/2012
4900008359 410-12-019-9 EWR SUE Technician TBE GROUP, INC. PRINCETON NJ $75,000 P41012019 8/20/2012
4900008360 410-12-019-10 EWR SUE Field Supervisor TBE GROUP, INC. PRINCETON NJ $95,000 P41012019 8/20/2012
4900008361 410-12-019-11 JFK SUE Field Supervisor TBE GROUP, INC. PRINCETON NJ $95,000 P41012019 8/20/2012
4900008362 410-12-019-12 JFK SUE Field Supervisor TBE GROUP, INC. PRINCETON NJ $95,000 P41012019 8/20/2012
4900008363 410-12-019-13-EWR SUE Technician/ Coordinator TBE GROUP, INC. PRINCETON NJ $45,000 P41012019 8/20/2012
4900008364 410-12-019-14 JFK SUE Field Supervisor TBE GROUP, INC. PRINCETON NJ $60,000 P41012019 8/20/2012
4900008354 405-12-027-1 EWR AirTrain Guideway Condition Survey Svs TRANSYSTEMS ARCHITECT & ENGINEER, P.C. NEW YORK NY $364,246 P40512027 8/17/2012
4900008355 426-12-029-9 LT Helix Rehabilitation & Paving ADVANCE TESTING COMPANY, INC. CAMPBELL HALL NY $25,000 P42612029 8/17/2012
4900008356 415-12-110-10 EWR Terminal A Pre-Design Svs for Demolition of Bldgs 332, 342, 350 ATC ASSOCIATES, INC. NEW YORK NY $68,000 P41512110 8/17/2012
4900008357 415-12-122-7 PATH HCMF In-Ground Lift Replacement Stage 1 DEWBERRY ENGINEERS INC. BLOOMFIELD NJ $117,134 P41512122 8/17/2012
4900008348 410-12-019-4 EWR SUE Technician TBE GROUP, INC. PRINCETON NJ $80,000 P41012019 8/15/2012
4900008349 410-12-019-5 EWR SUE Technician TBE GROUP, INC. PRINCETON NJ $80,000 P41012019 8/15/2012
4900008350 410-12-019-6 EWR SUE Technician TBE GROUP, INC. PRINCETON NJ $25,000 P41012019 8/15/2012
4900008351 410-12-019-7 EWR SUE Technician TBE GROUP, INC. PRINCETON NJ $80,000 P41012019 8/15/2012
4900008352 410-12-019-8 EWR SUE Technician TBE GROUP, INC. PRINCETON NJ $50,000 P41012019 8/15/2012
4900008353 410-12-022-23 - JFK Taxiway P Topograhic Survey Svs MASER CONSULTING P.A. RED BANK NJ $30,000 P41012022 8/15/2012
4900008345 415-12-110-9 PATH Harrison Stn - Environ Survey of H&F/Supor Bldg - Asbestos, Lead, Univ Waste, PCBs ATC ASSOCIATES, INC. NEW YORK NY $55,000 P41512110 8/13/2012
4900008346 415-12-090-8 Bayonne Bridge Data Mgt Svs Phase 3 LANGAN ENGINEERING & ENVIRONMENTAL SERVICES, INC. NEW YORK NY $66,000 P41512090 8/13/2012
4900008347 415-12-120-1 EWR Terminal B - Replacement of Joints/Loops on HTHW WM GROUP ENGINEERS, P.C. NEW YORK NY $77,225 P41512120 8/13/2012
4900008338 415-12-090-6 LGA CTB Modernization Program LANGAN ENGINEERING & ENVIRONMENTAL SERVICES, INC. NEW YORK NY $4,000 P41512090 8/10/2012
4900008339 426-12-029-11 JFK Outfalls 10, 13 Rehabilitation ADVANCE TESTING COMPANY, INC. CAMPBELL HALL NY $10,000 P42612029 8/10/2012
4900008340 415-12-090-7 LGA East Garage Database Mgt Svs LANGAN ENGINEERING & ENVIRONMENTAL SERVICES, INC. NEW YORK NY $23,000 P41512090 8/10/2012
4900008342 426-12-029-10 GWB Replacement of Impact Attenuators, Guiderails & Barriers ADVANCE TESTING COMPANY, INC. CAMPBELL HALL NY $25,000 P42612029 8/10/2012
4900008343 426-12-034-3 EWR Runway 4R-22L Reconstruction MACTEC ENGINEERING AND CONSULTING, INC. BELTSVILLE MD $12,000 P42612034 8/10/2012
4900008327 COO-11-012-7 GB Modernization PM Svs URS CORPORATION - NEW YORK NEW YORK NY $1,209,540 PCOO11012 8/8/2012
4900008328 410-11-047-68 PATC Spec Code Compliance URS CORPORATION - NEW YORK NEW YORK NY $162,000 P41011047 8/8/2012
4900008329 415-08-305-2 HT,LT Waterside Buffer CH2MHILL NEW YORK NY $897,970 P41508305 8/8/2012
4900008330 402-12-015-3 NJOF Windows 7 64-Bit Engineering Application Testing MICRODESK, INC. NASHUA NH $87,617 P40212015 8/8/2012
4900008331 426-12-014-27 PATH Harrison Geotechnical Borings CRAIG GEOTECHNICAL DRILLING CO. MAYS LANDING NJ $85,000 P42612014 8/8/2012
4900008332 402-12-015-4 NJOF Civil 3D Software MICRODESK, INC. NASHUA NH $195,992 P40212015 8/8/2012
4900008333 402-12-016-1 NJOF Review CAD/BIM Standard MICROSOL RESOURCES CORPORATION NEW YORK NY $17,960 P40212016 8/8/2012
4900008334 415-12-013-9 EWR PAPD Impound Lot Relocation SUPERSTRUCTURES: ENGINEERING + ARCHITECTURE, PLLC NEW YORK NY $44,189 P41512013A 8/8/2012
4900008335 426-12-012-7 HT River Bldg Access Restoration BOSWELL ENGINEERING SOUTH HACKENSACK NJ $8,500 P42612012 8/8/2012
4900008336 415-12-013-10-EWR K-9 Trailer Installation SUPERSTRUCTURES: ENGINEERING + ARCHITECTURE, PLLC NEW YORK NY $59,934 P41512013A 8/8/2012
4900008337 415-12-159-1 TEB Runway 6 CAT-II Operations Study STANTEC CONSULTING SERVICES, INC NEW YORK NY $43,966 P41512159 8/8/2012
4500063430 DEV-11-069-2 BIP Appraisal JEROME HAIMS REALTY, INC. NEW YORK NY $5,000 PDEV11069 8/7/2012
4900008322 415-12-118-1 Airport Signing & Wayfinding WILBUR SMITH ASSOCIATES PITTSBURGH PA $22,000 P41512118 8/7/2012
4900008323 405-12-027-2 Multi-facility Technical Aide TRANSYSTEMS ARCHITECT & ENGINEER, P.C. NEW YORK NY $260,000 P40512027 8/7/2012
4900008324 410-12-001-11 EWR Code Compliance ATC ASSOCIATES, INC. NEW YORK NY $30,000 P41012001 8/7/2012
4900008325 410-12-015-14 PATH Contract Administration SAVIN ENGINEERS, P.C. PLEASANTVILLE NY $80,000 P41012015 8/7/2012
4900008326 410-12-015-15 EWR Site Support SAVIN ENGINEERS, P.C. PLEASANTVILLE NY $65,000 P41012015 8/7/2012
4900008318 410-12-016-8 Construction Mgt (M/WBE) Svs, Engineering Task MAITRA ASSOCIATES, P.C. SOMERSET NJ $65,000 P41012016 8/6/2012
4900008319 410-12-016-9 Construction Mgt (M/WBE) Svs, Inspection of Codes MAITRA ASSOCIATES, P.C. SOMERSET NJ $65,000 P41012016 8/6/2012
4900008320 415-12-153-3 SWF Glycol Laggons Study Stage 1 STANTEC CONSULTING SERVICES, INC NEW YORK NY $49,961 P41512153 8/6/2012
4900008321 415-12-072-14 Former B171 PN LSRP TRC ENGINEERS, INC. NEW YORK NY $8,551 P41512072 8/6/2012
Contract Amendments (?)
Reference # (?) Description Vendor Name City State Est. Amt (?) End Change Order Type Comments
4600005638 Goethals Bridge Modernization Prgm A&E HNTB/FIGG NEW YORK NY $40,000,000 5/31/2019 Increase  
P41512304 EWR - Aviation Fuel System Modifications HATCH MOTT MACDONALD, LLC MILLBURN NJ $400,000 7/31/2016 Increase  
PAVI12048 EWR Redevelopment of Terminal A PIERCE GOODWIN ALEXANDER AND LINVILLE, INC. (PGAL) HOUSTON TX $7,500,000 2/28/15 Increase  
PTRS06002 Workers' Compensation Claims THE RISK MANAGEMENT PLANNING GROUP HEMPSTEAD NY $67,000 6/30/2013 Extension  
APLAW12042 Expert Legal Services LEGAL FIRM NEW YORK NY $228,955   Increase  
APLAW12043 Expert Legal Services LEGAL FIRM SAN FRANCISCO CA $10,495   Increase  

View a comprehensive list of Call-in Programs, Categories and Terms. Active call-in agreements follow:

Reference # (?) Vendor Name City State
A&E Services for I-278, I-1&9 Ramps
P41513304 PARSONS BRINCKERHOFF, INC. NEW YORK NY
ACOUSTICAL & NOISE ANALYSIS CALL-IN SERVICES 2014
P42614055 PAUL CARPENTER ASSOCIATES, INC. FLORHAM PARK NJ
AIRSIDE DEVELOPMENT ANALYSIS CALL-IN SERVICES 2011
PAVI11046 SYNERGY CONSULTANTS, INC. SEATTLE WA
ALL FACILITIES CALL-IN PROGRAM FOR PERFORMANCE-BASED ENERGY AUDIT SERVICES 2010-2013
4600008097 CONSTELLATION ENERGY FORT WASHINGTON PA
4600008098 HONEYWELL BUILDING SOLUTIONS ALBANY NY
4600008089 JOHNSON CONTROLS, INC. NEW YORK NY
4600008099 NORESCO, LLC NEW YORK NY
AMBIENT AIR QUALITY MONITORING 2014
P42614056 LEIGHTON ASSOCIATES, INC. FOREST HILLS NY
API 653 TANK INSPECTION CALL-IN SERVICES 2013
P42613041 PCA ENGINEERING, INC. POMPTON LAKES NJ
APPLICATION DEVELOPMENT CALL-IN 2014
P40214001 ENTIUM TECHNOLOGY PARTNERS, LLC VALLEY FORGE PA
P40214002 STELLAR SERVICES, INC. NEW YORK NY
APPLICATION MANAGEMENT CALL-IN 2014
P40214003 ENTIUM TECHNOLOGY PARTNERS, LLC VALLEY FORGE PA
P40214005 MICRODESK, INC. NASHUA NH
P40214004 STELLAR SERVICES, INC. NEW YORK NY
ARCHITECTURAL 3-D RENDERING & ANIMATION CALL-IN SERVICES 2014
P41514017 HENNINGSON DURHAM & RICHARDSON NEW YORK NY
P41514018 MASSA MONTALTO ARCHITECTS, PC NEPTUNE NJ
ARCHITECTURAL CADD & BIM DRAFTING CALL-IN SERVICES 2014
P41514014 ARCHIDATA, INC. NEW YORK NY
P41514015 STUDIO 5 PARTNERSHIP, GLEN ROCK NJ
ARCHITECTURAL CODE & ZONING ANALYSIS CALL-IN SERVICES 2014
P41514020 GRUNIG, WERTZ AND ASSOCIATES NEW YORK NY
ARCHITECTURAL DESIGN CALL-IN SERVICES 2014
P41514047 BEYER BLINDER BELLE ARCHITECTS & PLANNERS LLP NEW YORK NY
P41514048 DATTNER ARCHITECTS D.P.C. NEW YORK NY
P41514049 HENNINGSON, DURHAM & RICHARDSON PEARL RIVER NY
P41514050 STV ARCHITECTS, P.C. NEWARK NJ
P41514051 VOORSANGER & ASSOCIATES ARCHITECTS, P.C. NEW YORK NY
ARCHITECTURAL DESIGN (M/WBE) CALL-IN SERVICES 2014
P41514044 APA /AHUJA PARTNERSHIP ARCHITECTS NEW YORK NY
P41514045 SOWINSKI SULLIVAN ARCHITECTS SPARTA NJ
P41514046 TING & LI ARCHITECTS, PC NEW YORK NY
ARCHITECTURAL EXTERIOR WALL / WP CALL-IN SERVICES 2014
P41514011 AECOM ARCHITECTS & ENGINEERS NEW YORK NY
P41514013 SUPERSTRUCTURES: ENGINEERING + ARCHITECTURE, PLLC NEW YORK NY
P41514012 AMMANN & WHITNEY CONSULTING ENGINEERS, P.C. NEW YORK NY
ARCHITECTURAL GRAPHICS / WAYFINDING CALL-IN SERVICES 2014
P41514118 CDM SMITH INC. CAMBRIDGE MA
P41514117 PENTAGRAM DESIGN, INC. NEW YORK NY
ARCHITECTURAL LANDSCAPE DESIGN CALL-IN 2014
P41514106 MKW + ASSOCIATES, LLC RUTHERFORD NJ
ARCHITECTURAL MODEL MAKING CALL-IN SERVICES 2014
P41514037 DAEDALUS ENTERPRISES INC CHATHAM NJ
P41514038 RADII INC. HOBOKEN NJ
P41514039 STUDIO ASSOCIATES OF NEW YORK, INC. NEW YORK NY
ARCHITECTURAL PHOTOGRAPHY SERVICES CALL-IN 2014
P41514043 JOHN BARTELSTONE PHOTOGRAPHY LLC NEW YORK NY
ARCHITECTURAL SUSTAINABLE DESIGN CALL-IN SERVICES 2014
P41514009 CROXTON COLLABORATIVE ARCHITECTS, P.C NEW YORK NY
P41514010 DI DOMENICO + PARTNERS LLP LONG ISLAND CITY NY
ARCHITECTURAL WINDOW & CURTAIN CALL-IN SERVICES 2014
P41514079 GORDON H. SMITH CORPORATION NEW YORK NY
P41514080 SIMPSON GUMPERTZ & HEGER, INC. NEW YORK NY
MULTI-FACILITY ASBESTOS MATERIAL & LEAD PAINT ANALYSIS CALL-IN SERVICES 2014
P41014001 ATC GROUP SERVICES INC. NEW YORK NY
P41014006 GZA GEOENVIRONMENTAL, INC FAIRFIELD NJ
P41014004 THE LOUIS BERGER GROUP, INC. MORRISTOWN NJ
P41014003 MATRIX NEW WORLD ENGINEERING, INC. EAST HANOVER NJ
P41014005 WARREN & PANZER ENGINEERS P.C. NEW YORK NY
P41014002 WESTON SOLUTIONS, INC. EDISON NJ
ASBESTOS MATERIAL & LEAD PAINT ANALYSIS CALL-IN SERVICES 2014
P42614003 ATC GROUP SERVICES INC. NEW YORK NY
P42614004 EMSL ANALYTICAL, INC. NEW YORK NY
AVIATION - AIRPORT FACILITY PLANNING CALL-IN SERVICES 2014
PAVI14001 AECOM USA, INC NEW YORK NY
PAVI14005 CORGAN ASSOCIATES ARCHITECTS NEW YORK NY
PAVI14008 GCR INC. NEW ORLEANS LA
PAVI14010 HNTB NEW YORK ENGINEERING & ARCHITECTURE, PC NEW YORK NY
PAVI14015 LOUIS BERGER GROUP MORRISTOWN NJ
PAVI14019 PARSONS BRINCKERHOFF, INC. NEW YORK NY
PAVI14020 RICONDO & ASSOCIATES, INC. CHICAGO IL
PAVI14025 STANTEC CONSULTING SERVICES, INC NEW YORK NY
PAVI14026 TRANSYSTEMS ARCHITECT & ENGINEER, P.C. NEW YORK NY
PAVI14029 VHB ENGINEERING SURVEYING AND LANDSCAPE ARCHITECTURE, P.C. HAUPPAUGE NY
PAVI14030 WILLIAM NICHOLAS BODOUVA & ASSOCIATES NEW YORK NY
AVIATION - AIRPORT CAPACITY PLANNING SERVICES CALL-IN 2014
PAVI14001 AECOM USA, INC NEW YORK NY
PAVI14002 C&S ENGINEERS, INC SYRACUSE NY
PAVI14013 LANDRUM & BROWN, INC. CINCINNATI OH
PAVI14015 LOUIS BERGER GROUP MORRISTOWN NJ
PAVI14019 PARSONS BRINCKERHOFF, INC. NEW YORK NY
PAVI14020 RICONDO & ASSOCIATES, INC. CHICAGO IL
PAVI14026 TRANSYSTEMS ARCHITECT & ENGINEER, P.C. NEW YORK NY
PAVI14029 VHB ENGINEERING SURVEYING AND LANDSCAPE ARCHITECTURE, P.C. HAUPPAUGE NY
AVIATION - ARCHITECTURAL & ENGINEERING CALL-IN SERVICES FOR MULTI-DISCIPLINE PROJECTS 2014
P41514175 LOUIS BERGER GROUP MORRISTOWN NJ
AVIATION - AERONAUTICAL, ENVIRONMENTAL & TECHNICAL SERVICES CALL-IN 2014
PAVI14001 AECOM USA, INC NEW YORK NY
PAVI14002 C&S ENGINEERS, INC SYRACUSE NY
PAVI14008 GCR INC. NEW ORLEANS LA
PAVI14010 HNTB NEW YORK ENGINEERING & ARCHITECTURE, PC NEW YORK NY
PAVI14013 LANDRUM & BROWN, INC. CINCINNATI OH
PAVI14015 LOUIS BERGER GROUP MORRISTOWN NJ
PAVI14017 MEAD & HUNT, INC. TULSA OH
PAVI14020 RICONDO & ASSOCIATES, INC. CHICAGO IL
PAVI14029 VHB ENGINEERING SURVEYING AND LANDSCAPE ARCHITECTURE, P.C. HAUPPAUGE NY
AVIATION - CUSTOMER RESEARCH / PERFORMANCE MEASURES CALL-IN SERVICES 2013-2016
PAVI13047 TNS CUSTOM RESEARCH NEW YORK NY
AVIATION - FINANCIAL AND BUSINESS ANALYSES OF CAPITAL PROJECTS CALL-IN SERVICES 2014
PAVI14001 AECOM USA, INC NEW YORK NY
PAVI14010 HNTB NEW YORK ENGINEERING & ARCHITECTURE, PC NEW YORK NY
PAVI14019 PARSONS BRINCKERHOFF, INC. NEW YORK NY
PAVI14020 RICONDO & ASSOCIATES, INC. CHICAGO IL
PAVI14027 UNISON CONSULTING, INC CHICAGO IL
PAVI14029 VHB ENGINEERING SURVEYING AND LANDSCAPE ARCHITECTURE, P.C. HAUPPAUGE NY
AVIATION - SECURITY CALL-IN SERVICES 2014
PAVI14001 AECOM USA, INC NEW YORK NY
PAVI14002 C&S ENGINEERS, INC SYRACUSE NY
PAVI14008 GCR INC. NEW ORLEANS LA
PAVI14010 HNTB NEW YORK ENGINEERING & ARCHITECTURE, PC NEW YORK NY
PAVI14015 LOUIS BERGER GROUP MORRISTOWN NJ
PAVI14023 SHEN MILSOM & WILKE, INC. NEW YORK NY
PAVI14026 TRANSYSTEMS ARCHITECT & ENGINEER, P.C. NEW YORK NY
PAVI14029 VHB ENGINEERING SURVEYING AND LANDSCAPE ARCHITECTURE, P.C. HAUPPAUGE NY
BB - ENV. ASSESSMENT SERVICES (AS NEEDED)
PTBT10020 AKRF, INC. NEW YORK NY
BB NCP CONSTRUCTION MANAGEMENT AS-NEEDED SERVICES 2012-2018
P41012303 GREENMAN-PEDERSEN, INC. BABYLON NY
BB SHPO SUPPORT SERVICES
PTBT11020 LI - SALTZMAN ARCHITECTS, P.C. NEW YORK NY
BITUMINOUS CONCRETE INSPECTION SERVICES 2014
P42614007 ADVANCE TESTING COMPANY, INC. CAMPBELL HALL NY
P42614008 HAKS ENGINEERS AND LAND NEW YORK NY
P42614009 KEY-TECH KEYPORT NJ
P42614010 UNIVERSAL TESTING & INSPECTION WEST BABYLON NY
BUILDING INFORMATION MODELING CALL-IN SERVICES 2014
P40214026 MICRODESK, INC. NASHUA NH
P40214027 MICROSOL RESOURCES CORPORATION NEW YORK NY
CADD CALL-IN SERVICES 2014
P40214015 MICRODESK, INC. NASHUA NH
P40214016 MICROSOL RESOURCES CORPORATION NEW YORK NY
CARBON OFFSET ADVISORY SVCS CALL-IN 2009
POEPC08006 THE CLIMATE TRUST PORTLAND OR
POEPC08007 E.H. PECHAN & ASSOCIATES SPRINGFIELD VA
POEPC08005 STOCKHOLM ENVIRONMENT INSTITUTE SOMERVILLE MA
CARBON OFFSET BROKER CALL-IN SERVICES 2008-2009
POEPC08004 BLUE SOURCE NEW YORK NY
CARBON OFFSET PROCUREMENT AND RELATED SERVICES
POEPC08003 CANTOR CO2e LP NEW YORK NY
CHEMICAL / ENVIRONMENTAL SAMPLING & ANALYSIS CALL-IN SERVICES 2014
P42614050 ALPHA ANALYTICAL, INC. WESTBOROUGH MA
P42614051 HAMPTON-CLARKE, INC. FAIRFIELD NJ
P42614052 TESTAMERICA LABORATORIES, INC EDISON NJ
CIVIL AIRFIELD PAVMENT ROUGHNESS CALL-IN SERVICES 2014
P41514121 APR CONSULTANTS, INC. MEDWAY OH
CIVIL CONSTRUCTION INSPECTOR (M/WBE) CALL-IN SERVICES 2014
P41014054 AI ENGINEERS, INC. NEW YORK NY
P41014055 DY CONSULTANTS GARDEN CITY NY
P41014057 HAIDER ENGINEERING, P.C. FARMINGDALE NY
P41014058 IH ENGINEERS, PC PRINCETON NJ
P41014059 JCMS, INC. MERCERVILLE NJ
P41014060 MAITRA ASSOCIATES, P.C. SOMERSET NJ
P41014061 NAIK CONSULTING GROUP, P.C. EDISON NJ
CIVIL DESIGN (M/WBE) CALL-IN 2014
P41514107 KS ENGINEERS, P.C. NEWARK NJ
P41514108 NAIK CONSULTING GROUP, P.C. EDISON NJ
CIVIL DESIGN CALL-IN SERVICES 2014
P41514142 CHA CONSULTING, INC. ALBANY NY
P41514143 JACOBS CIVIL CONSULTANTS, INC. NEW YORK NY
P41514144 STANTEC CONSULTING SERVICES, INC NEW YORK NY
CIVIL/ELECTRICAL AIRFIELD DESIGN CALL-IN SERVICES 2014
P41514152 CH2M HILL NEW YORK, INC. NEW YORK NY
P41514179 MICHAEL BAKER ENGINEERING, INC. PITTSBURGH PA
P41514153 STANTEC CONSULTING SERVICES, INC NEW YORK NY
P41514154 T.Y. LIN INTERNATIONAL NEW YORK NY
CIVIL PAVEMENT MANAGEMENT CALL-IN 2014
P41514180 APPLIED RESEARCH ASSOCIATES, INC ALBUQUERQUE NM
P41514140 FUGRO CONSULTANTS, INC. HOUSTON TX
P41514141 MACTEC ENGINEERING AND BELTSVILLE MD
CIVIL RAIL CALL-IN SERVICES 2014
P41514052 HNTB NEW YORK ENGINEERING & ARCHITECTURE, PC NEW YORK NY
P41514053 PARSONS BRINCKERHOFF, INC. NEW YORK NY
CLEANING & CCTV INSPECTION CALL-IN SERVICES 2014
P42614057 NATIONAL WATER MAIN CLEANING COMPANY NEWARK NJ
CONCRETE INSPECTION CALL-IN SERVICES 2013
P42613029 ADVANCE TESTING COMPANY, INC. CAMPBELL HALL NY
P42613030 HAKS ENGINEERS AND LAND SURVEYORS P.C. NEW YORK NY
P42613028 UNIVERSAL TESTING & INSPECTION SERVICES, INC. WEST BABYLON NY
CONCRETE STRUCTURE CONDITION SURVEY CALL-IN SERVICES 2014
P42614064 BEASLEY,CHIN & HUNDERMAN, P.C. NEW YORK NY
CONCRETE SMOOTHNESS TESTING CALL-IN SERVICES 2014
P42614014 MACTEC ENGINEERING AND BELTSVILLE MD
CONSTRUCTION CONTRACT SUBMITTAL / RFI (M/WBE) SERVICES CALL-IN 2014
P40214017 JCMS, INC. MERCERVILLE NJ
P40214033 MACON PACE INC. HAMILTON NJ
P40214018 SAVIN ENGINEERS, P.C. PLEASANTVILLE NY
P40214019 SCI ENGINEERING, P.C NEW YORK NY
P40214021 STELLAR SERVICES, INC. NEW YORK NY
P40214020 TOLL INTERNATIONAL LLC NEW YORK NY
CONSTRUCTION MANAGEMENT (M/WBE) CALL-IN SERVICES 2014
P41014043 AI ENGINEERS, INC. NEW YORK NY
P41014044 EWELL W. FINLEY, P.C. NEW YORK NY
P41014037 FIELD ASSOCIATES, P.C. ROOSEVELT NY
P41014045 HAIDER ENGINEERING, P.C. FARMINGDALE NY
P41014038 HAKS ENGINEERS AND LAND SURVEYORS P.C. NEW YORK NY
P41014039 HIRANI ENGINEERING & LAND SURVEYING, P.C. JERICHO NY
P41014046 JCMS, INC. MERCERVILLE NJ
P41014040 KS ENGINEERS, P.C. NEWARK NJ
P41014041 SAVIN ENGINEERS, P.C. PLEASANTVILLE NY
P41014047 SCI ENGINEERING, P.C NEW YORK NY
P41014042 TECHNO CONSULT, INC. PRINCETON NJ
CONSTRUCTION MANAGEMENT CALL-IN SERVICES 2011-2014
P41011049 AECOM USA, INC NEW YORK NY
P41011048 GANNETT FLEMING ENGINEERS & ARCHITECTS, P.C./ JOHNSON, MIMIRAN & THOMPSON, INC., JV NEW YORK NY
P41011044 GREENMAN-PEDERSEN, INC. BABYLON NY
P41011045 HAKS ENGINEERS AND LAND SURVEYORS P.C. NEW YORK NY
P41011050 HILL INTERNATIONAL, INC. NEW YORK NY
P41011051 JACOBS FACILITIES, INC. NEW YORK NY
P41011052 LiRO ENGINEERS, INC. SYOSSET NY
P41011053 LOUIS BERGER & ASSOC., P.C. NEW YORK NY
P41011046 PARSONS BRINCKERHOFF, INC. NEW YORK NY
P41011047 URS CORPORATION - NEW YORK NEW YORK NY
CONTRACT ADMINISTRATOR (M/WBE) CALL-IN SERVICES 2014
P41014048 C.V. ASSOCIATES NY; PE; PC HARRIMAN NY
P41014049 DY CONSULTANTS GARDEN CITY NY
P41014050 HAIDER ENGINEERING, P.C. FARMINGDALE NY
P41014051 IH ENGINEERS, PC PRINCETON NJ
P41014052 JCMS, INC. MERCERVILLE NJ
P41014053 MAITRA ASSOCIATES, P.C. SOMERSET NJ
CONTRACT SUPPORT CALL-IN SERVICES 2014
P40214024 HAKS ENGINEERS AND LAND NEW YORK NY
P40214025 LS ENGINEERING ASSOCIATES CORP. MONTVILLE NJ
COO FACILITY OP ANLY/SUPT - AVIA 2013-14
PC0013028 CH2M HILL NEW YORK, INC. NEW YORK NY
PC0013029 VHB ENGINEERING, SURVEYING AND MELVILLE NY
COO FACILITY OP ANLY/SUPT - PORT 2013-14
PC0013033 CH2M HILL NEW YORK, INC. NEW YORK NY
COO FACILITY OP ANLY/SUPT - RAIL 2013-14
PC0013030 CH2M HILL NEW YORK, INC. NEW YORK NY
PC0013031 VHB ENGINEERING, SURVEYING AND MELVILLE NY
COO FACILITY OP ANLY/SUPT - TB&T 2013-14
PC0013034 CH2M HILL NEW YORK, INC. NEW YORK NY
PC0013035 KLD ENGINEERING, P.C. ISLANDIA NY
COST ESTIMATING CALL-IN SERVICES 2014
P40214034 FAITHFUL & GOULD NEW YORK NY
P40214012 HILL INTERNATIONAL, INC. NEW YORK NY
P40214013 URS CORPORATION-NEW YORK NEW YORK NY
P40214014 V.J. ASSOCIATES INC. OF SUFFOLK HICKSVILLE NY
CROSS HARBOR FREIGHT MOVEMENT PROGRAM AS NEEDED 2009-2013
PPRT09001 STV-CSI-AKRF JOINT VENTURE NEW YORK NY
DEVELOPMENT - ARCHITECTURAL, ENGINEERING, INTERIOR DESIGN & CONSTRUCTION ADMINISTRATION (M/WBE) CALL-IN 2012
PDEV14002 CARLTON ARCHITECTURE PC NEW YORK NY
PDEV14003 CORGAN ASSOCIATES ARCHITECTS NEW YORK NY
PDEV14004 CSA GROUP NY ARCHITECTS & ENGINEERS, P.C. NEW YORK NY
PDEV14006 DAVIS BRODY BOND, LLP NEW YORK NY
PDEV14008 IBI GROUP - GRUZEN SAMTON NEW YORK NY
PDEV14010 RONNETTE RILEY ARCHITECT BINGHAMPTON NY
PDEV14012 SBLM Architects PC New York NY
DEVELOPMENT - ARCHITECTURAL, ENGINEERING, INTERIOR DESIGN & CONSTRUCTION ADMINISTRATION CALL-IN 2014
PDEV14001 A.EPSTEIN & SONS INTERNATIONAL,INC. CHICAGO IL
PDEV14009 PERKINS EASTMAN ARCHITECTS PC NEW YORK NY
PDEV14011 RKTB ARCHITECTS, P.C. NEW YORK NY
PDEV14013 STANTEC CONSULTING SERVICES, INC NEW YORK NY
PDEV14014 SWANKE HAYDEN CONNELL & PARTNERS NEW YORK NY
PDEV14015 URBAHN ARCHITECTS NEW YORK NY
DEVELOPMENT - CONSTRUCTION MANAGEMENT (M/WBE) CALL-IN SERVICES 2012
PDEV12036A ARMAND/KSE JV NEW YORK NY
PDEV12037 DEBORAH LEONARD INC. MERRICK NY
PDEV12038 ECONOMIC PROJECT SOLUTIONS INC. NORTH BRUNSWICK NJ
PDEV12041 IDEAL/WPA JV NEW YORK NY
PDEV12040 MAITRA ASSOCIATES, P.C. SOMERSET NJ
DEVELOPMENT - CONSTRUCTION MANAGEMENT CALL-IN SERVICES 2012
PDEV12018 BOVIS LEND LEASE LMB INC. NEW YORK NY
PDEV12022 CAULDWELL WINGATE NEW YORK NY
PDEV12042 F.J. SCIAME CONSTRUCTION CO. INC. NEW YORK NY
PDEV12019 STRUCTURE TONE INC. NEW YORK NY
DEVELOPMENT - PROJECT MANAGEMENT / OWNER REPRESENTATIVE CALL-IN SERVICES 2012
PDEV12024 FAITHFUL GOULD NEW YORK NY
PDEV12025 FERZAN ROBBINS & ASSOCIATES, LLC NEW YORK NY
PDEV12026 GARDINER & THEOBALD INC NEW YORK NY
PDEV12027 GILBANE BUILDING COMPANY NEW YORK NY
PDEV12030 TISHMAN CONSTRUCTION CORPORATION NEW YORK NY
DEVELOPMENT - PROJECT MANAGEMENT / OWNER REPRESENTATIVE (M/WBE) CALL-IN SERVICES 2012
PDEV12031 A1 WORKS-IN-PROGRESS ASSOCIATES, NEW YORK NY
PDEV12032 DEBORAH LEONARD INC. MERRICK NY
PDEV12033 ECONOMIC PROJECT SOLUTIONS INC. NORTH BRUNSWICK NJ
PDEV12034 JANET R. DUGGAN & ASSOCIATES, INC. CHAPPAQUA NY
PDEV12035 LANDAIR PROJECT RESOURCES, INC NEW YORK NY
DEVELOPMENT - URBAN PLANNING (M/WBE) CALL-IN SERVICES 2012
PDEV12079 CH PLANNING, LTD. PHILADELPHIA PA
PDEV12053 HEYER, GRUEL & ASSOCIATES RED BANK NJ
DEVELOPMENT - URBAN PLANNING CALL-IN SERVICES 2012
PDEV12043 AKRF, INC. NEW YORK NY
PDEV12044 BEYER BLINDER BELLE ARCHITECTS & PLANNERS LLP NEW YORK NY
PDEV12045 BFJ PLANNING NEW YORK NY
PDEV12046 CLARKE CATON HINTZ TRENTON NJ
PDEV12047 COOPER, ROBERTSON & PARTNERS NEW YORK NY
PDEV12048 FX & FOWLE ARCHITECTS, P.C. NEW YORK NY
PDEV12050 PERKINS+WILL NEW YORK NY
PDEV12051 PHILLIPS PREISS SHAPIRO ASSOCIATES, INC. NEW YORK NY
ELECTRICAL AERONAUTICAL SYSTEMS CALL-IN 2014
P41514156 BURNS ENGINEERING, INC. ISELIN NJ
P41514157 CH2M HILL NEW YORK, INC. NEW YORK NY
ELECTRICAL CABLE TESTING & ANALYSIS CALL-IN SERVICES 2014
P42614005 CABLE TECHNOLOGY LABS, INC. NEW BRUNSWICK NJ
ELECTRICAL CONSTRUCTION INSPECTOR (M/WBE) CALL-IN SERVICES 2014
P41014062 IH ENGINEERS, PC PRINCETON Nj
P41014063 M&J ENGINEERS, P.C. ROSEDALE NY
P41014064 MAITRA ASSOCIATES, P.C. SOMERSET NJ
P41014065 MUNOZ ENGINEERING & LAND NEW YORK NY
ELECTRICAL CORROSION CONTROL CALL-IN SERVICES 2014
P41514111 CORRPRO COMPANIES, INC. WEST CHESTER PA
P41514112 RUSSELL CORROSION CONSULTANTS, INC. COLUMBIA MD
ELECTRICAL DC TRACTION POWER CALL-IN SERVICES 2014
P41514055 JACOBS CIVIL CONSULTANTS, INC. NEW YORK NY
P41514056 PARSONS BRINCKERHOFF, INC. NEW YORK NY
P41514057 STV INCORPORATED NEW YORK NY
P41514196 URS CORPORATION-NEW YORK NEW YORK NY
ELECTRICAL DESIGN CALL-IN SERVICES 2014
P41514161 BURNS ENGINEERING, INC. ISELIN NJ
P41514184 CSA GROUP NY ARCHITECTS & ENGINEERS, P.C. NEW YORK NY
P41514185 LOCKWOOD, KESSLER & BARTLETT, INC. SYOSSET NY
P41514186 MICHAEL BAKER ENGINEERING, INC. PITTSBURGH PA
P41514165 R.G. VANDERWEIL ENGINEERS, LLP. LAWRENCEVILLE NJ
P41514166 STV INCORPORATED NEW YORK NY
ELECTRICAL DESIGN (M/WBE) CALL-IN SERVICES 2014
P41514082 MAITRA ASSOCIATES, P.C. SOMERSET NJ
ELECTRICAL LIGHTING DESIGN CALL-IN SERVICES 2014
P41514005 DOMINGO GONZALEZ ASSOCIATES, INC. NEW YORK NY
P41514006 ON-BOARD ENGINEERING CORP. EAST WINDSOR NJ
ELECTRICAL O&M MANUALS CALL-IN SERVICES 2014
P41514181 AMSEC LLC VIRGINIA BEACH VA
P41514064 DCI TECHNICAL, INC. FRANKLIN SQUARE NY
P41514182 STV INCORPORATED NEW YORK NY
ELECTRICAL RADIO ENGINEERING DESIGN CALL-IN SERVICES 2014
P41514065 MACRO CORPORATION CHALFONT PA
P41514066 RCC CONSULTANTS, INC. WOODBRIDGE NJ
ELECTRICAL ENGINEERING DESIGN CALL-IN SERVICES 2013
P41513059 AMSEC LLC VIRGINIA BEACH VA
P41513177 BURNS ENGINEERING INC., P.C. PHILADELPHIA PA
P41513184 CSA GROUP NY ARCHITECTS & ENGINEERS, P.C. NEW YORK NY
P41513060 HNTB NEW YORK ENGINEERING & ARCHITECTURE, P.C. NEW YORK NY
P41513061 PARSONS BRINCKERHOFF, INC. NEW YORK NY
P41513062 STV INCORPORATED NEW YORK NY
ELECTRONICS CALL-IN 2014
P41514059 AMSEC LLC VIRGINIA BEACH VA
P41514060 HNTB NEW YORK ENGINEERING & NEW YORK NY
P41514061 PARSONS BRINCKERHOFF, INC. NEW YORK NY
P41514062 STV INCORPORATED NEW YORK NY
EMISSIONS REDUCTION CALL-IN SERVICES 2014
P42614044 AKRF, INC. NEW YORK NY
P42614045 SOUTHERN RESEARCH INSTITUTE BIRMINGHAM AL
ENERGY ADVISORY AS-NEEDED SERVICES
POEEP13001 CONCENTRIC ENERGY ADVISORS, INC. WASHINGTON DC
ENGINEERING/CONSTRUCTION DOCUMENT MANAGEMENT SERVICES CALL-IN 2014
P40214007 AECOM USA, INC NEW YORK NY
P40214008 BOWNE MANAGEMENT SYSTEMS, INC. MINEOLA NY
P40214009 ENTIUM TECHNOLOGY PARTNERS, LLC NEWARK NJ
P40214006 STELLAR SERVICES, INC. NEW YORK NY
P40214010 URS CORPORATION-NEW YORK NEW YORK NY
ENGINEERING/CONSTRUCTION DOCUMENT MANAGEMENT (M/WBE) SERVICES CALL-IN 2014
P40214011 STELLAR SERVICES, INC. NEW YORK NY
ENVIRONMENTAL ASBESTOS ABATEMENT DESIGN CALL-IN SERVICES 2014
P41514110 ATC GROUP SERVICES INC. NEW YORK NY
ENVIRONMENTAL DATABASE MANAGEMENT (M/WBE) CALL-IN SERVICES 2014
P41514016 SQL SOLUTIONS, INC. REISTERSTOWN MD
ENVIRONMENTAL ENGINEERING DESIGN (M/WBE) CALL-IN SERVICES 2014
P41514067 GRB ENVIRONMENTAL SERVICES, INC. NEW YORK, NY
P41514068 MATRIX NEW WORLD ENGINEERING, INC. EAST HANOVER NJ
ENVIRONMENTAL ENGINEERING DESIGN CALL-IN SERVICES 2014
P41514069 HATCH MOTT MACDONALD, LLC MILLBURN NJ
P41514070 HENNINGSON, DURHAM & RICHARDSON ARCH. & ENGINEERING PC PEARL RIVER NY
P41514071 MALCOLM PIRNIE, INC. FAIR LAWN NJ
P41514072 TRC ENGINEERS, INC. NEW YORK NY
ENVIRONMENTAL ECOLOGICAL CALL-IN SERVICES 2014
P41514147 HENNINGSON DURHAM & RICHARDSON ARCH. & ENGINEERING PC NEW YORK NY
P41514148 MALCOLM PIRNIE, INC. FAIR LAWN NJ
EWR-TERMINAL A - PROJECT MANAGEMENT "AS NEEDED" SERVICES 2010-2013
PAVI10049 AECOM USA, INC NEW YORK NY
EWR - AIRTRAIN OVERHAUL PROGRAM "AS NEEDED" 2009-2012
PAVI09047 LEA + ELLIOTT NEWARK NJ
PAVI12046 LEA ELLIOTT DULLES VA
E-ZPASS LEGAL SVCS
PLAW13068 PETER C. MERANI, P.C. NEW YORK NY
PLAW13069 STRASSER & ASSOCIATES, P.C. PARAMUS NJ
E-ZPASS PROGRAM TECHNICAL "AS NEEDED" SUPPORT SERVICES 2009-2012
PTBT09002 TRAFFIC TECHNOLOGIES, INC. NEW WINDSOR NY
FINANCIAL ADVISORY SERVICES - GOETHALS BRIDGE PROJECT - 2009-2011
POFA09001 JEFFREY PARKER AND ASSOCIATES PHILADELPHIA PA
FIRE ALARM / EMERGENCY COMMUNICATIONS SYSTEM CALL-IN SERVICES 2014
P41514083 ARORA ENGINEERS, INC. NEWARK NJ
P41514084 HUGHES ASSOCIATES, INC. BALTIMORE MD
P41514085 SCHIRMER ENGINEERING CORPORATION WHITE PLAINS NY
GEOPHYSICAL CALL-IN 2014
P41514197 HAGER-RICHTER GEOSCIENCE, INC. SALEM NH
GEOTECHNICAL DATABASE MANAGEMENT CALL-IN SERVICES 2014
P41514090 LANGAN ENGINEERING & ENVIRONMENTAL SERVICES, INC. NEW YORK NY
GEOTECHNICAL DATABASE MANAGEMENT (M/WBE) CALL-IN SERVICES 2014
P41514001 SQL SOLUTIONS, INC. REISTERSTOWN MD
GEOTECHNICAL DESIGN CALL-IN SERVICES 2014
P41514002 LANGAN ENGINEERING & ENVIRONMENTAL SERVICES, INC. NEW YORK NY
P41514003 PARSONS BRINCKERHOFF, INC. NEW YORK NY
GEOTECHNICAL DESIGN (M/WBE) CALL-IN SERVICES 2014
P41514074 YU & ASSOCIATES, INC. ELMWOOD PARK NJ
GEOTECHNICAL DREDGING CALL-IN SERVICES 2014
P41514089 GAHAGAN & BRYANT ASSOCIATES, INC. WILMINGTON DE
GEOTECHNICAL DYNAMIC PILE ANALYSIS CALL-IN 2013
P41514109 GRL ENGINEERS, INC. CLEVELAND OH
GEOTECHNICAL ENGINEERING DESIGN CALL-IN SERVICES 2014
P41514004 URS CORPORATION - NEW YORK NEW YORK NY
GEOTECHNICAL ENVIRONMENTAL BORING & FIELD INSPECTION CALL-IN SERVICES 2014
P42614011 CDM SMITH INC. EDISON NJ
P42614012 LANGAN ENGINEERING & ENVIRONMENTAL NEW YORK NY
P42614013 TECTONIC ENGINEERING & SURVEYING MOUNTAINVILLE NY
GEOTECHNICAL TUNNELING CALL-IN SERVICES 2014
P41514086 JENNY ENGINEERING CORPORATION, INC. SPRINGFIELD NJ
HRD - PSYCHOLOGICAL CALL-IN SERVICES MAY 2013-DECEMBER 2014
PHRD13033 ABE FENSTER NEW YORK NY
PHRD13040A DANIEL F. SCHIEVELLA, PH.D. ENGLEWOOD NJ
PHRD13031 DR. NANCY L. BLOOM FARMINGDALE NJ
PHRD13041 JAY SUPNICK ROCHESTER NY
PHRD13035 KANEN PSYCHOLOGICAL SERVICES RIDGEWOOD NJ
PHRD13032 KATHRYN L. CLARK, Psy.D., J.D. BROOKLYN NY
PHRD13034 MATTHEW GULLER, J.D., Ph.D. OAKLAND NJ
PHRD13036 MICHELE SUSAN KAUFMAN NEW YORK NY
PHRD13037 ROBERT A. MEAD, PH.D. NEW YORK NY
PHRD13042 SEYMOUR WEISSMAN, Ph.D. HUNTINGTON NY
PHRD13038 THOMAS MULHERN NYACK NY
HRD RECRUITMENT SERVICES CALL-IN
PHRD12004 ALLIED RESOURCES STAFFING SOLUTIONS EXTON PA
PHRD12005 THE ASPEN GROUP, INC. WASHINGTON DC
PHRD12005A ASPEN OF DC, INC. WASHINGTON DC
PHRD12006 BOND STREET GROUP NEW YORK NY
PHRD12007 THE BURGESS GROUP-CORPORATE NEW YORK NY
PHRD12009 CTPARTNERS NEW YORK NY
PHRD12010 GILBERT TWEED ASSOCIATES INC NEW YORK NY
PHRD12011 HARRIS RAND LUSK NEW YORK NY
PHRD12012 HELBLING & ASSOCIATES INC. WEXFORD PA
PHRD12013 THE HR SOURCE, INC. LANDOVER MD
PHRD12014 JDG ASSOCIATES LTD. ROCKVILLE MD
PHRD12015 JURISTAFF, INC. PHILADELPHIA PA
PHRD12017 KRAUTHAMER & ASSOCIATES, INC. CHEVY  CHASE MD
PHRD12025 KRAUTHAMER & ASSOCIATES, INC. CHEVY  CHASE MD
PHRD12019 MAKRO TECHNOLOGIES INC. NEWARK NJ
PHRD12020 MOMENTUM RESOURCE SOLUTIONS EDISON NJ
PHRD12021 THE PEAK ORGANIZATION, INC. NEW YORK NY
PHRD12022 ROTATOR STAFFING SERVICES INC. EAST BRUNSWICK NJ
PHRD12023 SYNERGISTIC SYSTEMS, INC CHATHAM NJ
PHRD12024 TECHNISOURCE NEW YORK NY
HYDROGRAPHIC SURVEY CALL-IN SERVICES 2014
P41014007 ROGERS SURVEYING, P.L.L.C. STATEN ISLAND NY
INSPECTION AND TESTING SERVICES FOR VERTICAL TRANSPORTATION SYSTEMS CALL-IN 2012-13
P40512036 KS ENGINEERS, P.C. NEWARK NJ
INSURANCE ADJUSTMENT AS-NEEDED SERVICES 2012-2013
POEM12002 ADJUSTERS INTERNATIONAL UTICA NY
INSURANCE SERVICES CALL-IN 2013-2014
PCFO13001 ERNST & YOUNG LLP BROOKLYN NY
INTERNAL AUDITING CALL-IN SERVICES 2011-2014
PAUD11002 ALTRAN CONTROL SOLUTIONS, INC. NEW YORK NY
JFK - AIRTRAIN TECHNICAL O&M SERVICES "AS NEEDED"
PAVI10047 PB AMERICAS, INC NEW YORK NY
JFK RUNWAY 4L-22R REHABILITATION AIRFIELD PLANNING
PAVI12047 DY CONSULTANTS TRI-STATE AVIATION INC D/B/A DY CO. GARDEN CITY NY
LEGAL RESOURCES 2011-2013
PLAW11001A CHOICE TEMPS INC. NEW YORK NY
PLAW11002 FORREST SOLUTIONS NEW YORK NY
PLAW11003 JURISTAFF, INC. PHILADELPHIA PA
PLAW11004 ROBERT HALF LEGAL NEW YORK NY
MARINE CONDITION SURVEY SERVICES CALL-IN 2014
P42614058 BOSWELL ENGINEERING SOUTH HACKENSACK NJ
MATERIALS WATER TREATMENT CALL-IN SERVICES 2014
P42614001 AMBIENT WATER TREATMENT CONSULTING, NEW YORK NY
P42614002 CASCADE WATER SERVICES, INC. HICKSVILLE NY
MECHANICAL - BAGGAGE HANDLING CALL-IN SERVICES 2014
P41514145 BNP ASSOCIATES, INC. BROOKFIELD CT
P41514146 LOGPLAN LLC GREENWOOD VILLAGE CO
MECHANICAL CONSTRUCTION INSPECTOR (M/WBE) CALL-IN SERVICES 2014
P41014066 MUNOZ ENGINEERING & LAND NEW YORK NY
MECHANICAL - CHRP CALL-IN SERVICES 2014
P41514075 PARSONS BRINCKERHOFF, INC. NEW YORK NY
P41514076 SYSKA HENNESSY GROUP, INC. New York NY
MECHANICAL - COMMISSIONING CALL-IN SERVICES 2014
P41514129 THE DOME TECH GROUP EDISON NJ
P41514130 R.G. VANDERWEIL ENGINEERS LAWRENCEVILLE NJ
MECHANICAL - ENGINEERING (M/WBE) CALL-IN SERVICES 2014
P41514119 CHU & GASSMAN CONSULTING ENGINEERS MIDDLESEX NJ
P41514120 WM GROUP ENGINEERS, P.C. NEW YORK NY
MECHANICAL - FIRE PROTECTION CALL-IN SERVICES 2013
P41513114 AKF ENGINEERS NEW YORK NY
P41513115 ARORA ENGINEERS, INC. NEWARK NJ
P41513116 SCHIRMER ENGINEERING CORPORATION WHITE PLAINS NY
MECHANICAL - HVAC CALL-IN SERVICES 2014
P41514023 LIZARDOS ENGINEERING ASSOCIATES, P.C. MINEOLA NY
P41514024 R.G. VANDERWEIL ENGINEERS, LLP. LAWRENCEVILLE NJ
P41514025 SYSKA HENNESSY GROUP, INC. New York NY
P41514026 TETRA TECH ENGINEERS, P.C. NEW YORK NY
MECHANICAL - PLUMBING CALL-IN SERVICES 2014
P41514137 BURNS ENGINEERING, INC. ISELIN NJ
P41514138 LIZARDOS ENGINEERING ASSOCIATES, P.C. MINEOLA NY
MECHANICAL - SMOKE MANAGEMENT CALL-IN 2014
P41514150 HATCH MOTT MACDONALD NEW YORK NY
P41514149 JACOBS CIVIL CONSULTANTS, INC. NEW YORK NY
P41514151 PARSONS BRINCKERHOFF, INC. NEW YORK NY
MECHANICAL - UFST/AFS CALL-IN SERVICES 2014
P41514007 ARGUS CONSULTING INC. BLUE SPRINGS MO
P41514008 HATCH MOTT MACDONALD NY, INC ISELIN NJ
MECHANICAL - VERTICAL TRANSPORTATION SYSTEMS - CALL-IN SERVICES 2014
P41514077 GANNETT FLEMING ENGINEERS AND ARCHITECTS, P.C. (Formely CCDZ) NEW YORK NY
P41514078 JOHN A. VAN DEUSEN & ASSOCIATE, INC LIVINGSTON NJ
MEDICAL PROGRAM AS-NEEDED SERVICES 2011-2014
PHRD11001 WINSTON STAFFING SERVICES, LLC NEW YORK NY
METALLURGICAL TESTING & ANALYSIS CALL-IN SERVICES 2014
P42614053 LUCIUS PITKIN, INC. NEW YORK NY
NY-NJ SEAPORT DEVELOPMENT CALL-IN SERVICES
PPCD10001 REGIONAL PLAN ASSOCIATION NEW YORK NY
OEM-BUSINESS CONTINUITY PLANS 2008-2013
POEM08006 MORGAN FRANKLIN CORPORATION MCLEAN VA
OPERATIONS ANALYSIS & SUPPORT CALL-IN 2012-2013
PCOO13012 CH2MHILL NEW YORK NY
PCOO13011 EMG HUNT VALLEY MO
PCOO13007 GANNETT FLEMING, INC. NEW YORK NY
PCOO13009 HNTB CORPORATION. NEW YORK NY
PCOO13010 VESTA PARTNERS, LLC STAMFORD CT
PABT MASTER PLAN AS-NEEDED SERVICES
P41513302 KPF/PARSON BRINCKEROFF, JOINT VENTURE NEW YORK NY
PATH PLANNING & ENGINEERING SERVICES AS NEEDED
PPAT09002 GANNETT FLEMING ENGINEERS AND ARCHITECTS, P.C. NEW YORK NY
PATH - PLANNING, PROJECT MANAGEMENT & RELATED CALL-IN SERVICES 2014
PPAT14002 AECOM USA, INC NEW YORK NY
PPAT14005 THE LOUIS BERGER GROUP/URBAN ENGINEERS, A JOINT VENTURE MORRISTOWN NJ
PPAT14003 PARSONS TRANSPORTATION GROUP, INC. NEW YORK NY
PPAT14004 PATH FORWARD PARTNERSHIP NEWARK NJ
PPAT14001 URS CORPORATION-NEW YORK NEW YORK NY
PATH - WHEEL/RAIL ANALYSIS "AS NEEDED" SERVICES
PPAT10006 NRC CENTRE FOR SURFACE TRANSPORTATION TECHNOLOGY OTTAWA, ONTARIO  
PFC APPLICATION DEVELOPMENT/DELIVERY 2013-2021
PAVI14031 FRASCA & ASSOCIATES, LLC NEW YORK NY
PHOTOGRAMMETRIC SURVEY CALL-IN SERVICES 2014
P41014008 GEOD CORPORATION NEWFOUNDLAND NY
P41014009 ROBINSON AERIAL SURVEY, INC. HACKETTSTOWN NJ
P41014010 STANTEC CONSULTING GROUP, INC. NEW YORK NY
P41014011 WSP USA CORP. BRIARCLIFF MANOR NY
PLANNING SERVICES - CONSULTING SERVICES CALL-IN 2011
PPLN11004 AECOM USA, INC NEW YORK NY
PPLN11002 CALIPER CORPORATION NEWTON MA
PPLN11003 DELCAN INC. VIENNA VA
PPLN11005 ENG-WONG, TAUB & ASSOCIATES, P.A. NEW YORK NY
PPLN11006 GANNETT FLEMING ENGINEERS AND ARCHITECTS, P.C. NEW YORK NY
PPLN11007 HALCROW, LLC NEW YORK NY
PPLN11008 HENNINGSON, DURHAM & RICHARDSON ARCH. & ENG., P.C. PEARL RIVER NY
PPLN11009 HNTB NEW YORK ENGINEERING PC NEW YORK NY
PPLN11012 MCCORMICK TAYLOR, INC. PHILADELPHIA PA
PPLN11013 NELSON/NYGAARD CONSULTING ASSOCIATES NEW YORK NY
PPLN11014 PB AMERICAS, INC NEW YORK NY
PPLN11016 PHILLIPS PREISS SHAPIRO ASSOCIATES, INC. NEW YORK NY
PPLN11017 RESOURCE SYSTEMS GROUP WHITE RIVER JUNCTION VT
PPLN11018 SAM SCHWARTZ ENGINEERING NEW YORK NY
PPLN11019 STEER DAVIES GLEAVE NEW YORK NY
PPLN11021 URS CORPORATION - NEW YORK NEW YORK NY
PLANNING SVCS - INTERMODAL FREIGHT PLANNING
PPLN11004 AECOM USA, INC. NEW YORK NY
PPLN11001 BOSTON STRATEGIES WELLESLEY MA
PPLN11003 DELCAN INC. VIENNA VA
PPLN11006 GANNETT FLEMING ENGINEERS AND ARCHITECTS, PC. NEW YORK NY
PPLN11007 HALCROW, LLC NEW YORK NY
PPLN11008 HENNINGSON, DURHAM & RICHARDSON ARCH. & ENG., P.C. PEARL RIVER NY
PPLN11009 HNTB NEW YORK ENGINEERING PC NEW YORK NY
PPLN11010 JACOBS CIVIL CONSULTANTS, INC. NEW YORK NY
PPLN11014 PB AMERICAS, INC NEW YORK NY
PPLN11017 RESOURCE SYSTEMS GROUP WHITE RIVER JUNCTION VT
PPLN11021 URS CORPORATION - NEW YORK NEW YORK NY
PLANNING SVCS - PROJECT APPRAISAL & ECONOMIC ANALYSIS
PPLN11004 AECOM USA, INC. NEW YORK NY
PPLN11007 HALCROW, LLC NEW YORK NY
PPLN11008 HENNINGSON, DURHAM & RICHARDSON ARCH. & ENG., P.C. PEARL RIVER NY
PPLN11009 HNTB NEW YORK ENGINEERING PC NEW YORK NY
PPLN11014 PB AMERICAS, INC NEW YORK NY
PPLN11017 RESOURCE SYSTEMS GROUP WHITE RIVER JUNCTION VT
PPLN11019 STEER DAVIES GLEAVE NEW YORK NY
PPLN21021 URS CORPORATION - NEW YORK NEW YORK NY
PLANNING SVCS - SPECIALIZED TRANSPORTATION PLANNING
PPLN11004 AECOM USA, INC. NEW YORK NY
PPLN11003 DELCAN INC. VIENNA VA
PPLN11007 HALCROW, LLC NEW YORK NY
PPLN11008 HENNINGSON, DURHAM & RICHARDSON ARCH. & ENG., P.C. PEARL RIVER NY
PPLN11009 HNTB NEW YORK ENGINEERING PC NEW YORK NY
PPLN11010 JACOBS CIVIL CONSULTANTS, INC. NEW YORK NY
PPLN11012 MCCORMICK TAYLOR, INC. PHILADELPHIA PA
PPLN11014 PB AMERICAS, INC NEW YORK NY
PPLN11017 RESOURCE SYSTEMS GROUP WHITE RIVER JUNCTION VT
PPLN11018 SAM SCHWARTZ ENGINEERING NEW YORK NY
PPLN11019 STEER DAVIES GLEAVE NEW YORK NY
PPLN11021 URS CORPORATION - NEW YORK NEW YORK NY
PLANNING SVCS - STRATEGIC RESEARCH & PLANNING
PPLN11004 AECOM USA, INC. NEW YORK NY
PPLN11003 DELCAN INC. VIENNA VA
PPLN11008 HENNINGSON, DURHAM & RICHARDSON ARCH. & ENG., P.C. PEARL RIVER NY
PPLN11009 HNTB NEW YORK ENGINEERING PC NEW YORK NY
PPLN11013 NELSON/NYGAARD CONSULTING ASSOCIATES NEW YORK NY
PPLN11014 PB AMERICAS, INC NEW YORK NY
PPLN11016 PHILLIPS PREISS SHAPIRO ASSOCIATES, INC. NEW YORK NY
PPLN11017 RESOURCE SYSTEMS GROUP WHITE RIVER JUNCTION VT
PPLN11019 STEER DAVIES GLEAVE NEW YORK NY
PLANNING SVCS - TRANSPORTATION PLANNING & POLICY ANALYSIS
PPLN11004 AECOM USA, INC. NEW YORK NY
PPLN11003 DELCAN INC. VIENNA VA
PPLN11005 ENG-WONG, TAUB & ASSOCIATES, P.A. NEW YORK NY
PPLN11007 HALCROW, LLC NEW YORK NY
PPLN11008 HENNINGSON, DURHAM & RICHARDSON ARCH. & ENG., P.C. PEARL RIVER NY
PPLN11009 HNTB NEW YORK ENGINEERING PC NEW YORK NY
PPLN11010 JACOBS CIVIL CONSULTANTS, INC. NEW YORK NY
PPLN11013 NELSON/NYGAARD CONSULTING ASSOCIATES NEW YORK NY
PPLN11014 PB AMERICAS, INC NEW YORK NY
PPLN11017 RESOURCE SYSTEMS GROUP WHITE RIVER JUNCTION VT
PPLN11019 STEER DAVIES GLEAVE NEW YORK NY
PPLN11021 URS CORPORATION - NEW YORK NEW YORK NY
PORT COMMERCE ADVISORY SERVICES 2012
PPCD12004 R K JOHNS & ASSOCIATES, INC. ROSELLE PARK NJ
PORT PLANNING & MARINE INFRASTRUCTURE CALL-IN SERVICES
PPRT11004 AECOM NEW YORK NY
PPRT11005 CH2M HILL NEW YORK, INC. NEW YORK NY
PPRT11006 HENNINGSON DURHAM & RICHARDSON ARCH. & ENGINEERING PC NEW YORK NY
PPRT11007 MOFFATT & NICHOL NEW YORK NY
PPRT11008 URS CORPORATION - NEW YORK NEW YORK NY
PROFESSIONAL ADVOCACY CALL-IN SVCS 2006-2010
PGCR06002 AMERICAN CONTINENTAL GROUP, LLC WASHINGTON DC
PGCR06003 BLANK ROME LLP WASHINGTON DC
PGCR06005 CASSIDY & ASSOCIATES WASHINGTON DC
PGCR0606 MANATT, PHELPS & PHILLIPS LOS ANGELES CA
PGCR06008 PODESTAMATTOON WASHINGTON DC
PGCR06010 VENABLE LLP WASHINGTON DC
PGCR06009 THE WASHINGTON GROUP WASHINGTON DC
PROJECT DELIVERY SUPPORT (M/WBE) CALL-IN SERVICES 2014
P40214031 JCMS, INC. MERCERVILLE NJ
P40214029 MCSS, INC. HOLMDEL NJ
P40214028 PMA CONSULTANTS LLC NEWARK NJ
P40214030 STELLAR SERVICES, INC. NEW YORK NY
P40214032 TOLL INTERNATIONAL LLC NEW YORK NY
COO - PROJECT DELIVERY (M/WBE) CALL-IN SERVICES 2012-2015
PCOO12030 4U SERVICES, INC. NEW YORK NY
PCOO12034 ECONOMIC PROJECT SOLUTIONS INC. NORTH BRUNSWICK NJ
PCOO12033 FIELD ASSOCIATES, P.C. ROOSEVELT NY
PCOO12031 JCMS, INC. MERCERVILLE NJ
PCOO12032 MACON PACE INC. HAMILTON NJ
PCOO12029 MCSS, INC. HOLMDEL NJ
PCOO12028 PMA CONSULTANTS LLC NEWARK NJ
PCOO12035 TOLL INTERNATIONAL LLC NEW YORK NY
PROJECT MANAGEMENT SERVICES - GWB BUS STATION - AS NEEDED
PTBT10019 LOUIS BERGER GROUP MORRISTOWN NJ
PROJECT MANAGEMENT SERVICES - GOETHALS BRIDGE - AS NEEDED
PTBT09019 HALCROW, INC. NEW YORK NY
PROJECT MANAGEMENT SERVICES - LAGUARDIA AIRPORT CTB - AS NEEDED
PAVI09025 URS CORPORATION-NEW YORK NEW YORK NY
PROJECT MANAGEMENT CALL-IN 2011-2014
PCOO11006 AECOM USA, INC NEW YORK NY
PCOO11007 HNTB NEW YORK ENGINEERING & ARCHITECTURE, PC NEW YORK NY
PCOO11008 JACOBS CIVIL CONSULTANTS, INC. NEW YORK NY
PCOO11009 LOUIS BERGER & ASSOC., P.C. NEW YORK NY
PCOO11010 PB AMERICAS, INC NEW YORK NY
PCOO11011 STV INCORPORATED NEW YORK NY
PCOO11012 URS CORPORATION - NEW YORK NEW YORK NY
PROJECT RISK ANALYSIS (M/WBE) CALL-IN SERVICES 2013
PCOO13025 JCMS, INC. MERCERVILLE NJ
PCOO13026 MCKISSACK + IEI, A JOINT VENTURE NEW YORK NY
PCOO13027 PMA CONSULTANTS L.L.C. NEW YORK NY
PROJECT RISK ANALYSIS CALL-IN SERVICES 2013
PCOO13013 AECOM USA, INC NEW YORK NY
PCOO13014 ARCADIS U.S., INC. NEW YORK NY
PCOO13015 BURNS ENGINEERING, INC. PHILADELPHIA PA
PCOO13016 DELCAN CORPORATION VIENNA VA
PCOO13017 HENNINGSON DURHAM & RICHARDSON ARCH. & ENGINEERING PC NEW YORK NY
PCOO13018 HILL INTERNATIONAL, INC. NEW YORK NY
PCOO13019 HNTB NEW YORK ENGINEERING & ARCHITECTURE, PC NEW YORK NY
PCOO13020 LiRO ENGINEERS, INC. SYOSSET NY
PCOO13021 THE LOUIS BERGER GROUP, INC NEW YORK NY
PCOO13022 TRAUNER CONSULTING SERVICES PHILADELPHIA PA
PCOO13023 URBAN ENGINEERS OF NEW YORK, PC NEW YORK NY
PCOO13024 URS CORPORATION NEW YORK NY
PROJECT WEBSITE CONTENT/DIGITAL MEDIA CALL-IN SERVICES 2014
P40214022 AECOM USA, INC NEW YORK NY
P40214023 STELLAR SERVICES, INC. NEW YORK NY
QUALITY ASSURANCE - BRIDGES - CALL-IN SERVICES 2014
P40514002 CHA CONSULTING, INC. ALBANY NY
P40514003 HARDESTY & HANOVER, LLP NEW YORK NY
P40514004 HNTB NEW YORK ENGINEERING & ARCHITECTURE, PC NEW YORK NY
P40514005 STANTEC CONSULTING SERVICES, INC NEW YORK NY
P40514027 TRANSYSTEMS ARCHITECT & ENGINEER, P.C. NEW YORK NY
P40514026 URS CORPORATION - NEW YORK NEW YORK NY
P40514006 WEIDLINGER ASSOCIATES NEW YORK NY
P40514007 WSP SELLS BRIARCLIFF MANOR NY
QUALITY ASSURANCE - BUILDINGS - CALL-IN SERVICES 2014
P40514008 CHA CONSULTING, INC. ALBANY NY
P40514009 FST ENGINEERS, INC MELVILLE NY
P40514010 GANNETT FLEMING ENGINEERS AND ARCHITECTS, P.C. NEW YORK NY
P40514013 LOUIS BERGER GROUP MORRISTOWN NJ
P40514011 SEVERUD ASSOCIATES CONSULTING NEW YORK NY
P40514012 T&M ASSOCIATES MIDDLETOWN NJ
P40514014 URS CORPORATION - NEW YORK NEW YORK NY
QUALITY ASSURANCE - TUNNELS - CALL-IN SERVICES 2014
P40514019 HATCH MOTT MACDONALD NY, INC. JERSEY CITY NJ
P40514020 JENNY ENGINEERING CORPORATION, INC. SPRINGFIELD NJ
P40514021 MUESER RUTLEDGE CONSULTING NEW YORK NY
QUALITY ASSURANCE (M/WBE) CALL-IN SERVICES 2014
P40514015 KC ENGINEERING & LAND NEW YORK NY
P40514016 KS ENGINEERS, P.C. NEWARK NJ
P40514017 LS ENGINEERING ASSOCIATES CORP, P.C. MONTVILLE NJ
P40514018 SJH ENGINEERING, P. C. PRINCETON NJ
QUALITY ASSURANCE - WATERFRONT - CALL-IN SERVICES 2014
P40514022 BOSWELL ENGINEERING SOUTH HACKENSACK NJ
P40514023 HALCROW, INC. NEW YORK NY
P40514024 M.G. MCLAREN, P.C. WEST NYACK NY
P40514025 MOFFATT & NICHOL NEW YORK NY
QAD VTS INSPECT/TEST'G CALL-IN 2014
P40514036 KS ENGINEERS, P.C. NEWARK NJ
REAL ESTATE ADVISORY CALL-IN SERVICES 2013
PDEV13054 AECOM USA, INC NEW YORK NY
PDEV13076 CUSHMAN & WAKEFIELD, INC. NEW YORK NY
PDEV13059 HR&A ADVISORS, INC. NEW YORK NY
PDEV13063 REAL ESTATE SOLUTIONS GROUP, LLC PRINCETON NJ
PDEV13064 WASHINGTON SQUARE PARTNERS NEW YORK NY
PDEV13077 THE WEITZMAN GROUP, INC. NEW YORK NY
PDEV13060 JONES LANG LASALLE NEW YORK NY
REAL ESTATE APPRAISAL CALL-IN SERVICES 2013
PDEV13083 ARD APPRAISAL COMPANY CLARK NJ
PDEV13081 CAPITAL APPRAISAL SERVICES WHITESTONE NY
PDEV13065 DANIEL P. LANE & ASSOCIATES, INC. NEW YORK NY
PDEV13066 GOODMAN-MARKS ASSOCIATES, INC MINEOLA NY
PDEV13067 HANNOCK APPRAISAL COMPANY LIVINGSTON NJ
PDEV13068 INTEGRA KRAUSER & CIRZ, INC. WHIPPANY NJ
PDEV13069 JEROME HAIMS REALTY, INC. NEW YORK NY
PDEV13070 LASSER SUSSMAN ASSOCIATES, LLC LIVINGSTON NJ
PDEV13071 NORMAN J. GOLDBERG, INC. WEST CALDWELL NJ
PDEV13072 REAL ESTATE SOLUTIONS PPS, INC. BAYVILLE NY
PDEV13073 STACK, COOLAHAN & STACK, LLC HOBOKEN NJ
PDEV13082 VALUE RESEARCH GROUP, LLC LIVINGSTON NJ
PDEV13074 WELSH CHESTER GALINEY MATONE, INC. MORRISTOWN NJ
RISK ASSESSMENT / COST BENEFIT ANALYSIS CALL-IN SERVICES 2013-15
POEM13001 BINERA INC. YORKTOWN VA
SAFETY & SECURITY OVERSIGHT SUPPORT & REVIEW SERVICES "AS-NEEDED" 2011-2014
PPAT11006 TRANSPORTATION RESOURCE ASSOCIATES, INC. PHILADELPHIA PA
SECURITY CAPITAL PROGRAM CALL-IN 2008-2013
P41508300 AECOM USA, INC NEW YORK NY
P41508305 CH2MHILL NEW YORK NY
P41508302 HNTB CORPORATION NEW YORK NY
P41508303 THE LOUIS BERGER GROUP, INC. MORRISTOWN NJ
P41508304 STV INCORPORATED NEW YORK NY
P41508301 URS CORPORATION NEW YORK NY
SOIL BORINGS / MONITOR WELL INSTALLATION CALL-IN SERVICES 2014
P42614048 CRAIG GEOTECHNICAL DRILLING CO INC. MAYS LANDING NJ
P42614049 UNI-TECH DRILLING CO., INC. FRANKLINVILLE NJ
STRUCTURAL BRIDGES CALL-IN SERVICES 2014
P41514092 HENNINGSON DURHAM & RICHARDSON ARCH. & ENGINEERING PC NEW YORK NY
P41514093 HNTB NEW YORK ENGINEERING PC NEW YORK NY
P41514094 MODJESKI AND MASTERS, INC. MECHANICSBURG PA
P41514095 PARSONS BRINCKERHOFF, INC. NEW YORK NY
P41514096 STV INCORPORATED NEW YORK NY
STRUCTURAL BUILDINGS CALL-IN SERVICES 2014
P41514122 DEWBERRY ENGINEERS INC. BLOOMFIELD NJ
P41514123 SEVERUD ASSOCIATES CONSULTING ENGINEERS, P.C. NEW YORK NY
P41514124 WSP USA CORP. NEW YORK NY
STRUCTURAL COATINGS CALL-IN SERVICES 2014
P42614054 KTA-TATOR, INC. PITTSBURGH PA
STRUCTURAL CONSTRUCTION INSPECTOR (M/WBE) CALL-IN SERVICES 2014
P41014067 AI ENGINEERS, INC. NEW YORK NY
P41014068 HAIDER ENGINEERING, P.C. FARMINGDALE NY
P41014069 IH ENGINEERS, PC PRINCETON NJ
P41014070 JCMS, INC. MERCERVILLE NJ
P41514098 KS ENGINEERS, P.C. NEWARK NJ
P41514189 M.G. MCLAREN, P.C. WEST NYACK NY
P41014071 SCI ENGINEERING, P.C NEW YORK NY
STRUCTURAL DESIGN CALL-IN SERVICES 2014
P41514098 KS ENGINEERS, P.C. NEWARK NJ
P41514189 M.G. MCLAREN, P.C. WEST NYACK NY
P41514099 T&M ASSOCIATES MIDDLETOWN NJ
STRUCTURAL DESIGN (M/WBE) CALL-IN SERVICES 2014
P41514027 ARORA AND ASSOCIATES, P.C. LAWRENCEVILLE NJ
P41514028 GANDHI ENGINEERING, INC. NEW YORK NY
P41514029 KS ENGINEERS, P.C. NEWARK NJ
P41514030 SJH ENGINEERING, P.C. PRINCETON NJ
STRUCTURAL ENGINEERING WATERFRONT CALL-IN SERVICES 2014
P41514169 COLLINS ENGINEERING, P.C. CHICAGO IL
P41514168 M.G. MCLAREN, P.C. WEST NYACK NY
STRUCTURAL STEEL INSPECTION AND NON-DESTRUCTIVE TESTING SERVICES 2014
P42614046 MISTRAS GROUP, INC. OLD BRIDGE NJ
P42614047 QUALITY INSPECTION SERVICES, INC. BUFFALO NY
SUPERSTORM SANDY REPAIR/RESIL (PATH)
P41513208 GANNETT FLEMING ENGINEERS & NEW YORK NY
P41513209 HENNINGSON DURHAM & RICHARDSON NEW YORK NY
P41513210 HNTB NEW YORK ENGINEERING & NEW YORK NY
P41513211 JACOBS CIVIL CONSULTANTS, INC. NEW YORK NY
P41513212 PARSONS TRANSPORTATION GROUP OF NEW YORK NY
P41513213 STV INCORPORATED NEW YORK NY
P41513214 T.Y. LIN INTERNATIONAL NEW YORK NY
P41513215 URS CORPORATION - NEW YORK NEW YORK NY
SUPERSTORM SANDY REPAIR/RESIL(NON-PATH)
P41513201 AECOM USA, INC NEW YORK NY
P41513202 CH2M HILL NEW YORK, INC. NEW YORK NY
P41513203 HENNINGSON DURHAM & RICHARDSON NEW YORK NY
P41513204 HNTB NEW YORK ENGINEERING & NEW YORK NY
P41513205 STV INCORPORATED NEW YORK NY
P41513206 TETRA TECH ENGINEERS ARCHITECTS NEW YORK NY
P41513207 URS CORPORATION - NEW YORK NEW YORK NY
SWAP FINANCIAL ADVISORY SERVICES 2008-2009
PTRS08002 SWAP FINANCIAL GROUP LLC SOUTH ORANGE NJ
TB&T FORECASTING ANALYSIS SERVICES CALL-IN 2013
PTBT13004A AECOM USA, INC NEW YORK NY
PTBT13012 HALCROW, INC. NEW YORK NY
PTBT13011 THE LOUIS BERGER GROUP, INC. MORRISTOWN NJ
PTBT13010 PARSONS BRINCKERHOFF, INC. NEW YORK NY
PTBT13014 URS CORPORATION - NEW YORK NEW YORK NY
PTBT13006 WILBUR SMITH ASSOCIATES EDISON NJ
TB&T MARKET RESEARCH PLANNING SERVICES CALL-IN 2013
PTBT13003 ABT SRBI, INC. NEW YORK NY
PTBT13011 THE LOUIS BERGER GROUP, INC. MORRISTOWN NJ
PTBT13011 WILBUR SMITH ASSOCIATES EDISON NJ
TB&T TRANSPORTATION AND FACILITY OPERATIONS PLANNING SERVICES CALL-IN 2013
PTBT13012 HALCROW, INC. NEW YORK NY
PTBT13016 HNTB CORPORATION NEW YORK NY
PTBT13018 KLD ASSOCIATES, INC. HAUPPAUGE NY
PTBT13011 THE LOUIS BERGER GROUP, INC. MORRISTOWN NJ
PTBT13015 THE RBA GROUP, INC. PARISIPPANY NJ
PTBT13014 URS CORPORATION - NEW YORK NEW YORK NY
PTBT13006 WILBUR SMITH ASSOCIATES EDISON NJ
TENANT ALTERATION APPLICATION (TAA) CODE REVIEW SERVICES CALL-IN 2014
P40514029 A.G. CONSULTING ENGINEERING, P.C. NEW YORK NY
P40514030 BURNS AND ROE ENTERPRISES CORP. ORADELL NJ
P40514031 CHA CONSULTING, INC. ALBANY NY
P40514032 HAKS ENGINEERS AND LAND NEW YORK NY
P40514033 STANTEC CONSULTING SERVICES, INC NEW YORK NY
P40514034 STUDIO 5 PARTNERSHIP, GLEN ROCK NJ
P40514035 URBAN ENGINEERS OF NEW YORK, PC NEW YORK NY
TIMBER TESTING & INSPECTION CALL-IN SERVICES 2014
P42614060 A.W. WILLIAMS INSPECTION CO., INC. MOBILE AL
TOPOGRAPHIC / BOUNDARY (M/WBE) CALL-IN SERVICES 2014
P41014031 ARORA AND ASSOCIATES PC LAWRENCEVILLE NJ
P41014032 EWELL W. FINLEY, P.C. NEW YORK NY
P41014033 HAKS ENGINEERS AND LAND NEW YORK NY
P41014034 KS ENGINEERS, P.C. NEWARK NJ
P41014036 MUNOZ ENGINEERING & LAND NEW YORK NY
P41014035 NAIK CONSULTING GROUP, P.C. NEW YORK NY
TOPOGRAPHIC / BOUNDARY SURVEY CALL-IN SERVICES 2014
P41014016 EWELL W. FINLEY, P.C. NEW YORK NY
P41014017 GEOD CORPORATION NEWFOUNDLAND NJ
P41014018 HAKS ENGINEERS AND LAND NEW YORK NY
P41014020 KELLER & KIRKPATRICK, INC. MORRIS PLAINS NJ
P41014021 KENNON SURVEYING SERVICES, INC. WARREN NJ
P41014019 KS ENGINEERS, P.C. NEWARK NJ
P41014022 KUPPER LLC TRENTON NJ
P41014023 LANGAN ENGINEERING & ENVIRONMENTAL NEW YORK NY
P41014024 MASER CONSULTING P.A. RED BANK NJ
P41014025 MUNOZ ENGINEERING & LAND NEW YORK NY
P41014026 NAIK CONSULTING GROUP, P.C. NEW YORK NY
P41014027 THE RBA GROUP, INC. PARISIPPANY NJ
P41014028 STANTEC CONSULTING SERVICES, INC. NEW YORK NY
P41014030 VAN CLEEF ENGINEERING ASSOCIATES HILLSBOROUGH NJ
TRAFFIC DESIGN CALL-IN SERVICES 2013
P41513135 PARSONS BRINCKERHOFF, INC. NEW YORK NY
TRAFFIC DESIGN (M/WBE) CALL-IN SERVICES 2014
P41514127 SIMCO ENGINEERING, P.C. NEW YORK NY
TRAFFIC ENGINEERING PLANNING CALL-IN SERVICES 2014
P41514104 PARSONS BRINCKERHOFF, INC. NEW YORK NY
P41514172 SAM SCHWARTZ ENGINEERING, PLLC NEW YORK NY
P41514101 VHB ENGINEERING, SURVEYING AND WATERTOWN MA
TRAFFIC GENERAL ENGINEERING CALL-IN SERVICES 2014
P41514171 THE RBA GROUP, INC. PARISIPPANY NJ
TRAFFIC ITS CALL-IN SERVICES 2013
P41513031 HNTB NEW YORK ENGINEERING & ARCHITECTURE, PC NEW YORK NY
P41513032 JACOBS CIVIL CONSULTANTS, INC. NEW YORK NY
P41513033 MICHAEL BAKER ENGINEERING, INC. PITTSBURGH PA
TRAFFIC PROTECTION CALL-IN SERVICES 2014
P42614025 CRAIG GEOTECHNICAL DRILLING CO INC. MAYS LANDING NJ
TRAFFIC ROADWAY CONSTRUCTION PERMITTING CALL-IN SERVICES 2014
P41514100 SAM SCHWARTZ ENGINEERING, PLLC NEW YORK NY
TRAFFIC SAFETY ENGINEERING CALL-IN SERVICES 2014
P41514035 THE RBA GROUP, INC. PARISIPPANY NJ
P41514036 VHB ENGINEERING SURVEYING AND LANDSCAPE ARCHITECTURE, P.C. HAUPPAUGE NY
TRAFFIC SIGNAL DESIGN CALL-IN DURING 2014
P41514040 ARORA AND ASSOCIATES, P.C. LAWRENCEVILLE NJ
P41514041 MASER CONSULTING P.A. RED BANK NJ
P41514042 THE RBA GROUP, INC. PARISIPPANY NJ
UTILITY LOCATING SURVEY CALL-IN SERVICES 2014
P41014012 HAKS ENGINEERS AND LAND NEW YORK NY
P41014013 INFRAMAP CORP. WINDSOR NJ
P41014014 TAYLOR WISEMAN AND TAYLOR MOUNT LAUREL NJ
P41014015 TBE GROUP, INC. PRINCETON NJ
WTC - ARTIFACT PRESERVATION AND STORAGE CALL-IN 2010
PCOO10006 ART PRESERVATION SERVICES, INC NEW YORK NY
WTC - ELEVATOR & ESCALATOR INSTALLATION INSPECTION AND TESTING SERVICES AS NEEDED
PWTCC10001 VERTICAL TRANSPORTATION EXCELLENCE An affiliate of Gannett Fleming Engineers and Architects, P.C. NEW YORK NY
WTC - MATERIALS TESTING & INSPECTION CALL-IN SERVICES 2013
P42613007 HUGHES ASSOCIATES, INC. BALTIMORE MD
P42613009 TUV RHEINLAND INDUSTRIAL SOLUTIONS, INC. ALIQUIPPA PA

WTC Site - Commodities and Services

Competitive
Bid
Reference # (?) Description Vendor Name City State Est. Amt (?) Start/ Effective Date End Comments
4500064778 Stainless Steel Cabinet Enclosures, WTC BIG ENTERPRISES INC. SOUTH EL MONTE CA $256,860 1/31/2014 N/A Sole Source (?)
4500064779 Bullet Proof Guard Booths, WTC Campus BIG ENTERPRISES INC. SOUTH EL MONTE CA $908,200 1/31/2014 N/A Sole Source (?)
4600009642 Emergency Fuel, WTC Transp Hub, COO/CAD - 1 yr FLYNN ENERGY TRANSPORT INC. TOWANDA PA $230,842.50 9/1/2013 8/31/2014  
4500064129 Datesweiser Furniture, 1WTC 63FL EVENSONBEST LLC NEW YORK NY $28,803 5/24/2013 N/A  
4500064098 / 32905 Passive Vehicular Barrier, WTC PETERSEN MFG. COMPANY, INC. DENISON IA $57,440 5/14/2013 N/A  
4500063217 Removal, Transport and Delivery of the Koenig Sphere Padilla Construction Services, Inc WESTBURY NY $159,000 5/1/2012 11/13/2012 M/W/SBE Set-Aside (?)
4500061841 Fabrication, Testing, and Supply of Signal Control System for the Harrison Transfer Yard STANTEC CONSULTING SERVICES, INC ROCHESTER NY $1,398,081 10/15/2010 N/A  
4600008295 Pedestrian Management Services for WTC Reconstruction ALLIEDBARTON SECURITY SERVICES NEW YORK NY $2,240,825 8/27/2010 8/26/2012  
4600008117 / 19912 WTC Site Logistics - 2 yrs GUARDIAN SERVICE INDUSTRIES, INC. NEW YORK NY $4,180,235 3/3/2010 3/2/2012  
4600008101 / 20065 HVAC Inspect/Maintenance, WTC-PATH, 2 yrs JOHNSON CONTROLS, INC. NEW YORK NY $513,804 3/1/2010 2/29/2012  
4500060610 / 19025 Banners, WTC DUGGAL VISUAL SOLUTIONS, INC. NEW YORK NY $28,952 8/18/2009 N/A  
4500060583 / 18100 Plate & Frame Heat Exchangers, WTC GEA PHE SYSTEMS NORTH AMERICA, INC. YORK PA $267,311 8/6/2009 N/A  
4600007825 / 17730 Access Control System and Maintenance for WTCTR - 4 yrs DIEBOLD ENTERPRISE SECURITY SYSTEMS WHITE PLAINS NY $1,127,876 7/13/2009 12/14/2013 Prequalified
4500060541 / 18448 Electrical Transformers, WTC Site TURTLE & HUGHES, INC. LINDEN NJ $1,291,272 7/31/2009 N/A  
4500060542 / 18449 Switchgears, WTC Site MYERS CONTROLLED POWER, LLC NORTH CANTON OH $596,293 7/31/2009 N/A  
4500060391 / 17670 Centrifugal Chillers, WTC JOHNSON CONTROLS, INC. NEW YORK NY $3,828,926 5/5/2009 N/A  
4500060130 / 17540 River Water Pumps, WTC Site HAYES PUMP, INC FAIRFIELD NJ $1,386,880 3/27/2009 N/A  
4500059203 Under Vehicle Inspection System, WTC ADVANCED DETECTION TECHNOLOGY MAIDEN NC $27,994 12/19/2008 12/18/2009  
4600007523 Scaffolding Materials and Rental, WTC ATLANTIC HOISTING & SCAFFOLDING, LLC BROOKLYN NY $133,890 11/4/2008 11/3/2009  
4600007467 Lease of 21 Trailers - WTC Construction WILLIAMS SCOTSMAN SOUTH KEARNY NJ $67,020 10/15/2008 10/14/2009  
4600007415 Project Mgmt Software/Maint., WTC - 1 yr PRIMAVERA SYSTEMS, INC. BALA CYNWYD PA $46,188 8/22/2008 8/21/2009  
4600007387 / 15294 Digital Video Recording & Maint. for WTC DIEBOLD ENTERPRISE SECURITY SYSTEMS WHITE PLAINS NY $799,991 8/18/2008 2/19/2010  
4600007367 / 16118 Software & Maintenance, WTC - 1 yr PRIMAVERA SYSTEMS, INC. BALA CYNWYD PA $36,549 7/21/2008 7/20/2009  
RFP (?)
Reference # (?) Description Vendor Name City State Est. Amt (?) Start/ Effective Date End Comments
4600009423 Expert Professional PM Services for Port Authority Headquarters at 4 WTC on an As-Needed Basis MACE NORTH AMERICA NEW YORK NY $3,294,900 2/25/2013 12/31/2015  
4600008540 Software System - Situational Awareness, WTC - 5 yrs DIEBOLD ENTERPRISE SECURITY SYSTEMS ELMSFORD NY $8,393,708 3/21/2011 7/20/2017
4600007569 / 16333 Fire Safety Director, Temporary PATH-WTC Station GUARDIAN SECURITY SERVICES, INC NEW YORK NY $1,234,493 12/16/2008 12/15/2011  
Govt (?)
Reference # (?) Description Vendor Name City State Est. Amt (?) Start/ Effective Date End
PPSD13001 Intra/Inter-Operability Document Creation LAFAYETTE GROUP INC. VIENNA VA $262,400 9/25/2013 7/14/2014
4600009492 Shredding Services, WTC - 5 Yr Req Contract INFORMATION DESTRUCTION SYSTEMS LLC PASSAIC NJ $35,000 6/1/2013 5/31/2018
4500064108 Steelcase Furniture, 1WTC 63FL STEELCASE NEW YORK NY $96,616 5/21/2013 5/15/2015
4600009500 Electronic Vehicle Barrier, WTC - 2 yrs SECURE USA CUMMING GA $738,424 5/16/2013 5/15/2015
4600009484 Guard Booth, WTC - 6 mos JAY HENGES ENTERPRISES EARTH CITY MO $373,672 5/16/2013 11/15/2013
4500064109 Coalesse Furniture, 1 WTC 63FL STEELCASE NEW YORK NY $41,301 5/15/2013 N/A
4600009055 Trailer Rental, WTC PAPD - 4 yrs WILLIAMS SCOTSMAN SOUTH KEARNY NJ $29,135 4/11/2012 4/10/2016  
4600009304 Pest Control Services, WTC - 2 yrs ABALON EXTERMINATING NEW YORK NY $778,000 12/1/2012 11/30/2014
4600009280 WTC O&M - 1 yr CROWN ENERGY SERVICES, INC. DBA ABLE ENGINEERING SERVICES SAN FRANCISCO CA $7,547,981 12/1/2012 11/30/2013
4600008888 Brand Identity Services, WTC LANDOR ASSOCIATES NEW YORK NY $980,927 11/9/2011 5/8/2012
4600008568 Modular Access Units, WTC - 4 yrs DIEBOLD ENTERPRISE SECURITY SYSTEMS ELMSFORD NY $760,559 4/4/2011 4/3/2015
4600008084 Modular Access Units for WTC site MSSI - MODULAR SECURITY IRONTON OH $76,500 1/25/2010 3/8/2011
4500061074 Voice Recording System, WTC KOVA CORPORATION MANAHAWKIN NJ $84,977 12/30/2009 N/A
4600007947 Xerox Copier with Maint, WTC Construction XEROX CORPORATION NEW YORK NY $47,116 11/9/2009 11/8/2014
4600007798 Safety Glasses Reqmnts Contract, WTC - 3 yrs U.S. SAFETY BLOOMFIELD NJ $30,000 7/1/2009 6/30/2012
4600007494 Particulate Analysis Kit for WTC VETERAN CORPS OF AMERICA FAIRFAX VA $37,512 12/1/2008 11/30/2009
4600007413 Project Mgmt Software/Maint., WTC - 1 yr PRIMAVERA SYSTEMS, INC. BALA CYNWYD PA $92,160 8/20/2008 8/19/2009
4600007382 Emergency Mass Notification System at WTC ACOUSTIC TECHNOLOGY, INC. EAST BOSTON MA $429,096 8/1/2008 7/31/2011
Options (?)
Reference # (?) Description Vendor Name City State Est. Amt (?) Start/ Effective Date End
4600009280 WTC O & M - Exercised Option CROWN ENERGY SERVICES, INC. SAN FRANCISCO CA $4,588,888 12/1/2013 11/30/2014
4600007382 Emergency Mass Notification System, WTC - Exercised Second Option ACOUSTIC TECHNOLOGY, INC. EAST BOSTON MA $28,000 8/1/2013 7/31/2015
4600006735 Aviation / WTC Audit & Training - Exercised Third Option INTERPASS, LTD. IRVINGTON NY $1,393,804 5/1/2012 4/30/2013
4600008117 WTC Site Logistics - Exercised Second Option GUARDIAN SERVICE INDUSTRIES, INC. NEW YORK NY $2,164,913 3/3/2013 3/2/2014
4600008117 WTC Site Logistics - Exercised First Option GUARDIAN SERVICE INDUSTRIES, INC. NEW YORK NY $2,105,352 3/3/2012 3/2/2013
4600008101 HVAC Inspection & Maintenance, WTC-PATH - Exercised Second Option JOHNSON CONTROLS, INC. NEW YORK NY $268,626 1/23/2013 2/28/2014
4600008101 HVAC Inspection & Maintenance, WTC Transportation Hub - Exercised First Option JOHNSON CONTROLS, INC. NEW YORK NY $264,294 3/1/2012 2/28/2013
4600007569 Fire Safety Directors, WTC Transportation Hub - Exercised First Option GUARDIAN SECURITY SERVICES, INC NEW YORK NY $436,431 12/16/2011 12/15/2012
4600007996 Scaffolding Lease - WTC Construction - Exercised Second Option ATLANTIC HOISTING & SCAFFOLDING, LLC CARLSTADT NJ $45,480 11/15/2011 11/14/2012
46000007134 Cleaning Services, PATH WTC Station - Exercised Three Year Option MODERN FACILITIES SERVICES EAST HANOVER NJ $4,286,250 3/15/2011 3/14/2014
4600006611 O&M Services at WTC Site - Exercised Second Option GUARDIAN SERVICE INDUSTRIES, INC. NEW YORK NY $6,150,948 2/1/2011 1/31/2012
4600007996 Scaffolding Lease, WTC Construction - Exercised First Option ATLANTIC HOISTING & SCAFFOLDING BROOKLYN NY $45,480 11/15/2010 11/14/2011
4600007993 Lease of 21 Trailers, WTC Construction - Exercised Second Option WILLIAMS SCOTSMAN SOUTH KEARNY NJ $46,200 10/15/2011 10/14/2012
4600007993 Lease of 21 Trailers, WTC Construction - Exercised First Option WILLIAMS SCOTSMAN SOUTH KEARNY NJ $45,240 10/15/2010 10/14/2011
4600006611 O&M Svs at WTC Site - Exercised First Option GUARDIAN SERVICE INDUSTRIES, INC. NEW YORK NY $5,925,711 2/1/2010 1/31/2011
4600006634 HVAC Inspection & Maintenance, WTC-PATH - 2 yrs ONESOURCE ENERGY SERVICES EDISON NJ $263,304 11/1/2008 10/31/2009
Negotiated (?)
Reference # (?) Description Vendor Name City State Est. Amt (?) Start/ Effective Date End Comments
4600009728 Monthly Parking Spaces, WTC - 1 yr LAZ PARKING - BATTERY PARK GARAGE NEW YORK NY $93,264 12/1/2013 11/30/2014 Sole Source (?)
4500064278 Aquafence, WTC - WIM AQUAFENCE USA INC. NEW YORK NY $287,026 7/26/2013 N/A Sole Source (?)
4500064162 Hesco Barriers, WTC HESCO BASTION INC. NORTH CHARLESTON SC $200,017 6/7/2013 N/A Emergency Sole Source
4300002077 Emergency Diesel Fuel Svs for Generators, WTC ALLIED NEW YORK SERVICES, INC. JAMAICA NY $29,886 1/31/2013 N/A Emergency
4300002067 Electrical Power Restoration GILSTON ELECTRIC/FIVE STAR NEW YORK NY $897,851 1/7/2013 N/A Emergency
4300002039 Electrical Power Restoration FIVE STAR ELECTRIC CORP. OZONE PARK NY $45,046 12/20/2012 N/A Emergency
4300002044 Diesel Fuel, Ultra Low Sulfur Red-dyed ARROCHAR FUEL CORPORATION BROOKLYN NY $45,000 11/28/2012 N/A Sole Source (?)
4300002045 Repair and Replacement of Critical Equipment DIEBOLD ENTERPRISE SECURITY SYSTEMS ELMSFORD NY $32,088 11/28/2012 N/A Sole Source (?)
4300002038 Labor, Material and Equipment, WTC Site RAILROAD CONSTRUCTION COMPANY, INC. PATERSON NJ $50,000 11/20/2012 2/20/2013 Sole Source (?)
4600009303 Monthly Parking Spaces, WTC - 1 yr LAZ PARKING - BATTERY PARK GARAGE NEW YORK NY $93,264 12/1/2012 11/30/2013 Sole Source (?)
4300002033 Environmental Services TRC ENGINEERS, INC. NEW YORK NY $75,000 11/15/2012 N/A Emergency Sole Source
4300002034 Environmental Cleanup Services PAL ENVIRONMENTAL SAFETY CORP. LONG ISLAND CITY NY $700,000 11/15/2012 N/A Emergency Sole Source
4300002025 Rigging/ Trucking and Logistics Services Padilla Construction Services, Inc WESTBURY NY $1,000,000 11/13/2012 N/A Emergency Sole Source
4300002026 Rigging/ Trucking and Logistics Services R BAKER & SON ALL INDUSTRIAL SERVIC RED BANK NJ $1,000,000 11/13/2012 N/A Emergency Sole Source
4300002024 Dewatering Services SKANSKA / GRANITE / SKANSKA J.V. WHITESTONE NY $4,200,000 11/6/2012 N/A Emergency Sole Source
4500062971 Retrofit Diebold Battery DIEBOLD ENTERPRISE SECURITY SYSTEMS ELMSFORD NY $25,070 12/22/2011 N/A Sole Source (?)
4600008912 24/7 Parking for Police at WTC - 1 yr LAZ PARKING - BATTERY PARK GARAGE NEW YORK NY $89,708 12/1/2011 11/30/2012 Sole Source (?)
4300001935 Barriers and Sandbags at WTC Site due to Hurricane Irene TRAFFIC SAFETY SERVICE, LLC SOUTH PLAINFIELD NJ $40,570 9/20/2011 N/A Emergency
4300001905 Installation of Scaffolding for Trailers, WTC Site ATLANTIC HOISTING & SCAFFOLDING BROOKLYN NY $63,485 2/24/2011 N/A Emergency (?)
4600007996 Scaffolding Lease, WTC Construction ATLANTIC HOISTING & SCAFFOLDING BROOKLYN NY $45,480 11/15/2009 11/14/2010 Sole Source (?)
4600007925 WTC Truck Arrival Scheduling Sys Maint. Contract - 3 yrs INTERDYNAMICS PTY LTD. BRISBANE, QUEENSLAND QLD $460,291 10/28/2009 5/21/2013 Sole Source (?)
4600007993 Lease of 21 Trailers, WTC Construction WILLIAMS SCOTSMAN SOUTH KEARNY NJ $53,400 10/15/2009 10/14/2010 Sole Source (?)
4300001732 Services for WTC-PATH Terminal 9A Underpass at Liberty and Vesey Sts. CONSOLIDATED EDISON COMPANY OF NEW YORK, INC. NEW YORK NY $181,243 1/12/2009 N/A Emergency (?)
4300001723 Perimeter Fence Wrap, WTC DUGGAL VISUAL SOLUTIONS, INC. NEW YORK NY $100,775 1/7/2009 N/A Emergency (?)
4600007284 Rental of Two Trailers at WTC, Public Safety WILLIAMS SCOTSMAN SOUTH KEARNY NJ $115,060 5/27/2008 5/26/2012 Sole Source (?)
Contract Amendments (?)
Reference # (?) Description Vendor Name City State Award Amt (?) End Change Order Type Comments
4600009239 Canine Teams - WTCC MICHAEL STAPLETON ASSOCIATES, LTD. NEW YORK NY $350,000 6/30/2014 Increase/ Extension  
4600008101 HVAC Inspect/Maintenance - WTC-PATH 2 yrs Exercised 120 Day Extension Period JOHNSON CONTROLS, INC. NEW YORK NY $89,542 6/30/14 Extension  
4600008117 WTC Site Logistics - 120 Day Extension GUARDIAN SERVICE INDUSTRIES, INC. NEW YORK NY $721,633 6/30/14 Extension 12/9/13
4600009280 WTC Operations & Maintenance for Site Wide Cleanup CROWN ENERGY SERVICES, INC. SAN FRANCISCO CA $1,000,000 11/30/2014 Increase  
4600007775 Scanners 5 Yr Lease, WTC Construction - Supplemental Increase CANON SOLUTIONS AMERICA, INC. CHICAGO IL $65,000 11/30/13 Increase  
4600009280 WTC O & M - Increase for Storm Preparedness CROWN ENERGY SERVICES, INC. SAN FRANCISCO CA $5,000,000 11/30/2013 Increase  
4600007134 Cleaning Svs, WTC Transportation Hub MODERN FACILITIES SERVICES EAST HANOVER NJ $32,000 3/14/2014 Increase  
4600008101 HVAC Inspection & Maintenance, WTC Transportation Hub JOHNSON CONTROLS, INC. NEW YORK NY $100,000 2/28/14 Increase  
4600008117 WTC Site Logistics - Day 2 Work GUARDIAN SERVICE INDUSTRIES, INC. NEW YORK NY $415,000 3/2/2013 Increase  
4600009239 Canine Teams WTCC - 120 Day Extension MICHAEL STAPLETON ASSOCIATES, LTD. NEW YORK NY $13,097 2/5/2014 Extension  
4600007798 Safety Glasses, WTC - 120 Day Extension U.S. SAFETY BELLEVILLE NJ $3,333 10/31/2012 Extension  
4600007993 Lease of 21 Trailers, WTC Site WILLIAMS SCOTSMAN KEARNY NJ $89,400 10/14/2012 Increase  
4600008595 Canine Teams, WTC Site - 120 Day Extension MICHAEL STAPLETON ASSOCIATES, LTD. NEW YORK NY $13,097 10/5/2012 Extension  
4600006611 O&M Services at WTC Site - 120 Day Extension GUARDIAN SERVICE INDUSTRIES, INC. NEW YORK NY $2,050,316 5/31/2012 Extension  
4600006611 O&M Services at WTC Site - Increase in O&M Funding for 120 Day Extension GUARDIAN SERVICE INDUSTRIES, INC. NEW YORK NY $2,450,000 5/31/2012 Increase  
4600006611 O&M Services at WTC Site - Increase in CCP Funding for 120 Day Extension GUARDIAN SERVICE INDUSTRIES, INC. NEW YORK NY $750,000 5/31/2012 Increase  
4600007387 Digital Video Recording & Maint. for WTC - Supplemental Agreement No. 4 DIEBOLD ENTERPRISE SECURITY SYSTEMS ELMSFORD NY $1,500,000 2/19/2015 Supplemental Agreement  
4600007993 Lease of 21 Trailers, WTC Construction - Exercised Second Option WILLIAMS SCOTSMAN SOUTH KEARNY NJ $46,200 10/14/2012 Extension  
4600007387 Digital Video Recording & Maint., WTC - Supplemental Agreement No. 3 DIEBOLD ENTERPRISE SECURITY SYSTEMS ELMSFORD NY $1,596,487 2/19/2015 Supplemental Agreement  
4600006611 O&M Services at WTC Site - Central Chiller Plant & River Water GUARDIAN SERVICE INDUSTRIES, INC. NEW YORK NY $1,277,701 1/31/2012 Supplemental Agreement  
4600006611 O&M Services at WTC Site, 3 yrs - Increase Funds GUARDIAN SERVICE INDUSTRIES, INC. NEW YORK NY $13,000,000 1/31/2011 Supplemental Agreement  
4600006611 O&M Services at WTC Site, 3 yrs - Increase Funds GUARDIAN SERVICE INDUSTRIES, INC. NEW YORK NY $10,000,000 1/31/10 Increase  
Other - Assignment
Reference # (?) Description Vendor Name City State Est. Amt (?) Start/ Effective Date End Comments
ASPC001462 WTC Transportation Hub - Electrical Service Equipment & Accessories - Supplemental Agreement No. 1 TURTLE & HUGHES, INC. LINDEN NJ $3,420,840 8/27/2012 N/A Supplemental Agreement
ASPP9N0647 WTC Transportation Hub - Fan Plant Equipment TLT-BABCOCK INC AKRON OH $3,522,314 4/6/2011 N/A  
ASPC001462 WTC Transportation Hub - Electrical Service Equipment & Accessories TURTLE & HUGHES, INC. LINDEN NJ $11,281,539 4/30/2010 N/A  
ASCPKN0269 WTC Site Hub Instrumentation Monitoring GEOCOMP CORPORATION BOXBOROUGH MA $637,636 11/1/2009 12/31/2010  
ASPC006166 Purchase of Railroad Flatbed Trailers - WTC Hub RCC FABRICATORS SOUTHAMPTON NJ $3,011,870 10/20/2009 N/A  

WTC Site - Construction

Competitive
Bid (?)
Reference # (?) Description Vendor Name City State Award Amt (?) Start/ Effective Date Comments
WTC614200-6 WTC Transportation Hub, Harrison Rail Transfer Yard - W/O# 6 RAILROAD CONSTRUCTION COMPANY, INC. PATERSON NJ $4,859,917 10/15/2010 Prequalified (?)
WTC264595 WTC - PATH Hall & Transit Hall Construction SKANSKA/GRANITE/SKANSKA, JV WHITESTONE NY $542,325,000 3/15/2010 Prequalified (?)
UWTC324287 WTC - Streets, Utilities & Related Infrastructure C.A.C. INDUSTRIES INC. L.I.C. NY $9,057,262 3/15/2010  
WT614200-2 WTC - Mechanical, Electrical, Plumbing Relocation - W/O# 2 LANMARK GROUP BROOKLYN NY $7,147,000 9/30/2009 Prequalified (?)
UWT614200N Early Action WO#5 for Concrete Foundations for East Box Girder and West Arch Truss of PATH WTC Station NEW YORK CONCRETE CORP. STATEN ISLAND NY $1,641,600 11/2/2009 Prequalified (?)
UWTC224545 WTC - Greenwich Street Corridor Construction TUTOR PERINI CORPORATION PEEKSKILL NY $177,677,000 10/15/2009 Prequalified (?)
UWTC924079 WTC Site - Central Chiller Plant and River Water System KSW MECHANICAL SERVICES INC., and FIVE STAR ELECTRICAL CORP., A JOINT VENTURE LONG ISLAND CITY NY $46,190,000 10/8/2009 Prequalified (?)
WT614200-1 WTC Construction Power Distribution - WO# 1 RAILROAD CONSTRUCTION COMPANY, INC. PATERSON NJ $1,396,750 8/17/2009 Prequalified (?)
WTC234544 WTC Hub Station Construction and Transit Hall STG: Furnish, Fabricate & Erect Structural Steel for Below-Grade Construction, Intumescent Fire Resistant Coating, Metal Deck & Precast Concrete Work DCM ERECTORS INC. NEW YORK NY $330,000,000 5/18/2009  
UWTC614050 WTC Asbestos Lead & Universal Waste Abatement ABC CONSTRUCTION CONTRACTING ASTORIA NY $2,500,000 5/6/2009 Prequalified (?)
WTC724078 WTC Vehicular Security Center & Tour Bus Parking Facility E.E. CRUZ & COMPANY / NICHOLSON CONSTRUCTION COMPANY, LLC, A JOINT VENTURE HOLMDEL NJ $82,077,000 8/27/2008  
WTC224537 WTC Trans HUB - East Sd Bsmt - H&M Structure Asbestos Rem GRAMERCY GROUP, INC. WESTBURY NY $3,731,800 2/29/2008  
WTC724077 WTC Temp Sewer Relocatn Veh Sec Cntr+Bus Pkg Facility Felix Associates, LLC Bronx NY $976,739 7/10/2007  
Contract Amendments (?)
Reference # (?) Description Vendor Name City State Award Amt (?) Change Order Type Comments
UWTC224545 WTC - Greenwich Street Corridor Construction - Supplemental Agreement No. 1H TUTOR PERINI CORPORATION PEEKSKILL NY $2,080,000 Supplemental Agreement  
UWTC224545 WTC - Greenwich Street Corridor Construction - Supplemental Agreement No. 1G TUTOR PERINI CORPORATION PEEKSKILL NY $1,828,584 Supplemental Agreement  
UWTC224545 WTC - Greenwich Street Corridor Construction - Supplemental Agreement No. 1F TUTOR PERINI CORPORATION PEEKSKILL NY $477,099 Supplemental Agreement  
WTC264595 WTC - PATH Hall & Transit Hall Construction - Supplemental Agreement No. 2 SKANSKA/GRANITE/SKANSKA J.V. WHITESTONE NY $1,155,000 Supplemental Agreement  
WTC264595 WTC - PATH Hall & Transit Hall Construction - Supplemental Agreement No. 1 SKANSKA/GRANITE/SKANSKA J.V. WHITESTONE NY $5,000,000 Supplemental Agreement  
UWTC224545 WTC - Greenwich Street Corridor Construction - Supplemental Agreement No. 1E TUTOR PERINI CORPORATION PEEKSKILL NY $1,170,736 Supplemental Agreement  
UWTC224545 WTC - Greenwich Street Corridor Construction - Supplemental Agreement No. 1D TUTOR PERINI CORPORATION PEEKSKILL NY $478,548 Supplemental Agreement  
UWTC224545 WTC - Greenwich Street Corridor Construction - Supplemental Agreement No. 1C TUTOR PERINI CORPORATION PEEKSKILL NY $896,647 Supplemental Agreement  
WTC234544 WTC Hub Station and Transit Hall Structural Steel - Supplemental Agreement No. 1E DCM ERECTORS INC. NEW YORK NY $5,284,206 Supplemental Agreement  
UWTC924079 WTC Site - Central Chiller Plant and River Water System - Supplemental Agreement No. 1; Additional Services KSW MECHANICAL SERVICES INC. / FIVE STAR ELECTRICAL CORP., JV LONG ISLAND CITY NY $1,000,000 Supplemental Agreement  
WTC234544 WTC Hub Station and Transit Hall Structural Steel - Supplemental Agreement No. 1D DCM ERECTORS INC. NEW YORK NY $1,183,511 Supplemental Agreement  
WTC234544 WTC Hub Station and Transit Hall Structural Steel - Supplemental Agreement No. 1B DCM ERECTORS INC. NEW YORK NY $1,618,082 Supplemtal Agreement  
WTC234544 WTC Hub Station and Transit Hall Structural Steel - Supplemental Agreement No. 1C DCM ERECTORS INC. NEW YORK NY $8,388,911 Supplemtal Agreement  
UWTC924079 WTC Site - Central Chiller Plant and River Water System - Change Order 4 - Package 2 KSW MECHANICAL SERVICES INC./FIVE STAR ELECTRICAL CORP., A J/V LONG ISLAND CITY NY $615,141 Increase  
UWTC924079 WTC Site - Central Chiller Plant and River Water System - Change Order 5 - South Projection Conduits KSW MECHANICAL SERVICES INC./FIVE STAR ELECTRICAL CORP., A J/V LONG ISLAND CITY NY $218,950 Increase  
WTC234544 WTC Hub Station and Transit Hall Structural Steel - Supplemental Agreement No. 1A DCM ERECTORS INC. NEW YORK NY $16,782,989 Supplemental Agreement  
WTC724078 WTC Vehicular Security Center & Tour Bus Parking Facility - Exterior Support Wall Relocation E.E. CRUZ & COMPANY/NICHOLSON CONSTRUCTION COMPANY, LLC, A JOINT VENTURE HOLMDEL NJ $6,500,000 Supplemental Agreement  
RFP (?)
Reference # (?) Description Vendor Name City State Award Amt (?) Start/ Effective Date Comments
WTP284458G WTC Hub General Contracting Svs - Option E - Bathtub & Temp Underpinning PHOENIX CONSTRUCTORS JV NEW YORK NY $283,000,000 6/30/2006  
Negotiated (?)
Reference # (?) Description Vendor Name City State Award Amt (?) Start/ Effective Date Comments
               
Work Order Program Work Orders
Reference # (?) Description Vendor Name City State Award Amt (?) Work Order Date
4600009373 WO # 1 – 1WTC Marketing Center HUNTER ROBERTS / FERREIRA NEW YORK NY $2,475,000 1/2/2013
WTC614001X General Sitework via W/O - W/O#4A VESEY ST STAIRS RELOCATION OPTION 2 J.H. REID GENERAL CONTRACTOR SOUTH PLAINFIELD NJ $1,300,000 2/7/08
WTC614001W Base Contract-General Sitework via W/O - W/O #1A Lease of Liberty St Pedestrian Bridge BEAVER CONCRETE CONSTRUCTION HAZLET NJ $323,000 11/14/07
WTC614001W Base Contract-General Sitework via W/O - W/O #9 Repairs to Main Ramp BEAVER CONCRETE CONSTRUCTION HAZLET NJ $280,000 11/14/07
Work Order Program (?)
Description and Term Est. Amt (?)  
General Construction Services at the WTC Site on a Work Order Basis – Five Year Term $50,000,000  
Reference Number Vendor Name City State Ends
WTC-224.080.01 Holt Construction Corp. Pearl River NY 9/18/2018
WTC-224.080.02 Hunter Roberts Construction Group, L.L.C. New York NY 9/18/2018
WTC-224.080.03 John O'Hara Company, Inc. East Orange NJ 9/18/2018
WTC-224.080.04 Lanmark Group, Inc. Brooklyn NY 9/18/2018
WTC-224.080.05 Navillus Tile, Inc. d/b/a Navillus Contracting New York NY 9/18/2018
WTC-224.080.06 Oliveira Contracting, Inc. Albertson NY 9/18/2018
WTC-224.080.07 Railroad Construction Company, Inc. Patterson NJ 9/18/2018
WTC-224.080.08 Rockmore Contracting Corp. Ronkonkoma NY 9/18/2018
WTC-224.080.09 Skanska USA Civil Northeast, Inc. East Elmhurst NY 9/18/2018
WTC-224.080.10 T.B. Penick & Sons, Inc. Long Island City NY 9/18/2018
Work Order Program (?)
Description and Term Est. Amt (?)  
WTC - General Sitework Via W.O. $5,000,000  
Reference Number Vendor Name City State Ends
WTC614001T Railroad Construction Company, Inc. Paterson NJ 8/31/2009
WTC614001W Beaver Concrete Construction Co., Inc. Brooklyn NY 8/31/2009
WTC614001X J.H. Reid General Contractor S. Plainfield NJ 8/31/2009
WTC614001Y T. Moriarty & Son, Inc. Brooklyn NY 8/31/2009
WTC614001Z J. D'Annunzio & Sons Clark NJ 8/31/2009

WTC Site - Professional Technical & Advisory Services

Competitive
RFP (?)
Reference # (?) Description Vendor Name City State Est. Amt (?) Start/ Effective Date End Comments
4600009710 Phase 2 - CM Services for Tenant Improvement Fit-Out of PA HQ at 4 WTC STRUCTURE TONE, INC. NEW YORK NY $4,700,690 1/6/2014 1/5/2016  
4600009669 Systems Acceptance and Sustainability Services for WTC and TBPF JACOBS ENGINEERING NEW YORK INC. NEW YORK NY $976,132 10/4/2013 10/6/2014  
4600009543 Site Wide Property Manager for the WTC Site Properties CUSHMAN & WAKEFIELD, INC. NEW YORK NY $4,777,983 6/26/2013 6/30/2018  
4600009538 Cortlandt Street Integrity Monitor Services THACHER ASSOCIATES LLC NEW YORK NY $1,041,960 6/20/2013 6/19/2015  
4600009502 R.E. Development & Operations Support Services for WTC Site JONES LANG LASALLE NEW YORK NY $11,381,152 5/21/2013 12/31/2015  
4600009384 Pre-construction Mgt Svs for Tenant Improvement Construction of PA 4WTC Headquarters, Phase 1 STRUCTURE TONE, INC. NEW YORK NY $994,000 1/15/2013 1/14/2014  
4600008833 WTC Retail - Integrity Monitor Services - 4 yrs THACHER ASSOCIATES LLC NEW YORK NY $1,617,564 10/5/2011 10/4/2015  
4600008737 Special Inspections & Monitoring Inspections Services for WTCC & WTCR Projects HAKS ENGINEERS AND LAND SURVEYORS P.C. NEW YORK NY $9,920,096 8/1/2011 12/31/2015  
4600008673 WTC Transportation Hub - Systems Testing and Sustainability Compliance Services JACOBS ENGINEERING NEW YORK INC. NEW YORK NY $8,737,249 6/20/2011 6/19/2015  
4600008399 WTC Retail - CM Preconstruction Services TISHMAN/TURNER, A JOINT VENTURE NEW YORK NY $887,549 9/27/2010 4/4/11  
4600008569 WTC Retail - Construction Management Services - Pre-Tenant and Parking Garage Fit Out TISHMAN/TURNER, A JOINT VENTURE NEW YORK NY $27,385,538 3/31/2011 12/31/2015  
4600008129 Transportation Planning & Traffic Engineering Services for WTC Reconstruction - 2 yrs with Options SAM SCHWARTZ, LLC NEW YORK NY $3,000,000 3/8/2010 3/7/2012  
POIG09001 WTC Vehicular Security Center Integrity SAFIRROSETTI NEW YORK NY $5,755,600 12/8/2009 12/31/2013  
4600007871 Construction Management Services for the WTC Site - Transportation Hub TISHMAN/TURNER, A JOINT VENTURE NEW YORK NY $93,949,779 8/13/2009 8/12/2014  
PDEV09001 WTC Real Estate Advisory Services CUSHMAN & WAKEFIELD, INC. NEW YORK NY $2,000,000 3/24/2009 12/31/2009  
4600007557 Integrity Monitor Svc - WTC Memorial Project THACHER ASSOCIATES, LLC NEW YORK NY $3,914,938 11/1/2008 10/31/2012  
PRED08017 2008-2012 4 WTC Interior Design Services STUDIOS ARCHITECTURE NEW YORK NY $4,232,000 6/18/2008 9/30/2012  
4600006855 Integrity Monitor Svcs-Freedom Tower Project FORTRESS MONITORING GROUP J/V NEW YORK NY $16,768,562 7/9/2007 7/8/2013  
TCC0700001 / 11746 WTC Sts, Util Infras A/E Design Phase I DOWNTOWN STREETSCAPE PARTNERS (JOINT VENTURE MEMBERS - EDWARDS & KELCEY ENGINEERS, INC., DMJM+HARRIS, INC., EDAW, INC.) NEW YORK NY $4,500,000 3/30/2007 3/26/2010  
Contract Amendments (?)
Reference # (?) Description Vendor Name City State Est. Amt (?) End Change Order Type Comments
TCC0700001 Additional A&E Design Services for WTC Streets, Utilities, and Infrastructure Phase 1 - Greek Church Coordination DOWNTOWN STREETSCAPE PARTNERS NEW YORK   NY $801,538 12/31/2014 Increase
4600005334 Additional Program Management Services THE LOUIS BERGER GROUP, INC. MORRISTOWN NJ $4,000,000 4/30/2012 Increase  
4600008737 Additional Special Inspections and Monitoring Inspections HAKS ENGINEERS AND LAND SURVEYORS P.C. NEW YORK NY $155,982 12/31/2015 Increase  
4600006533 WTC Site Chiller Plant A/E Services AKF/WM GROUP NEW YORK NY $200,000 5/31/2013 Increase  
POIG09001 WTC Vehicular Security Center Integrity Monitoring Services GUIDEPOST SOLUTIONS TECHNOLOGY DESIGN CONSULTING (TDC) (formerly SafirRosetti) NEW YORK NY $300,000 12/31/2013 Increase  
FTC0000005 FT Structural Engineering Svcs - Modification No. 9 - Increase Funding WSP CANTOR SEINUK NEW YORK NY $583,500 12/31/2013 Increase  
4600007871 WTC Hub - WTC 264.605 - PATH Hall and Transit Hall – Transit Hall Masonry - Supplemental Agreement No. 1 - Fulton Street Perch Work NAVILLUS TILE INC., DBA NAVILLUS CONTRACTING NEW YORK NY $1,540,000 8/12/2014 Supplemental Agreement  
4600006611 WTC Site - Increase to O&M Funding GUARDIAN SERVICE INDUSTRIES, INC. NEW YORK NY $2,100,000 11/30/2012 Increase  
4600006611 WTC Site - Increase to O&M Funding for Chiller Plant GUARDIAN SERVICE INDUSTRIES, INC. NEW YORK NY $750,000 11/30/2012 Increase  
4600007871 WTC HUB Path Hall and Transit Hall Construction, Transit Hall Foundations - Supplemental Agreement No. 1 EIC ASSOCIATES, INC. SPRINGFIELD NJ $5,910,146 8/12/2014 Supplemental Agreement  
PTRS06002 Workers' Compensation Claims THE RISK MANAGEMENT PLANNING GROUP HEMPSTEAD NY $210,308 11/30/2012 Extension  
TCC0700001 Additional A&E Services for WTC Streets, Utilities, and Infrastructure DOWNTOWN STREETSCAPE PARTNERS NEW YORK NY $4,207,187 12/31/2014 Increase  
4600006477 Integrity Monitor Services, WTC Hub Project - Amendment 1 Monitor Svs, WTC Central Chiller Plant Project THACHER ASSOCIATES LLC NEW YORK NY $8,700,000 10/1/2014 Increase  
4600006855 Integrity Monitor Svcs-Freedom Tower Project FORTRESS MONITORING GROUP NEW YORK NY $1,000,000 7/8/2013 Increase  
4600006611 O&M Services at WTC Site - Increase Funds GUARDIAN SERVICE INDUSTRIES, INC. NEW YORK NY $1,145,637 1/31/2012 Increase  
FTC0000005 FT Structural Engineering Svcs WSP CANTOR SEINUK NEW YORK NY $413,683 12/31/2013 Increase  
4600004824 Additional A&E Services for WTC Transportation Hub DOWNTOWN DESIGN PARTNERSHIP NEW YORK NY $27,000,000 12/31/2011 Increase  
4600004824 Additional A&E Services for WTC Transportation Hub DOWNTOWN DESIGN PARTNERSHIP NEW YORK NY $2,000,000 12/31/2011 Increase  
4600006484 Additional A&E Services for WTC Vehicular Security Center & Tour Bus Parking Facility LIBERTY SECURITY PARTNERS NEW YORK NY $1,200,000 7/9/2011 Increase  
4600006484 Additional A&E Services for WTC Vehicular Security Center & Tour Bus Parking Facility LIBERTY SECURITY PARTNERS NEW YORK NY $1,000,000 7/9/2011 Increase  
4600004824 Additional A&E Services for WTC Transportation Hub DOWNTOWN DESIGN PARTNERSHIP NEW YORK NY $4,000,000 12/31/2011 Increase  
4600004824 Additional A&E Services for WTC Transportation Hub DOWNTOWN DESIGN PARTNERSHIP NEW YORK NY $62,623 12/31/2011 Increase  
4600006484 Additional A&E Services for WTC Vehicular Security Center & Tour Bus Parking Facility LIBERTY SECURITY PARTNERS NEW YORK NY $5,000,000 7/9/2011 Increase  
4600004551 Additional Environmental Analysis Services for the WTC Hub AKRF, INCORPORATED NEW YORK NY $306,535 12/31/2014 Increase  
PPCP05002 Additional CM Services for the WTC Site PB/URS, A JOINT VENTURE NEW YORK NY $975,140 12/31/2011 Increase  
4600004824 Additional A&E Services for WTC Transportation Hub DOWNTOWN DESIGN PARTNERSHIP NEW YORK NY $21,622,975 12/31/2011 Increase  
4600006484 Additional A&E Services for WTC Vehicular Security Center & Tour Bus Parking Facility LIBERTY SECURITY PARTNERS NEW YORK NY $3,000,000 7/9/2011 Increase  
4600006533 Additional A&E Svcs for Central Chiller & River Water System AKF/WM GROUP NEW YORK NY $670,779 5/31/2013 Increase  
PPCP06001 Program/Construction Mgt Services for 1WTC and Memorial Projects - Additional Prog/CM Support Services STV CONSTRUCTION, INC. NEW YORK NY $3,920,000 12/31/2011 Increase  
4600006484 Additional A&E Services for WTC Vehicular Security Center & Tour Bus Parking Facility LIBERTY SECURITY PARTNERS NEW YORK NY $2,535,000 7/9/2011 Increase  
WTC284458G WTC Hub General Contracting Svs - Modification to Agreement No. 4 PHOENIX CONSTRUCTORS JV NEW YORK NY $96,169,031 12/31/2011 Increase  
FTC0000005 1 WTC Structural Engineering Svs - Modification to Agreement No. 6 WSP CANTOR SEINUK NEW YORK NY $2,800,000 12/31/2013 Increase  
4600004824 Additional A&E Services for WTC Transportation Hub DOWNTOWN DESIGN PARTNERSHIP NEW YORK NY $9,151,506 12/31/2011 Increase  
4600004824 Additional A&E Services for WTC Transportation Hub DOWNTOWN DESIGN PARTNERSHIP NEW YORK NY $6,097,417 12/31/2011 Increase  
4600004824 Additional A&E Services for WTC Transportation Hub DOWNTOWN DESIGN PARTNERSHIP NEW YORK NY $6,450,000 12/31/2011 Increase  
PPCP05002 CM Consultant Services for the WTC Site Balance of Authorization PB/URS, A JOINT VENTURE NEW YORK NY $887,021 12/31/2011 Increase  
TCC0700001 Additional A&E Services for WTC Streets, Utilities, and Infrastructure DOWNTOWN STREETSCAPE PARTNERS NEW YORK NY $4,718,765 3/26/2010 Increase  
TCC0700001 Additional A&E Services for WTC Streets, Utilities, and Infrastructure DOWNTOWN STREETSCAPE PARTNERS NEW YORK NY $555,699 3/26/2010 Increase  
TCC0700001 Additional A&E Services for WTC Streets, Utilities, and Infrastructure DOWNTOWN STREETSCAPE PARTNERS NEW YORK NY $865,885 3/26/2010 Increase  
4600006484 Additional A&E Services for WTC Vehicular Security Center & Tour Bus Parking Facility LIBERTY SECURITY PARTNERS NEW YORK NY $188,448 7/9/2011 Increase  
4600006484 Additional A&E Services for WTC Vehicular Security Center & Tour Bus Parking Facility LIBERTY SECURITY PARTNERS NEW YORK NY $161,463 7/9/2011 Increase  
4600006484 Additional A&E Services For WTC Vehicular Security Center & Tour Bus Parking Facility LIBERTY SECURITY PARTNERS NEW YORK NY $92,256 7/9/2011 Increase  
4600004824 Additional A&E Services for WTC Transportation Hub DOWNTOWN DESIGN PARTNERSHIP (AECOM, INC. AND STV, INC.) NEW YORK NY $110,182 12/31/2011 Increase  
4600004824 Additional A&E Services for WTC Transportation Hub DOWNTOWN DESIGN PARTNERSHIP (AECOM, INC. AND STV, INC.) NEW YORK NY $1,935,998 12/31/2011 Increase  
4600004824 Additional A&E Services for WTC Transportation Hub DOWNTOWN DESIGN PARTNERSHIP (AECOM, INC. AND STV, INC.) NEW YORK NY $1,152,434 12/31/2011 Increase  
4600004824 Additional A&E Services for WTC Transportation Hub DOWNTOWN DESIGN PARTNERSHIP (AECOM, INC. AND STV, INC.) NEW YORK NY $662,191 12/31/2011 Increase  
4600006484 Additional A&E Services For WTC Vehicular Security Center & Tour Bus Parking Facility LIBERTY SECURITY PARTNERS NEW YORK NY $1,536,744 7/9/2011 Increase  
4600006484 Additional A&E Services For WTC Vehicular Security Center & Tour Bus Parking Facility LIBERTY SECURITY PARTNERS NEW YORK NY $88,350 7/9/2011 Increase  
4600004824 Additional A&E Services for WTC Transportation Hub DOWNTOWN DESIGN PARTNERSHIP (AECOM, INC. AND STV, INC.) NEW YORK NY $17,877,024 12/31/2011 Increase  
4600006484 Additional A&E Services for WTC Vehicular Security Center & Tour Bus Parking Facility LIBERTY SECURITY PARTNERS NEW YORK NY $6,000,000 7/9/2011 Increase  
4600006484 Additional A&E Services For WTC Vehicular Security Center & Tour Bus Parking Facility LIBERTY SECURITY PARTNERS NEW YORK NY $3,292,301 7/9/2011 Increase  
4600004824 Additional A&E Services for WTC Transportation Hub DOWNTOWN DESIGN PARTNERSHIP (DMJM+HARRIS, INC. AND STV, INC.) NEW YORK NY $579,580 12/31/2011 Increase  
4600004824 Additional A&E Services for WTC Transportation Hub DOWNTOWN DESIGN PARTNERSHIP (DMJM+HARRIS, INC. AND STV, INC.) NEW YORK NY $150,000 12/31/2011 Increase  
4600006533 Additional A&E Svcs for Central Chiller & River Water System - Phase II Final Design & Post Contract Svcs AKF/WM GROUP NEW YORK NY $886,122 8/30/2010 Increase  
4600004824 Additional A&E Services for WTC Transportation Hub DOWNTOWN DESIGN PARTNERSHIP (DMJM+HARRIS, INC. AND STV, INC.) NEW YORK NY $4,597,364 12/31/2011 Increase  
4600004824 Additional A&E Services for WTC Transportation Hub DOWNTOWN DESIGN PARTNERSHIP (DMJM+HARRIS, INC. AND STV, INC.) NEW YORK NY $3,600,000 12/31/2011 Increase  
4600004824 Additional A&E Services for WTC Transportation Hub DOWNTOWN DESIGN PARTNERSHIP (DMJM+HARRIS, INC. AND STV, INC.) NEW YORK NY $3,145,430 12/31/2011 Increase  
4600004824 Additional A&E Services for WTC Transportation Hub DOWNTOWN DESIGN PARTNERSHIP (DMJM+HARRIS, INC. AND STV, INC.) NEW YORK NY $1,971,552 12/31/2011 Increase  
4600004824 Additional A&E Services for WTC Transportation Hub DOWNTOWN DESIGN PARTNERSHIP (DMJM+HARRIS, INC. AND STV, INC.) NEW YORK NY $890,728 12/31/2011 Increase  
4600004824 Additional A&E Services for WTC Transportation Hub DOWNTOWN DESIGN PARTNERSHIP (DMJM+HARRIS, INC. AND STV, INC.) NEW YORK NY $645,000 12/31/2011 Increase  
4600004824 Additional A&E Services for WTC Transportation Hub DOWNTOWN DESIGN PARTNERSHIP (DMJM+HARRIS, INC. AND STV, INC.) NEW YORK NY $399,094 12/31/2011 Increase  
4600004824 Additional A&E Services for WTC Transportation Hub DOWNTOWN DESIGN PARTNERSHIP (DMJM+HARRIS, INC. AND STV, INC.) NEW YORK NY $70,941 12/31/2011 Increase  
4600004824 Additional A&E Services for WTC Transportation Hub DOWNTOWN DESIGN PARTNERSHIP (DMJM+HARRIS, INC. AND STV, INC.) NEW YORK NY $4,371,299 12/31/2011 Increase  
4600004824 Additional A&E Services for WTC Transportation Hub DOWNTOWN DESIGN PARTNERSHIP (DMJM+HARRIS, INC. AND STV, INC.) NEW YORK NY $2,702,897 12/31/2011 Increase  
4600004824 Additional A&E Services for WTC Transportation Hub DOWNTOWN DESIGN PARTNERSHIP (DMJM+HARRIS, INC. AND STV, INC.) NEW YORK NY $1,662,500 12/31/2011 Increase  
TCC0700001 Additional A&E Services for WTC Streets, Utilities, and Infrastructure DOWNTOWN STREETSCAPE PARTNERS (JOINT VENTURE MEMBERS - EDWARDS & KELCEY ENGINEERS, INC., DMJM+HARRIS, INC., EDAW, INC.) NEW YORK NY $2,614,018 3/31/2009 Increase  
TCC0700001 Additional A&E Services for WTC Streets, Utilities, and Infrastructure DOWNTOWN STREETSCAPE PARTNERS (JOINT VENTURE MEMBERS - EDWARDS & KELCEY ENGINEERS, INC., DMJM+HARRIS, INC., EDAW, INC.) NEW YORK NY $349,735 3/31/2009 Increase  
4600005334 Professional Program Management Support Services - Two Year Extension and Increase Funds THE LOUIS BERGER GROUP, INC. EAST ORANGE NJ $19,992,926 3/12/2010 Increase  
4600006484 Additional A&E Services for WTC Vehicular Security Center & Tour Bus Parking Facility LIBERTY SECURITY PARTNERS NEW YORK NY $1,253,363 7/9/2011 Increase  
4600004824 Additional A&E Services for WTC Transportation Hub DOWNTOWN DESIGN PARTNERSHIP (DMJM+HARRIS, INC. AND STV, INC.) NEW YORK NY $2,059,314 12/31/2011 Increase  
4600004824 Additional A&E Services for WTC Transportation Hub DOWNTOWN DESIGN PARTNERSHIP (DMJM+HARRIS, INC. AND STV, INC.) NEW YORK NY $310,625 12/31/2011 Increase  
4600004824 Additional A&E Services for WTC Transportation Hub DOWNTOWN DESIGN PARTNERSHIP (DMJM+HARRIS, INC. AND STV, INC.) NEW YORK NY $301,859 12/31/2011 Increase  
4600004824 Additional A&E Services for WTC Transportation Hub DOWNTOWN DESIGN PARTNERSHIP (DMJM+HARRIS, INC. AND STV, INC.) NEW YORK NY $140,724 12/31/2011 Increase  
4600004824 Additional A&E Services for WTC Transportation Hub DOWNTOWN DESIGN PARTNERSHIP (DMJM+HARRIS, INC. AND STV, INC.) NEW YORK NY $380,320 12/31/2011 Increase  
4600006484 Additional A&E Services for WTC Vehicular Security Center & Tour Bus Parking Facility LIBERTY SECURITY PARTNERS NEW YORK NY $30,934 7/9/2011 Increase  
4600006484 Additional A&E Services for WTC Vehicular Security Center & Tour Bus Parking Facility LIBERTY SECURITY PARTNERS NEW YORK NY $907,774 7/9/2011 Increase  
4600006484 Additional A&E Services for WTC Vehicular Security Center & Tour Bus Parking Facility LIBERTY SECURITY PARTNERS NEW YORK NY $1,477,423 7/9/2011 Increase  
TCC0700001 Additional A&E Services for WTC Streets, Utilities, and Infrastructure DOWNTOWN STREETSCAPE PARTNERS (JOINT VENTURE MEMBERS - EDWARDS & KELCEY ENGINEERS, INC., DMJM+HARRIS, INC., EDAW, INC.) NEW YORK NY $114,309 3/31/2009 Increase  
4600006477 Integrity Monitor Services, WTC Hub Project - Amendment 1 Monitor Svs, WTC Central Chiller Plant Project THACHER ASSOCIATES LLC NEW YORK NY $1,299,252 10/1/2011 Additional Item  
TCC0700001 Additional A&E Services for WTC Streets, Utilities, and Infrastructure - Perimeter WTC Site Security and Vector Analysis DOWNTOWN STREETSCAPE PARTNERS (JOINT VENTURE MEMBERS - EDWARDS & KELCEY ENGINEERS, INC., DMJM+HARRIS, INC., EDAW, INC.) NEW YORK NY $71,813 3/31/2009 Increase  
TCC0700001 Additional A&E Services for Development of Design Criteria of the WTC Sidewalks at Tower 5 DOWNTOWN STREETSCAPE PARTNERS (JOINT VENTURE MEMBERS - EDWARDS & KELCEY ENGINEERS, INC., DMJM+HARRIS, INC., EDAW, INC.) NEW YORK NY $55,733 3/31/2009 Increase  
TCC0700001 Additional A&E Services for WTC Streets, Utilities, and Infrastructure - Phase 1 Southern Configuration DOWNTOWN STREETSCAPE PARTNERS (JOINT VENTURE MEMBERS - EDWARDS & KELCEY ENGINEERS, INC., DMJM+HARRIS, INC., EDAW, INC.) NEW YORK NY $1,719,929 10/30/2008 Increase  
4600004551 Additional Environmental Support Svs for Construction of Vehicular Security Center - Exterior Perimeter Foundation Walls AKRF, INCORPORATED NEW YORK NY $451,139 12/31/2009 Increase  
4600004551 Additional Environmental Support Svs for WTC Streets, Utilities, & Related Infrastructure Program AKRF, INCORPORATED NEW YORK NY $120,399 12/31/2009 Increase  
4600004551 Environmental Analysis and Documentation Services - WTC Streets, Utilities & Related Infrastructure Program AKRF, INCORPORATED NEW YORK NY $590,000 12/31/2007 Increase  
4600004824 Additional A&E Services for WTC Transportation Hub DOWNTOWN DESIGN PARTNERSHIP (DMJM+HARRIS, INC. AND STV, INC.) NEW YORK NY $19,591,375 12/31/2011 Increase  
4600004824 Additional A&E Services for WTC Transportation Hub DOWNTOWN DESIGN PARTNERSHIP (DMJM+HARRIS, INC. AND STV, INC.) NEW YORK NY $18,018,152 12/31/2011 Increase  
4600004824 Additional A&E Services for WTC Transportation Hub DOWNTOWN DESIGN PARTNERSHIP (DMJM+HARRIS, INC. AND STV, INC.) NEW YORK NY $11,967,788 12/31/2011 Increase  
4600004824 Additional A&E Services for WTC Transportation Hub DOWNTOWN DESIGN PARTNERSHIP (DMJM+HARRIS, INC. AND STV, INC.) NEW YORK NY $560,024 12/31/2011 Increase  
4600004824 Additional A&E Services for WTC Transportation Hub DOWNTOWN DESIGN PARTNERSHIP (DMJM+HARRIS, INC. AND STV, INC.) NEW YORK NY $10,595,254 12/31/2011 Supplemental Agrmt  
4600004824 Additional A&E Services for WTC Transportation Hub DOWNTOWN DESIGN PARTNERSHIP (DMJM+HARRIS, INC. AND STV, INC.) NEW YORK NY $4,293,294 12/31/2011 Increase  
4600006484 Additional A&E Services for WTC Vehicular Security Center & Tour Bus Parking Facility LIBERTY SECURITY PARTNERS NEW YORK NY $957,689 7/9/2011 Increase  
4600006484 Additional A&E Services for WTC Vehicular Security Center & Tour Bus Parking Facility LIBERTY SECURITY PARTNERS NEW YORK NY $1,701,394 7/9/2011 Increase  
4600006533 A&E Svcs for Central Chiller & River Water System - Phase II Final Design & Post Contract Svcs AKF/WM GROUP NEW YORK NY $1,383,318 8/31/2010 Exercise Option for Phase II  
WTC284458G WTC Hub General Contracting Svs - Increase for East Bathtub Allowance PHOENIX CONSTRUCTORS JV NEW YORK NY $150,000,000 12/31/2011 Increase  
Govt (?)
Reference # (?) Description Vendor Name City State Est. Amt (?) Start/ Effective Date End
4600008501 WTC Memorial Controlled Inspection Services HAKS ENGINEERS AND LAND SURVEYORS P.C. NEW YORK NY $500,000 6/1/2010 12/31/2011
PWTC09003 Development of a Threat Mgt Approach Plan SANDIA NATIONAL LABORATORIES LIVERMORE CA $25,000 11/10/2009 12/31/2010
Negotiated (?)
Reference # (?) Description Vendor Name City State Est. Amt (?) Start/ Effective Date End Comments
4600009863 Architectural Measurements for PILOT Agreement with NYC SYSTEM DEVELOPMENT INTEGRATION, LLC CHICAGO IL $93,041.89 3/13/2014 3/12/2015  
4600009835 WTC Site Wide Flood Resiliency Program MICHAEL BAKER ENGINEERING, INC. WHITE PLAINS NY $1,559,507 2/19/2014 2/9/2017 Sole Source (?)
4600009603 Performance of Expert Professional Technical Broadcasting Consultant Services for 1WTC Rooftop Antenna on an "As-Needed" Basis CSC MANAGEMENT, L.L.C. WOODCLIFF LAKE NJ $350,000 8/14/2013 8/31/2016  
4600009612 Professional Engineering Support LESLIE E. ROBERTSON ASSOCIATES, R.L.L.P. NEW YORK NY $186,000 8/19/2013 12/31/2015  
4600009613 Professional Architectural Support BEYER BLINDER BELLE ARCHITECTS & PLANNERS LLP NEW YORK NY $1,429,072 8/19/2013 12/31/2015  
4600009609 Professional Engineering Support Services for the WTC Redevelopment Program AKF ENGINEERS NEW YORK NY $1,590,953 8/16/2013 12/31/2015  
4600009610 Performance of Expert Professional Telecommunications Design Support Services CS TECHNOLOGY, INC. NEW YORK NY $1,999,500 8/16/2013 12/31/2015  
4600009605 Design Support for the WTC Redevelopment Program on an As-Needed Basis GABELLINI SHEPPARD ASSOCIATES, LLP NEW YORK NY $571,347 8/15/2013 12/31/2015  
4600009165 WBVA Structure to Grade WSP CANTOR SEINUK NEW YORK NY $9,960,031 7/25/2012 7/23/2017 Sole Source (?)
APWTC12002 WTC Retail Development NEW WTC RETAIL JV, LLC LOS ANGELES CA $146,430,961 5/17/2012 6/30/2100 Other
4500063211 Expert to Investigate Crane Incident HAAG ENGINEERING SUGAR LAND TX $35,000 4/24/2012 10/24/2012 Sole Source (?)
4600008997 1WTC Broadcast Antennae Consulting Services J.R.S. AND ASSOCIATES, INC. MANALAPAN NJ $50,000 2/27/2012 2/26/2015  
4600008043 Construction Management Services for the VSC, Streets, Utilities and Related Infrastructure TISHMAN CONSTRUCTION CORPORATION NEW YORK NY $40,828,306 11/9/2009 11/8/2013 Sole Source (?)
4600008109 Construction & CM Svs for Route 9A Pedestrian Underpass BROOKFIELD FINANCIAL PROPERTIES, LP NEW YORK NY $57,746,000 9/28/2009 1/31/2011  
PWTC09002 CAD-to-Microstation Conversion Services STV INCORPORATED NEW YORK NY $45,000 6/3/2009 12/31/2009 Sole Source (?)
4600007783 Construction Management Services Agreement - WTC Site South Projection Project (Incl. Payments to Trade Contracts) BOVIS LEND LEASE LMB, INC. NEW YORK NY $39,592,466 5/10/2009 12/23/2010 Sole Source (?)
APWTC09001 WTC Brokerage Services JONES LANG LASALLE NEW YORK NY $8,317,399 4/6/2009 3/31/2010  
4300001692 Professional Services at WTC Site JOSEPH N. SIANO, PE BROOKLYN NY $14,931      
FTC0000024 FT Architectural Design Services SKIDMORE, OWINGS & MERRILL LLP NEW YORK NY $21,250,000 5/13/2008 12/31/2013  
FTC0000018 FT Subcontractor Monitoring Services THACHER ASSOCIATES, LLC NEW YORK NY $343,000 10/1/2006 10/31/2008  
FTC0000006 FT Mechanical, Electrical, Plumbing, Fire Protection and Vertical Transportation Consulting Services JAROS, BAUM & BOLLES CONSULTING ENGINEERS NEW YORK NY $7,000,000 10/1/2006 12/31/2013  
FTC0000005 FT Structural Engineering Svcs WSP CANTOR SEINUK NEW YORK NY $7,000,000 10/1/2006 12/31/2013  
FTC0000023 FT Facade Access Mtce Design Svcs LERCH BATES INC. CHICO CA $100,000 10/1/2006 12/31/2013  
FTC0000021 FT Circulation Studies Svs BOOZ-ALLEN & HAMILTON, INC. McLEAN VA $100,000 10/1/2006 12/31/2013  
FTC0000017 FT Exterior Wall Sys Monitor Svcs ISRAEL BERGER & ASSOCIATES, LLC NEW YORK NY $2,000,000 10/1/2006 12/31/2013  
FTC0000016 FT LANDSCAPE ARCHITECTURE SVCS PETER WALKER & PARTNERS, LA INC BERKELEY CA $1,000,000 10/1/2006 12/31/2013  
FTC0000022 FT Graphics & Signage Design Svcs PENTAGRAM DESIGN, INC. NEW YORK NY 500,000 10/1/2006 12/31/2013  
FTC0000020 FT Civil & Traffic Engineering Svcs PHILIP HABIB & ASSOCIATES NEW YORK NY 100,000 10/1/2006 12/31/2013  
FTC0000019 FT Wind Tunnel Test/Study Svcs ROWAN WILLIAMS DAVIES & IRWIN INC. GUELPH ON $750,000 10/1/2006 12/31/13  
FTC0000013 FT Plaza Water Design Services DAN EUSER WATERARCHITECTURE, INC. RICHMOND HILL ON $100,000 10/1/2006 12/31/2013  
FTC0000012 FT Security Consulting Svcs DUCIBELLA VENTER & SANTORE NORTH HAVEN CT 400,000 10/1/2006 12/31/2013  
FTC0000011 FT Specialty Structural Svcs SCHLAICH BERGERMANN AND PARTNER, LP NEW YORK NY 1,500,000 10/1/2006 12/31/2013  
FTC0000010 FT Protective Design and Engineering Svcs WEIDLINGER ASSOCIATES CONSULTING ENGINEERS NEW YORK NY $250,000 10/1/2006 12/31/2013  
FTC0000009 FT Lighting Design Services CLAUDE R. ENGLE LIGHTING CONSULTANTS, INC. CHEVY CHASE MD $250,000 10/1/2006 12/31/2013  
FTC0000007 Structural Peer Review & Eng'g Svcs LESLIE E. ROBERTSON ASSOCIATES, RLLP NEW YORK NY $300,000 10/1/2006 12/31/2013  
FTC0000008 FT Geo & Foundn Design Svcs MUESER RUTLEDGE CONSULTING NEW YORK NY $2,000,000 10/1/2006 12/31/2013  
FTC0000014 FT Acoustical Design Services CERAMI & ASSOCIATES, INC. NEW YORK NY $100,000 10/1/2006 12/31/2013  
FTC0000015 Fire Modeling & Code Consulting Svcs CODE CONSULTANTS PROFESSIONAL ENGINEERS, PC NEW YORK NY $350,000 10/1/2006 12/31/2013  
Contract Amendments (?)
Reference # (?) Description Vendor Name City State Est. Amt (?) End Change Order Type Comments
FTC0000017 FT Exterior Wall Sys Monitor Svcs ISRAEL BERGER & ASSOCIATES, LLC NEW YORK NY $97,650 12/31/2013 Increase  
FTC0000009 FT Lighting Design Services   CLAUDE R. ENGLE LIGHTING CHEVY CHASE MD $30,000 12/31/2013 Increase  
FTC0000022 1 WTC Graphics & Signage Design Svcs - Modification to Agreement No. 3 PENTAGRAM DESIGN, INC. NEW YORK NY $57,032 12/31/2013 Increase  
FTC0000009 1 WTC Lighting Design Svs - Modification to Agreement No. 4 CLAUDE R. ENGLE LIGHTING CHEVY CHASE MD $75,000 12/31/2013 Increase  
4600007783 Construction Management Services Agreement - WTC Site South Project Rehabilitation (Incl. Pymts to Trade Contracts) BOVIS LEND LEASE LMB, INC. NEW YORK NY $98,000 12/23/2010 Additional Services  
4600007783 Construction Management Services Agreement - WTC Site South Project Rehabilitation (Incl. Pymts to Trade Contracts) BOVIS LEND LEASE LMB, INC. NEW YORK NY $50,000 12/23/2010 Additional Services  
4600007783 Construction Management Services Agreement - WTC Site South Project Rehabilitation (Incl. Pymts to Trade Contracts) BOVIS LEND LEASE LMB, INC. NEW YORK NY $27,000 12/23/2010 Additional Services  
4600007783 Construction Management Services Agreement - WTC Site South Project Rehabilitation (Incl. Pymts to Trade Contracts) BOVIS LEND LEASE LMB, INC. NEW YORK NY $9,821 12/23/2010 Additional Services  
4600005334 Additional Professional Program Management Support Services - Two Year Extension THE LOUIS BERGER GROUP, INC. EAST ORANGE NJ $29,957,368 4/30/2012 Increase  
PPCP05002 Additional CM Consulting Services for the WTC Site PB/URS, A JOINT VENTURE NEW YORK NY $19,999,188 12/31/2011 Additional Services  
FTC0000017 1WTC Exterior Wall Sys Monitor Svcs - Modification to Agreement No. 5 ISRAEL BERGER & ASSOCIATES, LLC NEW YORK NY $1,000,000 12/31/2013 Increase  
FTC0000005 1 WTC Structural Engineering Svs - Modification to Agreement No. 5 WSP CANTOR SEINUK NEW YORK NY $1,020,000 12/31/2013 Increase  
FTC0000009 1 WTC Lighting Design Svs - Modification to Agreement No. 3 CLAUDE R. ENGLE LIGHTING CHEVY CHASE MD $75,000 12/31/2013 Increase  
4600007783 Construction Management Services Agreement - WTC Site South Project Rehabilitation - Liberty Street Liner Wall BOVIS LEND LEASE LMB, INC. NEW YORK NY $5,348,200 12/23/2010 Supplemental Agreement  
FTC0000006 FT (1WTC) Professional Services - Modification to Agreement No. 3 JAROS, BAUM & BOLLES CONSULTING ENGINEERS NEW YORK NY $2,300,000 12/31/2013 Increase  
FTC0000017 FT (1WTC) Exterior Wall Sys Monitor Svcs - Modification to Agreement No. 4 ISRAEL BERGER & ASSOCIATES, LLC NEW YORK NY $525,000 12/31/2013 Increase  
FTC0000008 FT (1WTC) Geo & Foundn Design Svcs - Modification to Agreement No. 5 MUESER RUTLEDGE CONSULTING ENGINEERS NEW YORK NY $300,000 12/31/2013 Increase  
FTC0000005 FT Structural Engineering Svs - Modification to Agreement No. 3 WSP CANTOR SEINUK NEW YORK NY $1,300,000 12/31/2013 Increase  
FTC0000007 FT Structural Peer Review & Consulting Svs - Modification to Agreement No. 2 LESLIE E. ROBERTSON ASSOCIATES, RLLP NEW YORK NY $200,000 12/31/2013 Increase  
FTC0000008 FT Geo & Foundn Design Svs - Modification to Agreement No. 3 MUESER RUTLEDGE CONSULTING ENGINEERS NEW YORK NY $500,000 12/31/2013 Increase  
FTC0000017 FT Exterior Wall Sys Monitor Svcs - Modification to Agreement No. 2 ISRAEL BERGER & ASSOCIATES, LLC NEW YORK NY $3,500,000 12/31/2013 Increase  
FTC0000017 FT Exterior Wall Sys Monitor Svcs - Modification to Agreement No. 1 ISRAEL BERGER & ASSOCIATES, LLC NEW YORK NY $200,000 12/31/2013 Increase  
FTC0000018 FT Subcontractor Monitoring Svs - Modification to Agreement No. 3 THACHER ASSOCIATES LLC NEW YORK NY $0 5/31/2009 Extension  
FTC0000018 FT Subcontractor Monitoring Svs - Modification to Agreement No. 2 THACHER ASSOCIATES, LLC NEW YORK NY $0 2/28/2009 Extension  
APRED05101 WTC Site Planning Subcommittee Mtgs DLA PIPER US, LLP NEW YORK NY $12,000,000   Increase  
FTC0000024 FT Architectural Design Services SKIDMORE, OWINGS & MERRILL LLP NEW YORK NY $10,200,000 12/31/2013 Increase  
FTC0000007 Structural Peer Review & Eng'g Svcs - Modification to Agreement No. 1 LESLIE E. ROBERTSON ASSOCIATES, RLLP NEW YORK NY $100,000 12/31/2013 Increase  
FTC0000006 FT Mechanical, Electrical, Plumbing, Fire Protection and Vertical Transportation Consulting Svcs - Modification to Agreement No. 1 JAROS, BAUM & BOLLES CONSULTING ENGINEERS NEW YORK NY $3,002,500 12/31/2013 Increase  
FTC0000023 FT Facade Access Mtce Design Svs - Modification to Agreement No. 1 LERCH BATES INC. CHICO CA $150,000 12/31/2013 Increase  
FTC0000005 FT Structural Engineering Svs - Modification to Agreement No. 1 WSP CANTOR SEINUK NEW YORK NY $1,000,000 12/31/2013 Increase  
FTC0000008 FT Geo & Foundn Design Svs - Modification to Agreement No. 1 MUESER RUTLEDGE CONSULTING ENGINEERS NEW YORK NY $450,000 12/31/2013 Increase  
FTC0000008 FT Geo & Foundn Design Svs - Modification to Agreement No. 2 MUESER RUTLEDGE CONSULTING ENGINEERS NEW YORK NY $100,000 12/31/2013 Increase  
FTC0000018 FT Subcontractor Monitoring Svs - Modification to Agreement No. 1 THACHER ASSOCIATES, LLC NEW YORK NY $122,500 10/31/2008 Increase  
FTC0000010 FT Curtain Wall Protective Design & Engineering Svcs WEIDLINGER ASSOCIATES CONSULTING ENGINEERS NEW YORK NY $750,000 12/31/2013 Supplemental Agrmt  
Call In Task Order (?)
Reference # (?) Description Vendor Name City State Est. Amt (?) Call-In List Reference Start/ Effective Date
4900010272 415-14-072-3 WTC-DEWATER NYCDEP APRVL TRC ENGINEERS, INC. NEW YORK NY $9,800 P41514072 4/2/2014
4900010264 426-14-013-2 WTC-T1-FIREPROOF'G INVEST TECTONIC ENGINEERING & SURVEYING CONSULTANTS, P.C. MOUNTAINVILLE NY $100,000 P42614013 4/1/2014
4900010156 426-14-054-3 WTC-PATH-OCULUS STEEL KTA-TATOR, INC. PITTSBURGH PA $80,000 P42614054 3/3/2014  
4900010157 426-14-054-4 WTC-PATC-CONSTR/STRCT GRADE KTA-TATOR, INC. PITTSBURGH PA $250,000 P42614054 3/3/2014  
4900010122 415-14-172-1 WTC-TRAF CNTRL BUILD CONDS SAM SCHWARTZ ENGINEERING, PLLC NEW YORK NY $45,000 P41514172 2/26/2014  
4900010091 405-14-036-1 WTC, PN, PE, EWR&JFK VTS KS ENGINEERS, P.C. NEWARK NJ $458,400 P40514036 2/14/2014
4900010046 426-14-007-4 WTC-TRANS HUB ADVANCE TESTING COMPANY, INC. CAMPBELL HALL NY $100,000 P42614007 2/11/2014
4900010065 426-14-008-2 WTC-PATH HALL CONSTRUCT HAKS ENGINEERS AND LAND SURVEYORS P.C. NEW YORK NY $100,000 P42614008 2/11/2014
4900010066 426-14-008-3 WTC-T1-STRUCT MASONRY HAKS ENGINEERS AND LAND SURVEYORS P.C. NEW YORK NY $50,000 P42614008 2/11/2014
4900010067 426-14-008-4 WTC-MEM/MUS STRUCT MASONRY HAKS ENGINEERS AND LAND SURVEYORS P.C. NEW YORK NY $25,000 P42614008 2/11/2014
4900010068 426-14-008-5 WTC-PATH-TRANSP HUB HAKS ENGINEERS AND LAND SURVEYORS P.C. NEW YORK NY $100,000 P42614008 2/11/2014
4900010057 426-14-010-2 PATH-WTC-TRANSP HUB UNIVERSAL TESTING & INSPECTION SERVICES, INC. WEST BABYLON NY $50,000 P42614010 2/11/2014
4900010058 426-14-010-3 WTC-VSC UNIVERSAL TESTING & INSPECTION SERVICES, INC. WEST BABYLON NY $25,000 P42614010 2/11/2014
4900010060 426-14-010-5 WTC-T1-TECH ASST UNIVERSAL TESTING & INSPECTION SERVICES, INC. WEST BABYLON NY $20,000 P42614010 2/11/2014
4900009934 426-13-054-13 WTC Vertical Transportation Package KTA-TATOR, INC. PITTSBURGH PA $20,000 P42613054 12/9/2013
4900009915 405-12-036-2 WTC, PN, PE & EWR Vertical Transportation Inspection & Testing KS ENGINEERS, P.C. NEWARK NJ $379,055 P40512036 12/3/2013
4900009878 410-13-036-1 WTC Surveying Party Chief MUNOZ ENGINEERING & LAND SURVEYING, P.C. NEW YORK NY $95,000 P41013036 11/15/2013
4900009879 410-13-036-2 WTC Instrument Person MUNOZ ENGINEERING & LAND SURVEYING, P.C. NEW YORK NY $95,000 P41013036 11/15/2013
4900009858 426-13-054-12 WTC Cortlandt St Station KTA-TATOR, INC. PITTSBURGH PA $40,000 P42613054 11/12/2013
4900009816 426-13-058-13 WTC Water Intakes Condition Survey BOSWELL ENGINEERING SOUTH HACKENSACK NJ $86,500 P42613058 10/25/2013
4900009822 426-13-035-6 WTC Cortlandt St Station PENNONI ASSOCIATES, INC. EDISON NJ $50,000 P42613035 10/25/2013
4900009824 410-13-028-1 WTC CAD Technician STANTEC CONSULTING SERVICES, INC NEW YORK NY $75,000 P41013028A 10/25/2013
4900009801 410-13-024-42 WTC Bollards Survey MASER CONSULTING P.A. RED BANK NJ $4,118 P41013024 10/24/2013
4900009754 426-13-038-7 WTC Transportation Hub MACTEC ENGINEERING AND CONSULTING, INC. JACKSONVILLE FL $100,000 P42613038 10/7/2013
4900009747 426-13-053-8 - 1WTC Metal Testing LUCIUS PITKIN, INC. NEW YORK NY $88,000 P42613053 10/4/2013
4900009753 426-13-054-11 WTC Memorial & Museum Structural Coating KTA-TATOR, INC. PITTSBURGH PA $3,000 P42613054 10/4/2013
4900009743 426-13-038-6 WTC Transportation Hub MACTEC ENGINEERING AND CONSULTING, INC. JACKSONVILLE FL $100,000 P42613038 10/2/2013
4900009644 426-13-037-3 1WTC Structural Steel NDT BUREAU VERITAS NORTH AMERICA, INC. DOWNERS GROVE IL $100,000 P42613037 8/22/2013
4900009615 410-13-029-1 WTC Survey Party Chief TECTONIC ENGINEERING & SURVEYING CONSULTANTS, P.C. MOUNTAINVILLE NY $150,000 P41013029A 8/19/2013
4900009616 410-13-029-2 WTC Survey Instrument Staff TECTONIC ENGINEERING & SURVEYING CONSULTANTS, P.C. MOUNTAINVILLE NY $125,000 P41013029A 8/19/2013
4900009617 410-13-029-3 WTC Survey Party Chief TECTONIC ENGINEERING & SURVEYING CONSULTANTS, P.C. MOUNTAINVILLE NY $150,000 P41013029A 8/19/2013
4900009618 410-13-029-4 WTC Survey Instrument Staff TECTONIC ENGINEERING & SURVEYING CONSULTANTS, P.C. MOUNTAINVILLE NY $125,000 P41013029A 8/19/2013
4900009621 410-13-017-1 WTC Survey Project Coordinator GEOD CORPORATION NEWFOUNDLAND NJ $150,000 P41013017A 8/19/2013
4900009622 410-13-017-2 WTC Survey Party Chief GEOD CORPORATION NEWFOUNDLAND NJ $150,000 P41013017A 8/19/2013
4900009623 410-13-017-3 WTC Survey Party Chief GEOD CORPORATION NEWFOUNDLAND NJ $150,000 P41013017A 8/19/2013
4900009586 426-13-046-3 WTC Transportation Hub Radiography Services MISTRAS GROUP, INC. OLD BRIDGE NJ $20,000 P42613046 8/8/2013
4900009581 415-13-147-5 WTC Verification Monitoring Plan - Preliminary Support Services HENNINGSON DURHAM & RICHARDSON ARCH. & ENGINEERING PC NEW YORK NY $80,526 P41513147 8/6/2013
4900009564 405-13-016-3 WTC Fire Protection Inspector KS ENGINEERS, P.C. NEWARK NJ $370,000 P40513016 8/2/2013
4900009545 415-13-044-5 WTC Onsite Services APA /AHUJA PARTNERSHIP ARCHITECTS NEW YORK NY $117,480 P41513044 7/26/2013
4900009520 426-13-009-3 WTC Oculus TUV RHEINLAND INDUSTRIAL SOLUTIONS, INC. ALIQUIPPA PA $100,000 P42613009 7/12/2013
4900009514 426-13-035-5 WTC Transportation Hub Hall Roof PENNONI ASSOCIATES, INC. EDISON NJ $250,000 P42613035 7/12/2013
4900009519 426-13-038-4 - 1WTC Structural Steel Inspection MACTEC ENGINEERING AND CONSULTING, P.C. JACKSONVILLE FL $20,000 P42613038 7/12/2013
4900009353 426-13-007-3 WTC Transportation Hub Fireproofing Inspections HUGHES ASSOCIATES, INC. BALTIMORE MD $200,000 P42613007 6/20/2013
4900009354 426-13-009-2 WTC Oculus Materials Testing TUV RHEINLAND INDUSTRIAL SOLUTIONS, INC. ALIQUIPPA PA $100,000 P42613009 6/20/2013
4900009337 426-13-007-1 - WTC Memorial & Museum Firestopping Inspections HUGHES ASSOCIATES, INC. BALTIMORE MD $200,000 P42613007 6/14/2013
4900009338 426-13-007-2 - 1WTC Firestopping Inspections HUGHES ASSOCIATES, INC. BALTIMORE MD $200,000 P42613007 6/14/2013
4900009310 426-13-009 -1 WTC Vehicle Security Center Materials Testing TUV RHEINLAND INDUSTRIAL SOLUTIONS, INC. ALIQUIPPA PA $100,000 P42613009 6/11/2013
4900009259 415-13-172-2 WTC VISSIM Vehicular Access Model for Full Build & Interim Conditions SAM SCHWARTZ ENGINEERING, PLLC NEW YORK NY $73,000 P41513172 5/29/2013
4900009246 426-13-053-7 WTC VSC Metallurgical Testing LUCIUS PITKIN, INC. NEW YORK NY $9,500 P42613053 5/22/2013
4900009185 426-13-051-13 WTC Sump Dewatering HAMPTON-CLARKE, INC. FAIRFIELD NJ $20,000 P42613051 5/6/2013
4900009175 426-13-053-6 - 1WTC Metal Testing LUCIUS PITKIN, INC. NEW YORK NY $20,000 P42613053 5/6/2013
4900009144 426-13-032-2 - 1WTC Material Testing TECTONIC ENGINEERING & SURVEYING CONSULTANTS, P.C. MOUNTAINVILLE NY $150,000 P42613032 4/25/2013
4900009136 426-13-038-2 WTC Transportation Hub Oculus Inspection MACTEC ENGINEERING AND CONSULTING, P.C. JACKSONVILLE FL $500,000 P42613038 4/24/2013
4900009098 415-13-044-3 WTC Architectural Services APA /AHUJA PARTNERSHIP ARCHITECTS NEW YORK NY $85,440 P41513044 4/15/2013
4900009100 426-13-036-2 WTC Structural Steel Inspection Services TUV RHEINLAND INDUSTRIAL SOLUTIONS, INC. ALIQUIPPA PA $20,000 P42613036 4/15/2013
4500064011 DEV-13-054-1 WTC Block 728 Feasibility Study AECOM USA, INC NEW YORK NY $190,166 PDEV13054 4/3/2013
4500064012 DEV-13-060-1 - 4 WTC Advisory Services JONES LANG LASALLE NEW YORK NY $385,748 PDEV13060 4/3/2013
4900009058 415-13-177-1 WTC Site Network Infrastructure BURNS ENGINEERING INC., P.C. PHILADELPHIA PA $596,392 P41513177 3/29/2013
4900009039 426-13-046-2 WTC Streets & Utilities On-Site Radiography MISTRAS GROUP,INC. OLD BRIDGE NJ $20,000 P42613046 3/27/2013
4900008991 426-13-047-2 WTC Transportation Hub Radiography Testing QUALITY INSPECTION SERVICES, INC. BUFFALO NY $20,000 P42613047 3/13/2013
4900008992 426-13-047-3 WTC On-site Radiograhpy QUALITY INSPECTION SERVICES, INC. BUFFALO NY $20,000 P42613047 3/13/2013
4900008993 426-13-047-4 WTC Streets & Utilities Radiography QUALITY INSPECTION SERVICES, INC. BUFFALO NY $20,000 P42613047 3/13/2013
4900008984 426-13-054-2 WTC Transportation Hub Oculus Steel Coatings KTA-TATOR, INC. PITTSBURGH PA $15,000 P42613054 3/13/2013
4900008985 426-13-054-3 WTC Transportation Hub Oculus Steel Coatings KTA-TATOR, INC. PITTSBURGH PA $240,000 P42613054 3/13/2013
4900008999 426-13-054-4 WTC Transportation Hub Structural Steel-to-Grade KTA-TATOR, INC. PITTSBURGH PA $250,000 P42613054 3/13/2013
4900008995 426-13-055-5 WTC Transportation Hub Site-Wide Noise Analysis PAUL CARPENTER ASSOCIATES, INC. FLORHAM PARK NJ $400,000 P42613055 3/13/2013
4900008923 426-13-037-2 WTC Transportation Hub Oculus BUREAU VERITAS NORTH AMERICA, INC. DOWNERS GROVE IL $200,000 P42613037 2/25/2013
4900008918 426-13-028-5 WTC Vehicle Security Center Cement Concrete Testing UNIVERSAL TESTING & INSPECTION SERVICES, INC. WEST BABYLON NY $25,000 P42613028 2/25/2013
4900008917 426-13-028-4 WTC Transportation Hub Cement Concrete Testing UNIVERSAL TESTING & INSPECTION SERVICES, INC. WEST BABYLON NY $50,000 P42613028 2/25/2013
4900008916 426-13-028-3 - 1WTC Cement Concrete Testing UNIVERSAL TESTING & INSPECTION SERVICES, INC. WEST BABYLON NY $25,000 P42613028 2/25/2013
4900008910 426-13-038-1 WTC Transportation Hub Steel Inspections MACTEC ENGINEERING AND CONSULTING, P.C. JACKSONVILLE FL $50,000 P42613038 2/25/2013
4900008906 426-13-030-5 WTC Transportation Hub Masonry Inspections HAKS ENGINEERS AND LAND SURVEYORS P.C. NEW YORK NY $100,000 P42613030 2/25/2013
4900008905 426-13-030-4 WTC Memorial & Museum Masonry Inspections HAKS ENGINEERS AND LAND SURVEYORS P.C. NEW YORK NY $25,000 P42613030 2/25/2013
4900008904 426-13-030-3 - 1WTC Structural Masonry Construction Inspection HAKS ENGINEERS AND LAND SURVEYORS P.C. NEW YORK NY $50,000 P42613030 2/25/2013
4900008903 426-13-030-2 WTC Transportation Hub Construction Inspections HAKS ENGINEERS AND LAND SURVEYORS P.C. NEW YORK NY $100,000 P42613030 2/25/2013
4900008900 426-13-029-5 WTC Vehicle Securty Center Concrete Testing, Inspections & Core Drilling ADVANCE TESTING COMPANY, INC. CAMPBELL HALL NY $20,000 P42613029 2/25/2013
4900008889 426-13-029-4 WTC Transportation Hub Inspectors Assistance for Structural Steel Erection & Welding Inspections ADVANCE TESTING COMPANY, INC. CAMPBELL HALL NY $100,000 P42613029 2/22/2013
4900008882 415-13-129-1 - 4 WTC PA Headquarters THE DOME TECH GROUP EDISON NJ $430,048 P41513129 2/20/2013
4900008834 415-08-300-6 WTC Permanent Security Measures AECOM USA, INC NEW YORK NY $4,130,665 P41508300 2/5/2013
4900008739 415-12-065-1 WTC Radio Systems Design MACRO CORPORATION CHALFONT PA $732,401 P41512065 12/24/2012
4900008741 415-12-065-2 WTC Site-wide Radio System MACRO CORPORATION CHALFONT PA $680,517 P41512065 12/24/2012
4900008724 415-12-066-13 - WTC Site Radio Systems RCC CONSULTANTS, INC. WOODBRIDGE NJ $641,200 P41512066 12/19/2012
4900008712 405-12-031-1 - WTC On-Site Consultant CHA CONSULTING, INC. ALBANY NY $325,685 P40512031 12/18/2012
4900008711 405-12-032-1 - WTC On-Site Consultant HAKS ENGINEERS AND LAND SURVEYORS P.C. NEW YORK NY $213,185 P40512032 12/18/2012
4900008686 415-12-066-14 WTC Microwave Design RCC CONSULTANTS, INC. WOODBRIDGE NJ $72,000 P41512066 12/12/2012
4900008657 415-12-048-7 WTC Security Consultation & Engineering Assistance RICHARD DATTNER & PARTNERS ARCHITECTS, P.C. NEW YORK NY $33,375 P41512048 12/3/2012
4900008635 405-12-016-4 - 1WTC On-Site Fire Inspector KS ENGINEERS, P.C. NEWARK NJ $370,000 P40512016 11/21/2012
4900008593 415-12-044-12 - 1WTC In-house Services APA /AHUJA PARTNERSHIP ARCHITECTS NEW YORK NY $89,891 P41512044 10/26/2012
4900008559 426-12-025-10 WTC Transportation Hub Slip Connections KTA-TATOR, INC. PITTSBURGH PA $13,000 P42612025 10/16/2012
4900008532 426-12-016-9 WTC Streets & Utilities - On-Site Radiography LUCIUS PITKIN, INC. NEW YORK NY $30,000 P42612016 10/5/2012
4900008508 426-12-035-5 WTC Transportation Hub Steel & NDT Testing PENNONI ASSOCIATES, INC. EDISON NJ $200,000 P42612035 10/1/2012
4900008506 426-12-040-2 - 1WTC Electrical Cable Testing & Analysis Svcs CABLE TECHNOLOGY LABS, INC. NEW BRUNSWICK NJ $5,000 P42612040 10/1/2012
4900008441 415-08-300-5 - 1WTC Interim Security Measures AECOM USA, INC NEW YORK NY $25,000 P41508300 9/6/2012
4900008434 405-12-016-3 - 1WTC Fire Protection Engineer KS ENGINEERS, P.C. NEWARK NJ $410,000 P40512016 8/31/2012
4900008433 415-12-101-7 - 1WTC Pedestrian Analysis & Planning VHB ENGINEERING, SURVEYING AND LANDSCAPE ARCHITECTURE, P.C. WATERTOWN MA $40,000 P41512101 8/30/2012
4900008369 426-12-003-5 WTC Transportation Hub Fabrication of Precast Removable Plank North Projection ADVANCE TESTING COMPANY, INC. CAMPBELL HALL NY $10,000 P42612003 8/21/2012
4900008341 426-12-029-8 WTC Fabrication of Precast Removable Plank North Projection ADVANCE TESTING COMPANY, INC. CAMPBELL HALL NY $10,000 P42612029 8/10/2012
4900008313 426-12-037-5 - WTC Streets/Utilities BUREAU VERITAS NORTH AMERICA, INC. DOWNERS GROVE IL $50,000 P42612037 8/1/2012
4900008312 426-12-036-3 - 1WTC Structural Steel Inspection TUV RHEINLAND INDUSTRIAL SOLUTIONS, ALIQUIPPA PA $150,000 P42612036 8/1/2012
4900008299 426-12-010-2 WTC Materials Testing KTA-TATOR, INC. PITTSBURGH PA $100,000 P42612010 7/30/2012
4900008282 415-12-059 WTC Site-Wide Radio System AMSEC LLC VIRGINIA BEACH VA $575,136 P41512059 7/20/2012
4900008263 410-12-030-4 WTC Surveying Party Chief GEOD CORPORATION NEWFOUNDLAND NJ $85,000 P41012030 7/13/2012
4900008264 410-12-030-5 WTC Surveying Instrument Person GEOD CORPORATION NEWFOUNDLAND NJ $80,000 P41012030 7/13/2012
4900008223 426-12-037-4 - 1WTC NDT Structural Steel BUREAU VERITAS NORTH AMERICA, INC. DOWNERS GROVE IL $100,000 P42612037 7/5/2012
4900008224 426-12-025-6 WTC Oculus Steel KTA-TATOR, INC. PITTSBURGH PA $125,000 P42612025 7/5/2012
4900008216 415-12-066-6 WTC Transportation Hub Radio Coverage Extension RCC CONSULTANTS, INC. WOODBRIDGE NJ $40,000 P41512066 7/3/2012
4900008217 415-12-066-7 - 1WTC Intermod Measurements, Site Wide Distr Sys Interface RCC CONSULTANTS, INC. WOODBRIDGE NJ $21,000 P41512066 7/3/2012
4900008206 405-12-016-2 - 1WTC Onsite Vertical Transportation Inspector KS ENGINEERS, P.C. NEWARK NJ $360,000 P40512016 6/29/2012
4900008203 426-12-038-5 - 1WTC Structural Steel Inspection MACTEC ENGINEERING AND CONSULTING, P.C. JACKSONVILLE FL $50,000 P42612038 6/27/2012
4900008179 426-12-016-8 - 1WTC Casting Inspections LUCIUS PITKIN, INC. NEW YORK NY $24,000 P42612016 6/21/2012
4900008145 426-12-016-6 WTC Site - Crane Investigation LUCIUS PITKIN, INC. NEW YORK NY $43,000 P42612016 6/14/2012
4900008126 426-12-038-4 WTC Transportation Hub Steel & NDT Testing MACTEC ENGINEERING AND CONSULTING, P.C. JACKSONVILLE FL $100,000 P42612038 6/6/2012
4900008118 415-12-100-6 WTC VSC Traffic Analysis Update SAM SCHWARTZ ENGINEERING, PLLC NEW YORK NY $61,800 P41512100 6/5/2012
4900008101 415-12-100-5 WTC Traffic Review SAM SCHWARTZ ENGINEERING, PLLC NEW YORK NY $50,000 P41512100 5/24/2012
4900008073 415-08-301-4 WTC Radio Room and Infrastructure Preparation URS CORPORATION NEW YORK NY $389,578 P41508301 5/22/2012
4900008026 426-12-010-1 WTC Transportation Hub Materials Testing KTA-TATOR, INC. PITTSBURGH PA $150,000 P42612010 5/11/2012
4900007944 426-12-016-3 WTC Transportation Hub - Metal Testing LUCIUS PITKIN, INC. NEW YORK NY $20,000 P42612016 4/25/2012
4900007945 426-12-016-4 - 1WTC Metal Testing LUCIUS PITKIN, INC. NEW YORK NY $20,000 P42612016 4/25/2012
4900007932 426-12-037-3 WTC Transportation Hub Structural Steel and NDT BUREAU VERITAS NORTH AMERICA, INC. DOWNERS GROVE IL $200,000 P42612037 4/23/2012
4900007918 426-12-016-5 - 1WTC On-site Radiography Svs LUCIUS PITKIN, INC. NEW YORK NY $30,000 P42612016 4/20/2012
4900007847 426-12-038-3 - WTC Transportation Hub Structural Steel & NDT Services MACTEC ENGINEERING AND CONSULTING, P.C. JACKSONVILLE FL $250,000 P42612038 4/12/2012
4900007840 415-12-110-5 - WTC On-Site Support for Incidental Soil Disposal ATC ASSOCIATES, INC. NEW YORK NY $90,000 P41512110 4/10/2012
4900007820 410-12-031-1 - WTC CAD Technician THE RBA GROUP, INC. PARISIPPANY NJ $175,000 P41012031 4/9/2012
4900007837 415-12-066-2 - WTC Microwave Design RCC CONSULTANTS, INC. WOODBRIDGE NJ $37,250 P41512066 4/9/2012
4900007790 415-12-048-1 - WTC Site Security RICHARD DATTNER & PARTNERS NEW YORK NY $66,250 P41512048 4/6/2012
4900007803 426-12-009-1 - WTC VTC Materials Inspection TUV RHEINLAND INDUSTRIAL SOLUTIONS, INC. ALIQUIPPA PA $100,000 P42612009 4/6/2012
4900007806 426-12-025-1 - WTC Transportation Hub WP #20 KTA-TATOR, INC. PITTSBURGH PA $100,000 P42612025 4/6/2012
4900007807 426-12-025-2 - 1WTC Structural Coating KTA-TATOR, INC. PITTSBURGH PA $80,000 P42612025 4/6/2012
4900007816 426-12-035-2 - WTC Transportation Hub Hall Roof PENNONI ASSOCIATES, INC. EDISON NJ $20,000 P42612035 4/6/2012
4900007817 426-12-035-3 - WTC Transportation Hub Hall Roof PENNONI ASSOCIATES, INC. EDISON NJ $200,000 P42612035 4/6/2012
4900007777 410-12-029-1 - WTC CAD Technician STANTEC CONSULTING GROUP, INC. PORTLAND ME $195,000 P41012029 4/6/2012
4900007752 426-12-027-2 - WTC Site - Testing of Hydraulic OIl Samples EMSL ANALYTICAL, INC. NEW YORK NY $60,000 P42612027 3/28/2012
4900007737 410-12-030-3 WTC Site Survey Party Chief GEOD CORPORATION NEWFOUNDLAND NJ $210,000 P41012030 3/16/2012
4900007714 410-12-030-1 WTC Site Survey Project Coordinator GEOD CORPORATION NEWFOUNDLAND NJ $330,000 P41012030 3/12/2012
4900007715 410-12-030-2 WTC Site Survey Party Chief GEOD CORPORATION NEWFOUNDLAND NJ $260,000 P41012030 3/12/2012
4900007716 410-12-041-1 WTC Site Survey Party Chief HIRANI ENGINEERING & LAND SURVEYING, P.C. JERICHO NY $260,000 P41012041 3/12/2012
4900007717 410-12-041-2 WTC Site Survey Instrument Person HIRANI ENGINEERING & LAND SURVEYING, P.C. JERICHO NY $210,000 P41012041 3/12/2012
4900007718 410-12-028-1 WTC Site Survey Party Chief TECTONIC ENGINEERING & SURVEYING  CONSULTANTS, P.C. MOUNTAINVILLE NY $260,000 P41012028 3/12/2012
4900007719 410-12-028-2 WTC Site Survey Instrument Person TECTONIC ENGINEERING & SURVEYING  CONSULTANTS, P.C. MOUNTAINVILLE NY $210,000 P41012028 3/12/2012
4900007720 410-12-028-3 WTC Site Survey Party Chief TECTONIC ENGINEERING & SURVEYING  CONSULTANTS, P.C. MOUNTAINVILLE NY $260,000 P41012028 3/12/2012
4900007721 410-12-028-4 WTC Site Survey Instrument Person TECTONIC ENGINEERING & SURVEYING  CONSULTANTS, P.C. MOUNTAINVILLE NY $210,000 P41012028 3/12/2012
4900007673 426-12-030-3 WTC Transportation Hub Hall Construction Inspection HAKS ENGINEERS AND LAND SURVEYORS P.C. NEW YORK NY $250,000 P42612030 3/9/2012
4900007674 426-12-030-4 WTC VSC Construction Inspection Svs HAKS ENGINEERS AND LAND SURVEYORS P.C. NEW YORK NY $200,000 P42612030 3/9/2012
4900007680 426-12-036-2 - 1WTC Structural Steel & NDT Testing Svs TUV RHEINLAND INDUSTRIAL SOLUTIONS, INC. ALIQUIPPA PA $150,000 P42612036 3/9/2012
4900007682 426-12-030-2 WTC Concrete Inspection Svs UNIVERSAL TESTING & INSPECTION SERVICES, INC. WEST BABYLON NY $25,000 P42612028 3/9/2012
4900007683 426-12-028-3 WTC Transportation Hub Inspection Svs UNIVERSAL TESTING & INSPECTION SERVICES, INC. WEST BABYLON NY $50,000 P42612028 3/9/2012
4900007684 426-12-028-4 WTC VSC Testing & Inspection Svs UNIVERSAL TESTING & INSPECTION SERVICES, INC. WEST BABYLON NY $50,000 P42612028 3/9/2012
4900007685 426-12-028-5 - 1WTC Concrete Testing Svs UNIVERSAL TESTING & INSPECTION SERVICES, INC. WEST BABYLON NY $25,000 P42612028 3/9/2012
4900007686 426-12-028-6 WTC Transportation Hub Technicians Assistance, Concrete Testing UNIVERSAL TESTING & INSPECTION SERVICES, INC. WEST BABYLON NY $25,000 P42612028 3/9/2012
4900007687 426-12-028 -7 WTC VSC Technicians Assistance, Concrete Testing UNIVERSAL TESTING & INSPECTION SERVICES, INC. WEST BABYLON NY $25,000 P42612028 3/9/2012
4900007657 426-12-038-2  - 1WTC Structural Steel & NDT Testing Svs MACTEC ENGINEERING AND CONSULTING, P.C. JACKSONVILLE FL $100,000 P42612038 3/8/2012
4900007635 426-12-037-2 WTC Transportation Hub Steel Inspection Svs BUREAU VERITAS NORTH AMERICA, INC. DOWNERS GROVE IL $100,000 P42612037 3/5/2012
4900007638 426-12-029-4 WTC Transportation Hub Inspectors Assistance, Structural Steel Erection & Welding Inspections ADVANCE TESTING COMPANY, INC. CAMPBELL HALL NY $100,000 P42612029 3/5/2012
4900007553 426-12-003-2 - WTC Transportation Hub Technicians Assistance - Cement Concrete Testing, Inspections & Core Drilling ADVANCE TESTING COMPANY, INC. CAMPBELL HALL NY $250,000 P42612003 2/29/2012
4900007554 426-12-003-3 - WTC Transportation Hub Precast Plant Inspections ADVANCE TESTING COMPANY, INC. CAMPBELL HALL NY $150,000 P42612003 2/29/2012
4900007555 426-12-003-4 - 1WTC Technicians Assistance - Cement Concrete Testing, Inspections & Core Drilling ADVANCE TESTING COMPANY, INC. CAMPBELL HALL NY $100,000 P42612003 2/29/2012
4900007556 426-12-007-1 - WTC Site Memorial & Museum Materials Testing & Inspections HUGHES ASSOCIATES, INC. BALTIMORE MD $200,000 P42612007 2/29/2012
4900007558 426-12-007-2 - 1WTC Firestopping Inspections  HUGHES ASSOCIATES, INC. BALTIMORE MD $400,000 P42612007 2/29/2012
4900007559 426-12-007-3 - WTC Transportation Hub Firestopping Inspections  HUGHES ASSOCIATES, INC. BALTIMORE MD $150,000 P42612007 2/29/2012
4900007560 426-12-004-1 - 1WTC Technicians Assistance - Cement Concrete Testing, Inspections & Core Drilling TECTONIC ENGINEERING & SURVEYING MOUNTAINVILLE NY $100,000 P42612004 2/29/2012
4900007561 426-12-004-2 - WTC VSC Technicians Assistance - Cement Concrete Testing, Inspections & Core Drilling TECTONIC ENGINEERING & SURVEYING CONSULTANTS, PC MOUNTAINVILLE NY $250,000 P42612004 2/29/2012
4900007562 426-12-004-3 - WTC Transportation Hub Technicians Assistance - Cement Concrete Testing, Inspections & Core Drilling TECTONIC ENGINEERING & SURVEYING CONSULTANTS, PC MOUNTAINVILLE NY $250,000 P42612004 2/29/2012
4900007563 426-12-006-1 - WTC Memorial & Museum Fireproofing Inspections TECTONIC ENGINEERING & SURVEYING CONSULTANTS, PC MOUNTAINVILLE NY $100,000 P42612006 2/29/2012
4900007564 426-12-006-2 - 1WTC Fireproofing Inspections TECTONIC ENGINEERING & SURVEYING CONSULTANTS, PC MOUNTAINVILLE NY $200,000 P42612006 2/29/2012
4900007565 426-12-006-3 - WTC Transportation Hub Fireproofing Inspections TECTONIC ENGINEERING & SURVEYING CONSULTANTS, PC MOUNTAINVILLE NY $200,000 P42612006 2/29/2012
4900007572 426-12-011-1 - 1WTC Masonry Construction Inspections HAKS ENGINEERS AND LAND SURVEYORS P.C. NEW YORK NY $150,000 P42612011 2/29/2012
4900007573 426-12-011-2 - WTC Memorial & Museum Masonry Construction Inspections HAKS ENGINEERS AND LAND SURVEYORS P.C. NEW YORK NY $50,000 P42612011 2/29/2012
4900007574 426-12-011-3 - WTC Transportation Hub Masonry Construction Inspections HAKS ENGINEERS AND LAND SURVEYORS P.C. NEW YORK NY $150,000 P42612011 2/29/2012
4900007535 426-12-003-1 WTC VSC Cement/Concrete Testing ADVANCE TESTING COMPANY, INC. CAMPBELL HALL NY $200,000 P42612003 2/24/2012
4900007358 426-11-016-12 WTC Transportation Hub Metallurgical Services LUCIUS PITKIN, INC. NEW YORK NY $50,000 P42611016 12/29/2011
4900007330 426-11-014-27 WTC Emergency Cone Penetrometer Testing Adjacent to 1&9 Subway Near VSC CRAIG GEOTECHNICAL DRILLING CO. MAYS LANDING NJ $10,500 P42611014 12/27/2011
4900007332 426-11-016-11 - 1WTC Metallurgical Services LUCIUS PITKIN, INC. NEW YORK NY $15,500 P42611016 12/27/2011
4900007341 426-11-038-10 WTC Transportation Hub Oculus MACTEC ENGINEERING AND CONSULTING, P.C. JACKSONVILLE FL $250,000 P42611038 12/27/2011
4900007321 426-11-025-11 - 1WTC Structural Coating KTA-TATOR, INC. PITTSBURGH PA $35,000 P42611025 12/8/2011
4900007317 426-11-036-7 - 1WTC NDT Services TUV RHEINLAND INDUSTRIAL SOLUTIONS, INC. ALIQUIPPA PA $100,000 P42611036A 12/8/2011
4900007318 426-11-036-8 - 1WTC NDT Services TUV RHEINLAND INDUSTRIAL SOLUTIONS, INC. ALIQUIPPA PA $200,000 P42611036A 12/8/2011
4900007162 426-11-010-5 WTC Transportation Hub Inspection Services KTA-TATOR, INC. PITTSBURGH PA $150,000 P42611010 11/10/2011
4900007163 426-11-038-9 WTC Steel Insp. Svcs. MACTEC ENGINEERING AND CONSULTING, P.C. JACKSONVILLE FL $150,000 P42611038 11/10/2011
4900007164 426-11-036-6 WTC Structural Steel Inspection Services TUV RHEINLAND INDUSTRIAL SOLUTIONS, INC. ALIQUIPPA PA $150,000 P42611036A 11/10/2011
4500062818 DEV-11-007 WTC Property Management Facility PERKINS EASTMAN ARCHITECTS, P.C. NEW YORK NY $1,224,273 PDEV11007 10/20/2011
4900007103 426-11-035-9 WTC VSC Structural Steel & NDT Services PENNONI ASSOCIATES, INC. EDISON NJ $100,000 P42611035 10/14/2011
4900007100 426-11-037-6 - 1WTC Structural Steel Inspection BUREAU VERITAS NORTH AMERICA, INC. DOWNERS GROVE IL $100,000 P42611037 10/14/2011
4900007077 415-11-066-6 PAPD Radio Coverage Extension to WTC Memorial RCC CONSULTANTS, INC. WOODBRIDGE NJ $5,000 P41511066 9/30/2011
4900007070 410-11-025-2 WTC Construction Monitoring CSG# 211-185 T.Y. LIN INTERNATIONAL HACKETTSTOWN NJ $341,000 P41011025 9/28/2011
4900007060 426-11-037-4 WTC Transportation Hub Structural Steel Inspection BUREAU VERITAS NORTH AMERICA, INC. DOWNERS GROVE IL $100,000 P42611037 9/23/2011
4900007061 426-11-010-4 WTC Material Testing & Inspection Services KTA-TATOR, INC. PITTSBURGH PA $150,000 P42611010 9/23/2011
4500062708 DEV-11-060-1 - 4 WTC Advisory Services JONES LANG LASALLE NEW YORK NY $484,000 PDEV11060 9/21/2011
4900007029 410-11-029-7 WTC Memorial Boundary Survey CSG #211-2 STANTEC CONSULTING GROUP, INC. PORTLAND ME $15,000 P41011029 9/19/2011
4900007002 415-08-303-12 - 1WTC LLC - Test Pit Program - Archaeological Monitoring THE LOUIS BERGER GROUP, INC. MORRISTOWN NJ $24,646 P41508303 9/8/2011
4900006986 410-11-029-5 - 1WTC Survey Update STANTEC CONSULTING GROUP, INC. PORTLAND ME $10,000 P41011029 9/2/2011
4900006991 426-11-035-8 WTC Transportation Hub Structural Steel Inspection & NDT Services PENNONI ASSOCIATES, INC. CEDAR KNOLLS NJ $400,000 P42611035 9/2/2011
4900006953 426-11-006-3 WTC Transportation Hub Fireproofing Inspection TECTONIC ENGINEERING & SURVEYING CONSULTANTS, P.C. MOUNTAINVILLE NY $150,000 P42611006 8/24/2011
4900006954 426-11-036A-5 WTC VSC Steel Inspection TUV RHEINLAND INDUSTRIAL SOLUTIONS, INC. ALIQUIPPA PA $50,000 P42611036A 8/24/2011
4900006960 426-11-038-7 WTC Transportation Hub Structural Steel & NDT Inspection MACTEC ENGINEERING AND CONSULTING, P.C. JACKSONVILLE FL $100,000 P42611038 8/24/2011
4900006945 415-11-009-1 WTC Site Support of Construction Division W/O #11 CROXTON